<?xml version="1.0" encoding="UTF-8" standalone="no" ?>
<gpx xmlns="http://www.topografix.com/GPX/1/1" xmlns:xsi="http://www.w3.org/2001/XMLSchema-instance" xsi:schemaLocation="http://www.topografix.com/GPX/1/1 http://www.topografix.com/GPX/1/1/gpx.xsd" version="1.1" creator="VisuGPX - https://www.visugpx.com">
  <metadata>
    <name>Le Vénéon 2023 - J2/6</name>
    <desc><![CDATA[Vénéon 2023-J2]]></desc>
  </metadata>
  <trk>
    <name><![CDATA[24/07/2023 08:27]]></name>
    <trkseg>
      <trkpt lat="44.94476" lon="6.17417">
        <ele>1849.4</ele>
        <time>2023-07-24T06:27:14Z</time>
      </trkpt>
      <trkpt lat="44.94476" lon="6.17417">
        <ele>1849.4</ele>
        <time>2023-07-24T06:27:28Z</time>
      </trkpt>
      <trkpt lat="44.94481" lon="6.17414">
        <ele>1857.8</ele>
        <time>2023-07-24T06:38:50Z</time>
      </trkpt>
      <trkpt lat="44.94482" lon="6.17417">
        <ele>1857.1</ele>
        <time>2023-07-24T06:38:57Z</time>
      </trkpt>
      <trkpt lat="44.94482" lon="6.17419">
        <ele>1856.2</ele>
        <time>2023-07-24T06:39:04Z</time>
      </trkpt>
      <trkpt lat="44.94482" lon="6.17419">
        <ele>1856.2</ele>
        <time>2023-07-24T06:39:05Z</time>
      </trkpt>
      <trkpt lat="44.94478" lon="6.17421">
        <ele>1856.8</ele>
        <time>2023-07-24T06:39:22Z</time>
      </trkpt>
      <trkpt lat="44.94474" lon="6.17422">
        <ele>1856.5</ele>
        <time>2023-07-24T06:39:29Z</time>
      </trkpt>
      <trkpt lat="44.94469" lon="6.17427">
        <ele>1853.2</ele>
        <time>2023-07-24T06:39:36Z</time>
      </trkpt>
      <trkpt lat="44.94472" lon="6.17433">
        <ele>1852</ele>
        <time>2023-07-24T06:39:43Z</time>
      </trkpt>
      <trkpt lat="44.94471" lon="6.17436">
        <ele>1850.8</ele>
        <time>2023-07-24T06:39:50Z</time>
      </trkpt>
      <trkpt lat="44.9447" lon="6.17436">
        <ele>1850.1</ele>
        <time>2023-07-24T06:39:57Z</time>
      </trkpt>
      <trkpt lat="44.9447" lon="6.17436">
        <ele>1849.7</ele>
        <time>2023-07-24T06:39:59Z</time>
      </trkpt>
      <trkpt lat="44.94469" lon="6.17437">
        <ele>1848.6</ele>
        <time>2023-07-24T06:40:14Z</time>
      </trkpt>
      <trkpt lat="44.94469" lon="6.17438">
        <ele>1848.9</ele>
        <time>2023-07-24T06:40:15Z</time>
      </trkpt>
      <trkpt lat="44.94469" lon="6.17439">
        <ele>1848.6</ele>
        <time>2023-07-24T06:40:25Z</time>
      </trkpt>
      <trkpt lat="44.94469" lon="6.17439">
        <ele>1848.7</ele>
        <time>2023-07-24T06:40:26Z</time>
      </trkpt>
      <trkpt lat="44.94469" lon="6.17439">
        <ele>1848.7</ele>
        <time>2023-07-24T06:40:45Z</time>
      </trkpt>
      <trkpt lat="44.94469" lon="6.17439">
        <ele>1848.5</ele>
        <time>2023-07-24T06:40:46Z</time>
      </trkpt>
      <trkpt lat="44.94469" lon="6.17441">
        <ele>1849.6</ele>
        <time>2023-07-24T06:40:54Z</time>
      </trkpt>
      <trkpt lat="44.94469" lon="6.17441">
        <ele>1849.6</ele>
        <time>2023-07-24T06:40:55Z</time>
      </trkpt>
      <trkpt lat="44.94469" lon="6.17442">
        <ele>1848.8</ele>
        <time>2023-07-24T06:42:15Z</time>
      </trkpt>
      <trkpt lat="44.94469" lon="6.17442">
        <ele>1848.9</ele>
        <time>2023-07-24T06:42:16Z</time>
      </trkpt>
      <trkpt lat="44.94469" lon="6.17444">
        <ele>1848.3</ele>
        <time>2023-07-24T06:43:52Z</time>
      </trkpt>
      <trkpt lat="44.94469" lon="6.17444">
        <ele>1848.2</ele>
        <time>2023-07-24T06:43:54Z</time>
      </trkpt>
      <trkpt lat="44.94472" lon="6.17443">
        <ele>1848.5</ele>
        <time>2023-07-24T06:44:10Z</time>
      </trkpt>
      <trkpt lat="44.9447" lon="6.17448">
        <ele>1849.5</ele>
        <time>2023-07-24T06:44:17Z</time>
      </trkpt>
      <trkpt lat="44.94467" lon="6.17451">
        <ele>1849.5</ele>
        <time>2023-07-24T06:44:24Z</time>
      </trkpt>
      <trkpt lat="44.94465" lon="6.17452">
        <ele>1848.7</ele>
        <time>2023-07-24T06:44:31Z</time>
      </trkpt>
      <trkpt lat="44.94465" lon="6.17452">
        <ele>1849.2</ele>
        <time>2023-07-24T06:44:34Z</time>
      </trkpt>
      <trkpt lat="44.94464" lon="6.17452">
        <ele>1849.5</ele>
        <time>2023-07-24T06:44:46Z</time>
      </trkpt>
      <trkpt lat="44.94464" lon="6.17452">
        <ele>1849.6</ele>
        <time>2023-07-24T06:44:47Z</time>
      </trkpt>
      <trkpt lat="44.94463" lon="6.17459">
        <ele>1847</ele>
        <time>2023-07-24T06:45:01Z</time>
      </trkpt>
      <trkpt lat="44.9446" lon="6.17461">
        <ele>1848.3</ele>
        <time>2023-07-24T06:45:08Z</time>
      </trkpt>
      <trkpt lat="44.94459" lon="6.17464">
        <ele>1847.6</ele>
        <time>2023-07-24T06:45:15Z</time>
      </trkpt>
      <trkpt lat="44.94459" lon="6.17464">
        <ele>1848</ele>
        <time>2023-07-24T06:45:19Z</time>
      </trkpt>
      <trkpt lat="44.94459" lon="6.17472">
        <ele>1850.5</ele>
        <time>2023-07-24T06:45:28Z</time>
      </trkpt>
      <trkpt lat="44.94456" lon="6.17475">
        <ele>1850.4</ele>
        <time>2023-07-24T06:45:35Z</time>
      </trkpt>
      <trkpt lat="44.94451" lon="6.1748">
        <ele>1850.6</ele>
        <time>2023-07-24T06:45:42Z</time>
      </trkpt>
      <trkpt lat="44.94451" lon="6.17477">
        <ele>1851.1</ele>
        <time>2023-07-24T06:45:49Z</time>
      </trkpt>
      <trkpt lat="44.94449" lon="6.17479">
        <ele>1851.8</ele>
        <time>2023-07-24T06:45:56Z</time>
      </trkpt>
      <trkpt lat="44.94449" lon="6.1748">
        <ele>1852.4</ele>
        <time>2023-07-24T06:46:03Z</time>
      </trkpt>
      <trkpt lat="44.94449" lon="6.1748">
        <ele>1852.5</ele>
        <time>2023-07-24T06:46:05Z</time>
      </trkpt>
      <trkpt lat="44.94448" lon="6.17483">
        <ele>1853.1</ele>
        <time>2023-07-24T06:46:15Z</time>
      </trkpt>
      <trkpt lat="44.94448" lon="6.17483">
        <ele>1852.4</ele>
        <time>2023-07-24T06:46:21Z</time>
      </trkpt>
      <trkpt lat="44.94446" lon="6.17484">
        <ele>1852.6</ele>
        <time>2023-07-24T06:46:29Z</time>
      </trkpt>
      <trkpt lat="44.94446" lon="6.17484">
        <ele>1852.3</ele>
        <time>2023-07-24T06:46:33Z</time>
      </trkpt>
      <trkpt lat="44.94443" lon="6.17486">
        <ele>1853</ele>
        <time>2023-07-24T06:46:40Z</time>
      </trkpt>
      <trkpt lat="44.94443" lon="6.17486">
        <ele>1853.2</ele>
        <time>2023-07-24T06:46:46Z</time>
      </trkpt>
      <trkpt lat="44.94438" lon="6.17485">
        <ele>1854.3</ele>
        <time>2023-07-24T06:46:53Z</time>
      </trkpt>
      <trkpt lat="44.94438" lon="6.17486">
        <ele>1855.5</ele>
        <time>2023-07-24T06:46:59Z</time>
      </trkpt>
      <trkpt lat="44.94437" lon="6.17486">
        <ele>1853.2</ele>
        <time>2023-07-24T06:47:18Z</time>
      </trkpt>
      <trkpt lat="44.94437" lon="6.17486">
        <ele>1853.1</ele>
        <time>2023-07-24T06:47:19Z</time>
      </trkpt>
      <trkpt lat="44.94435" lon="6.1749">
        <ele>1850.6</ele>
        <time>2023-07-24T06:47:39Z</time>
      </trkpt>
      <trkpt lat="44.94432" lon="6.17491">
        <ele>1850</ele>
        <time>2023-07-24T06:47:46Z</time>
      </trkpt>
      <trkpt lat="44.94432" lon="6.17491">
        <ele>1850</ele>
        <time>2023-07-24T06:47:51Z</time>
      </trkpt>
      <trkpt lat="44.94431" lon="6.17496">
        <ele>1846.6</ele>
        <time>2023-07-24T06:48:06Z</time>
      </trkpt>
      <trkpt lat="44.9443" lon="6.17496">
        <ele>1847.2</ele>
        <time>2023-07-24T06:48:11Z</time>
      </trkpt>
      <trkpt lat="44.9443" lon="6.17496">
        <ele>1845.4</ele>
        <time>2023-07-24T06:48:19Z</time>
      </trkpt>
      <trkpt lat="44.9443" lon="6.17496">
        <ele>1845.6</ele>
        <time>2023-07-24T06:48:20Z</time>
      </trkpt>
      <trkpt lat="44.94426" lon="6.17503">
        <ele>1844</ele>
        <time>2023-07-24T06:48:30Z</time>
      </trkpt>
      <trkpt lat="44.94421" lon="6.17509">
        <ele>1845.2</ele>
        <time>2023-07-24T06:48:37Z</time>
      </trkpt>
      <trkpt lat="44.94417" lon="6.17509">
        <ele>1846.6</ele>
        <time>2023-07-24T06:48:44Z</time>
      </trkpt>
      <trkpt lat="44.94416" lon="6.17511">
        <ele>1846</ele>
        <time>2023-07-24T06:48:51Z</time>
      </trkpt>
      <trkpt lat="44.94415" lon="6.1751">
        <ele>1846.6</ele>
        <time>2023-07-24T06:48:58Z</time>
      </trkpt>
      <trkpt lat="44.94413" lon="6.17512">
        <ele>1846.7</ele>
        <time>2023-07-24T06:49:05Z</time>
      </trkpt>
      <trkpt lat="44.94413" lon="6.17517">
        <ele>1845.5</ele>
        <time>2023-07-24T06:49:12Z</time>
      </trkpt>
      <trkpt lat="44.94413" lon="6.17519">
        <ele>1845.7</ele>
        <time>2023-07-24T06:49:19Z</time>
      </trkpt>
      <trkpt lat="44.94413" lon="6.17524">
        <ele>1845.3</ele>
        <time>2023-07-24T06:49:26Z</time>
      </trkpt>
      <trkpt lat="44.94413" lon="6.1753">
        <ele>1845.8</ele>
        <time>2023-07-24T06:49:33Z</time>
      </trkpt>
      <trkpt lat="44.94411" lon="6.17534">
        <ele>1844.8</ele>
        <time>2023-07-24T06:49:40Z</time>
      </trkpt>
      <trkpt lat="44.94406" lon="6.17536">
        <ele>1846.4</ele>
        <time>2023-07-24T06:49:47Z</time>
      </trkpt>
      <trkpt lat="44.94404" lon="6.1754">
        <ele>1845.6</ele>
        <time>2023-07-24T06:49:54Z</time>
      </trkpt>
      <trkpt lat="44.94398" lon="6.17542">
        <ele>1846.8</ele>
        <time>2023-07-24T06:50:01Z</time>
      </trkpt>
      <trkpt lat="44.94393" lon="6.17543">
        <ele>1845.4</ele>
        <time>2023-07-24T06:50:08Z</time>
      </trkpt>
      <trkpt lat="44.94388" lon="6.17547">
        <ele>1846.4</ele>
        <time>2023-07-24T06:50:15Z</time>
      </trkpt>
      <trkpt lat="44.94384" lon="6.17553">
        <ele>1847.7</ele>
        <time>2023-07-24T06:50:22Z</time>
      </trkpt>
      <trkpt lat="44.94383" lon="6.17556">
        <ele>1850.1</ele>
        <time>2023-07-24T06:50:29Z</time>
      </trkpt>
      <trkpt lat="44.9438" lon="6.17552">
        <ele>1848.2</ele>
        <time>2023-07-24T06:50:36Z</time>
      </trkpt>
      <trkpt lat="44.94377" lon="6.17556">
        <ele>1847.7</ele>
        <time>2023-07-24T06:50:43Z</time>
      </trkpt>
      <trkpt lat="44.94373" lon="6.17554">
        <ele>1848.6</ele>
        <time>2023-07-24T06:50:50Z</time>
      </trkpt>
      <trkpt lat="44.94371" lon="6.17561">
        <ele>1845</ele>
        <time>2023-07-24T06:50:57Z</time>
      </trkpt>
      <trkpt lat="44.94366" lon="6.17564">
        <ele>1845.9</ele>
        <time>2023-07-24T06:51:04Z</time>
      </trkpt>
      <trkpt lat="44.9436" lon="6.17566">
        <ele>1844</ele>
        <time>2023-07-24T06:51:11Z</time>
      </trkpt>
      <trkpt lat="44.94355" lon="6.1757">
        <ele>1844.7</ele>
        <time>2023-07-24T06:51:18Z</time>
      </trkpt>
      <trkpt lat="44.9435" lon="6.17574">
        <ele>1843.9</ele>
        <time>2023-07-24T06:51:25Z</time>
      </trkpt>
      <trkpt lat="44.94345" lon="6.17576">
        <ele>1843.2</ele>
        <time>2023-07-24T06:51:32Z</time>
      </trkpt>
      <trkpt lat="44.94342" lon="6.17579">
        <ele>1843.1</ele>
        <time>2023-07-24T06:51:39Z</time>
      </trkpt>
      <trkpt lat="44.94341" lon="6.17577">
        <ele>1842.8</ele>
        <time>2023-07-24T06:51:46Z</time>
      </trkpt>
      <trkpt lat="44.94341" lon="6.17576">
        <ele>1843</ele>
        <time>2023-07-24T06:51:49Z</time>
      </trkpt>
      <trkpt lat="44.94341" lon="6.17577">
        <ele>1843.1</ele>
        <time>2023-07-24T06:51:58Z</time>
      </trkpt>
      <trkpt lat="44.94341" lon="6.17577">
        <ele>1843.1</ele>
        <time>2023-07-24T06:51:59Z</time>
      </trkpt>
      <trkpt lat="44.94335" lon="6.17575">
        <ele>1844.5</ele>
        <time>2023-07-24T06:52:13Z</time>
      </trkpt>
      <trkpt lat="44.94327" lon="6.17576">
        <ele>1845.6</ele>
        <time>2023-07-24T06:52:20Z</time>
      </trkpt>
      <trkpt lat="44.9432" lon="6.1758">
        <ele>1844</ele>
        <time>2023-07-24T06:52:27Z</time>
      </trkpt>
      <trkpt lat="44.94314" lon="6.17587">
        <ele>1847.1</ele>
        <time>2023-07-24T06:52:34Z</time>
      </trkpt>
      <trkpt lat="44.94311" lon="6.17597">
        <ele>1848.8</ele>
        <time>2023-07-24T06:52:41Z</time>
      </trkpt>
      <trkpt lat="44.94308" lon="6.17603">
        <ele>1849.8</ele>
        <time>2023-07-24T06:52:48Z</time>
      </trkpt>
      <trkpt lat="44.94304" lon="6.17604">
        <ele>1849.5</ele>
        <time>2023-07-24T06:52:55Z</time>
      </trkpt>
      <trkpt lat="44.94299" lon="6.17604">
        <ele>1847.5</ele>
        <time>2023-07-24T06:53:02Z</time>
      </trkpt>
      <trkpt lat="44.94295" lon="6.17606">
        <ele>1847.8</ele>
        <time>2023-07-24T06:53:09Z</time>
      </trkpt>
      <trkpt lat="44.94292" lon="6.17609">
        <ele>1849.2</ele>
        <time>2023-07-24T06:53:16Z</time>
      </trkpt>
      <trkpt lat="44.94291" lon="6.17613">
        <ele>1849.8</ele>
        <time>2023-07-24T06:53:23Z</time>
      </trkpt>
      <trkpt lat="44.94285" lon="6.17617">
        <ele>1848.4</ele>
        <time>2023-07-24T06:53:30Z</time>
      </trkpt>
      <trkpt lat="44.9428" lon="6.17622">
        <ele>1848.2</ele>
        <time>2023-07-24T06:53:37Z</time>
      </trkpt>
      <trkpt lat="44.94275" lon="6.17627">
        <ele>1847.3</ele>
        <time>2023-07-24T06:53:44Z</time>
      </trkpt>
      <trkpt lat="44.94268" lon="6.17633">
        <ele>1848.1</ele>
        <time>2023-07-24T06:53:51Z</time>
      </trkpt>
      <trkpt lat="44.94263" lon="6.17637">
        <ele>1849.1</ele>
        <time>2023-07-24T06:53:58Z</time>
      </trkpt>
      <trkpt lat="44.9426" lon="6.17637">
        <ele>1848.9</ele>
        <time>2023-07-24T06:54:05Z</time>
      </trkpt>
      <trkpt lat="44.94254" lon="6.17639">
        <ele>1848.5</ele>
        <time>2023-07-24T06:54:12Z</time>
      </trkpt>
      <trkpt lat="44.94247" lon="6.17639">
        <ele>1848.9</ele>
        <time>2023-07-24T06:54:19Z</time>
      </trkpt>
      <trkpt lat="44.94246" lon="6.17647">
        <ele>1850.2</ele>
        <time>2023-07-24T06:54:26Z</time>
      </trkpt>
      <trkpt lat="44.94246" lon="6.17657">
        <ele>1853</ele>
        <time>2023-07-24T06:54:33Z</time>
      </trkpt>
      <trkpt lat="44.94241" lon="6.17658">
        <ele>1850.7</ele>
        <time>2023-07-24T06:54:40Z</time>
      </trkpt>
      <trkpt lat="44.94233" lon="6.17661">
        <ele>1849.9</ele>
        <time>2023-07-24T06:54:47Z</time>
      </trkpt>
      <trkpt lat="44.94228" lon="6.17661">
        <ele>1849.3</ele>
        <time>2023-07-24T06:54:54Z</time>
      </trkpt>
      <trkpt lat="44.94222" lon="6.1766">
        <ele>1848.6</ele>
        <time>2023-07-24T06:55:01Z</time>
      </trkpt>
      <trkpt lat="44.9422" lon="6.17666">
        <ele>1848.8</ele>
        <time>2023-07-24T06:55:08Z</time>
      </trkpt>
      <trkpt lat="44.94214" lon="6.17669">
        <ele>1847.8</ele>
        <time>2023-07-24T06:55:15Z</time>
      </trkpt>
      <trkpt lat="44.94212" lon="6.17669">
        <ele>1849.1</ele>
        <time>2023-07-24T06:55:22Z</time>
      </trkpt>
      <trkpt lat="44.94205" lon="6.17674">
        <ele>1849.2</ele>
        <time>2023-07-24T06:55:29Z</time>
      </trkpt>
      <trkpt lat="44.942" lon="6.17674">
        <ele>1848.5</ele>
        <time>2023-07-24T06:55:36Z</time>
      </trkpt>
      <trkpt lat="44.94195" lon="6.17682">
        <ele>1844.9</ele>
        <time>2023-07-24T06:55:43Z</time>
      </trkpt>
      <trkpt lat="44.94191" lon="6.1769">
        <ele>1845.1</ele>
        <time>2023-07-24T06:55:50Z</time>
      </trkpt>
      <trkpt lat="44.94186" lon="6.17695">
        <ele>1844.8</ele>
        <time>2023-07-24T06:55:57Z</time>
      </trkpt>
      <trkpt lat="44.9418" lon="6.17692">
        <ele>1846.5</ele>
        <time>2023-07-24T06:56:04Z</time>
      </trkpt>
      <trkpt lat="44.94174" lon="6.17692">
        <ele>1845.4</ele>
        <time>2023-07-24T06:56:11Z</time>
      </trkpt>
      <trkpt lat="44.9417" lon="6.177">
        <ele>1840.8</ele>
        <time>2023-07-24T06:56:18Z</time>
      </trkpt>
      <trkpt lat="44.94168" lon="6.17705">
        <ele>1840.7</ele>
        <time>2023-07-24T06:56:25Z</time>
      </trkpt>
      <trkpt lat="44.94164" lon="6.17712">
        <ele>1842.5</ele>
        <time>2023-07-24T06:56:32Z</time>
      </trkpt>
      <trkpt lat="44.94162" lon="6.17717">
        <ele>1842.8</ele>
        <time>2023-07-24T06:56:39Z</time>
      </trkpt>
      <trkpt lat="44.94156" lon="6.17714">
        <ele>1842.1</ele>
        <time>2023-07-24T06:56:46Z</time>
      </trkpt>
      <trkpt lat="44.94155" lon="6.17714">
        <ele>1845.8</ele>
        <time>2023-07-24T06:56:53Z</time>
      </trkpt>
      <trkpt lat="44.9415" lon="6.17718">
        <ele>1843.8</ele>
        <time>2023-07-24T06:57:00Z</time>
      </trkpt>
      <trkpt lat="44.94144" lon="6.17722">
        <ele>1843.1</ele>
        <time>2023-07-24T06:57:07Z</time>
      </trkpt>
      <trkpt lat="44.9414" lon="6.17724">
        <ele>1847.8</ele>
        <time>2023-07-24T06:57:14Z</time>
      </trkpt>
      <trkpt lat="44.94138" lon="6.17731">
        <ele>1850</ele>
        <time>2023-07-24T06:57:21Z</time>
      </trkpt>
      <trkpt lat="44.94133" lon="6.17734">
        <ele>1851</ele>
        <time>2023-07-24T06:57:28Z</time>
      </trkpt>
      <trkpt lat="44.94131" lon="6.17744">
        <ele>1848.8</ele>
        <time>2023-07-24T06:57:34Z</time>
      </trkpt>
      <trkpt lat="44.94127" lon="6.17751">
        <ele>1851.2</ele>
        <time>2023-07-24T06:57:41Z</time>
      </trkpt>
      <trkpt lat="44.94123" lon="6.17753">
        <ele>1851.5</ele>
        <time>2023-07-24T06:57:48Z</time>
      </trkpt>
      <trkpt lat="44.94117" lon="6.17757">
        <ele>1848.9</ele>
        <time>2023-07-24T06:57:55Z</time>
      </trkpt>
      <trkpt lat="44.94111" lon="6.17761">
        <ele>1849.8</ele>
        <time>2023-07-24T06:58:02Z</time>
      </trkpt>
      <trkpt lat="44.94106" lon="6.17765">
        <ele>1850.5</ele>
        <time>2023-07-24T06:58:09Z</time>
      </trkpt>
      <trkpt lat="44.94101" lon="6.17771">
        <ele>1850.4</ele>
        <time>2023-07-24T06:58:16Z</time>
      </trkpt>
      <trkpt lat="44.94095" lon="6.17776">
        <ele>1851.7</ele>
        <time>2023-07-24T06:58:23Z</time>
      </trkpt>
      <trkpt lat="44.94088" lon="6.17779">
        <ele>1849.4</ele>
        <time>2023-07-24T06:58:30Z</time>
      </trkpt>
      <trkpt lat="44.94083" lon="6.17782">
        <ele>1847.2</ele>
        <time>2023-07-24T06:58:37Z</time>
      </trkpt>
      <trkpt lat="44.94078" lon="6.17789">
        <ele>1847.5</ele>
        <time>2023-07-24T06:58:44Z</time>
      </trkpt>
      <trkpt lat="44.94072" lon="6.17793">
        <ele>1848.9</ele>
        <time>2023-07-24T06:58:51Z</time>
      </trkpt>
      <trkpt lat="44.94066" lon="6.17794">
        <ele>1850.4</ele>
        <time>2023-07-24T06:58:58Z</time>
      </trkpt>
      <trkpt lat="44.94061" lon="6.17798">
        <ele>1850.5</ele>
        <time>2023-07-24T06:59:05Z</time>
      </trkpt>
      <trkpt lat="44.94056" lon="6.17799">
        <ele>1850.9</ele>
        <time>2023-07-24T06:59:12Z</time>
      </trkpt>
      <trkpt lat="44.94054" lon="6.17801">
        <ele>1850.3</ele>
        <time>2023-07-24T06:59:19Z</time>
      </trkpt>
      <trkpt lat="44.94054" lon="6.17803">
        <ele>1850.5</ele>
        <time>2023-07-24T06:59:26Z</time>
      </trkpt>
      <trkpt lat="44.94054" lon="6.17803">
        <ele>1850.3</ele>
        <time>2023-07-24T06:59:27Z</time>
      </trkpt>
      <trkpt lat="44.9405" lon="6.17807">
        <ele>1850.9</ele>
        <time>2023-07-24T07:01:02Z</time>
      </trkpt>
      <trkpt lat="44.94047" lon="6.17809">
        <ele>1853</ele>
        <time>2023-07-24T07:01:09Z</time>
      </trkpt>
      <trkpt lat="44.94042" lon="6.17809">
        <ele>1855.1</ele>
        <time>2023-07-24T07:01:16Z</time>
      </trkpt>
      <trkpt lat="44.94038" lon="6.17807">
        <ele>1857.4</ele>
        <time>2023-07-24T07:01:23Z</time>
      </trkpt>
      <trkpt lat="44.94032" lon="6.1781">
        <ele>1857.3</ele>
        <time>2023-07-24T07:01:30Z</time>
      </trkpt>
      <trkpt lat="44.94027" lon="6.17814">
        <ele>1857.1</ele>
        <time>2023-07-24T07:01:37Z</time>
      </trkpt>
      <trkpt lat="44.94023" lon="6.1782">
        <ele>1855.8</ele>
        <time>2023-07-24T07:01:44Z</time>
      </trkpt>
      <trkpt lat="44.94019" lon="6.1783">
        <ele>1855.2</ele>
        <time>2023-07-24T07:01:51Z</time>
      </trkpt>
      <trkpt lat="44.94015" lon="6.17836">
        <ele>1856.3</ele>
        <time>2023-07-24T07:01:58Z</time>
      </trkpt>
      <trkpt lat="44.9401" lon="6.17843">
        <ele>1857.3</ele>
        <time>2023-07-24T07:02:05Z</time>
      </trkpt>
      <trkpt lat="44.94004" lon="6.17849">
        <ele>1856.6</ele>
        <time>2023-07-24T07:02:12Z</time>
      </trkpt>
      <trkpt lat="44.94" lon="6.17852">
        <ele>1857</ele>
        <time>2023-07-24T07:02:19Z</time>
      </trkpt>
      <trkpt lat="44.93994" lon="6.17853">
        <ele>1858.4</ele>
        <time>2023-07-24T07:02:26Z</time>
      </trkpt>
      <trkpt lat="44.93986" lon="6.17854">
        <ele>1861.7</ele>
        <time>2023-07-24T07:02:33Z</time>
      </trkpt>
      <trkpt lat="44.93981" lon="6.17856">
        <ele>1859.3</ele>
        <time>2023-07-24T07:02:40Z</time>
      </trkpt>
      <trkpt lat="44.93981" lon="6.17865">
        <ele>1859.9</ele>
        <time>2023-07-24T07:02:47Z</time>
      </trkpt>
      <trkpt lat="44.93979" lon="6.17872">
        <ele>1859</ele>
        <time>2023-07-24T07:02:54Z</time>
      </trkpt>
      <trkpt lat="44.93974" lon="6.17876">
        <ele>1857.5</ele>
        <time>2023-07-24T07:03:01Z</time>
      </trkpt>
      <trkpt lat="44.93971" lon="6.17878">
        <ele>1858.2</ele>
        <time>2023-07-24T07:03:08Z</time>
      </trkpt>
      <trkpt lat="44.93966" lon="6.17881">
        <ele>1857.3</ele>
        <time>2023-07-24T07:03:15Z</time>
      </trkpt>
      <trkpt lat="44.93962" lon="6.17885">
        <ele>1857.1</ele>
        <time>2023-07-24T07:03:22Z</time>
      </trkpt>
      <trkpt lat="44.93962" lon="6.17886">
        <ele>1859.5</ele>
        <time>2023-07-24T07:03:29Z</time>
      </trkpt>
      <trkpt lat="44.93961" lon="6.17893">
        <ele>1857.4</ele>
        <time>2023-07-24T07:03:36Z</time>
      </trkpt>
      <trkpt lat="44.93958" lon="6.179">
        <ele>1856.8</ele>
        <time>2023-07-24T07:03:43Z</time>
      </trkpt>
      <trkpt lat="44.93955" lon="6.17906">
        <ele>1855.9</ele>
        <time>2023-07-24T07:03:50Z</time>
      </trkpt>
      <trkpt lat="44.9395" lon="6.17908">
        <ele>1855.3</ele>
        <time>2023-07-24T07:03:57Z</time>
      </trkpt>
      <trkpt lat="44.93947" lon="6.17912">
        <ele>1856.1</ele>
        <time>2023-07-24T07:04:04Z</time>
      </trkpt>
      <trkpt lat="44.93943" lon="6.17914">
        <ele>1857</ele>
        <time>2023-07-24T07:04:11Z</time>
      </trkpt>
      <trkpt lat="44.93942" lon="6.17911">
        <ele>1858.8</ele>
        <time>2023-07-24T07:04:18Z</time>
      </trkpt>
      <trkpt lat="44.93936" lon="6.17911">
        <ele>1859.1</ele>
        <time>2023-07-24T07:04:25Z</time>
      </trkpt>
      <trkpt lat="44.93932" lon="6.17908">
        <ele>1858.6</ele>
        <time>2023-07-24T07:04:32Z</time>
      </trkpt>
      <trkpt lat="44.93928" lon="6.17912">
        <ele>1860.8</ele>
        <time>2023-07-24T07:04:39Z</time>
      </trkpt>
      <trkpt lat="44.93924" lon="6.17907">
        <ele>1861</ele>
        <time>2023-07-24T07:04:46Z</time>
      </trkpt>
      <trkpt lat="44.93919" lon="6.17903">
        <ele>1861</ele>
        <time>2023-07-24T07:04:53Z</time>
      </trkpt>
      <trkpt lat="44.93914" lon="6.17902">
        <ele>1863.9</ele>
        <time>2023-07-24T07:05:00Z</time>
      </trkpt>
      <trkpt lat="44.93911" lon="6.17909">
        <ele>1865.7</ele>
        <time>2023-07-24T07:05:07Z</time>
      </trkpt>
      <trkpt lat="44.9391" lon="6.17914">
        <ele>1869.8</ele>
        <time>2023-07-24T07:05:14Z</time>
      </trkpt>
      <trkpt lat="44.93909" lon="6.17915">
        <ele>1870.6</ele>
        <time>2023-07-24T07:05:21Z</time>
      </trkpt>
      <trkpt lat="44.93904" lon="6.17912">
        <ele>1873.4</ele>
        <time>2023-07-24T07:05:28Z</time>
      </trkpt>
      <trkpt lat="44.93904" lon="6.17918">
        <ele>1873.9</ele>
        <time>2023-07-24T07:05:35Z</time>
      </trkpt>
      <trkpt lat="44.93901" lon="6.17926">
        <ele>1872.1</ele>
        <time>2023-07-24T07:05:42Z</time>
      </trkpt>
      <trkpt lat="44.93898" lon="6.1793">
        <ele>1871.9</ele>
        <time>2023-07-24T07:05:49Z</time>
      </trkpt>
      <trkpt lat="44.93895" lon="6.17934">
        <ele>1871.9</ele>
        <time>2023-07-24T07:05:56Z</time>
      </trkpt>
      <trkpt lat="44.93892" lon="6.17937">
        <ele>1873.4</ele>
        <time>2023-07-24T07:06:03Z</time>
      </trkpt>
      <trkpt lat="44.93887" lon="6.17937">
        <ele>1874.1</ele>
        <time>2023-07-24T07:06:10Z</time>
      </trkpt>
      <trkpt lat="44.93883" lon="6.17935">
        <ele>1878.2</ele>
        <time>2023-07-24T07:06:17Z</time>
      </trkpt>
      <trkpt lat="44.93879" lon="6.17936">
        <ele>1879.8</ele>
        <time>2023-07-24T07:06:24Z</time>
      </trkpt>
      <trkpt lat="44.93873" lon="6.17939">
        <ele>1880.7</ele>
        <time>2023-07-24T07:06:31Z</time>
      </trkpt>
      <trkpt lat="44.93868" lon="6.1794">
        <ele>1880.7</ele>
        <time>2023-07-24T07:06:38Z</time>
      </trkpt>
      <trkpt lat="44.93864" lon="6.17936">
        <ele>1881.6</ele>
        <time>2023-07-24T07:06:45Z</time>
      </trkpt>
      <trkpt lat="44.93859" lon="6.17932">
        <ele>1884</ele>
        <time>2023-07-24T07:06:52Z</time>
      </trkpt>
      <trkpt lat="44.93855" lon="6.1794">
        <ele>1882.4</ele>
        <time>2023-07-24T07:06:59Z</time>
      </trkpt>
      <trkpt lat="44.93852" lon="6.17944">
        <ele>1882.4</ele>
        <time>2023-07-24T07:07:06Z</time>
      </trkpt>
      <trkpt lat="44.93848" lon="6.17949">
        <ele>1880.5</ele>
        <time>2023-07-24T07:07:13Z</time>
      </trkpt>
      <trkpt lat="44.93847" lon="6.17955">
        <ele>1882.9</ele>
        <time>2023-07-24T07:07:20Z</time>
      </trkpt>
      <trkpt lat="44.9385" lon="6.17965">
        <ele>1882.6</ele>
        <time>2023-07-24T07:07:25Z</time>
      </trkpt>
      <trkpt lat="44.93852" lon="6.17971">
        <ele>1882.7</ele>
        <time>2023-07-24T07:07:32Z</time>
      </trkpt>
      <trkpt lat="44.93852" lon="6.17976">
        <ele>1882.7</ele>
        <time>2023-07-24T07:07:39Z</time>
      </trkpt>
      <trkpt lat="44.93851" lon="6.17981">
        <ele>1882.8</ele>
        <time>2023-07-24T07:07:46Z</time>
      </trkpt>
      <trkpt lat="44.93847" lon="6.17982">
        <ele>1888.9</ele>
        <time>2023-07-24T07:07:53Z</time>
      </trkpt>
      <trkpt lat="44.93843" lon="6.17982">
        <ele>1886.5</ele>
        <time>2023-07-24T07:08:00Z</time>
      </trkpt>
      <trkpt lat="44.93838" lon="6.17983">
        <ele>1887.3</ele>
        <time>2023-07-24T07:08:07Z</time>
      </trkpt>
      <trkpt lat="44.93835" lon="6.17984">
        <ele>1884.1</ele>
        <time>2023-07-24T07:08:14Z</time>
      </trkpt>
      <trkpt lat="44.93829" lon="6.17984">
        <ele>1885.5</ele>
        <time>2023-07-24T07:08:21Z</time>
      </trkpt>
      <trkpt lat="44.93827" lon="6.17985">
        <ele>1886.1</ele>
        <time>2023-07-24T07:08:28Z</time>
      </trkpt>
      <trkpt lat="44.93826" lon="6.17985">
        <ele>1887.6</ele>
        <time>2023-07-24T07:08:31Z</time>
      </trkpt>
      <trkpt lat="44.93822" lon="6.17984">
        <ele>1887</ele>
        <time>2023-07-24T07:08:39Z</time>
      </trkpt>
      <trkpt lat="44.93815" lon="6.17986">
        <ele>1889.3</ele>
        <time>2023-07-24T07:08:46Z</time>
      </trkpt>
      <trkpt lat="44.93812" lon="6.17991">
        <ele>1891.3</ele>
        <time>2023-07-24T07:08:53Z</time>
      </trkpt>
      <trkpt lat="44.93809" lon="6.17993">
        <ele>1895.3</ele>
        <time>2023-07-24T07:09:00Z</time>
      </trkpt>
      <trkpt lat="44.93805" lon="6.17998">
        <ele>1897.8</ele>
        <time>2023-07-24T07:09:07Z</time>
      </trkpt>
      <trkpt lat="44.938" lon="6.18">
        <ele>1898.9</ele>
        <time>2023-07-24T07:09:14Z</time>
      </trkpt>
      <trkpt lat="44.93795" lon="6.18">
        <ele>1896.6</ele>
        <time>2023-07-24T07:09:21Z</time>
      </trkpt>
      <trkpt lat="44.93795" lon="6.18001">
        <ele>1896.1</ele>
        <time>2023-07-24T07:09:26Z</time>
      </trkpt>
      <trkpt lat="44.93796" lon="6.18003">
        <ele>1894.6</ele>
        <time>2023-07-24T07:09:39Z</time>
      </trkpt>
      <trkpt lat="44.93796" lon="6.18003">
        <ele>1894.6</ele>
        <time>2023-07-24T07:09:40Z</time>
      </trkpt>
      <trkpt lat="44.93796" lon="6.18003">
        <ele>1894.7</ele>
        <time>2023-07-24T07:09:50Z</time>
      </trkpt>
      <trkpt lat="44.93796" lon="6.18003">
        <ele>1894.7</ele>
        <time>2023-07-24T07:09:51Z</time>
      </trkpt>
      <trkpt lat="44.93796" lon="6.18002">
        <ele>1894.2</ele>
        <time>2023-07-24T07:10:01Z</time>
      </trkpt>
      <trkpt lat="44.93796" lon="6.18002">
        <ele>1894.2</ele>
        <time>2023-07-24T07:10:02Z</time>
      </trkpt>
      <trkpt lat="44.93795" lon="6.18">
        <ele>1894</ele>
        <time>2023-07-24T07:10:25Z</time>
      </trkpt>
      <trkpt lat="44.93795" lon="6.18">
        <ele>1894</ele>
        <time>2023-07-24T07:10:26Z</time>
      </trkpt>
      <trkpt lat="44.93795" lon="6.18001">
        <ele>1894.1</ele>
        <time>2023-07-24T07:11:58Z</time>
      </trkpt>
      <trkpt lat="44.93795" lon="6.18001">
        <ele>1894.1</ele>
        <time>2023-07-24T07:11:59Z</time>
      </trkpt>
      <trkpt lat="44.93796" lon="6.18003">
        <ele>1894.3</ele>
        <time>2023-07-24T07:12:54Z</time>
      </trkpt>
      <trkpt lat="44.93796" lon="6.18003">
        <ele>1894.2</ele>
        <time>2023-07-24T07:12:55Z</time>
      </trkpt>
      <trkpt lat="44.93796" lon="6.18004">
        <ele>1893.6</ele>
        <time>2023-07-24T07:13:35Z</time>
      </trkpt>
      <trkpt lat="44.93796" lon="6.18004">
        <ele>1893.6</ele>
        <time>2023-07-24T07:13:36Z</time>
      </trkpt>
      <trkpt lat="44.93795" lon="6.18006">
        <ele>1893.6</ele>
        <time>2023-07-24T07:14:00Z</time>
      </trkpt>
      <trkpt lat="44.93795" lon="6.18006">
        <ele>1893.6</ele>
        <time>2023-07-24T07:14:01Z</time>
      </trkpt>
      <trkpt lat="44.93795" lon="6.18006">
        <ele>1893.7</ele>
        <time>2023-07-24T07:15:24Z</time>
      </trkpt>
      <trkpt lat="44.93795" lon="6.18006">
        <ele>1893.7</ele>
        <time>2023-07-24T07:15:25Z</time>
      </trkpt>
      <trkpt lat="44.93791" lon="6.18005">
        <ele>1893.1</ele>
        <time>2023-07-24T07:16:08Z</time>
      </trkpt>
      <trkpt lat="44.93784" lon="6.18">
        <ele>1896.5</ele>
        <time>2023-07-24T07:16:13Z</time>
      </trkpt>
      <trkpt lat="44.93779" lon="6.17995">
        <ele>1899.9</ele>
        <time>2023-07-24T07:16:20Z</time>
      </trkpt>
      <trkpt lat="44.93776" lon="6.17995">
        <ele>1900.6</ele>
        <time>2023-07-24T07:16:27Z</time>
      </trkpt>
      <trkpt lat="44.93776" lon="6.18">
        <ele>1903</ele>
        <time>2023-07-24T07:16:34Z</time>
      </trkpt>
      <trkpt lat="44.93776" lon="6.18">
        <ele>1903.5</ele>
        <time>2023-07-24T07:16:38Z</time>
      </trkpt>
      <trkpt lat="44.93771" lon="6.18004">
        <ele>1905.9</ele>
        <time>2023-07-24T07:17:08Z</time>
      </trkpt>
      <trkpt lat="44.93767" lon="6.18002">
        <ele>1905</ele>
        <time>2023-07-24T07:17:15Z</time>
      </trkpt>
      <trkpt lat="44.93763" lon="6.18001">
        <ele>1908.4</ele>
        <time>2023-07-24T07:17:22Z</time>
      </trkpt>
      <trkpt lat="44.93758" lon="6.18001">
        <ele>1907.3</ele>
        <time>2023-07-24T07:17:29Z</time>
      </trkpt>
      <trkpt lat="44.93754" lon="6.18">
        <ele>1909.4</ele>
        <time>2023-07-24T07:17:36Z</time>
      </trkpt>
      <trkpt lat="44.93751" lon="6.17999">
        <ele>1911.2</ele>
        <time>2023-07-24T07:17:43Z</time>
      </trkpt>
      <trkpt lat="44.93744" lon="6.18001">
        <ele>1908</ele>
        <time>2023-07-24T07:17:50Z</time>
      </trkpt>
      <trkpt lat="44.93738" lon="6.18001">
        <ele>1909.5</ele>
        <time>2023-07-24T07:17:57Z</time>
      </trkpt>
      <trkpt lat="44.93733" lon="6.18002">
        <ele>1907.2</ele>
        <time>2023-07-24T07:18:04Z</time>
      </trkpt>
      <trkpt lat="44.93727" lon="6.18003">
        <ele>1907.9</ele>
        <time>2023-07-24T07:18:11Z</time>
      </trkpt>
      <trkpt lat="44.93721" lon="6.18007">
        <ele>1904.4</ele>
        <time>2023-07-24T07:18:18Z</time>
      </trkpt>
      <trkpt lat="44.93716" lon="6.18013">
        <ele>1905.4</ele>
        <time>2023-07-24T07:18:25Z</time>
      </trkpt>
      <trkpt lat="44.93709" lon="6.18014">
        <ele>1902.8</ele>
        <time>2023-07-24T07:18:32Z</time>
      </trkpt>
      <trkpt lat="44.93703" lon="6.18021">
        <ele>1901.7</ele>
        <time>2023-07-24T07:18:39Z</time>
      </trkpt>
      <trkpt lat="44.93698" lon="6.18022">
        <ele>1905.9</ele>
        <time>2023-07-24T07:18:46Z</time>
      </trkpt>
      <trkpt lat="44.93693" lon="6.18024">
        <ele>1906.7</ele>
        <time>2023-07-24T07:18:53Z</time>
      </trkpt>
      <trkpt lat="44.93691" lon="6.1803">
        <ele>1908.6</ele>
        <time>2023-07-24T07:19:00Z</time>
      </trkpt>
      <trkpt lat="44.93686" lon="6.18035">
        <ele>1908.5</ele>
        <time>2023-07-24T07:19:07Z</time>
      </trkpt>
      <trkpt lat="44.93682" lon="6.18038">
        <ele>1909.2</ele>
        <time>2023-07-24T07:19:14Z</time>
      </trkpt>
      <trkpt lat="44.93681" lon="6.18038">
        <ele>1911.7</ele>
        <time>2023-07-24T07:19:21Z</time>
      </trkpt>
      <trkpt lat="44.93675" lon="6.1804">
        <ele>1911.9</ele>
        <time>2023-07-24T07:19:28Z</time>
      </trkpt>
      <trkpt lat="44.93669" lon="6.18042">
        <ele>1911.7</ele>
        <time>2023-07-24T07:19:35Z</time>
      </trkpt>
      <trkpt lat="44.93662" lon="6.18045">
        <ele>1911.5</ele>
        <time>2023-07-24T07:19:42Z</time>
      </trkpt>
      <trkpt lat="44.93656" lon="6.18048">
        <ele>1910.9</ele>
        <time>2023-07-24T07:19:49Z</time>
      </trkpt>
      <trkpt lat="44.93652" lon="6.18055">
        <ele>1908.1</ele>
        <time>2023-07-24T07:19:56Z</time>
      </trkpt>
      <trkpt lat="44.93648" lon="6.18059">
        <ele>1904</ele>
        <time>2023-07-24T07:20:03Z</time>
      </trkpt>
      <trkpt lat="44.93641" lon="6.18063">
        <ele>1902</ele>
        <time>2023-07-24T07:20:10Z</time>
      </trkpt>
      <trkpt lat="44.93635" lon="6.18069">
        <ele>1902.3</ele>
        <time>2023-07-24T07:20:17Z</time>
      </trkpt>
      <trkpt lat="44.93629" lon="6.1807">
        <ele>1902.8</ele>
        <time>2023-07-24T07:20:24Z</time>
      </trkpt>
      <trkpt lat="44.93623" lon="6.18073">
        <ele>1901.5</ele>
        <time>2023-07-24T07:20:31Z</time>
      </trkpt>
      <trkpt lat="44.93617" lon="6.18077">
        <ele>1902.4</ele>
        <time>2023-07-24T07:20:38Z</time>
      </trkpt>
      <trkpt lat="44.93611" lon="6.18081">
        <ele>1904.9</ele>
        <time>2023-07-24T07:20:45Z</time>
      </trkpt>
      <trkpt lat="44.93605" lon="6.18083">
        <ele>1904.2</ele>
        <time>2023-07-24T07:20:52Z</time>
      </trkpt>
      <trkpt lat="44.93607" lon="6.18092">
        <ele>1900.7</ele>
        <time>2023-07-24T07:20:59Z</time>
      </trkpt>
      <trkpt lat="44.936" lon="6.18094">
        <ele>1900.7</ele>
        <time>2023-07-24T07:21:06Z</time>
      </trkpt>
      <trkpt lat="44.93595" lon="6.18098">
        <ele>1901.8</ele>
        <time>2023-07-24T07:21:13Z</time>
      </trkpt>
      <trkpt lat="44.93589" lon="6.181">
        <ele>1903.8</ele>
        <time>2023-07-24T07:21:20Z</time>
      </trkpt>
      <trkpt lat="44.93583" lon="6.18103">
        <ele>1903.2</ele>
        <time>2023-07-24T07:21:27Z</time>
      </trkpt>
      <trkpt lat="44.93577" lon="6.1811">
        <ele>1898.7</ele>
        <time>2023-07-24T07:21:34Z</time>
      </trkpt>
      <trkpt lat="44.93571" lon="6.18112">
        <ele>1895.7</ele>
        <time>2023-07-24T07:21:41Z</time>
      </trkpt>
      <trkpt lat="44.93563" lon="6.18111">
        <ele>1894</ele>
        <time>2023-07-24T07:21:48Z</time>
      </trkpt>
      <trkpt lat="44.93557" lon="6.1811">
        <ele>1895.1</ele>
        <time>2023-07-24T07:21:55Z</time>
      </trkpt>
      <trkpt lat="44.93557" lon="6.18109">
        <ele>1894.6</ele>
        <time>2023-07-24T07:22:01Z</time>
      </trkpt>
      <trkpt lat="44.93556" lon="6.18109">
        <ele>1895.1</ele>
        <time>2023-07-24T07:22:12Z</time>
      </trkpt>
      <trkpt lat="44.93551" lon="6.18106">
        <ele>1897.5</ele>
        <time>2023-07-24T07:22:19Z</time>
      </trkpt>
      <trkpt lat="44.93547" lon="6.18107">
        <ele>1899.9</ele>
        <time>2023-07-24T07:22:26Z</time>
      </trkpt>
      <trkpt lat="44.93541" lon="6.18108">
        <ele>1900.4</ele>
        <time>2023-07-24T07:22:33Z</time>
      </trkpt>
      <trkpt lat="44.93534" lon="6.18108">
        <ele>1898.9</ele>
        <time>2023-07-24T07:22:40Z</time>
      </trkpt>
      <trkpt lat="44.93529" lon="6.18106">
        <ele>1897.4</ele>
        <time>2023-07-24T07:22:47Z</time>
      </trkpt>
      <trkpt lat="44.93524" lon="6.1811">
        <ele>1896.1</ele>
        <time>2023-07-24T07:22:54Z</time>
      </trkpt>
      <trkpt lat="44.93519" lon="6.18107">
        <ele>1899.8</ele>
        <time>2023-07-24T07:23:01Z</time>
      </trkpt>
      <trkpt lat="44.93514" lon="6.18106">
        <ele>1894.8</ele>
        <time>2023-07-24T07:23:08Z</time>
      </trkpt>
      <trkpt lat="44.93513" lon="6.18106">
        <ele>1895.1</ele>
        <time>2023-07-24T07:23:15Z</time>
      </trkpt>
      <trkpt lat="44.93513" lon="6.18108">
        <ele>1897.8</ele>
        <time>2023-07-24T07:23:22Z</time>
      </trkpt>
      <trkpt lat="44.93511" lon="6.18108">
        <ele>1898.4</ele>
        <time>2023-07-24T07:23:32Z</time>
      </trkpt>
      <trkpt lat="44.93511" lon="6.18108">
        <ele>1898.1</ele>
        <time>2023-07-24T07:23:33Z</time>
      </trkpt>
      <trkpt lat="44.93511" lon="6.18106">
        <ele>1896.3</ele>
        <time>2023-07-24T07:23:43Z</time>
      </trkpt>
      <trkpt lat="44.93511" lon="6.18106">
        <ele>1896.8</ele>
        <time>2023-07-24T07:23:44Z</time>
      </trkpt>
      <trkpt lat="44.93511" lon="6.18106">
        <ele>1898</ele>
        <time>2023-07-24T07:23:53Z</time>
      </trkpt>
      <trkpt lat="44.93511" lon="6.18106">
        <ele>1898.2</ele>
        <time>2023-07-24T07:23:54Z</time>
      </trkpt>
      <trkpt lat="44.93504" lon="6.18106">
        <ele>1900</ele>
        <time>2023-07-24T07:24:01Z</time>
      </trkpt>
      <trkpt lat="44.93498" lon="6.18108">
        <ele>1900.4</ele>
        <time>2023-07-24T07:24:08Z</time>
      </trkpt>
      <trkpt lat="44.93492" lon="6.1811">
        <ele>1897.8</ele>
        <time>2023-07-24T07:24:15Z</time>
      </trkpt>
      <trkpt lat="44.93487" lon="6.18114">
        <ele>1899.7</ele>
        <time>2023-07-24T07:24:22Z</time>
      </trkpt>
      <trkpt lat="44.93482" lon="6.18115">
        <ele>1900.2</ele>
        <time>2023-07-24T07:24:29Z</time>
      </trkpt>
      <trkpt lat="44.93478" lon="6.18119">
        <ele>1897.6</ele>
        <time>2023-07-24T07:24:36Z</time>
      </trkpt>
      <trkpt lat="44.93471" lon="6.18122">
        <ele>1897.2</ele>
        <time>2023-07-24T07:24:43Z</time>
      </trkpt>
      <trkpt lat="44.93465" lon="6.18124">
        <ele>1897</ele>
        <time>2023-07-24T07:24:50Z</time>
      </trkpt>
      <trkpt lat="44.93459" lon="6.18128">
        <ele>1895.7</ele>
        <time>2023-07-24T07:24:57Z</time>
      </trkpt>
      <trkpt lat="44.93454" lon="6.18131">
        <ele>1895.6</ele>
        <time>2023-07-24T07:25:04Z</time>
      </trkpt>
      <trkpt lat="44.93447" lon="6.18135">
        <ele>1891.5</ele>
        <time>2023-07-24T07:25:11Z</time>
      </trkpt>
      <trkpt lat="44.9344" lon="6.18134">
        <ele>1889.9</ele>
        <time>2023-07-24T07:25:18Z</time>
      </trkpt>
      <trkpt lat="44.93436" lon="6.1813">
        <ele>1891.3</ele>
        <time>2023-07-24T07:25:25Z</time>
      </trkpt>
      <trkpt lat="44.93432" lon="6.1813">
        <ele>1891.6</ele>
        <time>2023-07-24T07:25:32Z</time>
      </trkpt>
      <trkpt lat="44.93426" lon="6.18129">
        <ele>1892.7</ele>
        <time>2023-07-24T07:25:39Z</time>
      </trkpt>
      <trkpt lat="44.93419" lon="6.18128">
        <ele>1889.4</ele>
        <time>2023-07-24T07:25:46Z</time>
      </trkpt>
      <trkpt lat="44.93413" lon="6.18132">
        <ele>1889.9</ele>
        <time>2023-07-24T07:25:53Z</time>
      </trkpt>
      <trkpt lat="44.93406" lon="6.18135">
        <ele>1887.5</ele>
        <time>2023-07-24T07:26:00Z</time>
      </trkpt>
      <trkpt lat="44.93401" lon="6.18135">
        <ele>1887.1</ele>
        <time>2023-07-24T07:26:07Z</time>
      </trkpt>
      <trkpt lat="44.93396" lon="6.18138">
        <ele>1886.4</ele>
        <time>2023-07-24T07:26:14Z</time>
      </trkpt>
      <trkpt lat="44.93392" lon="6.18136">
        <ele>1885.9</ele>
        <time>2023-07-24T07:26:22Z</time>
      </trkpt>
      <trkpt lat="44.93386" lon="6.18135">
        <ele>1885.6</ele>
        <time>2023-07-24T07:26:28Z</time>
      </trkpt>
      <trkpt lat="44.93382" lon="6.18136">
        <ele>1885.5</ele>
        <time>2023-07-24T07:26:35Z</time>
      </trkpt>
      <trkpt lat="44.93375" lon="6.18137">
        <ele>1884.6</ele>
        <time>2023-07-24T07:26:42Z</time>
      </trkpt>
      <trkpt lat="44.93368" lon="6.18138">
        <ele>1885.6</ele>
        <time>2023-07-24T07:26:49Z</time>
      </trkpt>
      <trkpt lat="44.93364" lon="6.18137">
        <ele>1884.1</ele>
        <time>2023-07-24T07:26:56Z</time>
      </trkpt>
      <trkpt lat="44.93358" lon="6.18135">
        <ele>1884.2</ele>
        <time>2023-07-24T07:27:03Z</time>
      </trkpt>
      <trkpt lat="44.93352" lon="6.18134">
        <ele>1886.6</ele>
        <time>2023-07-24T07:27:10Z</time>
      </trkpt>
      <trkpt lat="44.9335" lon="6.18134">
        <ele>1888.1</ele>
        <time>2023-07-24T07:27:17Z</time>
      </trkpt>
      <trkpt lat="44.93344" lon="6.18132">
        <ele>1889.6</ele>
        <time>2023-07-24T07:27:24Z</time>
      </trkpt>
      <trkpt lat="44.93337" lon="6.18129">
        <ele>1890.7</ele>
        <time>2023-07-24T07:27:31Z</time>
      </trkpt>
      <trkpt lat="44.9333" lon="6.18128">
        <ele>1888.2</ele>
        <time>2023-07-24T07:27:37Z</time>
      </trkpt>
      <trkpt lat="44.93322" lon="6.18127">
        <ele>1887.2</ele>
        <time>2023-07-24T07:27:43Z</time>
      </trkpt>
      <trkpt lat="44.93314" lon="6.18122">
        <ele>1885.8</ele>
        <time>2023-07-24T07:27:50Z</time>
      </trkpt>
      <trkpt lat="44.93307" lon="6.18118">
        <ele>1887.4</ele>
        <time>2023-07-24T07:27:56Z</time>
      </trkpt>
      <trkpt lat="44.93299" lon="6.18118">
        <ele>1887.2</ele>
        <time>2023-07-24T07:28:03Z</time>
      </trkpt>
      <trkpt lat="44.93292" lon="6.18118">
        <ele>1885.8</ele>
        <time>2023-07-24T07:28:10Z</time>
      </trkpt>
      <trkpt lat="44.93285" lon="6.18116">
        <ele>1887.5</ele>
        <time>2023-07-24T07:28:17Z</time>
      </trkpt>
      <trkpt lat="44.93278" lon="6.18118">
        <ele>1887.5</ele>
        <time>2023-07-24T07:28:24Z</time>
      </trkpt>
      <trkpt lat="44.93271" lon="6.18117">
        <ele>1884.4</ele>
        <time>2023-07-24T07:28:31Z</time>
      </trkpt>
      <trkpt lat="44.93267" lon="6.18114">
        <ele>1885.8</ele>
        <time>2023-07-24T07:28:38Z</time>
      </trkpt>
      <trkpt lat="44.93264" lon="6.18113">
        <ele>1885.4</ele>
        <time>2023-07-24T07:28:45Z</time>
      </trkpt>
      <trkpt lat="44.93259" lon="6.18115">
        <ele>1885.2</ele>
        <time>2023-07-24T07:28:52Z</time>
      </trkpt>
      <trkpt lat="44.93255" lon="6.18116">
        <ele>1887.7</ele>
        <time>2023-07-24T07:28:59Z</time>
      </trkpt>
      <trkpt lat="44.93249" lon="6.18113">
        <ele>1888.4</ele>
        <time>2023-07-24T07:29:06Z</time>
      </trkpt>
      <trkpt lat="44.93244" lon="6.18113">
        <ele>1888</ele>
        <time>2023-07-24T07:29:13Z</time>
      </trkpt>
      <trkpt lat="44.93239" lon="6.1811">
        <ele>1889.4</ele>
        <time>2023-07-24T07:29:20Z</time>
      </trkpt>
      <trkpt lat="44.93237" lon="6.18111">
        <ele>1887.8</ele>
        <time>2023-07-24T07:29:27Z</time>
      </trkpt>
      <trkpt lat="44.93237" lon="6.18111">
        <ele>1888.9</ele>
        <time>2023-07-24T07:29:30Z</time>
      </trkpt>
      <trkpt lat="44.93236" lon="6.18112">
        <ele>1889.6</ele>
        <time>2023-07-24T07:29:42Z</time>
      </trkpt>
      <trkpt lat="44.93236" lon="6.18111">
        <ele>1889.9</ele>
        <time>2023-07-24T07:29:43Z</time>
      </trkpt>
      <trkpt lat="44.93236" lon="6.18111">
        <ele>1888.9</ele>
        <time>2023-07-24T07:30:10Z</time>
      </trkpt>
      <trkpt lat="44.93236" lon="6.18111">
        <ele>1888.5</ele>
        <time>2023-07-24T07:30:11Z</time>
      </trkpt>
      <trkpt lat="44.93235" lon="6.18111">
        <ele>1887.8</ele>
        <time>2023-07-24T07:30:37Z</time>
      </trkpt>
      <trkpt lat="44.93235" lon="6.18111">
        <ele>1886.4</ele>
        <time>2023-07-24T07:30:43Z</time>
      </trkpt>
      <trkpt lat="44.93235" lon="6.18112">
        <ele>1884.3</ele>
        <time>2023-07-24T07:31:35Z</time>
      </trkpt>
      <trkpt lat="44.93235" lon="6.18112">
        <ele>1884.3</ele>
        <time>2023-07-24T07:31:36Z</time>
      </trkpt>
      <trkpt lat="44.93235" lon="6.18112">
        <ele>1883.6</ele>
        <time>2023-07-24T07:32:28Z</time>
      </trkpt>
      <trkpt lat="44.93235" lon="6.18112">
        <ele>1883.6</ele>
        <time>2023-07-24T07:32:30Z</time>
      </trkpt>
      <trkpt lat="44.93234" lon="6.18111">
        <ele>1884.1</ele>
        <time>2023-07-24T07:32:53Z</time>
      </trkpt>
      <trkpt lat="44.93233" lon="6.18114">
        <ele>1885.7</ele>
        <time>2023-07-24T07:33:00Z</time>
      </trkpt>
      <trkpt lat="44.93233" lon="6.18114">
        <ele>1885.8</ele>
        <time>2023-07-24T07:33:05Z</time>
      </trkpt>
      <trkpt lat="44.93235" lon="6.18116">
        <ele>1888</ele>
        <time>2023-07-24T07:35:40Z</time>
      </trkpt>
      <trkpt lat="44.93235" lon="6.18116">
        <ele>1887.7</ele>
        <time>2023-07-24T07:35:41Z</time>
      </trkpt>
      <trkpt lat="44.93229" lon="6.18114">
        <ele>1888.2</ele>
        <time>2023-07-24T07:36:06Z</time>
      </trkpt>
      <trkpt lat="44.93223" lon="6.18113">
        <ele>1885</ele>
        <time>2023-07-24T07:36:13Z</time>
      </trkpt>
      <trkpt lat="44.93219" lon="6.18109">
        <ele>1886.2</ele>
        <time>2023-07-24T07:36:20Z</time>
      </trkpt>
      <trkpt lat="44.93214" lon="6.18104">
        <ele>1887.1</ele>
        <time>2023-07-24T07:36:27Z</time>
      </trkpt>
      <trkpt lat="44.9321" lon="6.181">
        <ele>1887</ele>
        <time>2023-07-24T07:36:34Z</time>
      </trkpt>
      <trkpt lat="44.93209" lon="6.18105">
        <ele>1885.9</ele>
        <time>2023-07-24T07:36:41Z</time>
      </trkpt>
      <trkpt lat="44.93209" lon="6.18105">
        <ele>1885.4</ele>
        <time>2023-07-24T07:36:44Z</time>
      </trkpt>
      <trkpt lat="44.93203" lon="6.18101">
        <ele>1882.1</ele>
        <time>2023-07-24T07:36:52Z</time>
      </trkpt>
      <trkpt lat="44.93197" lon="6.18102">
        <ele>1884.9</ele>
        <time>2023-07-24T07:36:59Z</time>
      </trkpt>
      <trkpt lat="44.93192" lon="6.181">
        <ele>1885</ele>
        <time>2023-07-24T07:37:06Z</time>
      </trkpt>
      <trkpt lat="44.93188" lon="6.18099">
        <ele>1886.2</ele>
        <time>2023-07-24T07:37:13Z</time>
      </trkpt>
      <trkpt lat="44.93188" lon="6.18103">
        <ele>1886.1</ele>
        <time>2023-07-24T07:37:20Z</time>
      </trkpt>
      <trkpt lat="44.93182" lon="6.18103">
        <ele>1889.3</ele>
        <time>2023-07-24T07:37:27Z</time>
      </trkpt>
      <trkpt lat="44.93176" lon="6.18101">
        <ele>1888.1</ele>
        <time>2023-07-24T07:37:34Z</time>
      </trkpt>
      <trkpt lat="44.93175" lon="6.18103">
        <ele>1890.3</ele>
        <time>2023-07-24T07:37:41Z</time>
      </trkpt>
      <trkpt lat="44.9317" lon="6.18101">
        <ele>1890.8</ele>
        <time>2023-07-24T07:37:48Z</time>
      </trkpt>
      <trkpt lat="44.93166" lon="6.18099">
        <ele>1889</ele>
        <time>2023-07-24T07:37:55Z</time>
      </trkpt>
      <trkpt lat="44.9316" lon="6.18098">
        <ele>1889.8</ele>
        <time>2023-07-24T07:38:02Z</time>
      </trkpt>
      <trkpt lat="44.93154" lon="6.18097">
        <ele>1891.7</ele>
        <time>2023-07-24T07:38:09Z</time>
      </trkpt>
      <trkpt lat="44.93148" lon="6.18097">
        <ele>1892.4</ele>
        <time>2023-07-24T07:38:16Z</time>
      </trkpt>
      <trkpt lat="44.93144" lon="6.18099">
        <ele>1890.2</ele>
        <time>2023-07-24T07:38:23Z</time>
      </trkpt>
      <trkpt lat="44.93146" lon="6.181">
        <ele>1890.3</ele>
        <time>2023-07-24T07:38:30Z</time>
      </trkpt>
      <trkpt lat="44.93146" lon="6.18101">
        <ele>1890.3</ele>
        <time>2023-07-24T07:38:32Z</time>
      </trkpt>
      <trkpt lat="44.93143" lon="6.18106">
        <ele>1891.5</ele>
        <time>2023-07-24T07:38:44Z</time>
      </trkpt>
      <trkpt lat="44.93144" lon="6.18108">
        <ele>1891.5</ele>
        <time>2023-07-24T07:38:51Z</time>
      </trkpt>
      <trkpt lat="44.93144" lon="6.18107">
        <ele>1891.5</ele>
        <time>2023-07-24T07:38:52Z</time>
      </trkpt>
      <trkpt lat="44.93142" lon="6.1811">
        <ele>1891</ele>
        <time>2023-07-24T07:41:00Z</time>
      </trkpt>
      <trkpt lat="44.9314" lon="6.1811">
        <ele>1892.6</ele>
        <time>2023-07-24T07:41:04Z</time>
      </trkpt>
      <trkpt lat="44.93139" lon="6.18112">
        <ele>1892</ele>
        <time>2023-07-24T07:41:12Z</time>
      </trkpt>
      <trkpt lat="44.93139" lon="6.18112">
        <ele>1892</ele>
        <time>2023-07-24T07:41:13Z</time>
      </trkpt>
      <trkpt lat="44.93139" lon="6.18113">
        <ele>1891.4</ele>
        <time>2023-07-24T07:41:55Z</time>
      </trkpt>
      <trkpt lat="44.93139" lon="6.18113">
        <ele>1891.4</ele>
        <time>2023-07-24T07:41:56Z</time>
      </trkpt>
      <trkpt lat="44.93137" lon="6.18115">
        <ele>1891</ele>
        <time>2023-07-24T07:42:30Z</time>
      </trkpt>
      <trkpt lat="44.93137" lon="6.18115">
        <ele>1891.2</ele>
        <time>2023-07-24T07:42:31Z</time>
      </trkpt>
      <trkpt lat="44.93137" lon="6.18116">
        <ele>1890.2</ele>
        <time>2023-07-24T07:42:39Z</time>
      </trkpt>
      <trkpt lat="44.93137" lon="6.1812">
        <ele>1888</ele>
        <time>2023-07-24T07:42:46Z</time>
      </trkpt>
      <trkpt lat="44.93143" lon="6.1812">
        <ele>1887.5</ele>
        <time>2023-07-24T07:42:53Z</time>
      </trkpt>
      <trkpt lat="44.93148" lon="6.18124">
        <ele>1887.3</ele>
        <time>2023-07-24T07:43:00Z</time>
      </trkpt>
      <trkpt lat="44.93148" lon="6.18121">
        <ele>1888.1</ele>
        <time>2023-07-24T07:43:07Z</time>
      </trkpt>
      <trkpt lat="44.9315" lon="6.18122">
        <ele>1889.1</ele>
        <time>2023-07-24T07:43:10Z</time>
      </trkpt>
      <trkpt lat="44.93154" lon="6.18124">
        <ele>1886.9</ele>
        <time>2023-07-24T07:43:19Z</time>
      </trkpt>
      <trkpt lat="44.93157" lon="6.18129">
        <ele>1884.5</ele>
        <time>2023-07-24T07:43:26Z</time>
      </trkpt>
      <trkpt lat="44.93163" lon="6.18131">
        <ele>1879.8</ele>
        <time>2023-07-24T07:43:33Z</time>
      </trkpt>
      <trkpt lat="44.93167" lon="6.18134">
        <ele>1878</ele>
        <time>2023-07-24T07:43:40Z</time>
      </trkpt>
      <trkpt lat="44.9317" lon="6.18133">
        <ele>1877.4</ele>
        <time>2023-07-24T07:43:47Z</time>
      </trkpt>
      <trkpt lat="44.93171" lon="6.1813">
        <ele>1878.1</ele>
        <time>2023-07-24T07:43:54Z</time>
      </trkpt>
      <trkpt lat="44.9317" lon="6.18131">
        <ele>1878.5</ele>
        <time>2023-07-24T07:43:55Z</time>
      </trkpt>
      <trkpt lat="44.93175" lon="6.18134">
        <ele>1876.4</ele>
        <time>2023-07-24T07:44:03Z</time>
      </trkpt>
      <trkpt lat="44.93177" lon="6.18136">
        <ele>1874.3</ele>
        <time>2023-07-24T07:44:10Z</time>
      </trkpt>
      <trkpt lat="44.93179" lon="6.18139">
        <ele>1871.8</ele>
        <time>2023-07-24T07:44:17Z</time>
      </trkpt>
      <trkpt lat="44.93185" lon="6.18143">
        <ele>1871.4</ele>
        <time>2023-07-24T07:44:24Z</time>
      </trkpt>
      <trkpt lat="44.93186" lon="6.18147">
        <ele>1871.1</ele>
        <time>2023-07-24T07:44:31Z</time>
      </trkpt>
      <trkpt lat="44.93188" lon="6.1815">
        <ele>1869.7</ele>
        <time>2023-07-24T07:44:38Z</time>
      </trkpt>
      <trkpt lat="44.93189" lon="6.18151">
        <ele>1867.2</ele>
        <time>2023-07-24T07:44:45Z</time>
      </trkpt>
      <trkpt lat="44.93193" lon="6.18155">
        <ele>1865.8</ele>
        <time>2023-07-24T07:44:53Z</time>
      </trkpt>
      <trkpt lat="44.93199" lon="6.1816">
        <ele>1864.2</ele>
        <time>2023-07-24T07:45:00Z</time>
      </trkpt>
      <trkpt lat="44.93203" lon="6.18166">
        <ele>1863.7</ele>
        <time>2023-07-24T07:45:07Z</time>
      </trkpt>
      <trkpt lat="44.93205" lon="6.1817">
        <ele>1860.8</ele>
        <time>2023-07-24T07:45:14Z</time>
      </trkpt>
      <trkpt lat="44.93206" lon="6.18173">
        <ele>1858.7</ele>
        <time>2023-07-24T07:45:21Z</time>
      </trkpt>
      <trkpt lat="44.93207" lon="6.18176">
        <ele>1855.6</ele>
        <time>2023-07-24T07:45:28Z</time>
      </trkpt>
      <trkpt lat="44.93209" lon="6.1818">
        <ele>1851.5</ele>
        <time>2023-07-24T07:45:35Z</time>
      </trkpt>
      <trkpt lat="44.93215" lon="6.18183">
        <ele>1850.4</ele>
        <time>2023-07-24T07:45:42Z</time>
      </trkpt>
      <trkpt lat="44.93218" lon="6.18183">
        <ele>1851.4</ele>
        <time>2023-07-24T07:45:49Z</time>
      </trkpt>
      <trkpt lat="44.9322" lon="6.18184">
        <ele>1850</ele>
        <time>2023-07-24T07:45:52Z</time>
      </trkpt>
      <trkpt lat="44.93224" lon="6.18187">
        <ele>1846.2</ele>
        <time>2023-07-24T07:46:00Z</time>
      </trkpt>
      <trkpt lat="44.93226" lon="6.1819">
        <ele>1847.5</ele>
        <time>2023-07-24T07:46:07Z</time>
      </trkpt>
      <trkpt lat="44.93228" lon="6.18195">
        <ele>1847.1</ele>
        <time>2023-07-24T07:46:14Z</time>
      </trkpt>
      <trkpt lat="44.93229" lon="6.18197">
        <ele>1848.3</ele>
        <time>2023-07-24T07:46:21Z</time>
      </trkpt>
      <trkpt lat="44.9323" lon="6.18198">
        <ele>1848.1</ele>
        <time>2023-07-24T07:46:23Z</time>
      </trkpt>
      <trkpt lat="44.93231" lon="6.18202">
        <ele>1845.3</ele>
        <time>2023-07-24T07:46:31Z</time>
      </trkpt>
      <trkpt lat="44.93233" lon="6.18199">
        <ele>1844.4</ele>
        <time>2023-07-24T07:46:38Z</time>
      </trkpt>
      <trkpt lat="44.93234" lon="6.18198">
        <ele>1845.8</ele>
        <time>2023-07-24T07:46:44Z</time>
      </trkpt>
      <trkpt lat="44.93235" lon="6.18196">
        <ele>1845.7</ele>
        <time>2023-07-24T07:46:52Z</time>
      </trkpt>
      <trkpt lat="44.93235" lon="6.18196">
        <ele>1845.4</ele>
        <time>2023-07-24T07:46:53Z</time>
      </trkpt>
      <trkpt lat="44.93237" lon="6.18198">
        <ele>1845.8</ele>
        <time>2023-07-24T07:47:15Z</time>
      </trkpt>
      <trkpt lat="44.93239" lon="6.18202">
        <ele>1844.7</ele>
        <time>2023-07-24T07:47:22Z</time>
      </trkpt>
      <trkpt lat="44.93242" lon="6.18204">
        <ele>1844.9</ele>
        <time>2023-07-24T07:47:29Z</time>
      </trkpt>
      <trkpt lat="44.93245" lon="6.18206">
        <ele>1845.1</ele>
        <time>2023-07-24T07:47:36Z</time>
      </trkpt>
      <trkpt lat="44.93247" lon="6.18209">
        <ele>1845</ele>
        <time>2023-07-24T07:47:43Z</time>
      </trkpt>
      <trkpt lat="44.93251" lon="6.18216">
        <ele>1843.7</ele>
        <time>2023-07-24T07:47:50Z</time>
      </trkpt>
      <trkpt lat="44.93253" lon="6.1822">
        <ele>1843.6</ele>
        <time>2023-07-24T07:47:57Z</time>
      </trkpt>
      <trkpt lat="44.93253" lon="6.18218">
        <ele>1843</ele>
        <time>2023-07-24T07:48:04Z</time>
      </trkpt>
      <trkpt lat="44.93253" lon="6.18218">
        <ele>1843.1</ele>
        <time>2023-07-24T07:48:06Z</time>
      </trkpt>
      <trkpt lat="44.93255" lon="6.18221">
        <ele>1841.8</ele>
        <time>2023-07-24T07:48:15Z</time>
      </trkpt>
      <trkpt lat="44.93257" lon="6.18223">
        <ele>1840.2</ele>
        <time>2023-07-24T07:48:22Z</time>
      </trkpt>
      <trkpt lat="44.93256" lon="6.18229">
        <ele>1838.4</ele>
        <time>2023-07-24T07:48:29Z</time>
      </trkpt>
      <trkpt lat="44.93255" lon="6.18232">
        <ele>1836.6</ele>
        <time>2023-07-24T07:48:36Z</time>
      </trkpt>
      <trkpt lat="44.93254" lon="6.18234">
        <ele>1838.2</ele>
        <time>2023-07-24T07:48:43Z</time>
      </trkpt>
      <trkpt lat="44.9325" lon="6.18235">
        <ele>1839.5</ele>
        <time>2023-07-24T07:48:50Z</time>
      </trkpt>
      <trkpt lat="44.93249" lon="6.18237">
        <ele>1837.5</ele>
        <time>2023-07-24T07:48:57Z</time>
      </trkpt>
      <trkpt lat="44.93249" lon="6.18239">
        <ele>1835.3</ele>
        <time>2023-07-24T07:49:02Z</time>
      </trkpt>
      <trkpt lat="44.93252" lon="6.18245">
        <ele>1836.6</ele>
        <time>2023-07-24T07:49:10Z</time>
      </trkpt>
      <trkpt lat="44.93254" lon="6.18246">
        <ele>1833.5</ele>
        <time>2023-07-24T07:49:17Z</time>
      </trkpt>
      <trkpt lat="44.93256" lon="6.18251">
        <ele>1831.5</ele>
        <time>2023-07-24T07:49:24Z</time>
      </trkpt>
      <trkpt lat="44.93258" lon="6.18255">
        <ele>1830.6</ele>
        <time>2023-07-24T07:49:31Z</time>
      </trkpt>
      <trkpt lat="44.93261" lon="6.18257">
        <ele>1829.1</ele>
        <time>2023-07-24T07:49:38Z</time>
      </trkpt>
      <trkpt lat="44.93264" lon="6.18261">
        <ele>1827.2</ele>
        <time>2023-07-24T07:49:45Z</time>
      </trkpt>
      <trkpt lat="44.93267" lon="6.18264">
        <ele>1827.9</ele>
        <time>2023-07-24T07:49:52Z</time>
      </trkpt>
      <trkpt lat="44.93267" lon="6.18268">
        <ele>1826.4</ele>
        <time>2023-07-24T07:49:59Z</time>
      </trkpt>
      <trkpt lat="44.93267" lon="6.18268">
        <ele>1826.4</ele>
        <time>2023-07-24T07:50:06Z</time>
      </trkpt>
      <trkpt lat="44.93267" lon="6.18268">
        <ele>1825.7</ele>
        <time>2023-07-24T07:50:07Z</time>
      </trkpt>
      <trkpt lat="44.93269" lon="6.18263">
        <ele>1832.4</ele>
        <time>2023-07-24T07:50:16Z</time>
      </trkpt>
      <trkpt lat="44.93271" lon="6.18262">
        <ele>1832</ele>
        <time>2023-07-24T07:50:22Z</time>
      </trkpt>
      <trkpt lat="44.93273" lon="6.18262">
        <ele>1831.3</ele>
        <time>2023-07-24T07:50:35Z</time>
      </trkpt>
      <trkpt lat="44.93273" lon="6.18262">
        <ele>1831.3</ele>
        <time>2023-07-24T07:50:36Z</time>
      </trkpt>
      <trkpt lat="44.93275" lon="6.18267">
        <ele>1831.4</ele>
        <time>2023-07-24T07:50:47Z</time>
      </trkpt>
      <trkpt lat="44.93278" lon="6.18272">
        <ele>1828.8</ele>
        <time>2023-07-24T07:50:54Z</time>
      </trkpt>
      <trkpt lat="44.93282" lon="6.18278">
        <ele>1826.4</ele>
        <time>2023-07-24T07:51:01Z</time>
      </trkpt>
      <trkpt lat="44.93285" lon="6.18282">
        <ele>1822</ele>
        <time>2023-07-24T07:51:08Z</time>
      </trkpt>
      <trkpt lat="44.93289" lon="6.18286">
        <ele>1821.3</ele>
        <time>2023-07-24T07:51:15Z</time>
      </trkpt>
      <trkpt lat="44.93292" lon="6.18291">
        <ele>1816.8</ele>
        <time>2023-07-24T07:51:22Z</time>
      </trkpt>
      <trkpt lat="44.93296" lon="6.18297">
        <ele>1815.5</ele>
        <time>2023-07-24T07:51:29Z</time>
      </trkpt>
      <trkpt lat="44.93299" lon="6.18301">
        <ele>1814.5</ele>
        <time>2023-07-24T07:51:36Z</time>
      </trkpt>
      <trkpt lat="44.93301" lon="6.18298">
        <ele>1811.2</ele>
        <time>2023-07-24T07:51:43Z</time>
      </trkpt>
      <trkpt lat="44.93303" lon="6.18298">
        <ele>1812.9</ele>
        <time>2023-07-24T07:51:50Z</time>
      </trkpt>
      <trkpt lat="44.93307" lon="6.183">
        <ele>1809.6</ele>
        <time>2023-07-24T07:51:57Z</time>
      </trkpt>
      <trkpt lat="44.93309" lon="6.183">
        <ele>1812.3</ele>
        <time>2023-07-24T07:52:04Z</time>
      </trkpt>
      <trkpt lat="44.93313" lon="6.18296">
        <ele>1813.1</ele>
        <time>2023-07-24T07:52:11Z</time>
      </trkpt>
      <trkpt lat="44.93314" lon="6.183">
        <ele>1810.2</ele>
        <time>2023-07-24T07:52:18Z</time>
      </trkpt>
      <trkpt lat="44.93318" lon="6.18306">
        <ele>1810.6</ele>
        <time>2023-07-24T07:52:25Z</time>
      </trkpt>
      <trkpt lat="44.93322" lon="6.18311">
        <ele>1811.3</ele>
        <time>2023-07-24T07:52:32Z</time>
      </trkpt>
      <trkpt lat="44.93325" lon="6.18313">
        <ele>1811.2</ele>
        <time>2023-07-24T07:52:39Z</time>
      </trkpt>
      <trkpt lat="44.93328" lon="6.18316">
        <ele>1809.1</ele>
        <time>2023-07-24T07:52:46Z</time>
      </trkpt>
      <trkpt lat="44.93328" lon="6.18322">
        <ele>1809.2</ele>
        <time>2023-07-24T07:52:53Z</time>
      </trkpt>
      <trkpt lat="44.93332" lon="6.18322">
        <ele>1808.4</ele>
        <time>2023-07-24T07:53:00Z</time>
      </trkpt>
      <trkpt lat="44.93334" lon="6.18324">
        <ele>1806.6</ele>
        <time>2023-07-24T07:53:07Z</time>
      </trkpt>
      <trkpt lat="44.93334" lon="6.18324">
        <ele>1805.5</ele>
        <time>2023-07-24T07:53:14Z</time>
      </trkpt>
      <trkpt lat="44.93334" lon="6.18324">
        <ele>1805.5</ele>
        <time>2023-07-24T07:53:15Z</time>
      </trkpt>
      <trkpt lat="44.93333" lon="6.18322">
        <ele>1805.1</ele>
        <time>2023-07-24T07:53:25Z</time>
      </trkpt>
      <trkpt lat="44.93336" lon="6.18322">
        <ele>1803.4</ele>
        <time>2023-07-24T07:53:32Z</time>
      </trkpt>
      <trkpt lat="44.93336" lon="6.18322">
        <ele>1803</ele>
        <time>2023-07-24T07:53:33Z</time>
      </trkpt>
      <trkpt lat="44.93338" lon="6.18327">
        <ele>1800.8</ele>
        <time>2023-07-24T07:53:41Z</time>
      </trkpt>
      <trkpt lat="44.9334" lon="6.18331">
        <ele>1799.7</ele>
        <time>2023-07-24T07:53:48Z</time>
      </trkpt>
      <trkpt lat="44.93341" lon="6.18334">
        <ele>1799.9</ele>
        <time>2023-07-24T07:53:55Z</time>
      </trkpt>
      <trkpt lat="44.93341" lon="6.18338">
        <ele>1801.2</ele>
        <time>2023-07-24T07:54:02Z</time>
      </trkpt>
      <trkpt lat="44.93342" lon="6.18335">
        <ele>1799.2</ele>
        <time>2023-07-24T07:54:09Z</time>
      </trkpt>
      <trkpt lat="44.93342" lon="6.18335">
        <ele>1798.9</ele>
        <time>2023-07-24T07:54:12Z</time>
      </trkpt>
      <trkpt lat="44.93343" lon="6.18335">
        <ele>1798.2</ele>
        <time>2023-07-24T07:54:24Z</time>
      </trkpt>
      <trkpt lat="44.93343" lon="6.18335">
        <ele>1798.3</ele>
        <time>2023-07-24T07:54:26Z</time>
      </trkpt>
      <trkpt lat="44.93344" lon="6.18335">
        <ele>1799.1</ele>
        <time>2023-07-24T07:54:36Z</time>
      </trkpt>
      <trkpt lat="44.93344" lon="6.18334">
        <ele>1799.1</ele>
        <time>2023-07-24T07:54:37Z</time>
      </trkpt>
      <trkpt lat="44.93344" lon="6.18335">
        <ele>1799.2</ele>
        <time>2023-07-24T07:55:21Z</time>
      </trkpt>
      <trkpt lat="44.93344" lon="6.18335">
        <ele>1798.4</ele>
        <time>2023-07-24T07:55:28Z</time>
      </trkpt>
      <trkpt lat="44.93343" lon="6.18333">
        <ele>1798.2</ele>
        <time>2023-07-24T07:55:38Z</time>
      </trkpt>
      <trkpt lat="44.93343" lon="6.18333">
        <ele>1798.2</ele>
        <time>2023-07-24T07:55:39Z</time>
      </trkpt>
      <trkpt lat="44.93344" lon="6.18333">
        <ele>1798.6</ele>
        <time>2023-07-24T07:55:58Z</time>
      </trkpt>
      <trkpt lat="44.93344" lon="6.18333">
        <ele>1798.6</ele>
        <time>2023-07-24T07:55:59Z</time>
      </trkpt>
      <trkpt lat="44.93344" lon="6.18332">
        <ele>1798.9</ele>
        <time>2023-07-24T07:56:14Z</time>
      </trkpt>
      <trkpt lat="44.93344" lon="6.18332">
        <ele>1798.9</ele>
        <time>2023-07-24T07:56:15Z</time>
      </trkpt>
      <trkpt lat="44.93344" lon="6.18331">
        <ele>1798.1</ele>
        <time>2023-07-24T07:56:29Z</time>
      </trkpt>
      <trkpt lat="44.93344" lon="6.18331">
        <ele>1798.1</ele>
        <time>2023-07-24T07:56:30Z</time>
      </trkpt>
      <trkpt lat="44.93344" lon="6.18333">
        <ele>1798.2</ele>
        <time>2023-07-24T07:57:00Z</time>
      </trkpt>
      <trkpt lat="44.93344" lon="6.18333">
        <ele>1798.6</ele>
        <time>2023-07-24T07:57:05Z</time>
      </trkpt>
      <trkpt lat="44.93345" lon="6.18334">
        <ele>1798.3</ele>
        <time>2023-07-24T07:58:17Z</time>
      </trkpt>
      <trkpt lat="44.93345" lon="6.18334">
        <ele>1797.8</ele>
        <time>2023-07-24T07:58:19Z</time>
      </trkpt>
      <trkpt lat="44.93345" lon="6.18334">
        <ele>1798.1</ele>
        <time>2023-07-24T07:59:07Z</time>
      </trkpt>
      <trkpt lat="44.93345" lon="6.18334">
        <ele>1798.1</ele>
        <time>2023-07-24T07:59:09Z</time>
      </trkpt>
      <trkpt lat="44.93345" lon="6.18333">
        <ele>1797.4</ele>
        <time>2023-07-24T07:59:33Z</time>
      </trkpt>
      <trkpt lat="44.93344" lon="6.18334">
        <ele>1798.2</ele>
        <time>2023-07-24T07:59:40Z</time>
      </trkpt>
      <trkpt lat="44.93345" lon="6.18334">
        <ele>1798.3</ele>
        <time>2023-07-24T07:59:41Z</time>
      </trkpt>
      <trkpt lat="44.93345" lon="6.18336">
        <ele>1797.8</ele>
        <time>2023-07-24T07:59:48Z</time>
      </trkpt>
      <trkpt lat="44.93345" lon="6.18337">
        <ele>1799</ele>
        <time>2023-07-24T07:59:55Z</time>
      </trkpt>
      <trkpt lat="44.93345" lon="6.18338">
        <ele>1798.2</ele>
        <time>2023-07-24T08:00:16Z</time>
      </trkpt>
      <trkpt lat="44.93345" lon="6.18338">
        <ele>1798.2</ele>
        <time>2023-07-24T08:00:17Z</time>
      </trkpt>
      <trkpt lat="44.93349" lon="6.18342">
        <ele>1797.8</ele>
        <time>2023-07-24T08:00:27Z</time>
      </trkpt>
      <trkpt lat="44.93352" lon="6.18342">
        <ele>1796.9</ele>
        <time>2023-07-24T08:00:34Z</time>
      </trkpt>
      <trkpt lat="44.93358" lon="6.18345">
        <ele>1797.3</ele>
        <time>2023-07-24T08:00:41Z</time>
      </trkpt>
      <trkpt lat="44.93364" lon="6.1835">
        <ele>1798</ele>
        <time>2023-07-24T08:00:48Z</time>
      </trkpt>
      <trkpt lat="44.93369" lon="6.18353">
        <ele>1792.3</ele>
        <time>2023-07-24T08:00:55Z</time>
      </trkpt>
      <trkpt lat="44.93375" lon="6.18356">
        <ele>1792.9</ele>
        <time>2023-07-24T08:01:02Z</time>
      </trkpt>
      <trkpt lat="44.93376" lon="6.1836">
        <ele>1792.9</ele>
        <time>2023-07-24T08:01:09Z</time>
      </trkpt>
      <trkpt lat="44.93375" lon="6.18366">
        <ele>1789.1</ele>
        <time>2023-07-24T08:01:16Z</time>
      </trkpt>
      <trkpt lat="44.93374" lon="6.1837">
        <ele>1787.3</ele>
        <time>2023-07-24T08:01:23Z</time>
      </trkpt>
      <trkpt lat="44.93373" lon="6.18369">
        <ele>1786.4</ele>
        <time>2023-07-24T08:01:30Z</time>
      </trkpt>
      <trkpt lat="44.93378" lon="6.18373">
        <ele>1790.6</ele>
        <time>2023-07-24T08:01:37Z</time>
      </trkpt>
      <trkpt lat="44.93375" lon="6.18372">
        <ele>1790.7</ele>
        <time>2023-07-24T08:01:44Z</time>
      </trkpt>
      <trkpt lat="44.93371" lon="6.1837">
        <ele>1788.7</ele>
        <time>2023-07-24T08:01:51Z</time>
      </trkpt>
      <trkpt lat="44.93366" lon="6.18373">
        <ele>1791.5</ele>
        <time>2023-07-24T08:01:58Z</time>
      </trkpt>
      <trkpt lat="44.93361" lon="6.18375">
        <ele>1789</ele>
        <time>2023-07-24T08:02:05Z</time>
      </trkpt>
      <trkpt lat="44.93358" lon="6.18375">
        <ele>1785.2</ele>
        <time>2023-07-24T08:02:12Z</time>
      </trkpt>
      <trkpt lat="44.93358" lon="6.18375">
        <ele>1784.9</ele>
        <time>2023-07-24T08:02:18Z</time>
      </trkpt>
      <trkpt lat="44.93356" lon="6.18373">
        <ele>1783.3</ele>
        <time>2023-07-24T08:02:31Z</time>
      </trkpt>
      <trkpt lat="44.93351" lon="6.18375">
        <ele>1778.9</ele>
        <time>2023-07-24T08:02:38Z</time>
      </trkpt>
      <trkpt lat="44.93348" lon="6.18374">
        <ele>1779.2</ele>
        <time>2023-07-24T08:02:45Z</time>
      </trkpt>
      <trkpt lat="44.93345" lon="6.18373">
        <ele>1777.4</ele>
        <time>2023-07-24T08:02:52Z</time>
      </trkpt>
      <trkpt lat="44.93344" lon="6.18376">
        <ele>1779.4</ele>
        <time>2023-07-24T08:02:59Z</time>
      </trkpt>
      <trkpt lat="44.93341" lon="6.18376">
        <ele>1778</ele>
        <time>2023-07-24T08:03:06Z</time>
      </trkpt>
      <trkpt lat="44.93344" lon="6.18377">
        <ele>1776.7</ele>
        <time>2023-07-24T08:03:13Z</time>
      </trkpt>
      <trkpt lat="44.93343" lon="6.18381">
        <ele>1774.9</ele>
        <time>2023-07-24T08:03:20Z</time>
      </trkpt>
      <trkpt lat="44.93347" lon="6.18386">
        <ele>1775</ele>
        <time>2023-07-24T08:03:27Z</time>
      </trkpt>
      <trkpt lat="44.93351" lon="6.18389">
        <ele>1776.1</ele>
        <time>2023-07-24T08:03:34Z</time>
      </trkpt>
      <trkpt lat="44.93351" lon="6.18389">
        <ele>1774.9</ele>
        <time>2023-07-24T08:03:40Z</time>
      </trkpt>
      <trkpt lat="44.93352" lon="6.18392">
        <ele>1773</ele>
        <time>2023-07-24T08:03:47Z</time>
      </trkpt>
      <trkpt lat="44.93352" lon="6.18395">
        <ele>1771.3</ele>
        <time>2023-07-24T08:03:54Z</time>
      </trkpt>
      <trkpt lat="44.93355" lon="6.18395">
        <ele>1768.5</ele>
        <time>2023-07-24T08:04:02Z</time>
      </trkpt>
      <trkpt lat="44.93354" lon="6.18392">
        <ele>1767.5</ele>
        <time>2023-07-24T08:04:09Z</time>
      </trkpt>
      <trkpt lat="44.93351" lon="6.18394">
        <ele>1767.6</ele>
        <time>2023-07-24T08:04:16Z</time>
      </trkpt>
      <trkpt lat="44.93348" lon="6.18396">
        <ele>1765.9</ele>
        <time>2023-07-24T08:04:23Z</time>
      </trkpt>
      <trkpt lat="44.93348" lon="6.18395">
        <ele>1765.5</ele>
        <time>2023-07-24T08:04:27Z</time>
      </trkpt>
      <trkpt lat="44.93345" lon="6.18398">
        <ele>1767.4</ele>
        <time>2023-07-24T08:04:35Z</time>
      </trkpt>
      <trkpt lat="44.93345" lon="6.18402">
        <ele>1766.7</ele>
        <time>2023-07-24T08:04:42Z</time>
      </trkpt>
      <trkpt lat="44.93345" lon="6.18402">
        <ele>1765.8</ele>
        <time>2023-07-24T08:04:49Z</time>
      </trkpt>
      <trkpt lat="44.93342" lon="6.18399">
        <ele>1764.3</ele>
        <time>2023-07-24T08:05:00Z</time>
      </trkpt>
      <trkpt lat="44.93341" lon="6.18398">
        <ele>1765.4</ele>
        <time>2023-07-24T08:05:07Z</time>
      </trkpt>
      <trkpt lat="44.93337" lon="6.18398">
        <ele>1763.9</ele>
        <time>2023-07-24T08:05:14Z</time>
      </trkpt>
      <trkpt lat="44.93334" lon="6.18398">
        <ele>1761.4</ele>
        <time>2023-07-24T08:05:21Z</time>
      </trkpt>
      <trkpt lat="44.93332" lon="6.18403">
        <ele>1760.3</ele>
        <time>2023-07-24T08:05:28Z</time>
      </trkpt>
      <trkpt lat="44.9333" lon="6.18402">
        <ele>1758.9</ele>
        <time>2023-07-24T08:05:35Z</time>
      </trkpt>
      <trkpt lat="44.93326" lon="6.18402">
        <ele>1754.7</ele>
        <time>2023-07-24T08:05:42Z</time>
      </trkpt>
      <trkpt lat="44.93325" lon="6.18399">
        <ele>1753.3</ele>
        <time>2023-07-24T08:05:49Z</time>
      </trkpt>
      <trkpt lat="44.93325" lon="6.18399">
        <ele>1753.6</ele>
        <time>2023-07-24T08:05:51Z</time>
      </trkpt>
      <trkpt lat="44.93324" lon="6.18403">
        <ele>1753.7</ele>
        <time>2023-07-24T08:05:58Z</time>
      </trkpt>
      <trkpt lat="44.93323" lon="6.18404">
        <ele>1752</ele>
        <time>2023-07-24T08:06:05Z</time>
      </trkpt>
      <trkpt lat="44.93323" lon="6.18404">
        <ele>1751.4</ele>
        <time>2023-07-24T08:06:08Z</time>
      </trkpt>
      <trkpt lat="44.93319" lon="6.18405">
        <ele>1753</ele>
        <time>2023-07-24T08:06:18Z</time>
      </trkpt>
      <trkpt lat="44.93316" lon="6.18406">
        <ele>1750.4</ele>
        <time>2023-07-24T08:06:25Z</time>
      </trkpt>
      <trkpt lat="44.93316" lon="6.18407">
        <ele>1750.9</ele>
        <time>2023-07-24T08:06:28Z</time>
      </trkpt>
      <trkpt lat="44.93313" lon="6.18406">
        <ele>1750.6</ele>
        <time>2023-07-24T08:06:35Z</time>
      </trkpt>
      <trkpt lat="44.93311" lon="6.1841">
        <ele>1751.1</ele>
        <time>2023-07-24T08:06:42Z</time>
      </trkpt>
      <trkpt lat="44.93307" lon="6.18408">
        <ele>1750.8</ele>
        <time>2023-07-24T08:06:49Z</time>
      </trkpt>
      <trkpt lat="44.93306" lon="6.1841">
        <ele>1748.9</ele>
        <time>2023-07-24T08:06:56Z</time>
      </trkpt>
      <trkpt lat="44.93307" lon="6.18417">
        <ele>1746.1</ele>
        <time>2023-07-24T08:07:03Z</time>
      </trkpt>
      <trkpt lat="44.93311" lon="6.18423">
        <ele>1744</ele>
        <time>2023-07-24T08:07:10Z</time>
      </trkpt>
      <trkpt lat="44.93314" lon="6.1843">
        <ele>1741.7</ele>
        <time>2023-07-24T08:07:17Z</time>
      </trkpt>
      <trkpt lat="44.93321" lon="6.1843">
        <ele>1745.2</ele>
        <time>2023-07-24T08:07:24Z</time>
      </trkpt>
      <trkpt lat="44.9332" lon="6.18433">
        <ele>1741</ele>
        <time>2023-07-24T08:07:31Z</time>
      </trkpt>
      <trkpt lat="44.93318" lon="6.18434">
        <ele>1739.3</ele>
        <time>2023-07-24T08:07:38Z</time>
      </trkpt>
      <trkpt lat="44.93321" lon="6.18437">
        <ele>1737.2</ele>
        <time>2023-07-24T08:07:45Z</time>
      </trkpt>
      <trkpt lat="44.93325" lon="6.18441">
        <ele>1736.4</ele>
        <time>2023-07-24T08:07:52Z</time>
      </trkpt>
      <trkpt lat="44.93327" lon="6.18441">
        <ele>1735.6</ele>
        <time>2023-07-24T08:07:59Z</time>
      </trkpt>
      <trkpt lat="44.93328" lon="6.18441">
        <ele>1735.3</ele>
        <time>2023-07-24T08:08:01Z</time>
      </trkpt>
      <trkpt lat="44.9333" lon="6.18446">
        <ele>1736.1</ele>
        <time>2023-07-24T08:08:08Z</time>
      </trkpt>
      <trkpt lat="44.9333" lon="6.18455">
        <ele>1732.7</ele>
        <time>2023-07-24T08:08:15Z</time>
      </trkpt>
      <trkpt lat="44.93335" lon="6.18461">
        <ele>1731.9</ele>
        <time>2023-07-24T08:08:22Z</time>
      </trkpt>
      <trkpt lat="44.93339" lon="6.18466">
        <ele>1731.3</ele>
        <time>2023-07-24T08:08:29Z</time>
      </trkpt>
      <trkpt lat="44.93343" lon="6.18465">
        <ele>1727.4</ele>
        <time>2023-07-24T08:08:36Z</time>
      </trkpt>
      <trkpt lat="44.93345" lon="6.18466">
        <ele>1724.7</ele>
        <time>2023-07-24T08:08:43Z</time>
      </trkpt>
      <trkpt lat="44.93349" lon="6.18469">
        <ele>1722.8</ele>
        <time>2023-07-24T08:08:50Z</time>
      </trkpt>
      <trkpt lat="44.93354" lon="6.18472">
        <ele>1721.7</ele>
        <time>2023-07-24T08:08:57Z</time>
      </trkpt>
      <trkpt lat="44.9336" lon="6.18478">
        <ele>1721.8</ele>
        <time>2023-07-24T08:09:04Z</time>
      </trkpt>
      <trkpt lat="44.93365" lon="6.18483">
        <ele>1720.8</ele>
        <time>2023-07-24T08:09:11Z</time>
      </trkpt>
      <trkpt lat="44.93369" lon="6.18486">
        <ele>1720.4</ele>
        <time>2023-07-24T08:09:18Z</time>
      </trkpt>
      <trkpt lat="44.93371" lon="6.18487">
        <ele>1719</ele>
        <time>2023-07-24T08:09:25Z</time>
      </trkpt>
      <trkpt lat="44.93373" lon="6.18487">
        <ele>1717.9</ele>
        <time>2023-07-24T08:09:32Z</time>
      </trkpt>
      <trkpt lat="44.93373" lon="6.18487">
        <ele>1717.3</ele>
        <time>2023-07-24T08:09:34Z</time>
      </trkpt>
      <trkpt lat="44.93376" lon="6.18488">
        <ele>1713.5</ele>
        <time>2023-07-24T08:09:43Z</time>
      </trkpt>
      <trkpt lat="44.93382" lon="6.18491">
        <ele>1715</ele>
        <time>2023-07-24T08:09:50Z</time>
      </trkpt>
      <trkpt lat="44.93389" lon="6.18493">
        <ele>1715.3</ele>
        <time>2023-07-24T08:09:57Z</time>
      </trkpt>
      <trkpt lat="44.93396" lon="6.18492">
        <ele>1715</ele>
        <time>2023-07-24T08:10:04Z</time>
      </trkpt>
      <trkpt lat="44.93401" lon="6.18495">
        <ele>1712.8</ele>
        <time>2023-07-24T08:10:11Z</time>
      </trkpt>
      <trkpt lat="44.93404" lon="6.18498">
        <ele>1710.1</ele>
        <time>2023-07-24T08:10:18Z</time>
      </trkpt>
      <trkpt lat="44.93405" lon="6.185">
        <ele>1711.3</ele>
        <time>2023-07-24T08:10:25Z</time>
      </trkpt>
      <trkpt lat="44.93406" lon="6.18503">
        <ele>1705.7</ele>
        <time>2023-07-24T08:10:32Z</time>
      </trkpt>
      <trkpt lat="44.93411" lon="6.18504">
        <ele>1705.9</ele>
        <time>2023-07-24T08:10:39Z</time>
      </trkpt>
      <trkpt lat="44.93415" lon="6.18505">
        <ele>1703.4</ele>
        <time>2023-07-24T08:10:46Z</time>
      </trkpt>
      <trkpt lat="44.93416" lon="6.18509">
        <ele>1700.2</ele>
        <time>2023-07-24T08:10:53Z</time>
      </trkpt>
      <trkpt lat="44.93418" lon="6.18512">
        <ele>1697.3</ele>
        <time>2023-07-24T08:11:00Z</time>
      </trkpt>
      <trkpt lat="44.93423" lon="6.18513">
        <ele>1697</ele>
        <time>2023-07-24T08:11:07Z</time>
      </trkpt>
      <trkpt lat="44.93424" lon="6.18515">
        <ele>1696.9</ele>
        <time>2023-07-24T08:11:14Z</time>
      </trkpt>
      <trkpt lat="44.93425" lon="6.18523">
        <ele>1696.9</ele>
        <time>2023-07-24T08:11:21Z</time>
      </trkpt>
      <trkpt lat="44.93428" lon="6.18529">
        <ele>1694.2</ele>
        <time>2023-07-24T08:11:28Z</time>
      </trkpt>
      <trkpt lat="44.93436" lon="6.18532">
        <ele>1692.6</ele>
        <time>2023-07-24T08:11:35Z</time>
      </trkpt>
      <trkpt lat="44.93442" lon="6.18531">
        <ele>1693.3</ele>
        <time>2023-07-24T08:11:42Z</time>
      </trkpt>
      <trkpt lat="44.93446" lon="6.18532">
        <ele>1694.5</ele>
        <time>2023-07-24T08:11:49Z</time>
      </trkpt>
      <trkpt lat="44.9345" lon="6.18536">
        <ele>1696.8</ele>
        <time>2023-07-24T08:11:56Z</time>
      </trkpt>
      <trkpt lat="44.93449" lon="6.18539">
        <ele>1695.8</ele>
        <time>2023-07-24T08:12:03Z</time>
      </trkpt>
      <trkpt lat="44.93451" lon="6.1854">
        <ele>1693.2</ele>
        <time>2023-07-24T08:12:10Z</time>
      </trkpt>
      <trkpt lat="44.93456" lon="6.18543">
        <ele>1687.9</ele>
        <time>2023-07-24T08:12:17Z</time>
      </trkpt>
      <trkpt lat="44.93456" lon="6.18544">
        <ele>1686.3</ele>
        <time>2023-07-24T08:12:24Z</time>
      </trkpt>
      <trkpt lat="44.93455" lon="6.18547">
        <ele>1684.8</ele>
        <time>2023-07-24T08:12:31Z</time>
      </trkpt>
      <trkpt lat="44.93456" lon="6.18547">
        <ele>1684.7</ele>
        <time>2023-07-24T08:12:33Z</time>
      </trkpt>
      <trkpt lat="44.93457" lon="6.18548">
        <ele>1684</ele>
        <time>2023-07-24T08:12:40Z</time>
      </trkpt>
      <trkpt lat="44.93456" lon="6.18549">
        <ele>1685.3</ele>
        <time>2023-07-24T08:12:45Z</time>
      </trkpt>
      <trkpt lat="44.93457" lon="6.1855">
        <ele>1686</ele>
        <time>2023-07-24T08:12:52Z</time>
      </trkpt>
      <trkpt lat="44.93457" lon="6.18548">
        <ele>1684.5</ele>
        <time>2023-07-24T08:12:59Z</time>
      </trkpt>
      <trkpt lat="44.93457" lon="6.18546">
        <ele>1684.5</ele>
        <time>2023-07-24T08:13:06Z</time>
      </trkpt>
      <trkpt lat="44.93457" lon="6.18546">
        <ele>1684.2</ele>
        <time>2023-07-24T08:13:13Z</time>
      </trkpt>
      <trkpt lat="44.93456" lon="6.18547">
        <ele>1684.2</ele>
        <time>2023-07-24T08:13:50Z</time>
      </trkpt>
      <trkpt lat="44.93456" lon="6.18547">
        <ele>1684.2</ele>
        <time>2023-07-24T08:13:51Z</time>
      </trkpt>
      <trkpt lat="44.93462" lon="6.18551">
        <ele>1686.2</ele>
        <time>2023-07-24T08:15:37Z</time>
      </trkpt>
      <trkpt lat="44.93462" lon="6.1855">
        <ele>1684.4</ele>
        <time>2023-07-24T08:15:44Z</time>
      </trkpt>
      <trkpt lat="44.93462" lon="6.1855">
        <ele>1684.4</ele>
        <time>2023-07-24T08:15:45Z</time>
      </trkpt>
      <trkpt lat="44.93461" lon="6.18549">
        <ele>1686.2</ele>
        <time>2023-07-24T08:16:04Z</time>
      </trkpt>
      <trkpt lat="44.93461" lon="6.18549">
        <ele>1687.1</ele>
        <time>2023-07-24T08:16:05Z</time>
      </trkpt>
      <trkpt lat="44.93459" lon="6.1855">
        <ele>1691.7</ele>
        <time>2023-07-24T08:16:24Z</time>
      </trkpt>
      <trkpt lat="44.93459" lon="6.1855">
        <ele>1691.7</ele>
        <time>2023-07-24T08:16:25Z</time>
      </trkpt>
      <trkpt lat="44.93459" lon="6.18549">
        <ele>1691.6</ele>
        <time>2023-07-24T08:18:27Z</time>
      </trkpt>
      <trkpt lat="44.93459" lon="6.18549">
        <ele>1691.6</ele>
        <time>2023-07-24T08:18:28Z</time>
      </trkpt>
      <trkpt lat="44.93458" lon="6.1855">
        <ele>1691.8</ele>
        <time>2023-07-24T08:18:40Z</time>
      </trkpt>
      <trkpt lat="44.93458" lon="6.1855">
        <ele>1691.8</ele>
        <time>2023-07-24T08:18:41Z</time>
      </trkpt>
      <trkpt lat="44.93458" lon="6.18549">
        <ele>1692.8</ele>
        <time>2023-07-24T08:19:15Z</time>
      </trkpt>
      <trkpt lat="44.93458" lon="6.18549">
        <ele>1692.8</ele>
        <time>2023-07-24T08:19:16Z</time>
      </trkpt>
      <trkpt lat="44.93459" lon="6.18549">
        <ele>1693.1</ele>
        <time>2023-07-24T08:20:11Z</time>
      </trkpt>
      <trkpt lat="44.93459" lon="6.18549">
        <ele>1692.9</ele>
        <time>2023-07-24T08:20:12Z</time>
      </trkpt>
      <trkpt lat="44.93459" lon="6.18549">
        <ele>1695.2</ele>
        <time>2023-07-24T08:20:19Z</time>
      </trkpt>
      <trkpt lat="44.93459" lon="6.18549">
        <ele>1694.9</ele>
        <time>2023-07-24T08:20:21Z</time>
      </trkpt>
      <trkpt lat="44.93461" lon="6.1855">
        <ele>1695.4</ele>
        <time>2023-07-24T08:20:31Z</time>
      </trkpt>
      <trkpt lat="44.93461" lon="6.1855">
        <ele>1695.7</ele>
        <time>2023-07-24T08:20:33Z</time>
      </trkpt>
      <trkpt lat="44.93462" lon="6.18548">
        <ele>1694.8</ele>
        <time>2023-07-24T08:20:46Z</time>
      </trkpt>
      <trkpt lat="44.93462" lon="6.18548">
        <ele>1695.2</ele>
        <time>2023-07-24T08:20:50Z</time>
      </trkpt>
      <trkpt lat="44.93464" lon="6.18551">
        <ele>1695.3</ele>
        <time>2023-07-24T08:22:00Z</time>
      </trkpt>
      <trkpt lat="44.93464" lon="6.18551">
        <ele>1695.3</ele>
        <time>2023-07-24T08:22:03Z</time>
      </trkpt>
      <trkpt lat="44.93464" lon="6.18551">
        <ele>1695.3</ele>
        <time>2023-07-24T08:23:08Z</time>
      </trkpt>
      <trkpt lat="44.93464" lon="6.18551">
        <ele>1695.3</ele>
        <time>2023-07-24T08:23:09Z</time>
      </trkpt>
      <trkpt lat="44.93463" lon="6.18551">
        <ele>1694</ele>
        <time>2023-07-24T08:24:36Z</time>
      </trkpt>
      <trkpt lat="44.93463" lon="6.18551">
        <ele>1694</ele>
        <time>2023-07-24T08:24:37Z</time>
      </trkpt>
      <trkpt lat="44.93459" lon="6.18551">
        <ele>1691.8</ele>
        <time>2023-07-24T08:24:51Z</time>
      </trkpt>
      <trkpt lat="44.93459" lon="6.18552">
        <ele>1691.6</ele>
        <time>2023-07-24T08:24:54Z</time>
      </trkpt>
      <trkpt lat="44.93459" lon="6.18552">
        <ele>1691.4</ele>
        <time>2023-07-24T08:25:04Z</time>
      </trkpt>
      <trkpt lat="44.93459" lon="6.18552">
        <ele>1691.4</ele>
        <time>2023-07-24T08:25:05Z</time>
      </trkpt>
      <trkpt lat="44.93463" lon="6.18553">
        <ele>1690.1</ele>
        <time>2023-07-24T08:26:26Z</time>
      </trkpt>
      <trkpt lat="44.93463" lon="6.18553">
        <ele>1690.1</ele>
        <time>2023-07-24T08:26:30Z</time>
      </trkpt>
      <trkpt lat="44.93466" lon="6.18552">
        <ele>1688.4</ele>
        <time>2023-07-24T08:26:38Z</time>
      </trkpt>
      <trkpt lat="44.93466" lon="6.18555">
        <ele>1689.2</ele>
        <time>2023-07-24T08:26:45Z</time>
      </trkpt>
      <trkpt lat="44.93466" lon="6.18552">
        <ele>1686</ele>
        <time>2023-07-24T08:26:52Z</time>
      </trkpt>
      <trkpt lat="44.93466" lon="6.18552">
        <ele>1686.9</ele>
        <time>2023-07-24T08:26:59Z</time>
      </trkpt>
      <trkpt lat="44.93466" lon="6.18551">
        <ele>1683.8</ele>
        <time>2023-07-24T08:27:50Z</time>
      </trkpt>
      <trkpt lat="44.93466" lon="6.18551">
        <ele>1683.9</ele>
        <time>2023-07-24T08:27:51Z</time>
      </trkpt>
      <trkpt lat="44.93466" lon="6.1855">
        <ele>1683.9</ele>
        <time>2023-07-24T08:28:03Z</time>
      </trkpt>
      <trkpt lat="44.93466" lon="6.1855">
        <ele>1683.9</ele>
        <time>2023-07-24T08:28:04Z</time>
      </trkpt>
      <trkpt lat="44.93466" lon="6.1855">
        <ele>1684.4</ele>
        <time>2023-07-24T08:30:55Z</time>
      </trkpt>
      <trkpt lat="44.93466" lon="6.1855">
        <ele>1684.1</ele>
        <time>2023-07-24T08:30:56Z</time>
      </trkpt>
      <trkpt lat="44.93465" lon="6.1855">
        <ele>1686.3</ele>
        <time>2023-07-24T08:31:04Z</time>
      </trkpt>
      <trkpt lat="44.93465" lon="6.1855">
        <ele>1686.3</ele>
        <time>2023-07-24T08:31:05Z</time>
      </trkpt>
      <trkpt lat="44.93466" lon="6.18549">
        <ele>1686.8</ele>
        <time>2023-07-24T08:31:13Z</time>
      </trkpt>
      <trkpt lat="44.93466" lon="6.18549">
        <ele>1686.7</ele>
        <time>2023-07-24T08:31:14Z</time>
      </trkpt>
      <trkpt lat="44.93466" lon="6.18551">
        <ele>1687.2</ele>
        <time>2023-07-24T08:32:53Z</time>
      </trkpt>
      <trkpt lat="44.93464" lon="6.18554">
        <ele>1686.6</ele>
        <time>2023-07-24T08:33:00Z</time>
      </trkpt>
      <trkpt lat="44.93459" lon="6.18558">
        <ele>1686.3</ele>
        <time>2023-07-24T08:33:07Z</time>
      </trkpt>
      <trkpt lat="44.93462" lon="6.18564">
        <ele>1676.3</ele>
        <time>2023-07-24T08:33:14Z</time>
      </trkpt>
      <trkpt lat="44.93462" lon="6.18567">
        <ele>1672.9</ele>
        <time>2023-07-24T08:33:21Z</time>
      </trkpt>
      <trkpt lat="44.93459" lon="6.18567">
        <ele>1671.2</ele>
        <time>2023-07-24T08:33:28Z</time>
      </trkpt>
      <trkpt lat="44.93457" lon="6.1857">
        <ele>1670.8</ele>
        <time>2023-07-24T08:33:35Z</time>
      </trkpt>
      <trkpt lat="44.93456" lon="6.18575">
        <ele>1667.8</ele>
        <time>2023-07-24T08:33:42Z</time>
      </trkpt>
      <trkpt lat="44.93455" lon="6.1857">
        <ele>1663.1</ele>
        <time>2023-07-24T08:33:49Z</time>
      </trkpt>
      <trkpt lat="44.93456" lon="6.18572">
        <ele>1670.8</ele>
        <time>2023-07-24T08:33:56Z</time>
      </trkpt>
      <trkpt lat="44.93457" lon="6.18572">
        <ele>1670.5</ele>
        <time>2023-07-24T08:34:01Z</time>
      </trkpt>
      <trkpt lat="44.93457" lon="6.1857">
        <ele>1667.4</ele>
        <time>2023-07-24T08:34:13Z</time>
      </trkpt>
      <trkpt lat="44.93457" lon="6.18569">
        <ele>1667.4</ele>
        <time>2023-07-24T08:34:14Z</time>
      </trkpt>
      <trkpt lat="44.93456" lon="6.1857">
        <ele>1668.5</ele>
        <time>2023-07-24T08:34:22Z</time>
      </trkpt>
      <trkpt lat="44.93456" lon="6.1857">
        <ele>1668.5</ele>
        <time>2023-07-24T08:34:23Z</time>
      </trkpt>
      <trkpt lat="44.93457" lon="6.18567">
        <ele>1665</ele>
        <time>2023-07-24T08:34:30Z</time>
      </trkpt>
      <trkpt lat="44.93456" lon="6.18568">
        <ele>1666</ele>
        <time>2023-07-24T08:34:37Z</time>
      </trkpt>
      <trkpt lat="44.93455" lon="6.18569">
        <ele>1663.5</ele>
        <time>2023-07-24T08:34:45Z</time>
      </trkpt>
      <trkpt lat="44.93456" lon="6.18575">
        <ele>1658.5</ele>
        <time>2023-07-24T08:34:52Z</time>
      </trkpt>
      <trkpt lat="44.93455" lon="6.18584">
        <ele>1658.3</ele>
        <time>2023-07-24T08:34:59Z</time>
      </trkpt>
      <trkpt lat="44.93454" lon="6.18587">
        <ele>1655.4</ele>
        <time>2023-07-24T08:35:06Z</time>
      </trkpt>
      <trkpt lat="44.93452" lon="6.18588">
        <ele>1656.6</ele>
        <time>2023-07-24T08:35:13Z</time>
      </trkpt>
      <trkpt lat="44.93453" lon="6.18589">
        <ele>1655.5</ele>
        <time>2023-07-24T08:35:20Z</time>
      </trkpt>
      <trkpt lat="44.93453" lon="6.18589">
        <ele>1655.5</ele>
        <time>2023-07-24T08:35:25Z</time>
      </trkpt>
      <trkpt lat="44.93461" lon="6.18591">
        <ele>1652.1</ele>
        <time>2023-07-24T08:35:42Z</time>
      </trkpt>
      <trkpt lat="44.93464" lon="6.18596">
        <ele>1647.2</ele>
        <time>2023-07-24T08:35:49Z</time>
      </trkpt>
      <trkpt lat="44.93465" lon="6.18605">
        <ele>1650.1</ele>
        <time>2023-07-24T08:35:56Z</time>
      </trkpt>
      <trkpt lat="44.93466" lon="6.18609">
        <ele>1649.6</ele>
        <time>2023-07-24T08:36:03Z</time>
      </trkpt>
      <trkpt lat="44.93462" lon="6.18609">
        <ele>1648.5</ele>
        <time>2023-07-24T08:36:10Z</time>
      </trkpt>
      <trkpt lat="44.93463" lon="6.1861">
        <ele>1647.2</ele>
        <time>2023-07-24T08:36:17Z</time>
      </trkpt>
      <trkpt lat="44.93466" lon="6.18613">
        <ele>1647.1</ele>
        <time>2023-07-24T08:36:24Z</time>
      </trkpt>
      <trkpt lat="44.9347" lon="6.18613">
        <ele>1647.2</ele>
        <time>2023-07-24T08:36:31Z</time>
      </trkpt>
      <trkpt lat="44.93473" lon="6.18617">
        <ele>1647.2</ele>
        <time>2023-07-24T08:36:38Z</time>
      </trkpt>
      <trkpt lat="44.93477" lon="6.18618">
        <ele>1647.2</ele>
        <time>2023-07-24T08:36:45Z</time>
      </trkpt>
      <trkpt lat="44.93478" lon="6.18626">
        <ele>1646.9</ele>
        <time>2023-07-24T08:36:52Z</time>
      </trkpt>
      <trkpt lat="44.93477" lon="6.18636">
        <ele>1643.9</ele>
        <time>2023-07-24T08:36:59Z</time>
      </trkpt>
      <trkpt lat="44.93469" lon="6.18641">
        <ele>1645.3</ele>
        <time>2023-07-24T08:37:05Z</time>
      </trkpt>
      <trkpt lat="44.93465" lon="6.1864">
        <ele>1644.6</ele>
        <time>2023-07-24T08:37:12Z</time>
      </trkpt>
      <trkpt lat="44.93459" lon="6.18639">
        <ele>1644.8</ele>
        <time>2023-07-24T08:37:19Z</time>
      </trkpt>
      <trkpt lat="44.93455" lon="6.18637">
        <ele>1646</ele>
        <time>2023-07-24T08:37:26Z</time>
      </trkpt>
      <trkpt lat="44.93451" lon="6.18643">
        <ele>1647.3</ele>
        <time>2023-07-24T08:37:33Z</time>
      </trkpt>
      <trkpt lat="44.93448" lon="6.18653">
        <ele>1651.6</ele>
        <time>2023-07-24T08:37:39Z</time>
      </trkpt>
      <trkpt lat="44.93446" lon="6.18661">
        <ele>1646.8</ele>
        <time>2023-07-24T08:37:46Z</time>
      </trkpt>
      <trkpt lat="44.93451" lon="6.18653">
        <ele>1646.4</ele>
        <time>2023-07-24T08:37:53Z</time>
      </trkpt>
      <trkpt lat="44.93451" lon="6.18654">
        <ele>1648.2</ele>
        <time>2023-07-24T08:37:59Z</time>
      </trkpt>
      <trkpt lat="44.93455" lon="6.18655">
        <ele>1645</ele>
        <time>2023-07-24T08:38:10Z</time>
      </trkpt>
      <trkpt lat="44.93453" lon="6.18662">
        <ele>1644.7</ele>
        <time>2023-07-24T08:38:17Z</time>
      </trkpt>
      <trkpt lat="44.9345" lon="6.18662">
        <ele>1645.5</ele>
        <time>2023-07-24T08:38:24Z</time>
      </trkpt>
      <trkpt lat="44.93456" lon="6.18662">
        <ele>1647.2</ele>
        <time>2023-07-24T08:38:31Z</time>
      </trkpt>
      <trkpt lat="44.93457" lon="6.18666">
        <ele>1648.3</ele>
        <time>2023-07-24T08:38:38Z</time>
      </trkpt>
      <trkpt lat="44.93455" lon="6.18666">
        <ele>1647.3</ele>
        <time>2023-07-24T08:38:45Z</time>
      </trkpt>
      <trkpt lat="44.93456" lon="6.18667">
        <ele>1648.5</ele>
        <time>2023-07-24T08:38:51Z</time>
      </trkpt>
      <trkpt lat="44.93457" lon="6.18662">
        <ele>1648.7</ele>
        <time>2023-07-24T08:38:59Z</time>
      </trkpt>
      <trkpt lat="44.93457" lon="6.18661">
        <ele>1649</ele>
        <time>2023-07-24T08:39:04Z</time>
      </trkpt>
      <trkpt lat="44.93458" lon="6.18662">
        <ele>1650.5</ele>
        <time>2023-07-24T08:40:19Z</time>
      </trkpt>
      <trkpt lat="44.93458" lon="6.18662">
        <ele>1650.3</ele>
        <time>2023-07-24T08:40:21Z</time>
      </trkpt>
      <trkpt lat="44.93459" lon="6.18664">
        <ele>1653.2</ele>
        <time>2023-07-24T08:40:46Z</time>
      </trkpt>
      <trkpt lat="44.93459" lon="6.18664">
        <ele>1653.6</ele>
        <time>2023-07-24T08:40:48Z</time>
      </trkpt>
      <trkpt lat="44.93461" lon="6.18664">
        <ele>1659.4</ele>
        <time>2023-07-24T08:41:03Z</time>
      </trkpt>
      <trkpt lat="44.93461" lon="6.18664">
        <ele>1657.7</ele>
        <time>2023-07-24T08:41:10Z</time>
      </trkpt>
      <trkpt lat="44.93464" lon="6.18665">
        <ele>1657.9</ele>
        <time>2023-07-24T08:41:17Z</time>
      </trkpt>
      <trkpt lat="44.93465" lon="6.18666">
        <ele>1658</ele>
        <time>2023-07-24T08:41:22Z</time>
      </trkpt>
      <trkpt lat="44.93464" lon="6.18665">
        <ele>1659.2</ele>
        <time>2023-07-24T08:42:51Z</time>
      </trkpt>
      <trkpt lat="44.93462" lon="6.18666">
        <ele>1658.5</ele>
        <time>2023-07-24T08:42:58Z</time>
      </trkpt>
      <trkpt lat="44.93462" lon="6.18666">
        <ele>1658.5</ele>
        <time>2023-07-24T08:43:00Z</time>
      </trkpt>
      <trkpt lat="44.93465" lon="6.18666">
        <ele>1666</ele>
        <time>2023-07-24T08:44:22Z</time>
      </trkpt>
      <trkpt lat="44.93466" lon="6.18667">
        <ele>1665.7</ele>
        <time>2023-07-24T08:44:29Z</time>
      </trkpt>
      <trkpt lat="44.93464" lon="6.18664">
        <ele>1666.6</ele>
        <time>2023-07-24T08:44:36Z</time>
      </trkpt>
      <trkpt lat="44.93468" lon="6.18668">
        <ele>1664.9</ele>
        <time>2023-07-24T08:44:43Z</time>
      </trkpt>
      <trkpt lat="44.93469" lon="6.18673">
        <ele>1663.6</ele>
        <time>2023-07-24T08:44:50Z</time>
      </trkpt>
      <trkpt lat="44.93468" lon="6.18678">
        <ele>1658.4</ele>
        <time>2023-07-24T08:44:57Z</time>
      </trkpt>
      <trkpt lat="44.93466" lon="6.18677">
        <ele>1653.2</ele>
        <time>2023-07-24T08:45:04Z</time>
      </trkpt>
      <trkpt lat="44.93466" lon="6.18675">
        <ele>1653</ele>
        <time>2023-07-24T08:45:11Z</time>
      </trkpt>
      <trkpt lat="44.93466" lon="6.18675">
        <ele>1652.9</ele>
        <time>2023-07-24T08:45:18Z</time>
      </trkpt>
      <trkpt lat="44.93466" lon="6.18675">
        <ele>1653.5</ele>
        <time>2023-07-24T08:45:19Z</time>
      </trkpt>
      <trkpt lat="44.93468" lon="6.18678">
        <ele>1656.3</ele>
        <time>2023-07-24T08:45:33Z</time>
      </trkpt>
      <trkpt lat="44.93472" lon="6.18678">
        <ele>1657.5</ele>
        <time>2023-07-24T08:45:40Z</time>
      </trkpt>
      <trkpt lat="44.93473" lon="6.18678">
        <ele>1657.6</ele>
        <time>2023-07-24T08:45:47Z</time>
      </trkpt>
      <trkpt lat="44.93475" lon="6.1868">
        <ele>1657.3</ele>
        <time>2023-07-24T08:45:54Z</time>
      </trkpt>
      <trkpt lat="44.93478" lon="6.18679">
        <ele>1657.4</ele>
        <time>2023-07-24T08:46:01Z</time>
      </trkpt>
      <trkpt lat="44.93482" lon="6.18678">
        <ele>1657.4</ele>
        <time>2023-07-24T08:46:08Z</time>
      </trkpt>
      <trkpt lat="44.93485" lon="6.1868">
        <ele>1657.5</ele>
        <time>2023-07-24T08:46:15Z</time>
      </trkpt>
      <trkpt lat="44.93489" lon="6.18681">
        <ele>1657.5</ele>
        <time>2023-07-24T08:46:22Z</time>
      </trkpt>
      <trkpt lat="44.93492" lon="6.18685">
        <ele>1657.7</ele>
        <time>2023-07-24T08:46:29Z</time>
      </trkpt>
      <trkpt lat="44.93495" lon="6.18689">
        <ele>1657.7</ele>
        <time>2023-07-24T08:46:36Z</time>
      </trkpt>
      <trkpt lat="44.93496" lon="6.1869">
        <ele>1657.7</ele>
        <time>2023-07-24T08:46:41Z</time>
      </trkpt>
      <trkpt lat="44.93499" lon="6.18692">
        <ele>1657.7</ele>
        <time>2023-07-24T08:46:49Z</time>
      </trkpt>
      <trkpt lat="44.93502" lon="6.18695">
        <ele>1657.9</ele>
        <time>2023-07-24T08:46:56Z</time>
      </trkpt>
      <trkpt lat="44.93506" lon="6.18696">
        <ele>1663.4</ele>
        <time>2023-07-24T08:47:03Z</time>
      </trkpt>
      <trkpt lat="44.935" lon="6.18703">
        <ele>1668.3</ele>
        <time>2023-07-24T08:47:10Z</time>
      </trkpt>
      <trkpt lat="44.93496" lon="6.18712">
        <ele>1670</ele>
        <time>2023-07-24T08:47:15Z</time>
      </trkpt>
      <trkpt lat="44.93497" lon="6.18713">
        <ele>1673.2</ele>
        <time>2023-07-24T08:47:22Z</time>
      </trkpt>
      <trkpt lat="44.935" lon="6.18708">
        <ele>1672.7</ele>
        <time>2023-07-24T08:47:29Z</time>
      </trkpt>
      <trkpt lat="44.93502" lon="6.18715">
        <ele>1669.9</ele>
        <time>2023-07-24T08:47:36Z</time>
      </trkpt>
      <trkpt lat="44.93503" lon="6.18718">
        <ele>1669.3</ele>
        <time>2023-07-24T08:47:43Z</time>
      </trkpt>
      <trkpt lat="44.93504" lon="6.18714">
        <ele>1672.2</ele>
        <time>2023-07-24T08:47:50Z</time>
      </trkpt>
      <trkpt lat="44.93504" lon="6.18713">
        <ele>1674.2</ele>
        <time>2023-07-24T08:47:57Z</time>
      </trkpt>
      <trkpt lat="44.93506" lon="6.18713">
        <ele>1677.1</ele>
        <time>2023-07-24T08:48:04Z</time>
      </trkpt>
      <trkpt lat="44.9351" lon="6.18711">
        <ele>1677.1</ele>
        <time>2023-07-24T08:48:11Z</time>
      </trkpt>
      <trkpt lat="44.93513" lon="6.1871">
        <ele>1675.7</ele>
        <time>2023-07-24T08:48:18Z</time>
      </trkpt>
      <trkpt lat="44.93521" lon="6.18708">
        <ele>1672.4</ele>
        <time>2023-07-24T08:48:23Z</time>
      </trkpt>
      <trkpt lat="44.93519" lon="6.18716">
        <ele>1664.9</ele>
        <time>2023-07-24T08:48:30Z</time>
      </trkpt>
      <trkpt lat="44.93522" lon="6.18725">
        <ele>1660.9</ele>
        <time>2023-07-24T08:48:35Z</time>
      </trkpt>
      <trkpt lat="44.93526" lon="6.18732">
        <ele>1661.8</ele>
        <time>2023-07-24T08:48:42Z</time>
      </trkpt>
      <trkpt lat="44.93526" lon="6.1874">
        <ele>1660</ele>
        <time>2023-07-24T08:48:49Z</time>
      </trkpt>
      <trkpt lat="44.93525" lon="6.18744">
        <ele>1661.3</ele>
        <time>2023-07-24T08:48:56Z</time>
      </trkpt>
      <trkpt lat="44.93529" lon="6.18748">
        <ele>1663.9</ele>
        <time>2023-07-24T08:49:03Z</time>
      </trkpt>
      <trkpt lat="44.93533" lon="6.1875">
        <ele>1663.2</ele>
        <time>2023-07-24T08:49:10Z</time>
      </trkpt>
      <trkpt lat="44.93534" lon="6.18757">
        <ele>1664.1</ele>
        <time>2023-07-24T08:49:17Z</time>
      </trkpt>
      <trkpt lat="44.93534" lon="6.18768">
        <ele>1665.9</ele>
        <time>2023-07-24T08:49:24Z</time>
      </trkpt>
      <trkpt lat="44.93537" lon="6.18775">
        <ele>1668.5</ele>
        <time>2023-07-24T08:49:31Z</time>
      </trkpt>
      <trkpt lat="44.93541" lon="6.18775">
        <ele>1668.6</ele>
        <time>2023-07-24T08:49:38Z</time>
      </trkpt>
      <trkpt lat="44.93548" lon="6.18777">
        <ele>1667.6</ele>
        <time>2023-07-24T08:49:45Z</time>
      </trkpt>
      <trkpt lat="44.93549" lon="6.18784">
        <ele>1665.9</ele>
        <time>2023-07-24T08:49:52Z</time>
      </trkpt>
      <trkpt lat="44.93552" lon="6.18789">
        <ele>1664.6</ele>
        <time>2023-07-24T08:49:59Z</time>
      </trkpt>
      <trkpt lat="44.93552" lon="6.18791">
        <ele>1660.5</ele>
        <time>2023-07-24T08:50:06Z</time>
      </trkpt>
      <trkpt lat="44.93549" lon="6.18796">
        <ele>1662.7</ele>
        <time>2023-07-24T08:50:13Z</time>
      </trkpt>
      <trkpt lat="44.93549" lon="6.18797">
        <ele>1662.4</ele>
        <time>2023-07-24T08:50:20Z</time>
      </trkpt>
      <trkpt lat="44.93549" lon="6.18797">
        <ele>1662.4</ele>
        <time>2023-07-24T08:50:21Z</time>
      </trkpt>
      <trkpt lat="44.93546" lon="6.18799">
        <ele>1661.9</ele>
        <time>2023-07-24T08:50:31Z</time>
      </trkpt>
      <trkpt lat="44.93542" lon="6.18802">
        <ele>1661.6</ele>
        <time>2023-07-24T08:50:38Z</time>
      </trkpt>
      <trkpt lat="44.93539" lon="6.18809">
        <ele>1662.8</ele>
        <time>2023-07-24T08:50:45Z</time>
      </trkpt>
      <trkpt lat="44.93538" lon="6.1881">
        <ele>1662.4</ele>
        <time>2023-07-24T08:50:52Z</time>
      </trkpt>
      <trkpt lat="44.93538" lon="6.1881">
        <ele>1662.4</ele>
        <time>2023-07-24T08:50:54Z</time>
      </trkpt>
      <trkpt lat="44.93539" lon="6.18815">
        <ele>1660.6</ele>
        <time>2023-07-24T08:51:03Z</time>
      </trkpt>
      <trkpt lat="44.93545" lon="6.18821">
        <ele>1656.4</ele>
        <time>2023-07-24T08:51:10Z</time>
      </trkpt>
      <trkpt lat="44.93542" lon="6.18826">
        <ele>1653</ele>
        <time>2023-07-24T08:51:17Z</time>
      </trkpt>
      <trkpt lat="44.9354" lon="6.18828">
        <ele>1653.5</ele>
        <time>2023-07-24T08:51:24Z</time>
      </trkpt>
      <trkpt lat="44.93542" lon="6.18833">
        <ele>1653.3</ele>
        <time>2023-07-24T08:51:31Z</time>
      </trkpt>
      <trkpt lat="44.93545" lon="6.1884">
        <ele>1655.8</ele>
        <time>2023-07-24T08:51:38Z</time>
      </trkpt>
      <trkpt lat="44.93544" lon="6.18842">
        <ele>1655.9</ele>
        <time>2023-07-24T08:51:45Z</time>
      </trkpt>
      <trkpt lat="44.93544" lon="6.18843">
        <ele>1653.4</ele>
        <time>2023-07-24T08:51:49Z</time>
      </trkpt>
      <trkpt lat="44.93542" lon="6.1885">
        <ele>1653.2</ele>
        <time>2023-07-24T08:51:56Z</time>
      </trkpt>
      <trkpt lat="44.93544" lon="6.18858">
        <ele>1651.7</ele>
        <time>2023-07-24T08:52:03Z</time>
      </trkpt>
      <trkpt lat="44.93539" lon="6.18866">
        <ele>1650</ele>
        <time>2023-07-24T08:52:09Z</time>
      </trkpt>
      <trkpt lat="44.93541" lon="6.18865">
        <ele>1649.9</ele>
        <time>2023-07-24T08:52:16Z</time>
      </trkpt>
      <trkpt lat="44.9354" lon="6.18863">
        <ele>1649.9</ele>
        <time>2023-07-24T08:52:23Z</time>
      </trkpt>
      <trkpt lat="44.93544" lon="6.18863">
        <ele>1647.3</ele>
        <time>2023-07-24T08:52:31Z</time>
      </trkpt>
      <trkpt lat="44.93548" lon="6.18861">
        <ele>1646.8</ele>
        <time>2023-07-24T08:52:38Z</time>
      </trkpt>
      <trkpt lat="44.93548" lon="6.18863">
        <ele>1646.3</ele>
        <time>2023-07-24T08:52:44Z</time>
      </trkpt>
      <trkpt lat="44.93548" lon="6.18863">
        <ele>1646.8</ele>
        <time>2023-07-24T08:52:55Z</time>
      </trkpt>
      <trkpt lat="44.93548" lon="6.18863">
        <ele>1646.8</ele>
        <time>2023-07-24T08:52:56Z</time>
      </trkpt>
      <trkpt lat="44.93549" lon="6.18862">
        <ele>1646.8</ele>
        <time>2023-07-24T08:53:04Z</time>
      </trkpt>
      <trkpt lat="44.93549" lon="6.18862">
        <ele>1646.5</ele>
        <time>2023-07-24T08:53:05Z</time>
      </trkpt>
      <trkpt lat="44.93549" lon="6.18862">
        <ele>1644.8</ele>
        <time>2023-07-24T08:53:18Z</time>
      </trkpt>
      <trkpt lat="44.93549" lon="6.18862">
        <ele>1644.8</ele>
        <time>2023-07-24T08:53:19Z</time>
      </trkpt>
      <trkpt lat="44.93549" lon="6.18863">
        <ele>1645</ele>
        <time>2023-07-24T08:56:22Z</time>
      </trkpt>
      <trkpt lat="44.93549" lon="6.18863">
        <ele>1645.5</ele>
        <time>2023-07-24T08:56:25Z</time>
      </trkpt>
      <trkpt lat="44.93548" lon="6.18863">
        <ele>1646.1</ele>
        <time>2023-07-24T08:56:32Z</time>
      </trkpt>
      <trkpt lat="44.93548" lon="6.18863">
        <ele>1646.6</ele>
        <time>2023-07-24T08:56:33Z</time>
      </trkpt>
      <trkpt lat="44.93548" lon="6.18864">
        <ele>1647.2</ele>
        <time>2023-07-24T08:59:56Z</time>
      </trkpt>
      <trkpt lat="44.93545" lon="6.1887">
        <ele>1648.1</ele>
        <time>2023-07-24T09:00:03Z</time>
      </trkpt>
      <trkpt lat="44.93537" lon="6.18872">
        <ele>1645.7</ele>
        <time>2023-07-24T09:00:10Z</time>
      </trkpt>
      <trkpt lat="44.93529" lon="6.18873">
        <ele>1645.4</ele>
        <time>2023-07-24T09:00:17Z</time>
      </trkpt>
      <trkpt lat="44.93524" lon="6.18875">
        <ele>1645.3</ele>
        <time>2023-07-24T09:00:24Z</time>
      </trkpt>
      <trkpt lat="44.93523" lon="6.18886">
        <ele>1646</ele>
        <time>2023-07-24T09:00:29Z</time>
      </trkpt>
      <trkpt lat="44.9352" lon="6.18894">
        <ele>1644.8</ele>
        <time>2023-07-24T09:00:36Z</time>
      </trkpt>
      <trkpt lat="44.93518" lon="6.18904">
        <ele>1641.9</ele>
        <time>2023-07-24T09:00:43Z</time>
      </trkpt>
      <trkpt lat="44.93519" lon="6.18906">
        <ele>1642.2</ele>
        <time>2023-07-24T09:00:50Z</time>
      </trkpt>
      <trkpt lat="44.93519" lon="6.18906">
        <ele>1642.1</ele>
        <time>2023-07-24T09:00:52Z</time>
      </trkpt>
      <trkpt lat="44.9352" lon="6.1891">
        <ele>1641.6</ele>
        <time>2023-07-24T09:01:11Z</time>
      </trkpt>
      <trkpt lat="44.9352" lon="6.1891">
        <ele>1641.9</ele>
        <time>2023-07-24T09:01:15Z</time>
      </trkpt>
      <trkpt lat="44.93513" lon="6.18917">
        <ele>1642.4</ele>
        <time>2023-07-24T09:01:33Z</time>
      </trkpt>
      <trkpt lat="44.93509" lon="6.18921">
        <ele>1638.9</ele>
        <time>2023-07-24T09:01:40Z</time>
      </trkpt>
      <trkpt lat="44.93511" lon="6.18929">
        <ele>1636.5</ele>
        <time>2023-07-24T09:01:47Z</time>
      </trkpt>
      <trkpt lat="44.93511" lon="6.18935">
        <ele>1633.2</ele>
        <time>2023-07-24T09:01:54Z</time>
      </trkpt>
      <trkpt lat="44.9351" lon="6.18942">
        <ele>1633.2</ele>
        <time>2023-07-24T09:02:01Z</time>
      </trkpt>
      <trkpt lat="44.93513" lon="6.1895">
        <ele>1630.6</ele>
        <time>2023-07-24T09:02:08Z</time>
      </trkpt>
      <trkpt lat="44.93511" lon="6.18957">
        <ele>1631.2</ele>
        <time>2023-07-24T09:02:15Z</time>
      </trkpt>
      <trkpt lat="44.9351" lon="6.18964">
        <ele>1630.5</ele>
        <time>2023-07-24T09:02:22Z</time>
      </trkpt>
      <trkpt lat="44.93515" lon="6.18965">
        <ele>1629.3</ele>
        <time>2023-07-24T09:02:29Z</time>
      </trkpt>
      <trkpt lat="44.93516" lon="6.18971">
        <ele>1627.2</ele>
        <time>2023-07-24T09:02:36Z</time>
      </trkpt>
      <trkpt lat="44.9351" lon="6.18976">
        <ele>1627.6</ele>
        <time>2023-07-24T09:02:42Z</time>
      </trkpt>
      <trkpt lat="44.93504" lon="6.18978">
        <ele>1624.1</ele>
        <time>2023-07-24T09:02:49Z</time>
      </trkpt>
      <trkpt lat="44.93502" lon="6.18976">
        <ele>1622.2</ele>
        <time>2023-07-24T09:02:56Z</time>
      </trkpt>
      <trkpt lat="44.93498" lon="6.18977">
        <ele>1620.1</ele>
        <time>2023-07-24T09:03:03Z</time>
      </trkpt>
      <trkpt lat="44.93499" lon="6.18979">
        <ele>1619.7</ele>
        <time>2023-07-24T09:03:10Z</time>
      </trkpt>
      <trkpt lat="44.93499" lon="6.18983">
        <ele>1615.8</ele>
        <time>2023-07-24T09:03:17Z</time>
      </trkpt>
      <trkpt lat="44.93496" lon="6.1899">
        <ele>1613.9</ele>
        <time>2023-07-24T09:03:24Z</time>
      </trkpt>
      <trkpt lat="44.93492" lon="6.18998">
        <ele>1614.7</ele>
        <time>2023-07-24T09:03:30Z</time>
      </trkpt>
      <trkpt lat="44.93487" lon="6.19001">
        <ele>1612.9</ele>
        <time>2023-07-24T09:03:37Z</time>
      </trkpt>
      <trkpt lat="44.93484" lon="6.19005">
        <ele>1612.8</ele>
        <time>2023-07-24T09:03:44Z</time>
      </trkpt>
      <trkpt lat="44.93486" lon="6.19012">
        <ele>1612.8</ele>
        <time>2023-07-24T09:03:51Z</time>
      </trkpt>
      <trkpt lat="44.93488" lon="6.19011">
        <ele>1612.7</ele>
        <time>2023-07-24T09:03:58Z</time>
      </trkpt>
      <trkpt lat="44.93488" lon="6.19011">
        <ele>1612.7</ele>
        <time>2023-07-24T09:04:02Z</time>
      </trkpt>
      <trkpt lat="44.93491" lon="6.1902">
        <ele>1610.5</ele>
        <time>2023-07-24T09:04:08Z</time>
      </trkpt>
      <trkpt lat="44.93493" lon="6.19031">
        <ele>1606.8</ele>
        <time>2023-07-24T09:04:13Z</time>
      </trkpt>
      <trkpt lat="44.93489" lon="6.19035">
        <ele>1606.2</ele>
        <time>2023-07-24T09:04:20Z</time>
      </trkpt>
      <trkpt lat="44.93489" lon="6.1904">
        <ele>1605.2</ele>
        <time>2023-07-24T09:04:27Z</time>
      </trkpt>
      <trkpt lat="44.93485" lon="6.19043">
        <ele>1605.2</ele>
        <time>2023-07-24T09:04:34Z</time>
      </trkpt>
      <trkpt lat="44.93482" lon="6.19048">
        <ele>1605.2</ele>
        <time>2023-07-24T09:04:41Z</time>
      </trkpt>
      <trkpt lat="44.9348" lon="6.19054">
        <ele>1605</ele>
        <time>2023-07-24T09:04:48Z</time>
      </trkpt>
      <trkpt lat="44.93479" lon="6.19061">
        <ele>1604.9</ele>
        <time>2023-07-24T09:04:55Z</time>
      </trkpt>
      <trkpt lat="44.93478" lon="6.19069">
        <ele>1604.7</ele>
        <time>2023-07-24T09:05:02Z</time>
      </trkpt>
      <trkpt lat="44.93479" lon="6.19078">
        <ele>1604.6</ele>
        <time>2023-07-24T09:05:09Z</time>
      </trkpt>
      <trkpt lat="44.93479" lon="6.19087">
        <ele>1604.6</ele>
        <time>2023-07-24T09:05:16Z</time>
      </trkpt>
      <trkpt lat="44.93501" lon="6.19107">
        <ele>1599.6</ele>
        <time>2023-07-24T09:05:23Z</time>
      </trkpt>
      <trkpt lat="44.93498" lon="6.19115">
        <ele>1595.8</ele>
        <time>2023-07-24T09:05:31Z</time>
      </trkpt>
      <trkpt lat="44.93501" lon="6.19121">
        <ele>1595.8</ele>
        <time>2023-07-24T09:05:38Z</time>
      </trkpt>
      <trkpt lat="44.93504" lon="6.19126">
        <ele>1595.7</ele>
        <time>2023-07-24T09:05:45Z</time>
      </trkpt>
      <trkpt lat="44.93508" lon="6.19133">
        <ele>1595.6</ele>
        <time>2023-07-24T09:05:52Z</time>
      </trkpt>
      <trkpt lat="44.93511" lon="6.19139">
        <ele>1595.5</ele>
        <time>2023-07-24T09:05:59Z</time>
      </trkpt>
      <trkpt lat="44.93516" lon="6.1914">
        <ele>1591.4</ele>
        <time>2023-07-24T09:06:06Z</time>
      </trkpt>
      <trkpt lat="44.93511" lon="6.19147">
        <ele>1581</ele>
        <time>2023-07-24T09:06:13Z</time>
      </trkpt>
      <trkpt lat="44.93511" lon="6.19152">
        <ele>1576.1</ele>
        <time>2023-07-24T09:06:20Z</time>
      </trkpt>
      <trkpt lat="44.9351" lon="6.19157">
        <ele>1574.5</ele>
        <time>2023-07-24T09:06:27Z</time>
      </trkpt>
      <trkpt lat="44.93513" lon="6.19157">
        <ele>1574.5</ele>
        <time>2023-07-24T09:06:34Z</time>
      </trkpt>
      <trkpt lat="44.93518" lon="6.19155">
        <ele>1574.5</ele>
        <time>2023-07-24T09:06:41Z</time>
      </trkpt>
      <trkpt lat="44.93523" lon="6.19154">
        <ele>1574.6</ele>
        <time>2023-07-24T09:06:48Z</time>
      </trkpt>
      <trkpt lat="44.93522" lon="6.1915">
        <ele>1574.7</ele>
        <time>2023-07-24T09:06:55Z</time>
      </trkpt>
      <trkpt lat="44.9353" lon="6.1915">
        <ele>1574.7</ele>
        <time>2023-07-24T09:07:02Z</time>
      </trkpt>
      <trkpt lat="44.93533" lon="6.19149">
        <ele>1574.7</ele>
        <time>2023-07-24T09:07:09Z</time>
      </trkpt>
      <trkpt lat="44.93538" lon="6.19148">
        <ele>1574.7</ele>
        <time>2023-07-24T09:07:16Z</time>
      </trkpt>
      <trkpt lat="44.93542" lon="6.19149">
        <ele>1574.9</ele>
        <time>2023-07-24T09:07:23Z</time>
      </trkpt>
      <trkpt lat="44.93546" lon="6.19149">
        <ele>1574.9</ele>
        <time>2023-07-24T09:07:30Z</time>
      </trkpt>
      <trkpt lat="44.93537" lon="6.19148">
        <ele>1577.2</ele>
        <time>2023-07-24T09:07:36Z</time>
      </trkpt>
      <trkpt lat="44.9353" lon="6.19147">
        <ele>1579.3</ele>
        <time>2023-07-24T09:07:41Z</time>
      </trkpt>
      <trkpt lat="44.93526" lon="6.19142">
        <ele>1579.3</ele>
        <time>2023-07-24T09:07:48Z</time>
      </trkpt>
      <trkpt lat="44.93527" lon="6.19134">
        <ele>1567.2</ele>
        <time>2023-07-24T09:07:55Z</time>
      </trkpt>
      <trkpt lat="44.93527" lon="6.19138">
        <ele>1564</ele>
        <time>2023-07-24T09:08:02Z</time>
      </trkpt>
      <trkpt lat="44.93527" lon="6.19138">
        <ele>1564</ele>
        <time>2023-07-24T09:08:06Z</time>
      </trkpt>
      <trkpt lat="44.93534" lon="6.19136">
        <ele>1564.1</ele>
        <time>2023-07-24T09:08:14Z</time>
      </trkpt>
      <trkpt lat="44.93534" lon="6.19129">
        <ele>1564.1</ele>
        <time>2023-07-24T09:08:21Z</time>
      </trkpt>
      <trkpt lat="44.93531" lon="6.19129">
        <ele>1564.1</ele>
        <time>2023-07-24T09:08:28Z</time>
      </trkpt>
      <trkpt lat="44.93531" lon="6.19129">
        <ele>1564.1</ele>
        <time>2023-07-24T09:08:31Z</time>
      </trkpt>
      <trkpt lat="44.93533" lon="6.19128">
        <ele>1563.9</ele>
        <time>2023-07-24T09:08:48Z</time>
      </trkpt>
      <trkpt lat="44.93533" lon="6.19128">
        <ele>1563.9</ele>
        <time>2023-07-24T09:08:49Z</time>
      </trkpt>
      <trkpt lat="44.93534" lon="6.19118">
        <ele>1563.8</ele>
        <time>2023-07-24T09:08:58Z</time>
      </trkpt>
      <trkpt lat="44.93537" lon="6.19109">
        <ele>1563.9</ele>
        <time>2023-07-24T09:09:05Z</time>
      </trkpt>
      <trkpt lat="44.93542" lon="6.19106">
        <ele>1564.2</ele>
        <time>2023-07-24T09:09:12Z</time>
      </trkpt>
      <trkpt lat="44.93551" lon="6.19107">
        <ele>1564.3</ele>
        <time>2023-07-24T09:09:19Z</time>
      </trkpt>
      <trkpt lat="44.93549" lon="6.1911">
        <ele>1564.3</ele>
        <time>2023-07-24T09:09:26Z</time>
      </trkpt>
      <trkpt lat="44.93557" lon="6.19116">
        <ele>1564.4</ele>
        <time>2023-07-24T09:09:32Z</time>
      </trkpt>
      <trkpt lat="44.93549" lon="6.19119">
        <ele>1564.4</ele>
        <time>2023-07-24T09:09:39Z</time>
      </trkpt>
      <trkpt lat="44.93554" lon="6.19115">
        <ele>1564.3</ele>
        <time>2023-07-24T09:09:46Z</time>
      </trkpt>
      <trkpt lat="44.93562" lon="6.19113">
        <ele>1564.4</ele>
        <time>2023-07-24T09:09:52Z</time>
      </trkpt>
      <trkpt lat="44.93557" lon="6.19105">
        <ele>1564.4</ele>
        <time>2023-07-24T09:09:59Z</time>
      </trkpt>
      <trkpt lat="44.93557" lon="6.19098">
        <ele>1564.1</ele>
        <time>2023-07-24T09:10:06Z</time>
      </trkpt>
      <trkpt lat="44.9356" lon="6.19088">
        <ele>1564.1</ele>
        <time>2023-07-24T09:10:13Z</time>
      </trkpt>
      <trkpt lat="44.93564" lon="6.19095">
        <ele>1564.3</ele>
        <time>2023-07-24T09:10:20Z</time>
      </trkpt>
      <trkpt lat="44.93569" lon="6.19104">
        <ele>1564.3</ele>
        <time>2023-07-24T09:10:27Z</time>
      </trkpt>
      <trkpt lat="44.93574" lon="6.19099">
        <ele>1564.3</ele>
        <time>2023-07-24T09:10:34Z</time>
      </trkpt>
      <trkpt lat="44.9358" lon="6.19093">
        <ele>1564</ele>
        <time>2023-07-24T09:10:41Z</time>
      </trkpt>
      <trkpt lat="44.93584" lon="6.19094">
        <ele>1563.9</ele>
        <time>2023-07-24T09:10:48Z</time>
      </trkpt>
      <trkpt lat="44.93589" lon="6.19104">
        <ele>1564.3</ele>
        <time>2023-07-24T09:10:52Z</time>
      </trkpt>
      <trkpt lat="44.93586" lon="6.19118">
        <ele>1545.2</ele>
        <time>2023-07-24T09:10:55Z</time>
      </trkpt>
      <trkpt lat="44.9358" lon="6.19124">
        <ele>1533.1</ele>
        <time>2023-07-24T09:11:01Z</time>
      </trkpt>
      <trkpt lat="44.93582" lon="6.1912">
        <ele>1528</ele>
        <time>2023-07-24T09:11:08Z</time>
      </trkpt>
      <trkpt lat="44.9358" lon="6.1912">
        <ele>1526.6</ele>
        <time>2023-07-24T09:11:15Z</time>
      </trkpt>
      <trkpt lat="44.9358" lon="6.19122">
        <ele>1521.7</ele>
        <time>2023-07-24T09:11:22Z</time>
      </trkpt>
      <trkpt lat="44.9358" lon="6.19118">
        <ele>1523.3</ele>
        <time>2023-07-24T09:11:29Z</time>
      </trkpt>
      <trkpt lat="44.93583" lon="6.19118">
        <ele>1520.3</ele>
        <time>2023-07-24T09:11:36Z</time>
      </trkpt>
      <trkpt lat="44.93583" lon="6.19118">
        <ele>1520.7</ele>
        <time>2023-07-24T09:11:38Z</time>
      </trkpt>
      <trkpt lat="44.93584" lon="6.19117">
        <ele>1523.7</ele>
        <time>2023-07-24T09:11:49Z</time>
      </trkpt>
      <trkpt lat="44.93584" lon="6.19117">
        <ele>1523.7</ele>
        <time>2023-07-24T09:11:50Z</time>
      </trkpt>
      <trkpt lat="44.93583" lon="6.19115">
        <ele>1523.4</ele>
        <time>2023-07-24T09:13:30Z</time>
      </trkpt>
      <trkpt lat="44.93583" lon="6.19115">
        <ele>1523.4</ele>
        <time>2023-07-24T09:13:31Z</time>
      </trkpt>
      <trkpt lat="44.93583" lon="6.19115">
        <ele>1523</ele>
        <time>2023-07-24T09:14:10Z</time>
      </trkpt>
      <trkpt lat="44.93582" lon="6.19114">
        <ele>1522.6</ele>
        <time>2023-07-24T09:14:11Z</time>
      </trkpt>
      <trkpt lat="44.93582" lon="6.19116">
        <ele>1518.1</ele>
        <time>2023-07-24T09:16:30Z</time>
      </trkpt>
      <trkpt lat="44.93582" lon="6.19116">
        <ele>1516.6</ele>
        <time>2023-07-24T09:16:32Z</time>
      </trkpt>
      <trkpt lat="44.93582" lon="6.19114">
        <ele>1517.2</ele>
        <time>2023-07-24T09:20:49Z</time>
      </trkpt>
      <trkpt lat="44.93582" lon="6.19114">
        <ele>1517.2</ele>
        <time>2023-07-24T09:20:51Z</time>
      </trkpt>
      <trkpt lat="44.9358" lon="6.1911">
        <ele>1517.7</ele>
        <time>2023-07-24T09:21:06Z</time>
      </trkpt>
      <trkpt lat="44.9358" lon="6.1911">
        <ele>1517.7</ele>
        <time>2023-07-24T09:21:08Z</time>
      </trkpt>
      <trkpt lat="44.9358" lon="6.19107">
        <ele>1519</ele>
        <time>2023-07-24T09:21:29Z</time>
      </trkpt>
      <trkpt lat="44.9358" lon="6.19107">
        <ele>1519</ele>
        <time>2023-07-24T09:21:31Z</time>
      </trkpt>
      <trkpt lat="44.9358" lon="6.19106">
        <ele>1519.7</ele>
        <time>2023-07-24T09:23:22Z</time>
      </trkpt>
      <trkpt lat="44.9358" lon="6.19106">
        <ele>1519.7</ele>
        <time>2023-07-24T09:23:23Z</time>
      </trkpt>
      <trkpt lat="44.9358" lon="6.19107">
        <ele>1519.2</ele>
        <time>2023-07-24T09:24:35Z</time>
      </trkpt>
      <trkpt lat="44.9358" lon="6.19107">
        <ele>1519.2</ele>
        <time>2023-07-24T09:24:36Z</time>
      </trkpt>
      <trkpt lat="44.93583" lon="6.19105">
        <ele>1519.9</ele>
        <time>2023-07-24T09:25:20Z</time>
      </trkpt>
      <trkpt lat="44.93584" lon="6.19104">
        <ele>1517.9</ele>
        <time>2023-07-24T09:25:27Z</time>
      </trkpt>
      <trkpt lat="44.93583" lon="6.1911">
        <ele>1516.4</ele>
        <time>2023-07-24T09:25:34Z</time>
      </trkpt>
      <trkpt lat="44.9358" lon="6.19116">
        <ele>1516.6</ele>
        <time>2023-07-24T09:25:41Z</time>
      </trkpt>
      <trkpt lat="44.93584" lon="6.19123">
        <ele>1516.8</ele>
        <time>2023-07-24T09:25:48Z</time>
      </trkpt>
      <trkpt lat="44.93589" lon="6.1913">
        <ele>1515.7</ele>
        <time>2023-07-24T09:25:54Z</time>
      </trkpt>
      <trkpt lat="44.93591" lon="6.19129">
        <ele>1511.8</ele>
        <time>2023-07-24T09:26:01Z</time>
      </trkpt>
      <trkpt lat="44.93587" lon="6.19124">
        <ele>1510.8</ele>
        <time>2023-07-24T09:26:08Z</time>
      </trkpt>
      <trkpt lat="44.93593" lon="6.19121">
        <ele>1509.5</ele>
        <time>2023-07-24T09:26:15Z</time>
      </trkpt>
      <trkpt lat="44.93596" lon="6.1912">
        <ele>1507.7</ele>
        <time>2023-07-24T09:26:22Z</time>
      </trkpt>
      <trkpt lat="44.93596" lon="6.1912">
        <ele>1506.2</ele>
        <time>2023-07-24T09:26:27Z</time>
      </trkpt>
      <trkpt lat="44.93594" lon="6.19124">
        <ele>1506.3</ele>
        <time>2023-07-24T09:26:35Z</time>
      </trkpt>
      <trkpt lat="44.93589" lon="6.19132">
        <ele>1505.5</ele>
        <time>2023-07-24T09:26:42Z</time>
      </trkpt>
      <trkpt lat="44.93585" lon="6.19141">
        <ele>1503.8</ele>
        <time>2023-07-24T09:26:48Z</time>
      </trkpt>
      <trkpt lat="44.93582" lon="6.19151">
        <ele>1503.3</ele>
        <time>2023-07-24T09:26:55Z</time>
      </trkpt>
      <trkpt lat="44.93579" lon="6.19158">
        <ele>1503.3</ele>
        <time>2023-07-24T09:27:02Z</time>
      </trkpt>
      <trkpt lat="44.93585" lon="6.19167">
        <ele>1500.2</ele>
        <time>2023-07-24T09:27:06Z</time>
      </trkpt>
      <trkpt lat="44.93586" lon="6.19171">
        <ele>1499.1</ele>
        <time>2023-07-24T09:27:13Z</time>
      </trkpt>
      <trkpt lat="44.93591" lon="6.19175">
        <ele>1496.9</ele>
        <time>2023-07-24T09:27:20Z</time>
      </trkpt>
      <trkpt lat="44.93598" lon="6.19178">
        <ele>1492.6</ele>
        <time>2023-07-24T09:27:25Z</time>
      </trkpt>
      <trkpt lat="44.93605" lon="6.19185">
        <ele>1483.9</ele>
        <time>2023-07-24T09:27:32Z</time>
      </trkpt>
      <trkpt lat="44.93611" lon="6.19182">
        <ele>1481.1</ele>
        <time>2023-07-24T09:27:39Z</time>
      </trkpt>
      <trkpt lat="44.93617" lon="6.19176">
        <ele>1484.7</ele>
        <time>2023-07-24T09:27:46Z</time>
      </trkpt>
      <trkpt lat="44.93624" lon="6.19172">
        <ele>1491.1</ele>
        <time>2023-07-24T09:27:53Z</time>
      </trkpt>
      <trkpt lat="44.93625" lon="6.19168">
        <ele>1488.7</ele>
        <time>2023-07-24T09:28:00Z</time>
      </trkpt>
      <trkpt lat="44.93627" lon="6.19165">
        <ele>1492.3</ele>
        <time>2023-07-24T09:28:08Z</time>
      </trkpt>
      <trkpt lat="44.93625" lon="6.19164">
        <ele>1491.4</ele>
        <time>2023-07-24T09:28:14Z</time>
      </trkpt>
      <trkpt lat="44.93629" lon="6.19172">
        <ele>1489.9</ele>
        <time>2023-07-24T09:28:21Z</time>
      </trkpt>
      <trkpt lat="44.93632" lon="6.19177">
        <ele>1490</ele>
        <time>2023-07-24T09:28:28Z</time>
      </trkpt>
      <trkpt lat="44.93636" lon="6.1917">
        <ele>1489.9</ele>
        <time>2023-07-24T09:28:35Z</time>
      </trkpt>
      <trkpt lat="44.93637" lon="6.19164">
        <ele>1489.8</ele>
        <time>2023-07-24T09:28:42Z</time>
      </trkpt>
      <trkpt lat="44.93639" lon="6.19159">
        <ele>1489.7</ele>
        <time>2023-07-24T09:28:49Z</time>
      </trkpt>
      <trkpt lat="44.93642" lon="6.19155">
        <ele>1489.8</ele>
        <time>2023-07-24T09:28:56Z</time>
      </trkpt>
      <trkpt lat="44.93646" lon="6.19148">
        <ele>1489.7</ele>
        <time>2023-07-24T09:29:03Z</time>
      </trkpt>
      <trkpt lat="44.9365" lon="6.19152">
        <ele>1489.7</ele>
        <time>2023-07-24T09:29:10Z</time>
      </trkpt>
      <trkpt lat="44.93655" lon="6.19153">
        <ele>1489.8</ele>
        <time>2023-07-24T09:29:17Z</time>
      </trkpt>
      <trkpt lat="44.93658" lon="6.19145">
        <ele>1489.8</ele>
        <time>2023-07-24T09:29:24Z</time>
      </trkpt>
      <trkpt lat="44.93662" lon="6.19149">
        <ele>1489.8</ele>
        <time>2023-07-24T09:29:31Z</time>
      </trkpt>
      <trkpt lat="44.93667" lon="6.19155">
        <ele>1489.7</ele>
        <time>2023-07-24T09:29:38Z</time>
      </trkpt>
      <trkpt lat="44.93672" lon="6.19161">
        <ele>1489.5</ele>
        <time>2023-07-24T09:29:45Z</time>
      </trkpt>
      <trkpt lat="44.93675" lon="6.19171">
        <ele>1489.6</ele>
        <time>2023-07-24T09:29:52Z</time>
      </trkpt>
      <trkpt lat="44.9368" lon="6.1917">
        <ele>1489.6</ele>
        <time>2023-07-24T09:29:59Z</time>
      </trkpt>
      <trkpt lat="44.93683" lon="6.19173">
        <ele>1489.5</ele>
        <time>2023-07-24T09:30:06Z</time>
      </trkpt>
      <trkpt lat="44.93685" lon="6.19182">
        <ele>1489.5</ele>
        <time>2023-07-24T09:30:13Z</time>
      </trkpt>
      <trkpt lat="44.93686" lon="6.19186">
        <ele>1489.5</ele>
        <time>2023-07-24T09:30:20Z</time>
      </trkpt>
      <trkpt lat="44.93686" lon="6.19186">
        <ele>1489.5</ele>
        <time>2023-07-24T09:30:24Z</time>
      </trkpt>
      <trkpt lat="44.93688" lon="6.19182">
        <ele>1489.6</ele>
        <time>2023-07-24T09:30:31Z</time>
      </trkpt>
      <trkpt lat="44.93693" lon="6.19181">
        <ele>1489.8</ele>
        <time>2023-07-24T09:30:38Z</time>
      </trkpt>
      <trkpt lat="44.93697" lon="6.19187">
        <ele>1489.8</ele>
        <time>2023-07-24T09:30:45Z</time>
      </trkpt>
      <trkpt lat="44.93701" lon="6.19193">
        <ele>1489.4</ele>
        <time>2023-07-24T09:30:52Z</time>
      </trkpt>
      <trkpt lat="44.93706" lon="6.19193">
        <ele>1489.3</ele>
        <time>2023-07-24T09:30:59Z</time>
      </trkpt>
      <trkpt lat="44.93707" lon="6.19187">
        <ele>1488.5</ele>
        <time>2023-07-24T09:31:06Z</time>
      </trkpt>
      <trkpt lat="44.93711" lon="6.1918">
        <ele>1488.1</ele>
        <time>2023-07-24T09:31:13Z</time>
      </trkpt>
      <trkpt lat="44.93712" lon="6.19181">
        <ele>1488</ele>
        <time>2023-07-24T09:31:20Z</time>
      </trkpt>
      <trkpt lat="44.93712" lon="6.19182">
        <ele>1488</ele>
        <time>2023-07-24T09:31:24Z</time>
      </trkpt>
      <trkpt lat="44.9371" lon="6.19187">
        <ele>1487.8</ele>
        <time>2023-07-24T09:31:38Z</time>
      </trkpt>
      <trkpt lat="44.9371" lon="6.19187">
        <ele>1487.2</ele>
        <time>2023-07-24T09:31:45Z</time>
      </trkpt>
      <trkpt lat="44.93712" lon="6.19186">
        <ele>1486.8</ele>
        <time>2023-07-24T09:31:55Z</time>
      </trkpt>
      <trkpt lat="44.93712" lon="6.19186">
        <ele>1486.5</ele>
        <time>2023-07-24T09:31:56Z</time>
      </trkpt>
      <trkpt lat="44.93713" lon="6.19191">
        <ele>1455.1</ele>
        <time>2023-07-24T09:32:03Z</time>
      </trkpt>
      <trkpt lat="44.93707" lon="6.19197">
        <ele>1450.6</ele>
        <time>2023-07-24T09:32:07Z</time>
      </trkpt>
      <trkpt lat="44.93699" lon="6.19202">
        <ele>1450.6</ele>
        <time>2023-07-24T09:32:13Z</time>
      </trkpt>
      <trkpt lat="44.937" lon="6.19207">
        <ele>1450.6</ele>
        <time>2023-07-24T09:32:20Z</time>
      </trkpt>
      <trkpt lat="44.93705" lon="6.19207">
        <ele>1450.5</ele>
        <time>2023-07-24T09:32:27Z</time>
      </trkpt>
      <trkpt lat="44.93704" lon="6.19199">
        <ele>1450.5</ele>
        <time>2023-07-24T09:32:34Z</time>
      </trkpt>
      <trkpt lat="44.93708" lon="6.19205">
        <ele>1450.4</ele>
        <time>2023-07-24T09:32:41Z</time>
      </trkpt>
      <trkpt lat="44.93711" lon="6.19208">
        <ele>1450.5</ele>
        <time>2023-07-24T09:32:48Z</time>
      </trkpt>
      <trkpt lat="44.93713" lon="6.19208">
        <ele>1450.5</ele>
        <time>2023-07-24T09:32:55Z</time>
      </trkpt>
      <trkpt lat="44.93712" lon="6.19209">
        <ele>1450.1</ele>
        <time>2023-07-24T09:33:02Z</time>
      </trkpt>
      <trkpt lat="44.93712" lon="6.19209">
        <ele>1450.1</ele>
        <time>2023-07-24T09:33:09Z</time>
      </trkpt>
      <trkpt lat="44.93712" lon="6.1921">
        <ele>1450</ele>
        <time>2023-07-24T09:34:40Z</time>
      </trkpt>
      <trkpt lat="44.93712" lon="6.1921">
        <ele>1450</ele>
        <time>2023-07-24T09:34:41Z</time>
      </trkpt>
      <trkpt lat="44.93707" lon="6.19218">
        <ele>1438.9</ele>
        <time>2023-07-24T09:37:52Z</time>
      </trkpt>
      <trkpt lat="44.93706" lon="6.19226">
        <ele>1432</ele>
        <time>2023-07-24T09:37:59Z</time>
      </trkpt>
      <trkpt lat="44.93706" lon="6.19225">
        <ele>1431.6</ele>
        <time>2023-07-24T09:38:03Z</time>
      </trkpt>
      <trkpt lat="44.93707" lon="6.19226">
        <ele>1430.2</ele>
        <time>2023-07-24T09:38:10Z</time>
      </trkpt>
      <trkpt lat="44.93707" lon="6.19226">
        <ele>1429.9</ele>
        <time>2023-07-24T09:38:11Z</time>
      </trkpt>
      <trkpt lat="44.93708" lon="6.19226">
        <ele>1431.7</ele>
        <time>2023-07-24T09:38:26Z</time>
      </trkpt>
      <trkpt lat="44.93708" lon="6.19226">
        <ele>1431.7</ele>
        <time>2023-07-24T09:38:27Z</time>
      </trkpt>
      <trkpt lat="44.93709" lon="6.19226">
        <ele>1432.2</ele>
        <time>2023-07-24T09:40:15Z</time>
      </trkpt>
      <trkpt lat="44.93709" lon="6.19226">
        <ele>1432.2</ele>
        <time>2023-07-24T09:40:16Z</time>
      </trkpt>
      <trkpt lat="44.93709" lon="6.19226">
        <ele>1432.5</ele>
        <time>2023-07-24T09:42:04Z</time>
      </trkpt>
      <trkpt lat="44.93709" lon="6.19226">
        <ele>1432.5</ele>
        <time>2023-07-24T09:42:05Z</time>
      </trkpt>
      <trkpt lat="44.9371" lon="6.19225">
        <ele>1432.8</ele>
        <time>2023-07-24T09:46:20Z</time>
      </trkpt>
      <trkpt lat="44.9371" lon="6.19225">
        <ele>1432.8</ele>
        <time>2023-07-24T09:46:21Z</time>
      </trkpt>
      <trkpt lat="44.93709" lon="6.19226">
        <ele>1428</ele>
        <time>2023-07-24T09:47:46Z</time>
      </trkpt>
      <trkpt lat="44.93709" lon="6.19225">
        <ele>1427.7</ele>
        <time>2023-07-24T09:47:50Z</time>
      </trkpt>
      <trkpt lat="44.9371" lon="6.19226">
        <ele>1427.2</ele>
        <time>2023-07-24T09:48:10Z</time>
      </trkpt>
      <trkpt lat="44.9371" lon="6.19226">
        <ele>1427.3</ele>
        <time>2023-07-24T09:48:11Z</time>
      </trkpt>
      <trkpt lat="44.93712" lon="6.19228">
        <ele>1424.2</ele>
        <time>2023-07-24T09:48:38Z</time>
      </trkpt>
      <trkpt lat="44.93712" lon="6.19228">
        <ele>1424</ele>
        <time>2023-07-24T09:48:40Z</time>
      </trkpt>
      <trkpt lat="44.93713" lon="6.19231">
        <ele>1423.5</ele>
        <time>2023-07-24T09:48:57Z</time>
      </trkpt>
      <trkpt lat="44.93713" lon="6.19231">
        <ele>1423.5</ele>
        <time>2023-07-24T09:49:01Z</time>
      </trkpt>
      <trkpt lat="44.93713" lon="6.19234">
        <ele>1423.7</ele>
        <time>2023-07-24T09:50:26Z</time>
      </trkpt>
      <trkpt lat="44.9371" lon="6.19242">
        <ele>1424.2</ele>
        <time>2023-07-24T09:50:33Z</time>
      </trkpt>
      <trkpt lat="44.93708" lon="6.19242">
        <ele>1424.8</ele>
        <time>2023-07-24T09:50:40Z</time>
      </trkpt>
      <trkpt lat="44.93708" lon="6.19242">
        <ele>1424.8</ele>
        <time>2023-07-24T09:50:42Z</time>
      </trkpt>
      <trkpt lat="44.93703" lon="6.19249">
        <ele>1424.8</ele>
        <time>2023-07-24T09:50:51Z</time>
      </trkpt>
      <trkpt lat="44.93701" lon="6.1925">
        <ele>1424.8</ele>
        <time>2023-07-24T09:50:58Z</time>
      </trkpt>
      <trkpt lat="44.93701" lon="6.1925">
        <ele>1424.8</ele>
        <time>2023-07-24T09:51:00Z</time>
      </trkpt>
      <trkpt lat="44.937" lon="6.19247">
        <ele>1423.9</ele>
        <time>2023-07-24T09:51:18Z</time>
      </trkpt>
      <trkpt lat="44.93699" lon="6.19253">
        <ele>1423.9</ele>
        <time>2023-07-24T09:51:25Z</time>
      </trkpt>
      <trkpt lat="44.93699" lon="6.19262">
        <ele>1423.9</ele>
        <time>2023-07-24T09:51:32Z</time>
      </trkpt>
      <trkpt lat="44.93695" lon="6.19265">
        <ele>1424</ele>
        <time>2023-07-24T09:51:39Z</time>
      </trkpt>
      <trkpt lat="44.93693" lon="6.19272">
        <ele>1424</ele>
        <time>2023-07-24T09:51:46Z</time>
      </trkpt>
      <trkpt lat="44.93691" lon="6.19275">
        <ele>1424.4</ele>
        <time>2023-07-24T09:51:53Z</time>
      </trkpt>
      <trkpt lat="44.93688" lon="6.19272">
        <ele>1424.2</ele>
        <time>2023-07-24T09:52:00Z</time>
      </trkpt>
      <trkpt lat="44.93695" lon="6.19268">
        <ele>1426</ele>
        <time>2023-07-24T09:52:02Z</time>
      </trkpt>
      <trkpt lat="44.93701" lon="6.19263">
        <ele>1429.8</ele>
        <time>2023-07-24T09:52:06Z</time>
      </trkpt>
      <trkpt lat="44.93697" lon="6.19255">
        <ele>1433.3</ele>
        <time>2023-07-24T09:52:13Z</time>
      </trkpt>
      <trkpt lat="44.93691" lon="6.19254">
        <ele>1433.9</ele>
        <time>2023-07-24T09:52:20Z</time>
      </trkpt>
      <trkpt lat="44.93692" lon="6.19251">
        <ele>1435.2</ele>
        <time>2023-07-24T09:52:27Z</time>
      </trkpt>
      <trkpt lat="44.93692" lon="6.19247">
        <ele>1437.3</ele>
        <time>2023-07-24T09:52:34Z</time>
      </trkpt>
      <trkpt lat="44.9369" lon="6.19245">
        <ele>1439</ele>
        <time>2023-07-24T09:52:41Z</time>
      </trkpt>
      <trkpt lat="44.93682" lon="6.19246">
        <ele>1441.4</ele>
        <time>2023-07-24T09:52:46Z</time>
      </trkpt>
      <trkpt lat="44.93679" lon="6.19246">
        <ele>1441.3</ele>
        <time>2023-07-24T09:52:53Z</time>
      </trkpt>
      <trkpt lat="44.93675" lon="6.19248">
        <ele>1445.4</ele>
        <time>2023-07-24T09:53:00Z</time>
      </trkpt>
      <trkpt lat="44.93675" lon="6.19249">
        <ele>1446.2</ele>
        <time>2023-07-24T09:53:02Z</time>
      </trkpt>
      <trkpt lat="44.93674" lon="6.1925">
        <ele>1452.4</ele>
        <time>2023-07-24T09:53:11Z</time>
      </trkpt>
      <trkpt lat="44.93676" lon="6.1925">
        <ele>1454.7</ele>
        <time>2023-07-24T09:53:18Z</time>
      </trkpt>
      <trkpt lat="44.93674" lon="6.19251">
        <ele>1457.1</ele>
        <time>2023-07-24T09:53:25Z</time>
      </trkpt>
      <trkpt lat="44.9367" lon="6.19251">
        <ele>1459.5</ele>
        <time>2023-07-24T09:53:32Z</time>
      </trkpt>
      <trkpt lat="44.93668" lon="6.19253">
        <ele>1459.4</ele>
        <time>2023-07-24T09:53:39Z</time>
      </trkpt>
      <trkpt lat="44.93667" lon="6.19255">
        <ele>1462.4</ele>
        <time>2023-07-24T09:53:46Z</time>
      </trkpt>
      <trkpt lat="44.9366" lon="6.19258">
        <ele>1461.5</ele>
        <time>2023-07-24T09:53:52Z</time>
      </trkpt>
      <trkpt lat="44.93656" lon="6.19263">
        <ele>1461.1</ele>
        <time>2023-07-24T09:53:59Z</time>
      </trkpt>
      <trkpt lat="44.93655" lon="6.19264">
        <ele>1460.5</ele>
        <time>2023-07-24T09:54:06Z</time>
      </trkpt>
      <trkpt lat="44.93652" lon="6.19265">
        <ele>1462.4</ele>
        <time>2023-07-24T09:54:13Z</time>
      </trkpt>
      <trkpt lat="44.93653" lon="6.19268">
        <ele>1461.4</ele>
        <time>2023-07-24T09:54:20Z</time>
      </trkpt>
      <trkpt lat="44.93651" lon="6.19271">
        <ele>1461.2</ele>
        <time>2023-07-24T09:54:27Z</time>
      </trkpt>
      <trkpt lat="44.93648" lon="6.19276">
        <ele>1460.7</ele>
        <time>2023-07-24T09:54:34Z</time>
      </trkpt>
      <trkpt lat="44.93647" lon="6.19282">
        <ele>1458.4</ele>
        <time>2023-07-24T09:54:41Z</time>
      </trkpt>
      <trkpt lat="44.93646" lon="6.19286">
        <ele>1455.7</ele>
        <time>2023-07-24T09:54:48Z</time>
      </trkpt>
      <trkpt lat="44.93645" lon="6.19292">
        <ele>1457.4</ele>
        <time>2023-07-24T09:54:55Z</time>
      </trkpt>
      <trkpt lat="44.93645" lon="6.19296">
        <ele>1455.4</ele>
        <time>2023-07-24T09:55:02Z</time>
      </trkpt>
      <trkpt lat="44.93646" lon="6.19296">
        <ele>1460.9</ele>
        <time>2023-07-24T09:55:09Z</time>
      </trkpt>
      <trkpt lat="44.9365" lon="6.19299">
        <ele>1457.7</ele>
        <time>2023-07-24T09:55:16Z</time>
      </trkpt>
      <trkpt lat="44.93651" lon="6.19303">
        <ele>1454.4</ele>
        <time>2023-07-24T09:55:23Z</time>
      </trkpt>
      <trkpt lat="44.9365" lon="6.19303">
        <ele>1454.3</ele>
        <time>2023-07-24T09:55:26Z</time>
      </trkpt>
      <trkpt lat="44.9365" lon="6.193">
        <ele>1453</ele>
        <time>2023-07-24T09:55:38Z</time>
      </trkpt>
      <trkpt lat="44.9365" lon="6.193">
        <ele>1455.2</ele>
        <time>2023-07-24T09:55:39Z</time>
      </trkpt>
      <trkpt lat="44.9365" lon="6.193">
        <ele>1460.1</ele>
        <time>2023-07-24T09:55:47Z</time>
      </trkpt>
      <trkpt lat="44.93648" lon="6.193">
        <ele>1461.7</ele>
        <time>2023-07-24T09:55:54Z</time>
      </trkpt>
      <trkpt lat="44.93645" lon="6.19298">
        <ele>1465.5</ele>
        <time>2023-07-24T09:56:01Z</time>
      </trkpt>
      <trkpt lat="44.93644" lon="6.19298">
        <ele>1467.9</ele>
        <time>2023-07-24T09:56:03Z</time>
      </trkpt>
      <trkpt lat="44.9364" lon="6.19299">
        <ele>1465.8</ele>
        <time>2023-07-24T09:56:17Z</time>
      </trkpt>
      <trkpt lat="44.93634" lon="6.19301">
        <ele>1466.5</ele>
        <time>2023-07-24T09:56:24Z</time>
      </trkpt>
      <trkpt lat="44.93627" lon="6.19301">
        <ele>1466.3</ele>
        <time>2023-07-24T09:56:31Z</time>
      </trkpt>
      <trkpt lat="44.93627" lon="6.19303">
        <ele>1468.5</ele>
        <time>2023-07-24T09:56:37Z</time>
      </trkpt>
      <trkpt lat="44.93625" lon="6.19307">
        <ele>1468.3</ele>
        <time>2023-07-24T09:56:45Z</time>
      </trkpt>
      <trkpt lat="44.93621" lon="6.19307">
        <ele>1470.7</ele>
        <time>2023-07-24T09:56:52Z</time>
      </trkpt>
      <trkpt lat="44.93618" lon="6.1931">
        <ele>1471.7</ele>
        <time>2023-07-24T09:56:59Z</time>
      </trkpt>
      <trkpt lat="44.93612" lon="6.19312">
        <ele>1472.6</ele>
        <time>2023-07-24T09:57:06Z</time>
      </trkpt>
      <trkpt lat="44.93607" lon="6.19317">
        <ele>1472.8</ele>
        <time>2023-07-24T09:57:13Z</time>
      </trkpt>
      <trkpt lat="44.93606" lon="6.19323">
        <ele>1467.4</ele>
        <time>2023-07-24T09:57:21Z</time>
      </trkpt>
      <trkpt lat="44.93605" lon="6.19326">
        <ele>1471.5</ele>
        <time>2023-07-24T09:57:27Z</time>
      </trkpt>
      <trkpt lat="44.93602" lon="6.19327">
        <ele>1472.8</ele>
        <time>2023-07-24T09:57:34Z</time>
      </trkpt>
      <trkpt lat="44.93603" lon="6.19328">
        <ele>1475.6</ele>
        <time>2023-07-24T09:57:41Z</time>
      </trkpt>
      <trkpt lat="44.93602" lon="6.19329">
        <ele>1475.4</ele>
        <time>2023-07-24T09:57:47Z</time>
      </trkpt>
      <trkpt lat="44.936" lon="6.19334">
        <ele>1479.2</ele>
        <time>2023-07-24T09:57:56Z</time>
      </trkpt>
      <trkpt lat="44.93596" lon="6.19338">
        <ele>1482.6</ele>
        <time>2023-07-24T09:58:03Z</time>
      </trkpt>
      <trkpt lat="44.93596" lon="6.19338">
        <ele>1485</ele>
        <time>2023-07-24T09:58:06Z</time>
      </trkpt>
      <trkpt lat="44.93598" lon="6.19335">
        <ele>1483.3</ele>
        <time>2023-07-24T09:58:14Z</time>
      </trkpt>
      <trkpt lat="44.93596" lon="6.19336">
        <ele>1485.5</ele>
        <time>2023-07-24T09:58:21Z</time>
      </trkpt>
      <trkpt lat="44.93596" lon="6.19342">
        <ele>1484.6</ele>
        <time>2023-07-24T09:58:28Z</time>
      </trkpt>
      <trkpt lat="44.93595" lon="6.19344">
        <ele>1483.2</ele>
        <time>2023-07-24T09:58:35Z</time>
      </trkpt>
      <trkpt lat="44.93594" lon="6.19344">
        <ele>1481.5</ele>
        <time>2023-07-24T09:58:37Z</time>
      </trkpt>
      <trkpt lat="44.93594" lon="6.19343">
        <ele>1484.1</ele>
        <time>2023-07-24T09:58:44Z</time>
      </trkpt>
      <trkpt lat="44.93594" lon="6.19343">
        <ele>1484.7</ele>
        <time>2023-07-24T09:58:45Z</time>
      </trkpt>
      <trkpt lat="44.93595" lon="6.19346">
        <ele>1485.6</ele>
        <time>2023-07-24T09:58:53Z</time>
      </trkpt>
      <trkpt lat="44.93595" lon="6.19347">
        <ele>1486.1</ele>
        <time>2023-07-24T09:58:54Z</time>
      </trkpt>
      <trkpt lat="44.93596" lon="6.19347">
        <ele>1487</ele>
        <time>2023-07-24T09:59:02Z</time>
      </trkpt>
      <trkpt lat="44.93587" lon="6.19351">
        <ele>1487.7</ele>
        <time>2023-07-24T09:59:04Z</time>
      </trkpt>
      <trkpt lat="44.9358" lon="6.19356">
        <ele>1486.7</ele>
        <time>2023-07-24T09:59:11Z</time>
      </trkpt>
      <trkpt lat="44.93573" lon="6.1936">
        <ele>1485.8</ele>
        <time>2023-07-24T09:59:15Z</time>
      </trkpt>
      <trkpt lat="44.93569" lon="6.19364">
        <ele>1484.7</ele>
        <time>2023-07-24T09:59:22Z</time>
      </trkpt>
      <trkpt lat="44.93574" lon="6.19366">
        <ele>1487.1</ele>
        <time>2023-07-24T09:59:29Z</time>
      </trkpt>
      <trkpt lat="44.93571" lon="6.19364">
        <ele>1488.7</ele>
        <time>2023-07-24T09:59:36Z</time>
      </trkpt>
      <trkpt lat="44.93571" lon="6.19366">
        <ele>1489</ele>
        <time>2023-07-24T09:59:43Z</time>
      </trkpt>
      <trkpt lat="44.9357" lon="6.19367">
        <ele>1489.3</ele>
        <time>2023-07-24T09:59:48Z</time>
      </trkpt>
      <trkpt lat="44.93568" lon="6.19369">
        <ele>1492</ele>
        <time>2023-07-24T09:59:55Z</time>
      </trkpt>
      <trkpt lat="44.93568" lon="6.19371">
        <ele>1496</ele>
        <time>2023-07-24T09:59:59Z</time>
      </trkpt>
      <trkpt lat="44.93562" lon="6.19375">
        <ele>1494.3</ele>
        <time>2023-07-24T10:00:06Z</time>
      </trkpt>
      <trkpt lat="44.93558" lon="6.19379">
        <ele>1495</ele>
        <time>2023-07-24T10:00:13Z</time>
      </trkpt>
      <trkpt lat="44.93557" lon="6.19384">
        <ele>1492</ele>
        <time>2023-07-24T10:00:20Z</time>
      </trkpt>
      <trkpt lat="44.93552" lon="6.19389">
        <ele>1495.2</ele>
        <time>2023-07-24T10:00:27Z</time>
      </trkpt>
      <trkpt lat="44.93549" lon="6.19396">
        <ele>1497.3</ele>
        <time>2023-07-24T10:00:34Z</time>
      </trkpt>
      <trkpt lat="44.93548" lon="6.194">
        <ele>1494.6</ele>
        <time>2023-07-24T10:00:41Z</time>
      </trkpt>
      <trkpt lat="44.93542" lon="6.19403">
        <ele>1494.6</ele>
        <time>2023-07-24T10:00:48Z</time>
      </trkpt>
      <trkpt lat="44.93538" lon="6.19407">
        <ele>1499.6</ele>
        <time>2023-07-24T10:00:55Z</time>
      </trkpt>
      <trkpt lat="44.93534" lon="6.1941">
        <ele>1505.1</ele>
        <time>2023-07-24T10:01:02Z</time>
      </trkpt>
      <trkpt lat="44.93534" lon="6.19409">
        <ele>1504</ele>
        <time>2023-07-24T10:01:09Z</time>
      </trkpt>
      <trkpt lat="44.93541" lon="6.19411">
        <ele>1503.9</ele>
        <time>2023-07-24T10:01:17Z</time>
      </trkpt>
      <trkpt lat="44.93544" lon="6.19419">
        <ele>1504</ele>
        <time>2023-07-24T10:01:24Z</time>
      </trkpt>
      <trkpt lat="44.93544" lon="6.19425">
        <ele>1504</ele>
        <time>2023-07-24T10:01:31Z</time>
      </trkpt>
      <trkpt lat="44.9354" lon="6.19428">
        <ele>1503.8</ele>
        <time>2023-07-24T10:01:38Z</time>
      </trkpt>
      <trkpt lat="44.93529" lon="6.19426">
        <ele>1504</ele>
        <time>2023-07-24T10:01:43Z</time>
      </trkpt>
      <trkpt lat="44.93521" lon="6.19425">
        <ele>1495.7</ele>
        <time>2023-07-24T10:01:45Z</time>
      </trkpt>
      <trkpt lat="44.93519" lon="6.19424">
        <ele>1500.1</ele>
        <time>2023-07-24T10:01:52Z</time>
      </trkpt>
      <trkpt lat="44.93515" lon="6.19424">
        <ele>1502.1</ele>
        <time>2023-07-24T10:01:59Z</time>
      </trkpt>
      <trkpt lat="44.93517" lon="6.19434">
        <ele>1502.6</ele>
        <time>2023-07-24T10:02:05Z</time>
      </trkpt>
      <trkpt lat="44.93518" lon="6.19444">
        <ele>1503.8</ele>
        <time>2023-07-24T10:02:12Z</time>
      </trkpt>
      <trkpt lat="44.93516" lon="6.1945">
        <ele>1504.3</ele>
        <time>2023-07-24T10:02:19Z</time>
      </trkpt>
      <trkpt lat="44.93511" lon="6.19446">
        <ele>1504.4</ele>
        <time>2023-07-24T10:02:26Z</time>
      </trkpt>
      <trkpt lat="44.93509" lon="6.1945">
        <ele>1504.4</ele>
        <time>2023-07-24T10:02:33Z</time>
      </trkpt>
      <trkpt lat="44.9351" lon="6.1945">
        <ele>1504.4</ele>
        <time>2023-07-24T10:02:40Z</time>
      </trkpt>
      <trkpt lat="44.93506" lon="6.19454">
        <ele>1504.4</ele>
        <time>2023-07-24T10:02:47Z</time>
      </trkpt>
      <trkpt lat="44.93504" lon="6.19458">
        <ele>1504.4</ele>
        <time>2023-07-24T10:02:54Z</time>
      </trkpt>
      <trkpt lat="44.93503" lon="6.19458">
        <ele>1504.6</ele>
        <time>2023-07-24T10:02:56Z</time>
      </trkpt>
      <trkpt lat="44.93501" lon="6.19458">
        <ele>1508.7</ele>
        <time>2023-07-24T10:03:04Z</time>
      </trkpt>
      <trkpt lat="44.93502" lon="6.19458">
        <ele>1508.7</ele>
        <time>2023-07-24T10:03:11Z</time>
      </trkpt>
      <trkpt lat="44.93502" lon="6.19458">
        <ele>1508.7</ele>
        <time>2023-07-24T10:03:13Z</time>
      </trkpt>
      <trkpt lat="44.93503" lon="6.19459">
        <ele>1507.3</ele>
        <time>2023-07-24T10:04:52Z</time>
      </trkpt>
      <trkpt lat="44.93503" lon="6.19459">
        <ele>1506.9</ele>
        <time>2023-07-24T10:04:53Z</time>
      </trkpt>
      <trkpt lat="44.93504" lon="6.1946">
        <ele>1505.6</ele>
        <time>2023-07-24T10:06:58Z</time>
      </trkpt>
      <trkpt lat="44.93504" lon="6.1946">
        <ele>1505.7</ele>
        <time>2023-07-24T10:07:00Z</time>
      </trkpt>
      <trkpt lat="44.93506" lon="6.19464">
        <ele>1504.7</ele>
        <time>2023-07-24T10:07:18Z</time>
      </trkpt>
      <trkpt lat="44.93506" lon="6.19464">
        <ele>1504.5</ele>
        <time>2023-07-24T10:07:21Z</time>
      </trkpt>
      <trkpt lat="44.93504" lon="6.19473">
        <ele>1502.8</ele>
        <time>2023-07-24T10:08:23Z</time>
      </trkpt>
      <trkpt lat="44.93504" lon="6.19474">
        <ele>1504.9</ele>
        <time>2023-07-24T10:08:30Z</time>
      </trkpt>
      <trkpt lat="44.93504" lon="6.19474">
        <ele>1504.7</ele>
        <time>2023-07-24T10:08:31Z</time>
      </trkpt>
      <trkpt lat="44.93508" lon="6.19476">
        <ele>1505.7</ele>
        <time>2023-07-24T10:10:38Z</time>
      </trkpt>
      <trkpt lat="44.93508" lon="6.19476">
        <ele>1505.7</ele>
        <time>2023-07-24T10:10:39Z</time>
      </trkpt>
      <trkpt lat="44.93508" lon="6.19477">
        <ele>1505.4</ele>
        <time>2023-07-24T10:12:10Z</time>
      </trkpt>
      <trkpt lat="44.93508" lon="6.19477">
        <ele>1505.4</ele>
        <time>2023-07-24T10:12:11Z</time>
      </trkpt>
      <trkpt lat="44.93504" lon="6.19475">
        <ele>1504.6</ele>
        <time>2023-07-24T10:13:37Z</time>
      </trkpt>
      <trkpt lat="44.935" lon="6.19477">
        <ele>1506.4</ele>
        <time>2023-07-24T10:13:44Z</time>
      </trkpt>
      <trkpt lat="44.93492" lon="6.19478">
        <ele>1506.1</ele>
        <time>2023-07-24T10:13:51Z</time>
      </trkpt>
      <trkpt lat="44.93485" lon="6.19479">
        <ele>1498.4</ele>
        <time>2023-07-24T10:13:58Z</time>
      </trkpt>
      <trkpt lat="44.93479" lon="6.19482">
        <ele>1499.1</ele>
        <time>2023-07-24T10:14:05Z</time>
      </trkpt>
      <trkpt lat="44.93479" lon="6.19488">
        <ele>1500.6</ele>
        <time>2023-07-24T10:14:12Z</time>
      </trkpt>
      <trkpt lat="44.93475" lon="6.19488">
        <ele>1501.8</ele>
        <time>2023-07-24T10:14:19Z</time>
      </trkpt>
      <trkpt lat="44.9347" lon="6.19489">
        <ele>1501.5</ele>
        <time>2023-07-24T10:14:26Z</time>
      </trkpt>
      <trkpt lat="44.93468" lon="6.19491">
        <ele>1506.6</ele>
        <time>2023-07-24T10:14:33Z</time>
      </trkpt>
      <trkpt lat="44.93465" lon="6.19493">
        <ele>1507.2</ele>
        <time>2023-07-24T10:14:40Z</time>
      </trkpt>
      <trkpt lat="44.93459" lon="6.19495">
        <ele>1508</ele>
        <time>2023-07-24T10:14:47Z</time>
      </trkpt>
      <trkpt lat="44.93458" lon="6.19499">
        <ele>1507.4</ele>
        <time>2023-07-24T10:14:54Z</time>
      </trkpt>
      <trkpt lat="44.93455" lon="6.19501">
        <ele>1507.3</ele>
        <time>2023-07-24T10:15:01Z</time>
      </trkpt>
      <trkpt lat="44.93452" lon="6.19502">
        <ele>1506.6</ele>
        <time>2023-07-24T10:15:08Z</time>
      </trkpt>
      <trkpt lat="44.93448" lon="6.19505">
        <ele>1504.2</ele>
        <time>2023-07-24T10:15:15Z</time>
      </trkpt>
      <trkpt lat="44.93445" lon="6.19504">
        <ele>1508.1</ele>
        <time>2023-07-24T10:15:22Z</time>
      </trkpt>
      <trkpt lat="44.9344" lon="6.19498">
        <ele>1508.1</ele>
        <time>2023-07-24T10:15:30Z</time>
      </trkpt>
      <trkpt lat="44.93434" lon="6.19498">
        <ele>1508.1</ele>
        <time>2023-07-24T10:15:36Z</time>
      </trkpt>
      <trkpt lat="44.93426" lon="6.19506">
        <ele>1509.9</ele>
        <time>2023-07-24T10:15:43Z</time>
      </trkpt>
      <trkpt lat="44.9342" lon="6.1951">
        <ele>1506.5</ele>
        <time>2023-07-24T10:15:50Z</time>
      </trkpt>
      <trkpt lat="44.93417" lon="6.19513">
        <ele>1506.4</ele>
        <time>2023-07-24T10:15:57Z</time>
      </trkpt>
      <trkpt lat="44.93414" lon="6.19514">
        <ele>1506.3</ele>
        <time>2023-07-24T10:16:04Z</time>
      </trkpt>
      <trkpt lat="44.93413" lon="6.19515">
        <ele>1506.2</ele>
        <time>2023-07-24T10:16:08Z</time>
      </trkpt>
      <trkpt lat="44.93413" lon="6.1952">
        <ele>1510.6</ele>
        <time>2023-07-24T10:16:15Z</time>
      </trkpt>
      <trkpt lat="44.93412" lon="6.19523">
        <ele>1513.3</ele>
        <time>2023-07-24T10:16:22Z</time>
      </trkpt>
      <trkpt lat="44.93413" lon="6.19527">
        <ele>1515.4</ele>
        <time>2023-07-24T10:16:29Z</time>
      </trkpt>
      <trkpt lat="44.9341" lon="6.19525">
        <ele>1520.6</ele>
        <time>2023-07-24T10:16:36Z</time>
      </trkpt>
      <trkpt lat="44.9341" lon="6.19524">
        <ele>1522.9</ele>
        <time>2023-07-24T10:16:43Z</time>
      </trkpt>
      <trkpt lat="44.93408" lon="6.1952">
        <ele>1520.1</ele>
        <time>2023-07-24T10:16:50Z</time>
      </trkpt>
      <trkpt lat="44.93408" lon="6.19522">
        <ele>1523.1</ele>
        <time>2023-07-24T10:16:57Z</time>
      </trkpt>
      <trkpt lat="44.93404" lon="6.19526">
        <ele>1523</ele>
        <time>2023-07-24T10:17:04Z</time>
      </trkpt>
      <trkpt lat="44.93401" lon="6.19531">
        <ele>1523.1</ele>
        <time>2023-07-24T10:17:11Z</time>
      </trkpt>
      <trkpt lat="44.93398" lon="6.19534">
        <ele>1523.2</ele>
        <time>2023-07-24T10:17:18Z</time>
      </trkpt>
      <trkpt lat="44.93396" lon="6.19536">
        <ele>1526.7</ele>
        <time>2023-07-24T10:17:25Z</time>
      </trkpt>
      <trkpt lat="44.93388" lon="6.19536">
        <ele>1533.8</ele>
        <time>2023-07-24T10:17:30Z</time>
      </trkpt>
      <trkpt lat="44.93388" lon="6.1954">
        <ele>1538.2</ele>
        <time>2023-07-24T10:17:37Z</time>
      </trkpt>
      <trkpt lat="44.93385" lon="6.19543">
        <ele>1538.1</ele>
        <time>2023-07-24T10:17:44Z</time>
      </trkpt>
      <trkpt lat="44.93387" lon="6.19549">
        <ele>1535</ele>
        <time>2023-07-24T10:17:51Z</time>
      </trkpt>
      <trkpt lat="44.93388" lon="6.19547">
        <ele>1537.8</ele>
        <time>2023-07-24T10:17:58Z</time>
      </trkpt>
      <trkpt lat="44.9339" lon="6.19549">
        <ele>1541.8</ele>
        <time>2023-07-24T10:18:05Z</time>
      </trkpt>
      <trkpt lat="44.93386" lon="6.19551">
        <ele>1540.9</ele>
        <time>2023-07-24T10:18:12Z</time>
      </trkpt>
      <trkpt lat="44.93385" lon="6.1955">
        <ele>1540.2</ele>
        <time>2023-07-24T10:18:19Z</time>
      </trkpt>
      <trkpt lat="44.93385" lon="6.19551">
        <ele>1539.4</ele>
        <time>2023-07-24T10:18:27Z</time>
      </trkpt>
      <trkpt lat="44.93382" lon="6.19542">
        <ele>1539.1</ele>
        <time>2023-07-24T10:18:34Z</time>
      </trkpt>
      <trkpt lat="44.9338" lon="6.19537">
        <ele>1538.6</ele>
        <time>2023-07-24T10:18:41Z</time>
      </trkpt>
      <trkpt lat="44.9338" lon="6.1954">
        <ele>1537.5</ele>
        <time>2023-07-24T10:18:48Z</time>
      </trkpt>
      <trkpt lat="44.9338" lon="6.19542">
        <ele>1537.9</ele>
        <time>2023-07-24T10:18:55Z</time>
      </trkpt>
      <trkpt lat="44.93385" lon="6.19546">
        <ele>1536.9</ele>
        <time>2023-07-24T10:19:02Z</time>
      </trkpt>
      <trkpt lat="44.93387" lon="6.19545">
        <ele>1536.8</ele>
        <time>2023-07-24T10:19:09Z</time>
      </trkpt>
      <trkpt lat="44.93387" lon="6.19545">
        <ele>1535.4</ele>
        <time>2023-07-24T10:19:13Z</time>
      </trkpt>
      <trkpt lat="44.93385" lon="6.19542">
        <ele>1539.8</ele>
        <time>2023-07-24T10:19:24Z</time>
      </trkpt>
      <trkpt lat="44.9338" lon="6.19542">
        <ele>1540.2</ele>
        <time>2023-07-24T10:19:31Z</time>
      </trkpt>
      <trkpt lat="44.93375" lon="6.19538">
        <ele>1547.2</ele>
        <time>2023-07-24T10:19:38Z</time>
      </trkpt>
      <trkpt lat="44.93373" lon="6.19536">
        <ele>1550.7</ele>
        <time>2023-07-24T10:19:45Z</time>
      </trkpt>
      <trkpt lat="44.93372" lon="6.19532">
        <ele>1549</ele>
        <time>2023-07-24T10:19:52Z</time>
      </trkpt>
      <trkpt lat="44.93368" lon="6.19541">
        <ele>1548.2</ele>
        <time>2023-07-24T10:19:59Z</time>
      </trkpt>
      <trkpt lat="44.93364" lon="6.19546">
        <ele>1546.9</ele>
        <time>2023-07-24T10:20:06Z</time>
      </trkpt>
      <trkpt lat="44.93364" lon="6.19554">
        <ele>1543.9</ele>
        <time>2023-07-24T10:20:13Z</time>
      </trkpt>
      <trkpt lat="44.93363" lon="6.19559">
        <ele>1548.6</ele>
        <time>2023-07-24T10:20:20Z</time>
      </trkpt>
      <trkpt lat="44.93362" lon="6.19561">
        <ele>1548.2</ele>
        <time>2023-07-24T10:20:27Z</time>
      </trkpt>
      <trkpt lat="44.93363" lon="6.19562">
        <ele>1544.9</ele>
        <time>2023-07-24T10:20:34Z</time>
      </trkpt>
      <trkpt lat="44.93363" lon="6.19562">
        <ele>1544.8</ele>
        <time>2023-07-24T10:20:36Z</time>
      </trkpt>
      <trkpt lat="44.93363" lon="6.1956">
        <ele>1544.5</ele>
        <time>2023-07-24T10:20:49Z</time>
      </trkpt>
      <trkpt lat="44.93361" lon="6.1956">
        <ele>1544.8</ele>
        <time>2023-07-24T10:20:56Z</time>
      </trkpt>
      <trkpt lat="44.93358" lon="6.19568">
        <ele>1543.2</ele>
        <time>2023-07-24T10:21:03Z</time>
      </trkpt>
      <trkpt lat="44.93355" lon="6.1957">
        <ele>1542.8</ele>
        <time>2023-07-24T10:21:10Z</time>
      </trkpt>
      <trkpt lat="44.93361" lon="6.19576">
        <ele>1542.3</ele>
        <time>2023-07-24T10:21:17Z</time>
      </trkpt>
      <trkpt lat="44.9336" lon="6.19576">
        <ele>1541.5</ele>
        <time>2023-07-24T10:21:24Z</time>
      </trkpt>
      <trkpt lat="44.9336" lon="6.19576">
        <ele>1539.5</ele>
        <time>2023-07-24T10:21:28Z</time>
      </trkpt>
      <trkpt lat="44.93365" lon="6.19577">
        <ele>1542.4</ele>
        <time>2023-07-24T10:22:01Z</time>
      </trkpt>
      <trkpt lat="44.93366" lon="6.19576">
        <ele>1545.5</ele>
        <time>2023-07-24T10:22:08Z</time>
      </trkpt>
      <trkpt lat="44.93366" lon="6.19576">
        <ele>1545.9</ele>
        <time>2023-07-24T10:22:09Z</time>
      </trkpt>
      <trkpt lat="44.93365" lon="6.19579">
        <ele>1549.8</ele>
        <time>2023-07-24T10:23:08Z</time>
      </trkpt>
      <trkpt lat="44.93366" lon="6.19577">
        <ele>1548.4</ele>
        <time>2023-07-24T10:23:14Z</time>
      </trkpt>
      <trkpt lat="44.93368" lon="6.19575">
        <ele>1546.2</ele>
        <time>2023-07-24T10:23:23Z</time>
      </trkpt>
      <trkpt lat="44.93368" lon="6.19575">
        <ele>1547.9</ele>
        <time>2023-07-24T10:23:25Z</time>
      </trkpt>
      <trkpt lat="44.93368" lon="6.19574">
        <ele>1550.4</ele>
        <time>2023-07-24T10:23:42Z</time>
      </trkpt>
      <trkpt lat="44.93368" lon="6.19574">
        <ele>1550.5</ele>
        <time>2023-07-24T10:23:43Z</time>
      </trkpt>
      <trkpt lat="44.93369" lon="6.19574">
        <ele>1551.9</ele>
        <time>2023-07-24T10:23:56Z</time>
      </trkpt>
      <trkpt lat="44.93369" lon="6.19574">
        <ele>1551.7</ele>
        <time>2023-07-24T10:23:57Z</time>
      </trkpt>
      <trkpt lat="44.93366" lon="6.19576">
        <ele>1552.7</ele>
        <time>2023-07-24T10:24:07Z</time>
      </trkpt>
      <trkpt lat="44.93291" lon="6.19563">
        <ele>1455.8</ele>
        <time>2023-07-24T11:35:39Z</time>
      </trkpt>
      <trkpt lat="44.93314" lon="6.19563">
        <ele>1504.2</ele>
        <time>2023-07-24T11:35:43Z</time>
      </trkpt>
      <trkpt lat="44.93321" lon="6.19557">
        <ele>1510.7</ele>
        <time>2023-07-24T11:35:46Z</time>
      </trkpt>
      <trkpt lat="44.93328" lon="6.19558">
        <ele>1528.8</ele>
        <time>2023-07-24T11:35:52Z</time>
      </trkpt>
      <trkpt lat="44.93337" lon="6.19567">
        <ele>1535.7</ele>
        <time>2023-07-24T11:35:54Z</time>
      </trkpt>
      <trkpt lat="44.93345" lon="6.19571">
        <ele>1542.7</ele>
        <time>2023-07-24T11:35:56Z</time>
      </trkpt>
      <trkpt lat="44.93348" lon="6.19565">
        <ele>1550.3</ele>
        <time>2023-07-24T11:36:03Z</time>
      </trkpt>
      <trkpt lat="44.93349" lon="6.19565">
        <ele>1551.1</ele>
        <time>2023-07-24T11:36:10Z</time>
      </trkpt>
      <trkpt lat="44.9335" lon="6.19567">
        <ele>1554.6</ele>
        <time>2023-07-24T11:37:16Z</time>
      </trkpt>
      <trkpt lat="44.9335" lon="6.19571">
        <ele>1553.1</ele>
        <time>2023-07-24T11:37:23Z</time>
      </trkpt>
      <trkpt lat="44.9335" lon="6.19576">
        <ele>1554.9</ele>
        <time>2023-07-24T11:37:30Z</time>
      </trkpt>
      <trkpt lat="44.93349" lon="6.19576">
        <ele>1555</ele>
        <time>2023-07-24T11:37:36Z</time>
      </trkpt>
      <trkpt lat="44.93349" lon="6.19577">
        <ele>1555.6</ele>
        <time>2023-07-24T11:38:23Z</time>
      </trkpt>
      <trkpt lat="44.93349" lon="6.19577">
        <ele>1555.6</ele>
        <time>2023-07-24T11:38:24Z</time>
      </trkpt>
      <trkpt lat="44.93352" lon="6.19583">
        <ele>1553.1</ele>
        <time>2023-07-24T11:38:43Z</time>
      </trkpt>
      <trkpt lat="44.93351" lon="6.19584">
        <ele>1553.2</ele>
        <time>2023-07-24T11:38:50Z</time>
      </trkpt>
      <trkpt lat="44.93351" lon="6.19585">
        <ele>1553.1</ele>
        <time>2023-07-24T11:38:54Z</time>
      </trkpt>
      <trkpt lat="44.93345" lon="6.19576">
        <ele>1549</ele>
        <time>2023-07-24T11:40:34Z</time>
      </trkpt>
      <trkpt lat="44.93345" lon="6.19575">
        <ele>1554</ele>
        <time>2023-07-24T11:40:41Z</time>
      </trkpt>
      <trkpt lat="44.93345" lon="6.19576">
        <ele>1554.4</ele>
        <time>2023-07-24T11:40:42Z</time>
      </trkpt>
      <trkpt lat="44.93345" lon="6.19576">
        <ele>1556</ele>
        <time>2023-07-24T11:40:54Z</time>
      </trkpt>
      <trkpt lat="44.93345" lon="6.19576">
        <ele>1556</ele>
        <time>2023-07-24T11:40:55Z</time>
      </trkpt>
      <trkpt lat="44.93343" lon="6.19578">
        <ele>1557.6</ele>
        <time>2023-07-24T11:41:41Z</time>
      </trkpt>
      <trkpt lat="44.93341" lon="6.1958">
        <ele>1559.9</ele>
        <time>2023-07-24T11:41:48Z</time>
      </trkpt>
      <trkpt lat="44.9334" lon="6.1958">
        <ele>1560.3</ele>
        <time>2023-07-24T11:41:52Z</time>
      </trkpt>
      <trkpt lat="44.93337" lon="6.1958">
        <ele>1558.8</ele>
        <time>2023-07-24T11:42:00Z</time>
      </trkpt>
      <trkpt lat="44.93337" lon="6.1958">
        <ele>1558.7</ele>
        <time>2023-07-24T11:42:05Z</time>
      </trkpt>
      <trkpt lat="44.9333" lon="6.19579">
        <ele>1555.1</ele>
        <time>2023-07-24T11:42:19Z</time>
      </trkpt>
      <trkpt lat="44.93323" lon="6.19582">
        <ele>1552.4</ele>
        <time>2023-07-24T11:42:25Z</time>
      </trkpt>
      <trkpt lat="44.93316" lon="6.19583">
        <ele>1552.7</ele>
        <time>2023-07-24T11:42:32Z</time>
      </trkpt>
      <trkpt lat="44.93314" lon="6.19584">
        <ele>1554.5</ele>
        <time>2023-07-24T11:42:39Z</time>
      </trkpt>
      <trkpt lat="44.93314" lon="6.19584">
        <ele>1554.8</ele>
        <time>2023-07-24T11:42:41Z</time>
      </trkpt>
      <trkpt lat="44.93313" lon="6.19585">
        <ele>1554</ele>
        <time>2023-07-24T11:43:18Z</time>
      </trkpt>
      <trkpt lat="44.93313" lon="6.19585">
        <ele>1553.9</ele>
        <time>2023-07-24T11:43:19Z</time>
      </trkpt>
      <trkpt lat="44.93307" lon="6.19593">
        <ele>1548</ele>
        <time>2023-07-24T11:43:24Z</time>
      </trkpt>
      <trkpt lat="44.93301" lon="6.19599">
        <ele>1545.7</ele>
        <time>2023-07-24T11:43:29Z</time>
      </trkpt>
      <trkpt lat="44.93296" lon="6.19609">
        <ele>1543.8</ele>
        <time>2023-07-24T11:43:34Z</time>
      </trkpt>
      <trkpt lat="44.93292" lon="6.19619">
        <ele>1547.5</ele>
        <time>2023-07-24T11:43:40Z</time>
      </trkpt>
      <trkpt lat="44.93289" lon="6.19625">
        <ele>1547.7</ele>
        <time>2023-07-24T11:43:47Z</time>
      </trkpt>
      <trkpt lat="44.93288" lon="6.19628">
        <ele>1547.8</ele>
        <time>2023-07-24T11:43:54Z</time>
      </trkpt>
      <trkpt lat="44.93287" lon="6.19631">
        <ele>1549.1</ele>
        <time>2023-07-24T11:44:01Z</time>
      </trkpt>
      <trkpt lat="44.93287" lon="6.19631">
        <ele>1549.4</ele>
        <time>2023-07-24T11:44:05Z</time>
      </trkpt>
      <trkpt lat="44.93287" lon="6.19636">
        <ele>1549.8</ele>
        <time>2023-07-24T11:44:25Z</time>
      </trkpt>
      <trkpt lat="44.93288" lon="6.19641">
        <ele>1550.6</ele>
        <time>2023-07-24T11:44:32Z</time>
      </trkpt>
      <trkpt lat="44.93296" lon="6.19642">
        <ele>1550.6</ele>
        <time>2023-07-24T11:44:38Z</time>
      </trkpt>
      <trkpt lat="44.93296" lon="6.19641">
        <ele>1563</ele>
        <time>2023-07-24T11:44:45Z</time>
      </trkpt>
      <trkpt lat="44.93295" lon="6.1964">
        <ele>1563</ele>
        <time>2023-07-24T11:44:52Z</time>
      </trkpt>
      <trkpt lat="44.9329" lon="6.19647">
        <ele>1564.9</ele>
        <time>2023-07-24T11:45:00Z</time>
      </trkpt>
      <trkpt lat="44.93286" lon="6.19656">
        <ele>1563.8</ele>
        <time>2023-07-24T11:45:05Z</time>
      </trkpt>
      <trkpt lat="44.93283" lon="6.19666">
        <ele>1564.3</ele>
        <time>2023-07-24T11:45:12Z</time>
      </trkpt>
      <trkpt lat="44.9328" lon="6.1967">
        <ele>1564.4</ele>
        <time>2023-07-24T11:45:19Z</time>
      </trkpt>
      <trkpt lat="44.93278" lon="6.19673">
        <ele>1564.5</ele>
        <time>2023-07-24T11:45:26Z</time>
      </trkpt>
      <trkpt lat="44.93282" lon="6.19684">
        <ele>1571.3</ele>
        <time>2023-07-24T11:45:33Z</time>
      </trkpt>
      <trkpt lat="44.93278" lon="6.19687">
        <ele>1578.9</ele>
        <time>2023-07-24T11:45:40Z</time>
      </trkpt>
      <trkpt lat="44.93278" lon="6.1969">
        <ele>1576.9</ele>
        <time>2023-07-24T11:45:47Z</time>
      </trkpt>
      <trkpt lat="44.93281" lon="6.19689">
        <ele>1578.5</ele>
        <time>2023-07-24T11:45:54Z</time>
      </trkpt>
      <trkpt lat="44.93285" lon="6.19693">
        <ele>1580.8</ele>
        <time>2023-07-24T11:46:01Z</time>
      </trkpt>
      <trkpt lat="44.93283" lon="6.19689">
        <ele>1580.1</ele>
        <time>2023-07-24T11:46:08Z</time>
      </trkpt>
      <trkpt lat="44.9328" lon="6.19688">
        <ele>1586.3</ele>
        <time>2023-07-24T11:46:15Z</time>
      </trkpt>
      <trkpt lat="44.93278" lon="6.19688">
        <ele>1587.3</ele>
        <time>2023-07-24T11:46:22Z</time>
      </trkpt>
      <trkpt lat="44.93278" lon="6.19688">
        <ele>1588.3</ele>
        <time>2023-07-24T11:46:24Z</time>
      </trkpt>
      <trkpt lat="44.93276" lon="6.1969">
        <ele>1588.3</ele>
        <time>2023-07-24T11:46:32Z</time>
      </trkpt>
      <trkpt lat="44.93276" lon="6.19694">
        <ele>1591.2</ele>
        <time>2023-07-24T11:46:39Z</time>
      </trkpt>
      <trkpt lat="44.93272" lon="6.19695">
        <ele>1589</ele>
        <time>2023-07-24T11:46:46Z</time>
      </trkpt>
      <trkpt lat="44.93269" lon="6.19693">
        <ele>1591.9</ele>
        <time>2023-07-24T11:46:54Z</time>
      </trkpt>
      <trkpt lat="44.93264" lon="6.19694">
        <ele>1596.2</ele>
        <time>2023-07-24T11:47:00Z</time>
      </trkpt>
      <trkpt lat="44.93262" lon="6.19695">
        <ele>1595.3</ele>
        <time>2023-07-24T11:47:07Z</time>
      </trkpt>
      <trkpt lat="44.93259" lon="6.19696">
        <ele>1595.3</ele>
        <time>2023-07-24T11:47:14Z</time>
      </trkpt>
      <trkpt lat="44.93256" lon="6.19698">
        <ele>1595.3</ele>
        <time>2023-07-24T11:47:21Z</time>
      </trkpt>
      <trkpt lat="44.93253" lon="6.19701">
        <ele>1595.7</ele>
        <time>2023-07-24T11:47:28Z</time>
      </trkpt>
      <trkpt lat="44.9325" lon="6.19704">
        <ele>1595.9</ele>
        <time>2023-07-24T11:47:35Z</time>
      </trkpt>
      <trkpt lat="44.93247" lon="6.19708">
        <ele>1596.1</ele>
        <time>2023-07-24T11:47:42Z</time>
      </trkpt>
      <trkpt lat="44.93246" lon="6.19718">
        <ele>1600.2</ele>
        <time>2023-07-24T11:47:48Z</time>
      </trkpt>
      <trkpt lat="44.93247" lon="6.19728">
        <ele>1603.8</ele>
        <time>2023-07-24T11:47:55Z</time>
      </trkpt>
      <trkpt lat="44.93243" lon="6.19729">
        <ele>1603.7</ele>
        <time>2023-07-24T11:48:02Z</time>
      </trkpt>
      <trkpt lat="44.9324" lon="6.19732">
        <ele>1604.4</ele>
        <time>2023-07-24T11:48:09Z</time>
      </trkpt>
      <trkpt lat="44.9324" lon="6.19736">
        <ele>1604.5</ele>
        <time>2023-07-24T11:48:16Z</time>
      </trkpt>
      <trkpt lat="44.93237" lon="6.19739">
        <ele>1611.1</ele>
        <time>2023-07-24T11:48:23Z</time>
      </trkpt>
      <trkpt lat="44.93231" lon="6.19744">
        <ele>1611</ele>
        <time>2023-07-24T11:48:30Z</time>
      </trkpt>
      <trkpt lat="44.93229" lon="6.19747">
        <ele>1610.9</ele>
        <time>2023-07-24T11:48:37Z</time>
      </trkpt>
      <trkpt lat="44.93226" lon="6.19752">
        <ele>1611</ele>
        <time>2023-07-24T11:48:44Z</time>
      </trkpt>
      <trkpt lat="44.93224" lon="6.19756">
        <ele>1611</ele>
        <time>2023-07-24T11:48:51Z</time>
      </trkpt>
      <trkpt lat="44.9322" lon="6.19756">
        <ele>1610.5</ele>
        <time>2023-07-24T11:48:58Z</time>
      </trkpt>
      <trkpt lat="44.93214" lon="6.19763">
        <ele>1614.5</ele>
        <time>2023-07-24T11:49:05Z</time>
      </trkpt>
      <trkpt lat="44.93218" lon="6.19771">
        <ele>1614.4</ele>
        <time>2023-07-24T11:49:12Z</time>
      </trkpt>
      <trkpt lat="44.93218" lon="6.19771">
        <ele>1614.3</ele>
        <time>2023-07-24T11:49:19Z</time>
      </trkpt>
      <trkpt lat="44.93221" lon="6.19777">
        <ele>1614.9</ele>
        <time>2023-07-24T11:49:29Z</time>
      </trkpt>
      <trkpt lat="44.93221" lon="6.19777">
        <ele>1612.6</ele>
        <time>2023-07-24T11:49:34Z</time>
      </trkpt>
      <trkpt lat="44.9322" lon="6.1978">
        <ele>1611.8</ele>
        <time>2023-07-24T11:50:28Z</time>
      </trkpt>
      <trkpt lat="44.93216" lon="6.19777">
        <ele>1614.5</ele>
        <time>2023-07-24T11:50:35Z</time>
      </trkpt>
      <trkpt lat="44.93218" lon="6.19783">
        <ele>1615.5</ele>
        <time>2023-07-24T11:50:42Z</time>
      </trkpt>
      <trkpt lat="44.93218" lon="6.19787">
        <ele>1614.4</ele>
        <time>2023-07-24T11:50:49Z</time>
      </trkpt>
      <trkpt lat="44.9321" lon="6.19786">
        <ele>1614.6</ele>
        <time>2023-07-24T11:50:56Z</time>
      </trkpt>
      <trkpt lat="44.93206" lon="6.19783">
        <ele>1614.6</ele>
        <time>2023-07-24T11:51:03Z</time>
      </trkpt>
      <trkpt lat="44.93202" lon="6.19782">
        <ele>1614.8</ele>
        <time>2023-07-24T11:51:10Z</time>
      </trkpt>
      <trkpt lat="44.93199" lon="6.19786">
        <ele>1616.5</ele>
        <time>2023-07-24T11:51:18Z</time>
      </trkpt>
      <trkpt lat="44.93198" lon="6.19788">
        <ele>1618.3</ele>
        <time>2023-07-24T11:51:23Z</time>
      </trkpt>
      <trkpt lat="44.932" lon="6.19793">
        <ele>1618.2</ele>
        <time>2023-07-24T11:51:32Z</time>
      </trkpt>
      <trkpt lat="44.93202" lon="6.198">
        <ele>1618.2</ele>
        <time>2023-07-24T11:51:39Z</time>
      </trkpt>
      <trkpt lat="44.93201" lon="6.19814">
        <ele>1621.5</ele>
        <time>2023-07-24T11:51:43Z</time>
      </trkpt>
      <trkpt lat="44.93204" lon="6.19823">
        <ele>1623.7</ele>
        <time>2023-07-24T11:51:50Z</time>
      </trkpt>
      <trkpt lat="44.93206" lon="6.19825">
        <ele>1626.2</ele>
        <time>2023-07-24T11:51:57Z</time>
      </trkpt>
      <trkpt lat="44.93206" lon="6.19823">
        <ele>1626</ele>
        <time>2023-07-24T11:52:04Z</time>
      </trkpt>
      <trkpt lat="44.93206" lon="6.19823">
        <ele>1626</ele>
        <time>2023-07-24T11:52:07Z</time>
      </trkpt>
      <trkpt lat="44.93206" lon="6.19822">
        <ele>1623.7</ele>
        <time>2023-07-24T11:54:00Z</time>
      </trkpt>
      <trkpt lat="44.93206" lon="6.19822">
        <ele>1623.6</ele>
        <time>2023-07-24T11:54:05Z</time>
      </trkpt>
      <trkpt lat="44.93207" lon="6.19823">
        <ele>1624.1</ele>
        <time>2023-07-24T11:55:13Z</time>
      </trkpt>
      <trkpt lat="44.93208" lon="6.19823">
        <ele>1625.1</ele>
        <time>2023-07-24T11:55:20Z</time>
      </trkpt>
      <trkpt lat="44.93208" lon="6.19823">
        <ele>1624.9</ele>
        <time>2023-07-24T11:55:21Z</time>
      </trkpt>
      <trkpt lat="44.93207" lon="6.19823">
        <ele>1625.8</ele>
        <time>2023-07-24T11:55:52Z</time>
      </trkpt>
      <trkpt lat="44.93207" lon="6.19823">
        <ele>1625.2</ele>
        <time>2023-07-24T11:55:53Z</time>
      </trkpt>
      <trkpt lat="44.93214" lon="6.19823">
        <ele>1628.1</ele>
        <time>2023-07-24T11:56:05Z</time>
      </trkpt>
      <trkpt lat="44.93214" lon="6.19823">
        <ele>1629.6</ele>
        <time>2023-07-24T11:56:12Z</time>
      </trkpt>
      <trkpt lat="44.93215" lon="6.19821">
        <ele>1626.9</ele>
        <time>2023-07-24T11:56:19Z</time>
      </trkpt>
      <trkpt lat="44.93214" lon="6.19822">
        <ele>1627.3</ele>
        <time>2023-07-24T11:56:26Z</time>
      </trkpt>
      <trkpt lat="44.93214" lon="6.19822">
        <ele>1628.9</ele>
        <time>2023-07-24T11:56:29Z</time>
      </trkpt>
      <trkpt lat="44.93215" lon="6.19822">
        <ele>1632.5</ele>
        <time>2023-07-24T11:56:42Z</time>
      </trkpt>
      <trkpt lat="44.93216" lon="6.19822">
        <ele>1632.6</ele>
        <time>2023-07-24T11:56:43Z</time>
      </trkpt>
      <trkpt lat="44.93215" lon="6.19822">
        <ele>1633.5</ele>
        <time>2023-07-24T11:56:52Z</time>
      </trkpt>
      <trkpt lat="44.93215" lon="6.19822">
        <ele>1633.7</ele>
        <time>2023-07-24T11:56:53Z</time>
      </trkpt>
      <trkpt lat="44.93212" lon="6.19822">
        <ele>1632.1</ele>
        <time>2023-07-24T11:57:01Z</time>
      </trkpt>
      <trkpt lat="44.93212" lon="6.19821">
        <ele>1632.5</ele>
        <time>2023-07-24T11:57:09Z</time>
      </trkpt>
      <trkpt lat="44.93212" lon="6.19822">
        <ele>1633.4</ele>
        <time>2023-07-24T11:57:15Z</time>
      </trkpt>
      <trkpt lat="44.93211" lon="6.19821">
        <ele>1632.4</ele>
        <time>2023-07-24T11:57:31Z</time>
      </trkpt>
      <trkpt lat="44.93212" lon="6.19819">
        <ele>1631.2</ele>
        <time>2023-07-24T11:57:38Z</time>
      </trkpt>
      <trkpt lat="44.93212" lon="6.19819">
        <ele>1631.5</ele>
        <time>2023-07-24T11:57:44Z</time>
      </trkpt>
      <trkpt lat="44.93213" lon="6.1982">
        <ele>1632.2</ele>
        <time>2023-07-24T11:57:59Z</time>
      </trkpt>
      <trkpt lat="44.93213" lon="6.19821">
        <ele>1632.5</ele>
        <time>2023-07-24T11:58:00Z</time>
      </trkpt>
      <trkpt lat="44.93215" lon="6.19819">
        <ele>1633.1</ele>
        <time>2023-07-24T11:58:09Z</time>
      </trkpt>
      <trkpt lat="44.93215" lon="6.19818">
        <ele>1632.5</ele>
        <time>2023-07-24T11:58:10Z</time>
      </trkpt>
      <trkpt lat="44.93211" lon="6.1982">
        <ele>1633</ele>
        <time>2023-07-24T11:58:17Z</time>
      </trkpt>
      <trkpt lat="44.93205" lon="6.19818">
        <ele>1629.8</ele>
        <time>2023-07-24T11:58:24Z</time>
      </trkpt>
      <trkpt lat="44.93201" lon="6.1982">
        <ele>1631.9</ele>
        <time>2023-07-24T11:58:31Z</time>
      </trkpt>
      <trkpt lat="44.93201" lon="6.19828">
        <ele>1633.3</ele>
        <time>2023-07-24T11:58:39Z</time>
      </trkpt>
      <trkpt lat="44.93197" lon="6.19828">
        <ele>1636.8</ele>
        <time>2023-07-24T11:58:45Z</time>
      </trkpt>
      <trkpt lat="44.93193" lon="6.19831">
        <ele>1635.2</ele>
        <time>2023-07-24T11:58:52Z</time>
      </trkpt>
      <trkpt lat="44.9319" lon="6.19837">
        <ele>1637.9</ele>
        <time>2023-07-24T11:58:59Z</time>
      </trkpt>
      <trkpt lat="44.93186" lon="6.19842">
        <ele>1637.8</ele>
        <time>2023-07-24T11:59:06Z</time>
      </trkpt>
      <trkpt lat="44.93184" lon="6.19851">
        <ele>1634.4</ele>
        <time>2023-07-24T11:59:13Z</time>
      </trkpt>
      <trkpt lat="44.9318" lon="6.19858">
        <ele>1632.1</ele>
        <time>2023-07-24T11:59:21Z</time>
      </trkpt>
      <trkpt lat="44.93175" lon="6.1986">
        <ele>1630.8</ele>
        <time>2023-07-24T11:59:27Z</time>
      </trkpt>
      <trkpt lat="44.93171" lon="6.19863">
        <ele>1630.9</ele>
        <time>2023-07-24T11:59:34Z</time>
      </trkpt>
      <trkpt lat="44.9317" lon="6.19867">
        <ele>1633.8</ele>
        <time>2023-07-24T11:59:41Z</time>
      </trkpt>
      <trkpt lat="44.93166" lon="6.19868">
        <ele>1633.7</ele>
        <time>2023-07-24T11:59:48Z</time>
      </trkpt>
      <trkpt lat="44.93164" lon="6.19871">
        <ele>1632.2</ele>
        <time>2023-07-24T11:59:55Z</time>
      </trkpt>
      <trkpt lat="44.93167" lon="6.19875">
        <ele>1633.5</ele>
        <time>2023-07-24T12:00:02Z</time>
      </trkpt>
      <trkpt lat="44.93167" lon="6.19876">
        <ele>1634.3</ele>
        <time>2023-07-24T12:00:08Z</time>
      </trkpt>
      <trkpt lat="44.93164" lon="6.19874">
        <ele>1636.9</ele>
        <time>2023-07-24T12:00:43Z</time>
      </trkpt>
      <trkpt lat="44.93162" lon="6.19877">
        <ele>1638.4</ele>
        <time>2023-07-24T12:00:50Z</time>
      </trkpt>
      <trkpt lat="44.93161" lon="6.19877">
        <ele>1639.4</ele>
        <time>2023-07-24T12:00:55Z</time>
      </trkpt>
      <trkpt lat="44.9316" lon="6.19878">
        <ele>1639.5</ele>
        <time>2023-07-24T12:01:02Z</time>
      </trkpt>
      <trkpt lat="44.9316" lon="6.19878">
        <ele>1639.6</ele>
        <time>2023-07-24T12:01:03Z</time>
      </trkpt>
      <trkpt lat="44.93157" lon="6.1988">
        <ele>1643.7</ele>
        <time>2023-07-24T12:01:16Z</time>
      </trkpt>
      <trkpt lat="44.93154" lon="6.19885">
        <ele>1645.9</ele>
        <time>2023-07-24T12:01:23Z</time>
      </trkpt>
      <trkpt lat="44.9315" lon="6.19884">
        <ele>1646.9</ele>
        <time>2023-07-24T12:01:30Z</time>
      </trkpt>
      <trkpt lat="44.93148" lon="6.19886">
        <ele>1649.9</ele>
        <time>2023-07-24T12:01:37Z</time>
      </trkpt>
      <trkpt lat="44.93147" lon="6.19888">
        <ele>1655.1</ele>
        <time>2023-07-24T12:01:44Z</time>
      </trkpt>
      <trkpt lat="44.93146" lon="6.19888">
        <ele>1654</ele>
        <time>2023-07-24T12:01:46Z</time>
      </trkpt>
      <trkpt lat="44.93147" lon="6.1989">
        <ele>1655.2</ele>
        <time>2023-07-24T12:01:53Z</time>
      </trkpt>
      <trkpt lat="44.93147" lon="6.1989">
        <ele>1655.1</ele>
        <time>2023-07-24T12:01:54Z</time>
      </trkpt>
      <trkpt lat="44.93144" lon="6.19892">
        <ele>1654.4</ele>
        <time>2023-07-24T12:02:03Z</time>
      </trkpt>
      <trkpt lat="44.93143" lon="6.19894">
        <ele>1653.5</ele>
        <time>2023-07-24T12:02:10Z</time>
      </trkpt>
      <trkpt lat="44.93141" lon="6.19895">
        <ele>1654.1</ele>
        <time>2023-07-24T12:02:17Z</time>
      </trkpt>
      <trkpt lat="44.9314" lon="6.19895">
        <ele>1653.3</ele>
        <time>2023-07-24T12:02:19Z</time>
      </trkpt>
      <trkpt lat="44.93138" lon="6.19898">
        <ele>1656.4</ele>
        <time>2023-07-24T12:02:28Z</time>
      </trkpt>
      <trkpt lat="44.93139" lon="6.199">
        <ele>1659</ele>
        <time>2023-07-24T12:02:35Z</time>
      </trkpt>
      <trkpt lat="44.93135" lon="6.19901">
        <ele>1656.8</ele>
        <time>2023-07-24T12:02:42Z</time>
      </trkpt>
      <trkpt lat="44.93133" lon="6.19901">
        <ele>1656.4</ele>
        <time>2023-07-24T12:02:49Z</time>
      </trkpt>
      <trkpt lat="44.93133" lon="6.19901">
        <ele>1656.2</ele>
        <time>2023-07-24T12:02:51Z</time>
      </trkpt>
      <trkpt lat="44.9313" lon="6.19905">
        <ele>1659.6</ele>
        <time>2023-07-24T12:02:58Z</time>
      </trkpt>
      <trkpt lat="44.93132" lon="6.19905">
        <ele>1662.1</ele>
        <time>2023-07-24T12:03:05Z</time>
      </trkpt>
      <trkpt lat="44.93131" lon="6.19905">
        <ele>1662.6</ele>
        <time>2023-07-24T12:03:07Z</time>
      </trkpt>
      <trkpt lat="44.9313" lon="6.19906">
        <ele>1663.9</ele>
        <time>2023-07-24T12:03:15Z</time>
      </trkpt>
      <trkpt lat="44.9313" lon="6.19906">
        <ele>1663.8</ele>
        <time>2023-07-24T12:03:16Z</time>
      </trkpt>
      <trkpt lat="44.93129" lon="6.1991">
        <ele>1665.6</ele>
        <time>2023-07-24T12:03:27Z</time>
      </trkpt>
      <trkpt lat="44.93128" lon="6.19911">
        <ele>1664.3</ele>
        <time>2023-07-24T12:03:34Z</time>
      </trkpt>
      <trkpt lat="44.93126" lon="6.19913">
        <ele>1666.1</ele>
        <time>2023-07-24T12:03:41Z</time>
      </trkpt>
      <trkpt lat="44.93126" lon="6.19914">
        <ele>1666.1</ele>
        <time>2023-07-24T12:03:48Z</time>
      </trkpt>
      <trkpt lat="44.93126" lon="6.19914">
        <ele>1665.5</ele>
        <time>2023-07-24T12:03:49Z</time>
      </trkpt>
      <trkpt lat="44.93126" lon="6.19917">
        <ele>1664.4</ele>
        <time>2023-07-24T12:04:02Z</time>
      </trkpt>
      <trkpt lat="44.93125" lon="6.19914">
        <ele>1664.7</ele>
        <time>2023-07-24T12:04:09Z</time>
      </trkpt>
      <trkpt lat="44.93125" lon="6.1991">
        <ele>1663.9</ele>
        <time>2023-07-24T12:04:16Z</time>
      </trkpt>
      <trkpt lat="44.93125" lon="6.19907">
        <ele>1668.1</ele>
        <time>2023-07-24T12:04:23Z</time>
      </trkpt>
      <trkpt lat="44.93125" lon="6.19907">
        <ele>1668.8</ele>
        <time>2023-07-24T12:04:25Z</time>
      </trkpt>
      <trkpt lat="44.93123" lon="6.19903">
        <ele>1667.3</ele>
        <time>2023-07-24T12:04:33Z</time>
      </trkpt>
      <trkpt lat="44.93123" lon="6.19902">
        <ele>1667.2</ele>
        <time>2023-07-24T12:04:39Z</time>
      </trkpt>
      <trkpt lat="44.93122" lon="6.19901">
        <ele>1669.1</ele>
        <time>2023-07-24T12:04:47Z</time>
      </trkpt>
      <trkpt lat="44.93122" lon="6.19901">
        <ele>1670.2</ele>
        <time>2023-07-24T12:04:48Z</time>
      </trkpt>
      <trkpt lat="44.93123" lon="6.19901">
        <ele>1673.1</ele>
        <time>2023-07-24T12:04:56Z</time>
      </trkpt>
      <trkpt lat="44.93123" lon="6.19901">
        <ele>1674.1</ele>
        <time>2023-07-24T12:05:00Z</time>
      </trkpt>
      <trkpt lat="44.93119" lon="6.19903">
        <ele>1673.7</ele>
        <time>2023-07-24T12:05:08Z</time>
      </trkpt>
      <trkpt lat="44.93115" lon="6.19907">
        <ele>1676</ele>
        <time>2023-07-24T12:05:15Z</time>
      </trkpt>
      <trkpt lat="44.93113" lon="6.19908">
        <ele>1679.1</ele>
        <time>2023-07-24T12:05:22Z</time>
      </trkpt>
      <trkpt lat="44.93112" lon="6.19911">
        <ele>1681.1</ele>
        <time>2023-07-24T12:05:29Z</time>
      </trkpt>
      <trkpt lat="44.93112" lon="6.19914">
        <ele>1683.8</ele>
        <time>2023-07-24T12:05:36Z</time>
      </trkpt>
      <trkpt lat="44.93112" lon="6.19915">
        <ele>1683.7</ele>
        <time>2023-07-24T12:05:43Z</time>
      </trkpt>
      <trkpt lat="44.93112" lon="6.19915">
        <ele>1683.7</ele>
        <time>2023-07-24T12:05:44Z</time>
      </trkpt>
      <trkpt lat="44.93113" lon="6.19921">
        <ele>1681.3</ele>
        <time>2023-07-24T12:05:54Z</time>
      </trkpt>
      <trkpt lat="44.9311" lon="6.19924">
        <ele>1684</ele>
        <time>2023-07-24T12:06:01Z</time>
      </trkpt>
      <trkpt lat="44.93106" lon="6.19927">
        <ele>1685.4</ele>
        <time>2023-07-24T12:06:08Z</time>
      </trkpt>
      <trkpt lat="44.93102" lon="6.1993">
        <ele>1685.7</ele>
        <time>2023-07-24T12:06:15Z</time>
      </trkpt>
      <trkpt lat="44.931" lon="6.19931">
        <ele>1688.6</ele>
        <time>2023-07-24T12:06:22Z</time>
      </trkpt>
      <trkpt lat="44.93098" lon="6.19935">
        <ele>1690.1</ele>
        <time>2023-07-24T12:06:29Z</time>
      </trkpt>
      <trkpt lat="44.93095" lon="6.19935">
        <ele>1688.2</ele>
        <time>2023-07-24T12:06:36Z</time>
      </trkpt>
      <trkpt lat="44.93093" lon="6.19935">
        <ele>1688</ele>
        <time>2023-07-24T12:06:43Z</time>
      </trkpt>
      <trkpt lat="44.93094" lon="6.19935">
        <ele>1688.6</ele>
        <time>2023-07-24T12:06:48Z</time>
      </trkpt>
      <trkpt lat="44.93091" lon="6.19936">
        <ele>1687</ele>
        <time>2023-07-24T12:06:55Z</time>
      </trkpt>
      <trkpt lat="44.93087" lon="6.19937">
        <ele>1688.8</ele>
        <time>2023-07-24T12:07:02Z</time>
      </trkpt>
      <trkpt lat="44.93084" lon="6.19941">
        <ele>1689.5</ele>
        <time>2023-07-24T12:07:09Z</time>
      </trkpt>
      <trkpt lat="44.93081" lon="6.19945">
        <ele>1692.1</ele>
        <time>2023-07-24T12:07:16Z</time>
      </trkpt>
      <trkpt lat="44.93078" lon="6.19949">
        <ele>1692.3</ele>
        <time>2023-07-24T12:07:23Z</time>
      </trkpt>
      <trkpt lat="44.93076" lon="6.19949">
        <ele>1690.6</ele>
        <time>2023-07-24T12:07:29Z</time>
      </trkpt>
      <trkpt lat="44.93075" lon="6.19949">
        <ele>1689.8</ele>
        <time>2023-07-24T12:07:52Z</time>
      </trkpt>
      <trkpt lat="44.93074" lon="6.19949">
        <ele>1689.8</ele>
        <time>2023-07-24T12:07:53Z</time>
      </trkpt>
      <trkpt lat="44.93076" lon="6.1995">
        <ele>1689.6</ele>
        <time>2023-07-24T12:08:26Z</time>
      </trkpt>
      <trkpt lat="44.93076" lon="6.1995">
        <ele>1689.6</ele>
        <time>2023-07-24T12:08:26Z</time>
      </trkpt>
      <trkpt lat="44.93077" lon="6.1995">
        <ele>1685.2</ele>
        <time>2023-07-24T12:14:40Z</time>
      </trkpt>
      <trkpt lat="44.93077" lon="6.1995">
        <ele>1685.2</ele>
        <time>2023-07-24T12:14:41Z</time>
      </trkpt>
      <trkpt lat="44.93076" lon="6.1995">
        <ele>1686.7</ele>
        <time>2023-07-24T12:16:27Z</time>
      </trkpt>
      <trkpt lat="44.93076" lon="6.1995">
        <ele>1686.8</ele>
        <time>2023-07-24T12:16:28Z</time>
      </trkpt>
      <trkpt lat="44.93081" lon="6.1995">
        <ele>1690.3</ele>
        <time>2023-07-24T12:22:24Z</time>
      </trkpt>
      <trkpt lat="44.93081" lon="6.1995">
        <ele>1690.6</ele>
        <time>2023-07-24T12:22:30Z</time>
      </trkpt>
      <trkpt lat="44.93084" lon="6.19947">
        <ele>1690.3</ele>
        <time>2023-07-24T12:24:40Z</time>
      </trkpt>
      <trkpt lat="44.93084" lon="6.19947">
        <ele>1690.4</ele>
        <time>2023-07-24T12:24:47Z</time>
      </trkpt>
      <trkpt lat="44.93083" lon="6.19945">
        <ele>1693.1</ele>
        <time>2023-07-24T12:24:54Z</time>
      </trkpt>
      <trkpt lat="44.9308" lon="6.19943">
        <ele>1692</ele>
        <time>2023-07-24T12:25:01Z</time>
      </trkpt>
      <trkpt lat="44.93074" lon="6.19939">
        <ele>1693.5</ele>
        <time>2023-07-24T12:25:08Z</time>
      </trkpt>
      <trkpt lat="44.9307" lon="6.19938">
        <ele>1693.4</ele>
        <time>2023-07-24T12:25:15Z</time>
      </trkpt>
      <trkpt lat="44.93067" lon="6.19938">
        <ele>1693.4</ele>
        <time>2023-07-24T12:25:22Z</time>
      </trkpt>
      <trkpt lat="44.93063" lon="6.19941">
        <ele>1693.4</ele>
        <time>2023-07-24T12:25:29Z</time>
      </trkpt>
      <trkpt lat="44.93062" lon="6.19956">
        <ele>1694.3</ele>
        <time>2023-07-24T12:25:31Z</time>
      </trkpt>
      <trkpt lat="44.93059" lon="6.19964">
        <ele>1696.4</ele>
        <time>2023-07-24T12:25:38Z</time>
      </trkpt>
      <trkpt lat="44.93056" lon="6.19966">
        <ele>1696.6</ele>
        <time>2023-07-24T12:25:45Z</time>
      </trkpt>
      <trkpt lat="44.93053" lon="6.19966">
        <ele>1696.7</ele>
        <time>2023-07-24T12:25:52Z</time>
      </trkpt>
      <trkpt lat="44.93049" lon="6.19964">
        <ele>1696.7</ele>
        <time>2023-07-24T12:25:59Z</time>
      </trkpt>
      <trkpt lat="44.93046" lon="6.19961">
        <ele>1696.7</ele>
        <time>2023-07-24T12:26:06Z</time>
      </trkpt>
      <trkpt lat="44.93042" lon="6.19962">
        <ele>1697</ele>
        <time>2023-07-24T12:26:13Z</time>
      </trkpt>
      <trkpt lat="44.93038" lon="6.19963">
        <ele>1697.3</ele>
        <time>2023-07-24T12:26:20Z</time>
      </trkpt>
      <trkpt lat="44.93034" lon="6.19964">
        <ele>1697.8</ele>
        <time>2023-07-24T12:26:27Z</time>
      </trkpt>
      <trkpt lat="44.93033" lon="6.19964">
        <ele>1697.7</ele>
        <time>2023-07-24T12:26:34Z</time>
      </trkpt>
      <trkpt lat="44.93033" lon="6.19965">
        <ele>1697.6</ele>
        <time>2023-07-24T12:26:36Z</time>
      </trkpt>
      <trkpt lat="44.9303" lon="6.1997">
        <ele>1698.9</ele>
        <time>2023-07-24T12:26:46Z</time>
      </trkpt>
      <trkpt lat="44.93027" lon="6.19976">
        <ele>1699.4</ele>
        <time>2023-07-24T12:26:53Z</time>
      </trkpt>
      <trkpt lat="44.93025" lon="6.19982">
        <ele>1699.6</ele>
        <time>2023-07-24T12:27:00Z</time>
      </trkpt>
      <trkpt lat="44.93023" lon="6.19986">
        <ele>1700.6</ele>
        <time>2023-07-24T12:27:07Z</time>
      </trkpt>
      <trkpt lat="44.93021" lon="6.19992">
        <ele>1701.1</ele>
        <time>2023-07-24T12:27:15Z</time>
      </trkpt>
      <trkpt lat="44.93018" lon="6.19998">
        <ele>1701.8</ele>
        <time>2023-07-24T12:27:21Z</time>
      </trkpt>
      <trkpt lat="44.93016" lon="6.20002">
        <ele>1703.1</ele>
        <time>2023-07-24T12:27:28Z</time>
      </trkpt>
      <trkpt lat="44.93014" lon="6.20006">
        <ele>1703.6</ele>
        <time>2023-07-24T12:27:35Z</time>
      </trkpt>
      <trkpt lat="44.93013" lon="6.20012">
        <ele>1703.7</ele>
        <time>2023-07-24T12:27:42Z</time>
      </trkpt>
      <trkpt lat="44.93013" lon="6.20017">
        <ele>1703.9</ele>
        <time>2023-07-24T12:27:49Z</time>
      </trkpt>
      <trkpt lat="44.93011" lon="6.20023">
        <ele>1704.3</ele>
        <time>2023-07-24T12:27:57Z</time>
      </trkpt>
      <trkpt lat="44.93011" lon="6.20028">
        <ele>1704.4</ele>
        <time>2023-07-24T12:28:03Z</time>
      </trkpt>
      <trkpt lat="44.93011" lon="6.20029">
        <ele>1704.5</ele>
        <time>2023-07-24T12:28:10Z</time>
      </trkpt>
      <trkpt lat="44.93019" lon="6.20029">
        <ele>1738</ele>
        <time>2023-07-24T12:28:15Z</time>
      </trkpt>
      <trkpt lat="44.9302" lon="6.20032">
        <ele>1732.4</ele>
        <time>2023-07-24T12:28:22Z</time>
      </trkpt>
      <trkpt lat="44.93017" lon="6.20036">
        <ele>1734.2</ele>
        <time>2023-07-24T12:28:29Z</time>
      </trkpt>
      <trkpt lat="44.93012" lon="6.20039">
        <ele>1734.6</ele>
        <time>2023-07-24T12:28:36Z</time>
      </trkpt>
      <trkpt lat="44.93011" lon="6.20045">
        <ele>1734.5</ele>
        <time>2023-07-24T12:28:43Z</time>
      </trkpt>
      <trkpt lat="44.9301" lon="6.20049">
        <ele>1734.4</ele>
        <time>2023-07-24T12:28:50Z</time>
      </trkpt>
      <trkpt lat="44.93008" lon="6.20057">
        <ele>1734.1</ele>
        <time>2023-07-24T12:28:57Z</time>
      </trkpt>
      <trkpt lat="44.93002" lon="6.2006">
        <ele>1732.9</ele>
        <time>2023-07-24T12:29:04Z</time>
      </trkpt>
      <trkpt lat="44.93005" lon="6.20063">
        <ele>1735.6</ele>
        <time>2023-07-24T12:29:11Z</time>
      </trkpt>
      <trkpt lat="44.93004" lon="6.20062">
        <ele>1735.5</ele>
        <time>2023-07-24T12:29:18Z</time>
      </trkpt>
      <trkpt lat="44.93004" lon="6.20062">
        <ele>1735.5</ele>
        <time>2023-07-24T12:29:19Z</time>
      </trkpt>
      <trkpt lat="44.93005" lon="6.20061">
        <ele>1734.7</ele>
        <time>2023-07-24T12:29:35Z</time>
      </trkpt>
      <trkpt lat="44.93005" lon="6.2006">
        <ele>1735.2</ele>
        <time>2023-07-24T12:29:36Z</time>
      </trkpt>
      <trkpt lat="44.93005" lon="6.20067">
        <ele>1736.8</ele>
        <time>2023-07-24T12:30:00Z</time>
      </trkpt>
      <trkpt lat="44.93005" lon="6.20067">
        <ele>1736.1</ele>
        <time>2023-07-24T12:30:07Z</time>
      </trkpt>
      <trkpt lat="44.93004" lon="6.20066">
        <ele>1733.7</ele>
        <time>2023-07-24T12:30:18Z</time>
      </trkpt>
      <trkpt lat="44.93004" lon="6.20066">
        <ele>1734.4</ele>
        <time>2023-07-24T12:30:19Z</time>
      </trkpt>
      <trkpt lat="44.93" lon="6.20065">
        <ele>1732.3</ele>
        <time>2023-07-24T12:30:42Z</time>
      </trkpt>
      <trkpt lat="44.92999" lon="6.20065">
        <ele>1732.5</ele>
        <time>2023-07-24T12:30:49Z</time>
      </trkpt>
      <trkpt lat="44.92996" lon="6.2007">
        <ele>1732.5</ele>
        <time>2023-07-24T12:30:56Z</time>
      </trkpt>
      <trkpt lat="44.92996" lon="6.20072">
        <ele>1731.1</ele>
        <time>2023-07-24T12:31:03Z</time>
      </trkpt>
      <trkpt lat="44.92994" lon="6.20077">
        <ele>1729</ele>
        <time>2023-07-24T12:31:10Z</time>
      </trkpt>
      <trkpt lat="44.92993" lon="6.20082">
        <ele>1730.8</ele>
        <time>2023-07-24T12:31:17Z</time>
      </trkpt>
      <trkpt lat="44.92989" lon="6.20085">
        <ele>1731.4</ele>
        <time>2023-07-24T12:31:24Z</time>
      </trkpt>
      <trkpt lat="44.92988" lon="6.20087">
        <ele>1730.3</ele>
        <time>2023-07-24T12:31:31Z</time>
      </trkpt>
      <trkpt lat="44.92984" lon="6.20088">
        <ele>1732.1</ele>
        <time>2023-07-24T12:31:38Z</time>
      </trkpt>
      <trkpt lat="44.92981" lon="6.20092">
        <ele>1730.8</ele>
        <time>2023-07-24T12:31:46Z</time>
      </trkpt>
      <trkpt lat="44.92977" lon="6.201">
        <ele>1730.1</ele>
        <time>2023-07-24T12:31:52Z</time>
      </trkpt>
      <trkpt lat="44.92974" lon="6.20103">
        <ele>1732.6</ele>
        <time>2023-07-24T12:31:59Z</time>
      </trkpt>
      <trkpt lat="44.92974" lon="6.20103">
        <ele>1732.6</ele>
        <time>2023-07-24T12:32:03Z</time>
      </trkpt>
      <trkpt lat="44.9297" lon="6.20103">
        <ele>1734.2</ele>
        <time>2023-07-24T12:32:10Z</time>
      </trkpt>
      <trkpt lat="44.92967" lon="6.20107">
        <ele>1736.9</ele>
        <time>2023-07-24T12:32:17Z</time>
      </trkpt>
      <trkpt lat="44.92964" lon="6.20109">
        <ele>1737.7</ele>
        <time>2023-07-24T12:32:24Z</time>
      </trkpt>
      <trkpt lat="44.92965" lon="6.20114">
        <ele>1739.3</ele>
        <time>2023-07-24T12:32:31Z</time>
      </trkpt>
      <trkpt lat="44.92963" lon="6.20122">
        <ele>1739.5</ele>
        <time>2023-07-24T12:32:39Z</time>
      </trkpt>
      <trkpt lat="44.92958" lon="6.2013">
        <ele>1740.5</ele>
        <time>2023-07-24T12:32:45Z</time>
      </trkpt>
      <trkpt lat="44.92951" lon="6.20135">
        <ele>1738.8</ele>
        <time>2023-07-24T12:32:51Z</time>
      </trkpt>
      <trkpt lat="44.9295" lon="6.20138">
        <ele>1738.4</ele>
        <time>2023-07-24T12:32:57Z</time>
      </trkpt>
      <trkpt lat="44.92949" lon="6.2014">
        <ele>1738.6</ele>
        <time>2023-07-24T12:33:04Z</time>
      </trkpt>
      <trkpt lat="44.92947" lon="6.2014">
        <ele>1738.9</ele>
        <time>2023-07-24T12:33:11Z</time>
      </trkpt>
      <trkpt lat="44.92947" lon="6.2014">
        <ele>1738.9</ele>
        <time>2023-07-24T12:33:14Z</time>
      </trkpt>
      <trkpt lat="44.92946" lon="6.20143">
        <ele>1739.2</ele>
        <time>2023-07-24T12:33:35Z</time>
      </trkpt>
      <trkpt lat="44.92947" lon="6.20147">
        <ele>1737.4</ele>
        <time>2023-07-24T12:33:42Z</time>
      </trkpt>
      <trkpt lat="44.92947" lon="6.20145">
        <ele>1734.7</ele>
        <time>2023-07-24T12:33:49Z</time>
      </trkpt>
      <trkpt lat="44.92949" lon="6.20145">
        <ele>1734.6</ele>
        <time>2023-07-24T12:33:57Z</time>
      </trkpt>
      <trkpt lat="44.92948" lon="6.20145">
        <ele>1733.5</ele>
        <time>2023-07-24T12:34:01Z</time>
      </trkpt>
      <trkpt lat="44.92949" lon="6.20146">
        <ele>1735.4</ele>
        <time>2023-07-24T12:34:11Z</time>
      </trkpt>
      <trkpt lat="44.92949" lon="6.20146">
        <ele>1735.2</ele>
        <time>2023-07-24T12:34:12Z</time>
      </trkpt>
      <trkpt lat="44.92951" lon="6.20147">
        <ele>1735.7</ele>
        <time>2023-07-24T12:34:22Z</time>
      </trkpt>
      <trkpt lat="44.92951" lon="6.20148">
        <ele>1737.4</ele>
        <time>2023-07-24T12:34:26Z</time>
      </trkpt>
      <trkpt lat="44.92951" lon="6.20151">
        <ele>1738.2</ele>
        <time>2023-07-24T12:34:35Z</time>
      </trkpt>
      <trkpt lat="44.92953" lon="6.20152">
        <ele>1738.4</ele>
        <time>2023-07-24T12:34:40Z</time>
      </trkpt>
      <trkpt lat="44.92953" lon="6.20152">
        <ele>1739</ele>
        <time>2023-07-24T12:34:49Z</time>
      </trkpt>
      <trkpt lat="44.92953" lon="6.20152">
        <ele>1739</ele>
        <time>2023-07-24T12:34:51Z</time>
      </trkpt>
      <trkpt lat="44.92955" lon="6.20151">
        <ele>1739.7</ele>
        <time>2023-07-24T12:35:28Z</time>
      </trkpt>
      <trkpt lat="44.92955" lon="6.20151">
        <ele>1739.6</ele>
        <time>2023-07-24T12:35:30Z</time>
      </trkpt>
      <trkpt lat="44.92955" lon="6.20153">
        <ele>1739.6</ele>
        <time>2023-07-24T12:36:08Z</time>
      </trkpt>
      <trkpt lat="44.92955" lon="6.20153">
        <ele>1739.3</ele>
        <time>2023-07-24T12:36:15Z</time>
      </trkpt>
      <trkpt lat="44.92955" lon="6.20153">
        <ele>1739.3</ele>
        <time>2023-07-24T12:36:17Z</time>
      </trkpt>
      <trkpt lat="44.92955" lon="6.20152">
        <ele>1739.4</ele>
        <time>2023-07-24T12:38:27Z</time>
      </trkpt>
      <trkpt lat="44.92955" lon="6.20152">
        <ele>1739.4</ele>
        <time>2023-07-24T12:38:28Z</time>
      </trkpt>
      <trkpt lat="44.92951" lon="6.20159">
        <ele>1739.4</ele>
        <time>2023-07-24T12:40:06Z</time>
      </trkpt>
      <trkpt lat="44.9295" lon="6.20165">
        <ele>1739.5</ele>
        <time>2023-07-24T12:40:13Z</time>
      </trkpt>
      <trkpt lat="44.92945" lon="6.20164">
        <ele>1742.6</ele>
        <time>2023-07-24T12:40:21Z</time>
      </trkpt>
      <trkpt lat="44.92938" lon="6.20161">
        <ele>1744.5</ele>
        <time>2023-07-24T12:40:27Z</time>
      </trkpt>
      <trkpt lat="44.92932" lon="6.20161">
        <ele>1741.1</ele>
        <time>2023-07-24T12:40:33Z</time>
      </trkpt>
      <trkpt lat="44.92933" lon="6.20169">
        <ele>1746.5</ele>
        <time>2023-07-24T12:40:40Z</time>
      </trkpt>
      <trkpt lat="44.92928" lon="6.20174">
        <ele>1753.2</ele>
        <time>2023-07-24T12:40:47Z</time>
      </trkpt>
      <trkpt lat="44.92924" lon="6.20179">
        <ele>1749.7</ele>
        <time>2023-07-24T12:40:55Z</time>
      </trkpt>
      <trkpt lat="44.9292" lon="6.20184">
        <ele>1749.8</ele>
        <time>2023-07-24T12:41:01Z</time>
      </trkpt>
      <trkpt lat="44.92922" lon="6.20186">
        <ele>1750.1</ele>
        <time>2023-07-24T12:41:07Z</time>
      </trkpt>
      <trkpt lat="44.9292" lon="6.20193">
        <ele>1750.1</ele>
        <time>2023-07-24T12:41:19Z</time>
      </trkpt>
      <trkpt lat="44.92922" lon="6.20203">
        <ele>1750</ele>
        <time>2023-07-24T12:41:27Z</time>
      </trkpt>
      <trkpt lat="44.9292" lon="6.20209">
        <ele>1747.7</ele>
        <time>2023-07-24T12:41:33Z</time>
      </trkpt>
      <trkpt lat="44.92918" lon="6.20212">
        <ele>1744.7</ele>
        <time>2023-07-24T12:41:40Z</time>
      </trkpt>
      <trkpt lat="44.92918" lon="6.20212">
        <ele>1744.5</ele>
        <time>2023-07-24T12:41:45Z</time>
      </trkpt>
      <trkpt lat="44.92915" lon="6.20218">
        <ele>1744.3</ele>
        <time>2023-07-24T12:41:51Z</time>
      </trkpt>
      <trkpt lat="44.92909" lon="6.20224">
        <ele>1744.8</ele>
        <time>2023-07-24T12:41:58Z</time>
      </trkpt>
      <trkpt lat="44.92909" lon="6.20223">
        <ele>1743.8</ele>
        <time>2023-07-24T12:42:05Z</time>
      </trkpt>
      <trkpt lat="44.92911" lon="6.20222">
        <ele>1744.4</ele>
        <time>2023-07-24T12:42:36Z</time>
      </trkpt>
      <trkpt lat="44.92911" lon="6.20222">
        <ele>1744.4</ele>
        <time>2023-07-24T12:42:38Z</time>
      </trkpt>
      <trkpt lat="44.92913" lon="6.20222">
        <ele>1744.6</ele>
        <time>2023-07-24T12:44:25Z</time>
      </trkpt>
      <trkpt lat="44.92908" lon="6.20225">
        <ele>1742.4</ele>
        <time>2023-07-24T12:44:33Z</time>
      </trkpt>
      <trkpt lat="44.92907" lon="6.20225">
        <ele>1741.9</ele>
        <time>2023-07-24T12:44:38Z</time>
      </trkpt>
      <trkpt lat="44.92903" lon="6.20235">
        <ele>1737.8</ele>
        <time>2023-07-24T12:44:48Z</time>
      </trkpt>
      <trkpt lat="44.92895" lon="6.20238">
        <ele>1736.4</ele>
        <time>2023-07-24T12:44:51Z</time>
      </trkpt>
      <trkpt lat="44.9289" lon="6.20243">
        <ele>1735.5</ele>
        <time>2023-07-24T12:44:58Z</time>
      </trkpt>
      <trkpt lat="44.92885" lon="6.20244">
        <ele>1737.1</ele>
        <time>2023-07-24T12:45:06Z</time>
      </trkpt>
      <trkpt lat="44.92886" lon="6.20251">
        <ele>1731.4</ele>
        <time>2023-07-24T12:45:12Z</time>
      </trkpt>
      <trkpt lat="44.92884" lon="6.20261">
        <ele>1728.2</ele>
        <time>2023-07-24T12:45:19Z</time>
      </trkpt>
      <trkpt lat="44.92882" lon="6.20267">
        <ele>1726.8</ele>
        <time>2023-07-24T12:45:26Z</time>
      </trkpt>
      <trkpt lat="44.92883" lon="6.20271">
        <ele>1725.9</ele>
        <time>2023-07-24T12:45:33Z</time>
      </trkpt>
      <trkpt lat="44.92881" lon="6.20273">
        <ele>1723.5</ele>
        <time>2023-07-24T12:45:40Z</time>
      </trkpt>
      <trkpt lat="44.92879" lon="6.20278">
        <ele>1721.8</ele>
        <time>2023-07-24T12:45:47Z</time>
      </trkpt>
      <trkpt lat="44.92878" lon="6.20276">
        <ele>1722.1</ele>
        <time>2023-07-24T12:45:53Z</time>
      </trkpt>
      <trkpt lat="44.92879" lon="6.20276">
        <ele>1723.7</ele>
        <time>2023-07-24T12:46:01Z</time>
      </trkpt>
      <trkpt lat="44.92879" lon="6.20276">
        <ele>1723.3</ele>
        <time>2023-07-24T12:46:02Z</time>
      </trkpt>
      <trkpt lat="44.92877" lon="6.20276">
        <ele>1721.4</ele>
        <time>2023-07-24T12:46:10Z</time>
      </trkpt>
      <trkpt lat="44.92871" lon="6.20278">
        <ele>1720.5</ele>
        <time>2023-07-24T12:46:18Z</time>
      </trkpt>
      <trkpt lat="44.92866" lon="6.20279">
        <ele>1719.2</ele>
        <time>2023-07-24T12:46:24Z</time>
      </trkpt>
      <trkpt lat="44.92862" lon="6.20279">
        <ele>1719.6</ele>
        <time>2023-07-24T12:46:31Z</time>
      </trkpt>
      <trkpt lat="44.9286" lon="6.20275">
        <ele>1720.6</ele>
        <time>2023-07-24T12:46:38Z</time>
      </trkpt>
      <trkpt lat="44.9286" lon="6.20281">
        <ele>1724.7</ele>
        <time>2023-07-24T12:46:45Z</time>
      </trkpt>
      <trkpt lat="44.92855" lon="6.20284">
        <ele>1725.5</ele>
        <time>2023-07-24T12:46:52Z</time>
      </trkpt>
      <trkpt lat="44.92847" lon="6.20288">
        <ele>1725.1</ele>
        <time>2023-07-24T12:46:57Z</time>
      </trkpt>
      <trkpt lat="44.92843" lon="6.2029">
        <ele>1722.1</ele>
        <time>2023-07-24T12:47:04Z</time>
      </trkpt>
      <trkpt lat="44.92844" lon="6.20292">
        <ele>1719.4</ele>
        <time>2023-07-24T12:47:12Z</time>
      </trkpt>
      <trkpt lat="44.92846" lon="6.20295">
        <ele>1718.9</ele>
        <time>2023-07-24T12:47:18Z</time>
      </trkpt>
      <trkpt lat="44.92844" lon="6.20298">
        <ele>1716.7</ele>
        <time>2023-07-24T12:47:25Z</time>
      </trkpt>
      <trkpt lat="44.92839" lon="6.20296">
        <ele>1716.8</ele>
        <time>2023-07-24T12:47:32Z</time>
      </trkpt>
      <trkpt lat="44.92837" lon="6.20295">
        <ele>1718.6</ele>
        <time>2023-07-24T12:47:39Z</time>
      </trkpt>
      <trkpt lat="44.92837" lon="6.20292">
        <ele>1718</ele>
        <time>2023-07-24T12:47:46Z</time>
      </trkpt>
      <trkpt lat="44.92832" lon="6.2029">
        <ele>1721.3</ele>
        <time>2023-07-24T12:47:54Z</time>
      </trkpt>
      <trkpt lat="44.92829" lon="6.20287">
        <ele>1720.2</ele>
        <time>2023-07-24T12:48:00Z</time>
      </trkpt>
      <trkpt lat="44.92827" lon="6.2028">
        <ele>1720.1</ele>
        <time>2023-07-24T12:48:07Z</time>
      </trkpt>
      <trkpt lat="44.92821" lon="6.20281">
        <ele>1718.8</ele>
        <time>2023-07-24T12:48:14Z</time>
      </trkpt>
      <trkpt lat="44.92814" lon="6.20286">
        <ele>1718.8</ele>
        <time>2023-07-24T12:48:21Z</time>
      </trkpt>
      <trkpt lat="44.92808" lon="6.20289">
        <ele>1718.9</ele>
        <time>2023-07-24T12:48:28Z</time>
      </trkpt>
      <trkpt lat="44.92808" lon="6.20289">
        <ele>1718</ele>
        <time>2023-07-24T12:48:34Z</time>
      </trkpt>
      <trkpt lat="44.92808" lon="6.20291">
        <ele>1717.2</ele>
        <time>2023-07-24T12:49:43Z</time>
      </trkpt>
      <trkpt lat="44.92805" lon="6.20297">
        <ele>1717.2</ele>
        <time>2023-07-24T12:49:50Z</time>
      </trkpt>
      <trkpt lat="44.92799" lon="6.203">
        <ele>1717.3</ele>
        <time>2023-07-24T12:49:57Z</time>
      </trkpt>
      <trkpt lat="44.92795" lon="6.20305">
        <ele>1717.2</ele>
        <time>2023-07-24T12:50:04Z</time>
      </trkpt>
      <trkpt lat="44.92789" lon="6.20308">
        <ele>1717.2</ele>
        <time>2023-07-24T12:50:12Z</time>
      </trkpt>
      <trkpt lat="44.92783" lon="6.20309">
        <ele>1717.3</ele>
        <time>2023-07-24T12:50:18Z</time>
      </trkpt>
      <trkpt lat="44.92778" lon="6.20308">
        <ele>1717.3</ele>
        <time>2023-07-24T12:50:25Z</time>
      </trkpt>
      <trkpt lat="44.92772" lon="6.20306">
        <ele>1717.2</ele>
        <time>2023-07-24T12:50:32Z</time>
      </trkpt>
      <trkpt lat="44.92768" lon="6.20305">
        <ele>1717.3</ele>
        <time>2023-07-24T12:50:39Z</time>
      </trkpt>
      <trkpt lat="44.92763" lon="6.20305">
        <ele>1717.4</ele>
        <time>2023-07-24T12:50:46Z</time>
      </trkpt>
      <trkpt lat="44.92757" lon="6.20313">
        <ele>1717.4</ele>
        <time>2023-07-24T12:50:54Z</time>
      </trkpt>
      <trkpt lat="44.92751" lon="6.20311">
        <ele>1717.4</ele>
        <time>2023-07-24T12:51:00Z</time>
      </trkpt>
      <trkpt lat="44.92745" lon="6.20313">
        <ele>1717.2</ele>
        <time>2023-07-24T12:51:07Z</time>
      </trkpt>
      <trkpt lat="44.9274" lon="6.20316">
        <ele>1717.3</ele>
        <time>2023-07-24T12:51:14Z</time>
      </trkpt>
      <trkpt lat="44.92737" lon="6.20313">
        <ele>1720.8</ele>
        <time>2023-07-24T12:51:21Z</time>
      </trkpt>
      <trkpt lat="44.92744" lon="6.20318">
        <ele>1712.7</ele>
        <time>2023-07-24T12:51:28Z</time>
      </trkpt>
      <trkpt lat="44.92744" lon="6.20316">
        <ele>1713.2</ele>
        <time>2023-07-24T12:51:35Z</time>
      </trkpt>
      <trkpt lat="44.92744" lon="6.20316">
        <ele>1713.3</ele>
        <time>2023-07-24T12:51:37Z</time>
      </trkpt>
      <trkpt lat="44.92746" lon="6.20319">
        <ele>1713.4</ele>
        <time>2023-07-24T12:52:00Z</time>
      </trkpt>
      <trkpt lat="44.92747" lon="6.20319">
        <ele>1713.4</ele>
        <time>2023-07-24T12:52:07Z</time>
      </trkpt>
      <trkpt lat="44.92747" lon="6.20319">
        <ele>1713.4</ele>
        <time>2023-07-24T12:52:08Z</time>
      </trkpt>
      <trkpt lat="44.9275" lon="6.2032">
        <ele>1713.4</ele>
        <time>2023-07-24T12:52:16Z</time>
      </trkpt>
      <trkpt lat="44.92744" lon="6.20326">
        <ele>1715.9</ele>
        <time>2023-07-24T12:52:18Z</time>
      </trkpt>
      <trkpt lat="44.92744" lon="6.20326">
        <ele>1715.9</ele>
        <time>2023-07-24T12:52:26Z</time>
      </trkpt>
      <trkpt lat="44.92741" lon="6.2033">
        <ele>1725.2</ele>
        <time>2023-07-24T12:52:34Z</time>
      </trkpt>
      <trkpt lat="44.92739" lon="6.20332">
        <ele>1727.9</ele>
        <time>2023-07-24T12:52:42Z</time>
      </trkpt>
      <trkpt lat="44.92743" lon="6.20329">
        <ele>1727.2</ele>
        <time>2023-07-24T12:52:48Z</time>
      </trkpt>
      <trkpt lat="44.92743" lon="6.20325">
        <ele>1727.2</ele>
        <time>2023-07-24T12:52:55Z</time>
      </trkpt>
      <trkpt lat="44.92741" lon="6.20319">
        <ele>1727.3</ele>
        <time>2023-07-24T12:53:02Z</time>
      </trkpt>
      <trkpt lat="44.92733" lon="6.20325">
        <ele>1731.3</ele>
        <time>2023-07-24T12:53:08Z</time>
      </trkpt>
      <trkpt lat="44.92725" lon="6.20329">
        <ele>1731.5</ele>
        <time>2023-07-24T12:53:15Z</time>
      </trkpt>
      <trkpt lat="44.92716" lon="6.20333">
        <ele>1731.9</ele>
        <time>2023-07-24T12:53:20Z</time>
      </trkpt>
      <trkpt lat="44.92712" lon="6.20339">
        <ele>1730.7</ele>
        <time>2023-07-24T12:53:24Z</time>
      </trkpt>
      <trkpt lat="44.92706" lon="6.20343">
        <ele>1732.7</ele>
        <time>2023-07-24T12:53:31Z</time>
      </trkpt>
      <trkpt lat="44.92704" lon="6.20342">
        <ele>1736.9</ele>
        <time>2023-07-24T12:53:38Z</time>
      </trkpt>
      <trkpt lat="44.92705" lon="6.20343">
        <ele>1732.8</ele>
        <time>2023-07-24T12:53:44Z</time>
      </trkpt>
      <trkpt lat="44.927" lon="6.20345">
        <ele>1732</ele>
        <time>2023-07-24T12:53:52Z</time>
      </trkpt>
      <trkpt lat="44.92695" lon="6.20349">
        <ele>1731.6</ele>
        <time>2023-07-24T12:54:00Z</time>
      </trkpt>
      <trkpt lat="44.92691" lon="6.20354">
        <ele>1733.3</ele>
        <time>2023-07-24T12:54:06Z</time>
      </trkpt>
      <trkpt lat="44.92685" lon="6.20355">
        <ele>1731.2</ele>
        <time>2023-07-24T12:54:13Z</time>
      </trkpt>
      <trkpt lat="44.92687" lon="6.20354">
        <ele>1730.4</ele>
        <time>2023-07-24T12:54:20Z</time>
      </trkpt>
      <trkpt lat="44.92683" lon="6.20355">
        <ele>1731.4</ele>
        <time>2023-07-24T12:54:27Z</time>
      </trkpt>
      <trkpt lat="44.92677" lon="6.20358">
        <ele>1726.2</ele>
        <time>2023-07-24T12:54:34Z</time>
      </trkpt>
      <trkpt lat="44.92672" lon="6.20361">
        <ele>1728.5</ele>
        <time>2023-07-24T12:54:41Z</time>
      </trkpt>
      <trkpt lat="44.9267" lon="6.20362">
        <ele>1727.9</ele>
        <time>2023-07-24T12:54:48Z</time>
      </trkpt>
      <trkpt lat="44.9267" lon="6.20362">
        <ele>1726.9</ele>
        <time>2023-07-24T12:54:53Z</time>
      </trkpt>
      <trkpt lat="44.92667" lon="6.20359">
        <ele>1722.4</ele>
        <time>2023-07-24T12:55:20Z</time>
      </trkpt>
      <trkpt lat="44.92663" lon="6.20362">
        <ele>1720.6</ele>
        <time>2023-07-24T12:55:27Z</time>
      </trkpt>
      <trkpt lat="44.9266" lon="6.20362">
        <ele>1718.4</ele>
        <time>2023-07-24T12:55:34Z</time>
      </trkpt>
      <trkpt lat="44.92659" lon="6.20361">
        <ele>1718.9</ele>
        <time>2023-07-24T12:55:38Z</time>
      </trkpt>
      <trkpt lat="44.92655" lon="6.20362">
        <ele>1716.1</ele>
        <time>2023-07-24T12:55:47Z</time>
      </trkpt>
      <trkpt lat="44.92649" lon="6.20363">
        <ele>1716.2</ele>
        <time>2023-07-24T12:55:54Z</time>
      </trkpt>
      <trkpt lat="44.92644" lon="6.20367">
        <ele>1716.3</ele>
        <time>2023-07-24T12:56:01Z</time>
      </trkpt>
      <trkpt lat="44.92639" lon="6.20369">
        <ele>1720</ele>
        <time>2023-07-24T12:56:08Z</time>
      </trkpt>
      <trkpt lat="44.92635" lon="6.20371">
        <ele>1717.4</ele>
        <time>2023-07-24T12:56:15Z</time>
      </trkpt>
      <trkpt lat="44.92632" lon="6.20372">
        <ele>1718.7</ele>
        <time>2023-07-24T12:56:22Z</time>
      </trkpt>
      <trkpt lat="44.92627" lon="6.20374">
        <ele>1721.8</ele>
        <time>2023-07-24T12:56:29Z</time>
      </trkpt>
      <trkpt lat="44.92624" lon="6.20384">
        <ele>1721.9</ele>
        <time>2023-07-24T12:56:36Z</time>
      </trkpt>
      <trkpt lat="44.92618" lon="6.20393">
        <ele>1722.3</ele>
        <time>2023-07-24T12:56:42Z</time>
      </trkpt>
      <trkpt lat="44.92615" lon="6.20394">
        <ele>1722.2</ele>
        <time>2023-07-24T12:56:49Z</time>
      </trkpt>
      <trkpt lat="44.92612" lon="6.20398">
        <ele>1718.7</ele>
        <time>2023-07-24T12:56:56Z</time>
      </trkpt>
      <trkpt lat="44.92611" lon="6.20403">
        <ele>1717.6</ele>
        <time>2023-07-24T12:57:03Z</time>
      </trkpt>
      <trkpt lat="44.92604" lon="6.20404">
        <ele>1716.1</ele>
        <time>2023-07-24T12:57:10Z</time>
      </trkpt>
      <trkpt lat="44.926" lon="6.20405">
        <ele>1716.4</ele>
        <time>2023-07-24T12:57:18Z</time>
      </trkpt>
      <trkpt lat="44.92595" lon="6.20405">
        <ele>1716.7</ele>
        <time>2023-07-24T12:57:24Z</time>
      </trkpt>
      <trkpt lat="44.9259" lon="6.20409">
        <ele>1716.7</ele>
        <time>2023-07-24T12:57:31Z</time>
      </trkpt>
      <trkpt lat="44.92589" lon="6.20416">
        <ele>1716.7</ele>
        <time>2023-07-24T12:57:38Z</time>
      </trkpt>
      <trkpt lat="44.92586" lon="6.20421">
        <ele>1716.7</ele>
        <time>2023-07-24T12:57:45Z</time>
      </trkpt>
      <trkpt lat="44.92594" lon="6.20439">
        <ele>1716.6</ele>
        <time>2023-07-24T12:57:48Z</time>
      </trkpt>
      <trkpt lat="44.92589" lon="6.20443">
        <ele>1714.7</ele>
        <time>2023-07-24T12:57:54Z</time>
      </trkpt>
      <trkpt lat="44.9259" lon="6.20451">
        <ele>1721.3</ele>
        <time>2023-07-24T12:58:01Z</time>
      </trkpt>
      <trkpt lat="44.92588" lon="6.20451">
        <ele>1720.8</ele>
        <time>2023-07-24T12:58:08Z</time>
      </trkpt>
      <trkpt lat="44.92584" lon="6.20454">
        <ele>1718.7</ele>
        <time>2023-07-24T12:58:15Z</time>
      </trkpt>
      <trkpt lat="44.92583" lon="6.20462">
        <ele>1718.6</ele>
        <time>2023-07-24T12:58:22Z</time>
      </trkpt>
      <trkpt lat="44.9258" lon="6.20469">
        <ele>1718.5</ele>
        <time>2023-07-24T12:58:30Z</time>
      </trkpt>
      <trkpt lat="44.9258" lon="6.20469">
        <ele>1718.5</ele>
        <time>2023-07-24T12:58:36Z</time>
      </trkpt>
      <trkpt lat="44.92576" lon="6.20473">
        <ele>1718.3</ele>
        <time>2023-07-24T12:58:58Z</time>
      </trkpt>
      <trkpt lat="44.92567" lon="6.20469">
        <ele>1714.2</ele>
        <time>2023-07-24T12:59:02Z</time>
      </trkpt>
      <trkpt lat="44.92564" lon="6.20467">
        <ele>1716.3</ele>
        <time>2023-07-24T12:59:09Z</time>
      </trkpt>
      <trkpt lat="44.92564" lon="6.20467">
        <ele>1717.3</ele>
        <time>2023-07-24T12:59:11Z</time>
      </trkpt>
      <trkpt lat="44.9256" lon="6.20466">
        <ele>1717.2</ele>
        <time>2023-07-24T12:59:36Z</time>
      </trkpt>
      <trkpt lat="44.92561" lon="6.20478">
        <ele>1716.4</ele>
        <time>2023-07-24T12:59:43Z</time>
      </trkpt>
      <trkpt lat="44.9256" lon="6.20486">
        <ele>1716.1</ele>
        <time>2023-07-24T12:59:50Z</time>
      </trkpt>
      <trkpt lat="44.92555" lon="6.20485">
        <ele>1714.9</ele>
        <time>2023-07-24T12:59:57Z</time>
      </trkpt>
      <trkpt lat="44.92549" lon="6.20483">
        <ele>1712.7</ele>
        <time>2023-07-24T13:00:04Z</time>
      </trkpt>
      <trkpt lat="44.92544" lon="6.20485">
        <ele>1710.3</ele>
        <time>2023-07-24T13:00:11Z</time>
      </trkpt>
      <trkpt lat="44.92539" lon="6.20486">
        <ele>1711.6</ele>
        <time>2023-07-24T13:00:18Z</time>
      </trkpt>
      <trkpt lat="44.92533" lon="6.20487">
        <ele>1711.5</ele>
        <time>2023-07-24T13:00:25Z</time>
      </trkpt>
      <trkpt lat="44.92526" lon="6.20482">
        <ele>1711.1</ele>
        <time>2023-07-24T13:00:32Z</time>
      </trkpt>
      <trkpt lat="44.92523" lon="6.20482">
        <ele>1710.4</ele>
        <time>2023-07-24T13:00:39Z</time>
      </trkpt>
      <trkpt lat="44.92519" lon="6.20484">
        <ele>1710.3</ele>
        <time>2023-07-24T13:00:46Z</time>
      </trkpt>
      <trkpt lat="44.92515" lon="6.20486">
        <ele>1712</ele>
        <time>2023-07-24T13:00:53Z</time>
      </trkpt>
      <trkpt lat="44.92511" lon="6.20486">
        <ele>1712.8</ele>
        <time>2023-07-24T13:01:00Z</time>
      </trkpt>
      <trkpt lat="44.92507" lon="6.20487">
        <ele>1714.5</ele>
        <time>2023-07-24T13:01:07Z</time>
      </trkpt>
      <trkpt lat="44.92499" lon="6.20487">
        <ele>1713.8</ele>
        <time>2023-07-24T13:01:14Z</time>
      </trkpt>
      <trkpt lat="44.92497" lon="6.20488">
        <ele>1715.4</ele>
        <time>2023-07-24T13:01:22Z</time>
      </trkpt>
      <trkpt lat="44.92495" lon="6.20487">
        <ele>1717.4</ele>
        <time>2023-07-24T13:01:26Z</time>
      </trkpt>
      <trkpt lat="44.9249" lon="6.20485">
        <ele>1707.8</ele>
        <time>2023-07-24T13:01:35Z</time>
      </trkpt>
      <trkpt lat="44.92486" lon="6.20489">
        <ele>1706.8</ele>
        <time>2023-07-24T13:01:42Z</time>
      </trkpt>
      <trkpt lat="44.92486" lon="6.20492">
        <ele>1707</ele>
        <time>2023-07-24T13:01:49Z</time>
      </trkpt>
      <trkpt lat="44.92486" lon="6.20492">
        <ele>1706.2</ele>
        <time>2023-07-24T13:01:52Z</time>
      </trkpt>
      <trkpt lat="44.92485" lon="6.20492">
        <ele>1707.8</ele>
        <time>2023-07-24T13:02:13Z</time>
      </trkpt>
      <trkpt lat="44.92485" lon="6.20491">
        <ele>1708.9</ele>
        <time>2023-07-24T13:02:16Z</time>
      </trkpt>
      <trkpt lat="44.92481" lon="6.20491">
        <ele>1710.4</ele>
        <time>2023-07-24T13:02:26Z</time>
      </trkpt>
      <trkpt lat="44.92481" lon="6.20491">
        <ele>1710.9</ele>
        <time>2023-07-24T13:02:30Z</time>
      </trkpt>
      <trkpt lat="44.92479" lon="6.20492">
        <ele>1712.5</ele>
        <time>2023-07-24T13:02:38Z</time>
      </trkpt>
      <trkpt lat="44.92479" lon="6.20492">
        <ele>1713.3</ele>
        <time>2023-07-24T13:02:43Z</time>
      </trkpt>
      <trkpt lat="44.92476" lon="6.20496">
        <ele>1712.4</ele>
        <time>2023-07-24T13:02:59Z</time>
      </trkpt>
      <trkpt lat="44.92473" lon="6.20497">
        <ele>1711.2</ele>
        <time>2023-07-24T13:03:06Z</time>
      </trkpt>
      <trkpt lat="44.92468" lon="6.20498">
        <ele>1712.4</ele>
        <time>2023-07-24T13:03:13Z</time>
      </trkpt>
      <trkpt lat="44.92466" lon="6.20502">
        <ele>1715.2</ele>
        <time>2023-07-24T13:03:21Z</time>
      </trkpt>
      <trkpt lat="44.92461" lon="6.20503">
        <ele>1714.8</ele>
        <time>2023-07-24T13:03:27Z</time>
      </trkpt>
      <trkpt lat="44.92458" lon="6.20501">
        <ele>1712.7</ele>
        <time>2023-07-24T13:03:34Z</time>
      </trkpt>
      <trkpt lat="44.92458" lon="6.20496">
        <ele>1710.9</ele>
        <time>2023-07-24T13:03:41Z</time>
      </trkpt>
      <trkpt lat="44.92455" lon="6.205">
        <ele>1710.5</ele>
        <time>2023-07-24T13:03:48Z</time>
      </trkpt>
      <trkpt lat="44.92456" lon="6.205">
        <ele>1709</ele>
        <time>2023-07-24T13:03:53Z</time>
      </trkpt>
      <trkpt lat="44.92459" lon="6.20496">
        <ele>1712.6</ele>
        <time>2023-07-24T13:04:03Z</time>
      </trkpt>
      <trkpt lat="44.92459" lon="6.20496">
        <ele>1713.4</ele>
        <time>2023-07-24T13:04:09Z</time>
      </trkpt>
      <trkpt lat="44.92457" lon="6.20492">
        <ele>1710.8</ele>
        <time>2023-07-24T13:04:18Z</time>
      </trkpt>
      <trkpt lat="44.92452" lon="6.20487">
        <ele>1713</ele>
        <time>2023-07-24T13:04:25Z</time>
      </trkpt>
      <trkpt lat="44.92448" lon="6.20487">
        <ele>1714.2</ele>
        <time>2023-07-24T13:04:32Z</time>
      </trkpt>
      <trkpt lat="44.92446" lon="6.20487">
        <ele>1712.7</ele>
        <time>2023-07-24T13:04:39Z</time>
      </trkpt>
      <trkpt lat="44.92445" lon="6.20487">
        <ele>1712.7</ele>
        <time>2023-07-24T13:04:42Z</time>
      </trkpt>
      <trkpt lat="44.92445" lon="6.20487">
        <ele>1713.6</ele>
        <time>2023-07-24T13:04:51Z</time>
      </trkpt>
      <trkpt lat="44.92445" lon="6.20487">
        <ele>1713.9</ele>
        <time>2023-07-24T13:04:51Z</time>
      </trkpt>
      <trkpt lat="44.92445" lon="6.20487">
        <ele>1714</ele>
        <time>2023-07-24T13:04:59Z</time>
      </trkpt>
      <trkpt lat="44.92443" lon="6.20492">
        <ele>1714</ele>
        <time>2023-07-24T13:05:06Z</time>
      </trkpt>
      <trkpt lat="44.92443" lon="6.20492">
        <ele>1713.8</ele>
        <time>2023-07-24T13:05:11Z</time>
      </trkpt>
      <trkpt lat="44.9244" lon="6.20492">
        <ele>1715</ele>
        <time>2023-07-24T13:05:39Z</time>
      </trkpt>
      <trkpt lat="44.92438" lon="6.20492">
        <ele>1719.5</ele>
        <time>2023-07-24T13:05:46Z</time>
      </trkpt>
      <trkpt lat="44.92436" lon="6.20492">
        <ele>1723</ele>
        <time>2023-07-24T13:05:53Z</time>
      </trkpt>
      <trkpt lat="44.92435" lon="6.20487">
        <ele>1721.1</ele>
        <time>2023-07-24T13:06:00Z</time>
      </trkpt>
      <trkpt lat="44.92433" lon="6.20488">
        <ele>1723.4</ele>
        <time>2023-07-24T13:06:07Z</time>
      </trkpt>
      <trkpt lat="44.92429" lon="6.20486">
        <ele>1724.4</ele>
        <time>2023-07-24T13:06:15Z</time>
      </trkpt>
      <trkpt lat="44.92425" lon="6.20486">
        <ele>1724.8</ele>
        <time>2023-07-24T13:06:21Z</time>
      </trkpt>
      <trkpt lat="44.92421" lon="6.20489">
        <ele>1725.9</ele>
        <time>2023-07-24T13:06:28Z</time>
      </trkpt>
      <trkpt lat="44.92419" lon="6.20488">
        <ele>1726.1</ele>
        <time>2023-07-24T13:06:35Z</time>
      </trkpt>
      <trkpt lat="44.92417" lon="6.20488">
        <ele>1726.4</ele>
        <time>2023-07-24T13:06:41Z</time>
      </trkpt>
      <trkpt lat="44.92414" lon="6.20487">
        <ele>1727.8</ele>
        <time>2023-07-24T13:06:51Z</time>
      </trkpt>
      <trkpt lat="44.9241" lon="6.20487">
        <ele>1725.7</ele>
        <time>2023-07-24T13:06:58Z</time>
      </trkpt>
      <trkpt lat="44.92409" lon="6.20485">
        <ele>1726.1</ele>
        <time>2023-07-24T13:07:05Z</time>
      </trkpt>
      <trkpt lat="44.92407" lon="6.20484">
        <ele>1726.5</ele>
        <time>2023-07-24T13:07:12Z</time>
      </trkpt>
      <trkpt lat="44.92407" lon="6.20486">
        <ele>1729</ele>
        <time>2023-07-24T13:07:18Z</time>
      </trkpt>
      <trkpt lat="44.92407" lon="6.20485">
        <ele>1727.9</ele>
        <time>2023-07-24T13:07:28Z</time>
      </trkpt>
      <trkpt lat="44.92407" lon="6.20485">
        <ele>1727.8</ele>
        <time>2023-07-24T13:07:29Z</time>
      </trkpt>
      <trkpt lat="44.92407" lon="6.20486">
        <ele>1728.4</ele>
        <time>2023-07-24T13:08:09Z</time>
      </trkpt>
      <trkpt lat="44.92407" lon="6.20486">
        <ele>1728.4</ele>
        <time>2023-07-24T13:08:10Z</time>
      </trkpt>
      <trkpt lat="44.92407" lon="6.20486">
        <ele>1732.5</ele>
        <time>2023-07-24T13:09:23Z</time>
      </trkpt>
      <trkpt lat="44.92405" lon="6.20487">
        <ele>1735.1</ele>
        <time>2023-07-24T13:09:30Z</time>
      </trkpt>
      <trkpt lat="44.924" lon="6.20492">
        <ele>1734.7</ele>
        <time>2023-07-24T13:09:36Z</time>
      </trkpt>
      <trkpt lat="44.92403" lon="6.20493">
        <ele>1734.8</ele>
        <time>2023-07-24T13:09:43Z</time>
      </trkpt>
      <trkpt lat="44.92403" lon="6.20493">
        <ele>1734.8</ele>
        <time>2023-07-24T13:09:44Z</time>
      </trkpt>
      <trkpt lat="44.924" lon="6.20493">
        <ele>1733.9</ele>
        <time>2023-07-24T13:10:25Z</time>
      </trkpt>
      <trkpt lat="44.924" lon="6.20493">
        <ele>1733.9</ele>
        <time>2023-07-24T13:10:28Z</time>
      </trkpt>
      <trkpt lat="44.924" lon="6.20493">
        <ele>1732.4</ele>
        <time>2023-07-24T13:11:03Z</time>
      </trkpt>
      <trkpt lat="44.924" lon="6.20493">
        <ele>1732.4</ele>
        <time>2023-07-24T13:11:04Z</time>
      </trkpt>
      <trkpt lat="44.92397" lon="6.20487">
        <ele>1733.7</ele>
        <time>2023-07-24T13:11:22Z</time>
      </trkpt>
      <trkpt lat="44.92395" lon="6.20488">
        <ele>1734</ele>
        <time>2023-07-24T13:11:29Z</time>
      </trkpt>
      <trkpt lat="44.92395" lon="6.20488">
        <ele>1734.2</ele>
        <time>2023-07-24T13:11:30Z</time>
      </trkpt>
      <trkpt lat="44.92393" lon="6.20491">
        <ele>1735.5</ele>
        <time>2023-07-24T13:12:11Z</time>
      </trkpt>
      <trkpt lat="44.92393" lon="6.20491">
        <ele>1735.4</ele>
        <time>2023-07-24T13:12:12Z</time>
      </trkpt>
      <trkpt lat="44.92392" lon="6.20492">
        <ele>1734.9</ele>
        <time>2023-07-24T13:17:28Z</time>
      </trkpt>
      <trkpt lat="44.92392" lon="6.20492">
        <ele>1734.9</ele>
        <time>2023-07-24T13:17:30Z</time>
      </trkpt>
      <trkpt lat="44.9239" lon="6.20494">
        <ele>1736.5</ele>
        <time>2023-07-24T13:18:22Z</time>
      </trkpt>
      <trkpt lat="44.9239" lon="6.20494">
        <ele>1736.9</ele>
        <time>2023-07-24T13:18:23Z</time>
      </trkpt>
      <trkpt lat="44.9239" lon="6.20495">
        <ele>1737.1</ele>
        <time>2023-07-24T13:18:54Z</time>
      </trkpt>
      <trkpt lat="44.92391" lon="6.20495">
        <ele>1737.8</ele>
        <time>2023-07-24T13:18:54Z</time>
      </trkpt>
      <trkpt lat="44.92392" lon="6.20495">
        <ele>1740</ele>
        <time>2023-07-24T13:19:02Z</time>
      </trkpt>
      <trkpt lat="44.92392" lon="6.20495">
        <ele>1740.2</ele>
        <time>2023-07-24T13:19:03Z</time>
      </trkpt>
      <trkpt lat="44.92392" lon="6.20496">
        <ele>1740.3</ele>
        <time>2023-07-24T13:19:54Z</time>
      </trkpt>
      <trkpt lat="44.92392" lon="6.20496">
        <ele>1740.3</ele>
        <time>2023-07-24T13:19:55Z</time>
      </trkpt>
      <trkpt lat="44.92391" lon="6.20494">
        <ele>1740.4</ele>
        <time>2023-07-24T13:20:36Z</time>
      </trkpt>
      <trkpt lat="44.92389" lon="6.20492">
        <ele>1739.7</ele>
        <time>2023-07-24T13:20:43Z</time>
      </trkpt>
      <trkpt lat="44.92385" lon="6.20489">
        <ele>1738.7</ele>
        <time>2023-07-24T13:20:50Z</time>
      </trkpt>
      <trkpt lat="44.92385" lon="6.20487">
        <ele>1737.1</ele>
        <time>2023-07-24T13:20:57Z</time>
      </trkpt>
      <trkpt lat="44.92385" lon="6.20487">
        <ele>1737.1</ele>
        <time>2023-07-24T13:20:58Z</time>
      </trkpt>
      <trkpt lat="44.92384" lon="6.20486">
        <ele>1740.3</ele>
        <time>2023-07-24T13:21:16Z</time>
      </trkpt>
      <trkpt lat="44.92384" lon="6.20487">
        <ele>1739.5</ele>
        <time>2023-07-24T13:21:17Z</time>
      </trkpt>
      <trkpt lat="44.92382" lon="6.20489">
        <ele>1739.6</ele>
        <time>2023-07-24T13:21:34Z</time>
      </trkpt>
      <trkpt lat="44.9238" lon="6.2049">
        <ele>1739.1</ele>
        <time>2023-07-24T13:21:41Z</time>
      </trkpt>
      <trkpt lat="44.92378" lon="6.20489">
        <ele>1737.9</ele>
        <time>2023-07-24T13:21:48Z</time>
      </trkpt>
      <trkpt lat="44.92376" lon="6.20491">
        <ele>1737.7</ele>
        <time>2023-07-24T13:21:55Z</time>
      </trkpt>
      <trkpt lat="44.92373" lon="6.20492">
        <ele>1735.8</ele>
        <time>2023-07-24T13:22:03Z</time>
      </trkpt>
      <trkpt lat="44.9237" lon="6.20492">
        <ele>1735.2</ele>
        <time>2023-07-24T13:22:09Z</time>
      </trkpt>
      <trkpt lat="44.92365" lon="6.20492">
        <ele>1737.3</ele>
        <time>2023-07-24T13:22:16Z</time>
      </trkpt>
      <trkpt lat="44.92365" lon="6.20494">
        <ele>1738.3</ele>
        <time>2023-07-24T13:22:23Z</time>
      </trkpt>
      <trkpt lat="44.92364" lon="6.20496">
        <ele>1739</ele>
        <time>2023-07-24T13:22:30Z</time>
      </trkpt>
      <trkpt lat="44.92364" lon="6.20496">
        <ele>1739</ele>
        <time>2023-07-24T13:22:31Z</time>
      </trkpt>
      <trkpt lat="44.92363" lon="6.20498">
        <ele>1738.4</ele>
        <time>2023-07-24T13:22:42Z</time>
      </trkpt>
      <trkpt lat="44.92362" lon="6.20497">
        <ele>1737.3</ele>
        <time>2023-07-24T13:22:45Z</time>
      </trkpt>
      <trkpt lat="44.92359" lon="6.20494">
        <ele>1736.4</ele>
        <time>2023-07-24T13:22:54Z</time>
      </trkpt>
      <trkpt lat="44.92355" lon="6.20491">
        <ele>1737.9</ele>
        <time>2023-07-24T13:23:01Z</time>
      </trkpt>
      <trkpt lat="44.92349" lon="6.20494">
        <ele>1735.4</ele>
        <time>2023-07-24T13:23:09Z</time>
      </trkpt>
      <trkpt lat="44.92347" lon="6.20491">
        <ele>1736.8</ele>
        <time>2023-07-24T13:23:15Z</time>
      </trkpt>
      <trkpt lat="44.92348" lon="6.20492">
        <ele>1737.3</ele>
        <time>2023-07-24T13:23:22Z</time>
      </trkpt>
      <trkpt lat="44.92347" lon="6.20492">
        <ele>1737.3</ele>
        <time>2023-07-24T13:23:24Z</time>
      </trkpt>
      <trkpt lat="44.92343" lon="6.20492">
        <ele>1736.7</ele>
        <time>2023-07-24T13:23:33Z</time>
      </trkpt>
      <trkpt lat="44.92343" lon="6.20492">
        <ele>1737.5</ele>
        <time>2023-07-24T13:23:40Z</time>
      </trkpt>
      <trkpt lat="44.92343" lon="6.20492">
        <ele>1737.5</ele>
        <time>2023-07-24T13:23:41Z</time>
      </trkpt>
      <trkpt lat="44.92344" lon="6.20493">
        <ele>1738.2</ele>
        <time>2023-07-24T13:23:51Z</time>
      </trkpt>
      <trkpt lat="44.92344" lon="6.20493">
        <ele>1738.3</ele>
        <time>2023-07-24T13:23:52Z</time>
      </trkpt>
      <trkpt lat="44.92342" lon="6.20494">
        <ele>1737.7</ele>
        <time>2023-07-24T13:24:02Z</time>
      </trkpt>
      <trkpt lat="44.92342" lon="6.20495">
        <ele>1737.8</ele>
        <time>2023-07-24T13:24:03Z</time>
      </trkpt>
      <trkpt lat="44.92337" lon="6.20494">
        <ele>1737.1</ele>
        <time>2023-07-24T13:24:16Z</time>
      </trkpt>
      <trkpt lat="44.92334" lon="6.20492">
        <ele>1738.1</ele>
        <time>2023-07-24T13:24:23Z</time>
      </trkpt>
      <trkpt lat="44.92327" lon="6.20497">
        <ele>1741.2</ele>
        <time>2023-07-24T13:24:30Z</time>
      </trkpt>
      <trkpt lat="44.92322" lon="6.20499">
        <ele>1737.7</ele>
        <time>2023-07-24T13:24:37Z</time>
      </trkpt>
      <trkpt lat="44.92319" lon="6.20495">
        <ele>1738.2</ele>
        <time>2023-07-24T13:24:45Z</time>
      </trkpt>
      <trkpt lat="44.92319" lon="6.20497">
        <ele>1739.3</ele>
        <time>2023-07-24T13:24:48Z</time>
      </trkpt>
      <trkpt lat="44.92318" lon="6.20498">
        <ele>1740.9</ele>
        <time>2023-07-24T13:24:58Z</time>
      </trkpt>
      <trkpt lat="44.92318" lon="6.20499">
        <ele>1741</ele>
        <time>2023-07-24T13:24:59Z</time>
      </trkpt>
      <trkpt lat="44.92317" lon="6.20501">
        <ele>1742.1</ele>
        <time>2023-07-24T13:25:06Z</time>
      </trkpt>
      <trkpt lat="44.92316" lon="6.20501">
        <ele>1742.2</ele>
        <time>2023-07-24T13:25:09Z</time>
      </trkpt>
      <trkpt lat="44.92314" lon="6.20502">
        <ele>1743.2</ele>
        <time>2023-07-24T13:25:22Z</time>
      </trkpt>
      <trkpt lat="44.92312" lon="6.20501">
        <ele>1743.7</ele>
        <time>2023-07-24T13:25:27Z</time>
      </trkpt>
      <trkpt lat="44.92312" lon="6.20502">
        <ele>1743.3</ele>
        <time>2023-07-24T13:25:38Z</time>
      </trkpt>
      <trkpt lat="44.92312" lon="6.20502">
        <ele>1743.2</ele>
        <time>2023-07-24T13:25:39Z</time>
      </trkpt>
      <trkpt lat="44.9231" lon="6.205">
        <ele>1746.1</ele>
        <time>2023-07-24T13:25:52Z</time>
      </trkpt>
      <trkpt lat="44.92309" lon="6.20498">
        <ele>1746.4</ele>
        <time>2023-07-24T13:25:59Z</time>
      </trkpt>
      <trkpt lat="44.92305" lon="6.20498">
        <ele>1745.6</ele>
        <time>2023-07-24T13:26:06Z</time>
      </trkpt>
      <trkpt lat="44.923" lon="6.20501">
        <ele>1745</ele>
        <time>2023-07-24T13:26:13Z</time>
      </trkpt>
      <trkpt lat="44.92297" lon="6.20502">
        <ele>1746.2</ele>
        <time>2023-07-24T13:26:21Z</time>
      </trkpt>
      <trkpt lat="44.92293" lon="6.20501">
        <ele>1742.3</ele>
        <time>2023-07-24T13:26:27Z</time>
      </trkpt>
      <trkpt lat="44.92291" lon="6.20496">
        <ele>1742.1</ele>
        <time>2023-07-24T13:26:34Z</time>
      </trkpt>
      <trkpt lat="44.92286" lon="6.20497">
        <ele>1741.7</ele>
        <time>2023-07-24T13:26:41Z</time>
      </trkpt>
      <trkpt lat="44.92281" lon="6.20497">
        <ele>1745.4</ele>
        <time>2023-07-24T13:26:48Z</time>
      </trkpt>
      <trkpt lat="44.92277" lon="6.20496">
        <ele>1745</ele>
        <time>2023-07-24T13:26:55Z</time>
      </trkpt>
      <trkpt lat="44.92274" lon="6.20497">
        <ele>1748.1</ele>
        <time>2023-07-24T13:27:03Z</time>
      </trkpt>
      <trkpt lat="44.92274" lon="6.20499">
        <ele>1747.8</ele>
        <time>2023-07-24T13:27:09Z</time>
      </trkpt>
      <trkpt lat="44.92273" lon="6.20499">
        <ele>1748.2</ele>
        <time>2023-07-24T13:27:15Z</time>
      </trkpt>
      <trkpt lat="44.92267" lon="6.20499">
        <ele>1749</ele>
        <time>2023-07-24T13:27:27Z</time>
      </trkpt>
      <trkpt lat="44.92262" lon="6.20498">
        <ele>1746.1</ele>
        <time>2023-07-24T13:27:33Z</time>
      </trkpt>
      <trkpt lat="44.92253" lon="6.20499">
        <ele>1744.1</ele>
        <time>2023-07-24T13:27:39Z</time>
      </trkpt>
      <trkpt lat="44.92246" lon="6.20492">
        <ele>1744.1</ele>
        <time>2023-07-24T13:27:46Z</time>
      </trkpt>
      <trkpt lat="44.92244" lon="6.20498">
        <ele>1742.9</ele>
        <time>2023-07-24T13:27:53Z</time>
      </trkpt>
      <trkpt lat="44.92237" lon="6.20501">
        <ele>1744.4</ele>
        <time>2023-07-24T13:28:00Z</time>
      </trkpt>
      <trkpt lat="44.92233" lon="6.205">
        <ele>1745.4</ele>
        <time>2023-07-24T13:28:07Z</time>
      </trkpt>
      <trkpt lat="44.92229" lon="6.20503">
        <ele>1743.4</ele>
        <time>2023-07-24T13:28:15Z</time>
      </trkpt>
      <trkpt lat="44.92229" lon="6.20499">
        <ele>1742.4</ele>
        <time>2023-07-24T13:28:21Z</time>
      </trkpt>
      <trkpt lat="44.92224" lon="6.20495">
        <ele>1742.3</ele>
        <time>2023-07-24T13:28:28Z</time>
      </trkpt>
      <trkpt lat="44.92217" lon="6.20488">
        <ele>1737.1</ele>
        <time>2023-07-24T13:28:35Z</time>
      </trkpt>
      <trkpt lat="44.92213" lon="6.20481">
        <ele>1735.5</ele>
        <time>2023-07-24T13:28:42Z</time>
      </trkpt>
      <trkpt lat="44.92208" lon="6.20475">
        <ele>1734.3</ele>
        <time>2023-07-24T13:28:49Z</time>
      </trkpt>
      <trkpt lat="44.92204" lon="6.20475">
        <ele>1734</ele>
        <time>2023-07-24T13:28:57Z</time>
      </trkpt>
      <trkpt lat="44.92201" lon="6.20469">
        <ele>1732.9</ele>
        <time>2023-07-24T13:29:03Z</time>
      </trkpt>
      <trkpt lat="44.92198" lon="6.20471">
        <ele>1732</ele>
        <time>2023-07-24T13:29:10Z</time>
      </trkpt>
      <trkpt lat="44.92193" lon="6.20478">
        <ele>1730</ele>
        <time>2023-07-24T13:29:17Z</time>
      </trkpt>
      <trkpt lat="44.92189" lon="6.20479">
        <ele>1729.5</ele>
        <time>2023-07-24T13:29:24Z</time>
      </trkpt>
      <trkpt lat="44.92186" lon="6.20481">
        <ele>1728.9</ele>
        <time>2023-07-24T13:29:31Z</time>
      </trkpt>
      <trkpt lat="44.92186" lon="6.20481">
        <ele>1728.7</ele>
        <time>2023-07-24T13:29:35Z</time>
      </trkpt>
      <trkpt lat="44.92181" lon="6.20489">
        <ele>1727.9</ele>
        <time>2023-07-24T13:30:00Z</time>
      </trkpt>
      <trkpt lat="44.92175" lon="6.20494">
        <ele>1728.7</ele>
        <time>2023-07-24T13:30:06Z</time>
      </trkpt>
      <trkpt lat="44.92169" lon="6.20496">
        <ele>1730.1</ele>
        <time>2023-07-24T13:30:13Z</time>
      </trkpt>
      <trkpt lat="44.92165" lon="6.20499">
        <ele>1727.7</ele>
        <time>2023-07-24T13:30:21Z</time>
      </trkpt>
      <trkpt lat="44.92163" lon="6.20497">
        <ele>1726.3</ele>
        <time>2023-07-24T13:30:27Z</time>
      </trkpt>
      <trkpt lat="44.92163" lon="6.20497">
        <ele>1726.1</ele>
        <time>2023-07-24T13:30:30Z</time>
      </trkpt>
      <trkpt lat="44.92166" lon="6.205">
        <ele>1727.6</ele>
        <time>2023-07-24T13:30:40Z</time>
      </trkpt>
      <trkpt lat="44.92161" lon="6.20504">
        <ele>1726.6</ele>
        <time>2023-07-24T13:30:47Z</time>
      </trkpt>
      <trkpt lat="44.92155" lon="6.20502">
        <ele>1724.5</ele>
        <time>2023-07-24T13:30:54Z</time>
      </trkpt>
      <trkpt lat="44.92152" lon="6.205">
        <ele>1727.3</ele>
        <time>2023-07-24T13:31:01Z</time>
      </trkpt>
      <trkpt lat="44.92148" lon="6.20506">
        <ele>1728.9</ele>
        <time>2023-07-24T13:31:08Z</time>
      </trkpt>
      <trkpt lat="44.92143" lon="6.20509">
        <ele>1730.3</ele>
        <time>2023-07-24T13:31:15Z</time>
      </trkpt>
      <trkpt lat="44.92136" lon="6.2051">
        <ele>1729.7</ele>
        <time>2023-07-24T13:31:22Z</time>
      </trkpt>
      <trkpt lat="44.92131" lon="6.20511">
        <ele>1728.5</ele>
        <time>2023-07-24T13:31:29Z</time>
      </trkpt>
      <trkpt lat="44.92128" lon="6.20512">
        <ele>1728.8</ele>
        <time>2023-07-24T13:31:36Z</time>
      </trkpt>
      <trkpt lat="44.92121" lon="6.20511">
        <ele>1727.7</ele>
        <time>2023-07-24T13:31:43Z</time>
      </trkpt>
      <trkpt lat="44.92114" lon="6.20515">
        <ele>1727.8</ele>
        <time>2023-07-24T13:31:49Z</time>
      </trkpt>
      <trkpt lat="44.92107" lon="6.2052">
        <ele>1727.1</ele>
        <time>2023-07-24T13:31:56Z</time>
      </trkpt>
      <trkpt lat="44.92105" lon="6.20525">
        <ele>1731.3</ele>
        <time>2023-07-24T13:32:02Z</time>
      </trkpt>
      <trkpt lat="44.92102" lon="6.20533">
        <ele>1728.9</ele>
        <time>2023-07-24T13:32:09Z</time>
      </trkpt>
      <trkpt lat="44.92096" lon="6.20536">
        <ele>1729.1</ele>
        <time>2023-07-24T13:32:16Z</time>
      </trkpt>
      <trkpt lat="44.92096" lon="6.20536">
        <ele>1730.3</ele>
        <time>2023-07-24T13:32:23Z</time>
      </trkpt>
      <trkpt lat="44.92093" lon="6.20535">
        <ele>1728.4</ele>
        <time>2023-07-24T13:32:38Z</time>
      </trkpt>
      <trkpt lat="44.92089" lon="6.20539">
        <ele>1724.2</ele>
        <time>2023-07-24T13:32:45Z</time>
      </trkpt>
      <trkpt lat="44.92084" lon="6.2054">
        <ele>1725.3</ele>
        <time>2023-07-24T13:32:52Z</time>
      </trkpt>
      <trkpt lat="44.9208" lon="6.20541">
        <ele>1724.9</ele>
        <time>2023-07-24T13:32:59Z</time>
      </trkpt>
      <trkpt lat="44.92077" lon="6.20541">
        <ele>1725</ele>
        <time>2023-07-24T13:33:06Z</time>
      </trkpt>
      <trkpt lat="44.92072" lon="6.20543">
        <ele>1720.8</ele>
        <time>2023-07-24T13:33:14Z</time>
      </trkpt>
      <trkpt lat="44.92069" lon="6.2055">
        <ele>1720.6</ele>
        <time>2023-07-24T13:33:20Z</time>
      </trkpt>
      <trkpt lat="44.92064" lon="6.20556">
        <ele>1720</ele>
        <time>2023-07-24T13:33:27Z</time>
      </trkpt>
      <trkpt lat="44.9206" lon="6.20562">
        <ele>1721.4</ele>
        <time>2023-07-24T13:33:34Z</time>
      </trkpt>
      <trkpt lat="44.92056" lon="6.20565">
        <ele>1720.5</ele>
        <time>2023-07-24T13:33:41Z</time>
      </trkpt>
      <trkpt lat="44.92051" lon="6.20567">
        <ele>1720.7</ele>
        <time>2023-07-24T13:33:48Z</time>
      </trkpt>
      <trkpt lat="44.92046" lon="6.20568">
        <ele>1718.5</ele>
        <time>2023-07-24T13:33:56Z</time>
      </trkpt>
      <trkpt lat="44.92044" lon="6.20571">
        <ele>1722</ele>
        <time>2023-07-24T13:34:02Z</time>
      </trkpt>
      <trkpt lat="44.92041" lon="6.20571">
        <ele>1727.2</ele>
        <time>2023-07-24T13:34:10Z</time>
      </trkpt>
      <trkpt lat="44.92034" lon="6.2057">
        <ele>1730.5</ele>
        <time>2023-07-24T13:34:16Z</time>
      </trkpt>
      <trkpt lat="44.92028" lon="6.2057">
        <ele>1725.9</ele>
        <time>2023-07-24T13:34:23Z</time>
      </trkpt>
      <trkpt lat="44.92024" lon="6.20571">
        <ele>1723.6</ele>
        <time>2023-07-24T13:34:30Z</time>
      </trkpt>
      <trkpt lat="44.92019" lon="6.20572">
        <ele>1725</ele>
        <time>2023-07-24T13:34:37Z</time>
      </trkpt>
      <trkpt lat="44.92013" lon="6.20577">
        <ele>1723.5</ele>
        <time>2023-07-24T13:34:44Z</time>
      </trkpt>
      <trkpt lat="44.92008" lon="6.20578">
        <ele>1725.9</ele>
        <time>2023-07-24T13:34:51Z</time>
      </trkpt>
      <trkpt lat="44.92004" lon="6.20581">
        <ele>1730.2</ele>
        <time>2023-07-24T13:34:58Z</time>
      </trkpt>
      <trkpt lat="44.91999" lon="6.20585">
        <ele>1731.8</ele>
        <time>2023-07-24T13:35:05Z</time>
      </trkpt>
      <trkpt lat="44.91995" lon="6.2059">
        <ele>1732</ele>
        <time>2023-07-24T13:35:12Z</time>
      </trkpt>
      <trkpt lat="44.91991" lon="6.20591">
        <ele>1731.9</ele>
        <time>2023-07-24T13:35:20Z</time>
      </trkpt>
      <trkpt lat="44.91988" lon="6.20595">
        <ele>1733</ele>
        <time>2023-07-24T13:35:26Z</time>
      </trkpt>
      <trkpt lat="44.91984" lon="6.20599">
        <ele>1730.6</ele>
        <time>2023-07-24T13:35:33Z</time>
      </trkpt>
      <trkpt lat="44.91979" lon="6.20603">
        <ele>1730.7</ele>
        <time>2023-07-24T13:35:40Z</time>
      </trkpt>
      <trkpt lat="44.91973" lon="6.20606">
        <ele>1727.2</ele>
        <time>2023-07-24T13:35:47Z</time>
      </trkpt>
      <trkpt lat="44.91966" lon="6.20605">
        <ele>1731.3</ele>
        <time>2023-07-24T13:35:54Z</time>
      </trkpt>
      <trkpt lat="44.91962" lon="6.20603">
        <ele>1735.1</ele>
        <time>2023-07-24T13:36:02Z</time>
      </trkpt>
      <trkpt lat="44.91956" lon="6.20602">
        <ele>1737</ele>
        <time>2023-07-24T13:36:08Z</time>
      </trkpt>
      <trkpt lat="44.9195" lon="6.20607">
        <ele>1736.9</ele>
        <time>2023-07-24T13:36:15Z</time>
      </trkpt>
      <trkpt lat="44.91947" lon="6.20613">
        <ele>1735.7</ele>
        <time>2023-07-24T13:36:22Z</time>
      </trkpt>
      <trkpt lat="44.91944" lon="6.20613">
        <ele>1736.4</ele>
        <time>2023-07-24T13:36:29Z</time>
      </trkpt>
      <trkpt lat="44.91944" lon="6.20613">
        <ele>1736.7</ele>
        <time>2023-07-24T13:36:32Z</time>
      </trkpt>
      <trkpt lat="44.91943" lon="6.20613">
        <ele>1736.8</ele>
        <time>2023-07-24T13:38:26Z</time>
      </trkpt>
      <trkpt lat="44.91943" lon="6.20613">
        <ele>1736.7</ele>
        <time>2023-07-24T13:38:27Z</time>
      </trkpt>
      <trkpt lat="44.91945" lon="6.20616">
        <ele>1737.1</ele>
        <time>2023-07-24T13:38:54Z</time>
      </trkpt>
      <trkpt lat="44.91945" lon="6.20616">
        <ele>1736.7</ele>
        <time>2023-07-24T13:38:56Z</time>
      </trkpt>
      <trkpt lat="44.91944" lon="6.20619">
        <ele>1736.9</ele>
        <time>2023-07-24T13:40:24Z</time>
      </trkpt>
      <trkpt lat="44.91944" lon="6.20619">
        <ele>1737.1</ele>
        <time>2023-07-24T13:40:28Z</time>
      </trkpt>
      <trkpt lat="44.91944" lon="6.20619">
        <ele>1739.4</ele>
        <time>2023-07-24T13:40:47Z</time>
      </trkpt>
      <trkpt lat="44.91944" lon="6.20619">
        <ele>1739.9</ele>
        <time>2023-07-24T13:40:50Z</time>
      </trkpt>
      <trkpt lat="44.91945" lon="6.20619">
        <ele>1741.4</ele>
        <time>2023-07-24T13:41:17Z</time>
      </trkpt>
      <trkpt lat="44.91945" lon="6.20619">
        <ele>1741.9</ele>
        <time>2023-07-24T13:41:22Z</time>
      </trkpt>
      <trkpt lat="44.91943" lon="6.20622">
        <ele>1743.4</ele>
        <time>2023-07-24T13:43:18Z</time>
      </trkpt>
      <trkpt lat="44.91943" lon="6.20622">
        <ele>1743.4</ele>
        <time>2023-07-24T13:43:25Z</time>
      </trkpt>
      <trkpt lat="44.91943" lon="6.20623">
        <ele>1743.1</ele>
        <time>2023-07-24T13:43:33Z</time>
      </trkpt>
      <trkpt lat="44.91943" lon="6.20623">
        <ele>1743</ele>
        <time>2023-07-24T13:43:36Z</time>
      </trkpt>
      <trkpt lat="44.91943" lon="6.20625">
        <ele>1744.7</ele>
        <time>2023-07-24T13:44:34Z</time>
      </trkpt>
      <trkpt lat="44.91943" lon="6.20625">
        <ele>1744.8</ele>
        <time>2023-07-24T13:44:36Z</time>
      </trkpt>
      <trkpt lat="44.91937" lon="6.20624">
        <ele>1741.4</ele>
        <time>2023-07-24T13:44:48Z</time>
      </trkpt>
      <trkpt lat="44.91935" lon="6.20623">
        <ele>1737.6</ele>
        <time>2023-07-24T13:44:54Z</time>
      </trkpt>
      <trkpt lat="44.9193" lon="6.20624">
        <ele>1736.1</ele>
        <time>2023-07-24T13:45:01Z</time>
      </trkpt>
      <trkpt lat="44.91925" lon="6.20623">
        <ele>1731.5</ele>
        <time>2023-07-24T13:45:08Z</time>
      </trkpt>
      <trkpt lat="44.91919" lon="6.20623">
        <ele>1730.1</ele>
        <time>2023-07-24T13:45:15Z</time>
      </trkpt>
      <trkpt lat="44.91913" lon="6.20623">
        <ele>1729.2</ele>
        <time>2023-07-24T13:45:22Z</time>
      </trkpt>
      <trkpt lat="44.91905" lon="6.20622">
        <ele>1729.2</ele>
        <time>2023-07-24T13:45:30Z</time>
      </trkpt>
      <trkpt lat="44.91897" lon="6.20622">
        <ele>1728.2</ele>
        <time>2023-07-24T13:45:36Z</time>
      </trkpt>
      <trkpt lat="44.91892" lon="6.20618">
        <ele>1725.2</ele>
        <time>2023-07-24T13:45:43Z</time>
      </trkpt>
      <trkpt lat="44.91885" lon="6.20616">
        <ele>1727.1</ele>
        <time>2023-07-24T13:45:50Z</time>
      </trkpt>
      <trkpt lat="44.91879" lon="6.20613">
        <ele>1729.2</ele>
        <time>2023-07-24T13:45:57Z</time>
      </trkpt>
      <trkpt lat="44.91873" lon="6.20618">
        <ele>1726.1</ele>
        <time>2023-07-24T13:46:04Z</time>
      </trkpt>
      <trkpt lat="44.91866" lon="6.20621">
        <ele>1722.9</ele>
        <time>2023-07-24T13:46:12Z</time>
      </trkpt>
      <trkpt lat="44.91861" lon="6.20624">
        <ele>1723.9</ele>
        <time>2023-07-24T13:46:18Z</time>
      </trkpt>
      <trkpt lat="44.91854" lon="6.20625">
        <ele>1725.4</ele>
        <time>2023-07-24T13:46:25Z</time>
      </trkpt>
      <trkpt lat="44.91848" lon="6.20627">
        <ele>1725.8</ele>
        <time>2023-07-24T13:46:32Z</time>
      </trkpt>
      <trkpt lat="44.91841" lon="6.2063">
        <ele>1724.7</ele>
        <time>2023-07-24T13:46:39Z</time>
      </trkpt>
      <trkpt lat="44.91834" lon="6.20634">
        <ele>1722.6</ele>
        <time>2023-07-24T13:46:46Z</time>
      </trkpt>
      <trkpt lat="44.91828" lon="6.20639">
        <ele>1719.1</ele>
        <time>2023-07-24T13:46:54Z</time>
      </trkpt>
      <trkpt lat="44.91823" lon="6.20644">
        <ele>1719.8</ele>
        <time>2023-07-24T13:47:00Z</time>
      </trkpt>
      <trkpt lat="44.91816" lon="6.20648">
        <ele>1718.6</ele>
        <time>2023-07-24T13:47:08Z</time>
      </trkpt>
      <trkpt lat="44.9181" lon="6.20653">
        <ele>1717</ele>
        <time>2023-07-24T13:47:14Z</time>
      </trkpt>
      <trkpt lat="44.91805" lon="6.20654">
        <ele>1712.5</ele>
        <time>2023-07-24T13:47:21Z</time>
      </trkpt>
      <trkpt lat="44.91799" lon="6.20657">
        <ele>1710.6</ele>
        <time>2023-07-24T13:47:28Z</time>
      </trkpt>
      <trkpt lat="44.91795" lon="6.20656">
        <ele>1707.8</ele>
        <time>2023-07-24T13:47:36Z</time>
      </trkpt>
      <trkpt lat="44.91789" lon="6.20659">
        <ele>1708.8</ele>
        <time>2023-07-24T13:47:42Z</time>
      </trkpt>
      <trkpt lat="44.91783" lon="6.20661">
        <ele>1706.4</ele>
        <time>2023-07-24T13:47:49Z</time>
      </trkpt>
      <trkpt lat="44.91776" lon="6.20665">
        <ele>1706.6</ele>
        <time>2023-07-24T13:47:56Z</time>
      </trkpt>
      <trkpt lat="44.91773" lon="6.2067">
        <ele>1706.4</ele>
        <time>2023-07-24T13:48:03Z</time>
      </trkpt>
      <trkpt lat="44.91769" lon="6.20678">
        <ele>1702.8</ele>
        <time>2023-07-24T13:48:10Z</time>
      </trkpt>
      <trkpt lat="44.91766" lon="6.20686">
        <ele>1702.6</ele>
        <time>2023-07-24T13:48:18Z</time>
      </trkpt>
      <trkpt lat="44.91761" lon="6.20689">
        <ele>1701.9</ele>
        <time>2023-07-24T13:48:24Z</time>
      </trkpt>
      <trkpt lat="44.91757" lon="6.20692">
        <ele>1698</ele>
        <time>2023-07-24T13:48:31Z</time>
      </trkpt>
      <trkpt lat="44.91752" lon="6.20688">
        <ele>1694.2</ele>
        <time>2023-07-24T13:48:38Z</time>
      </trkpt>
      <trkpt lat="44.91746" lon="6.20689">
        <ele>1695.4</ele>
        <time>2023-07-24T13:48:45Z</time>
      </trkpt>
      <trkpt lat="44.9174" lon="6.20691">
        <ele>1691.2</ele>
        <time>2023-07-24T13:48:52Z</time>
      </trkpt>
      <trkpt lat="44.91734" lon="6.20693">
        <ele>1687.2</ele>
        <time>2023-07-24T13:49:00Z</time>
      </trkpt>
      <trkpt lat="44.91729" lon="6.20694">
        <ele>1681.3</ele>
        <time>2023-07-24T13:49:06Z</time>
      </trkpt>
      <trkpt lat="44.91722" lon="6.20693">
        <ele>1681.4</ele>
        <time>2023-07-24T13:49:13Z</time>
      </trkpt>
      <trkpt lat="44.91715" lon="6.20692">
        <ele>1683.4</ele>
        <time>2023-07-24T13:49:20Z</time>
      </trkpt>
      <trkpt lat="44.91709" lon="6.20693">
        <ele>1678.6</ele>
        <time>2023-07-24T13:49:27Z</time>
      </trkpt>
      <trkpt lat="44.91705" lon="6.2069">
        <ele>1678.2</ele>
        <time>2023-07-24T13:49:34Z</time>
      </trkpt>
      <trkpt lat="44.91699" lon="6.20693">
        <ele>1677.1</ele>
        <time>2023-07-24T13:49:42Z</time>
      </trkpt>
      <trkpt lat="44.91693" lon="6.20697">
        <ele>1676.1</ele>
        <time>2023-07-24T13:49:48Z</time>
      </trkpt>
      <trkpt lat="44.91686" lon="6.20701">
        <ele>1675.3</ele>
        <time>2023-07-24T13:49:56Z</time>
      </trkpt>
      <trkpt lat="44.91682" lon="6.207">
        <ele>1679.8</ele>
        <time>2023-07-24T13:50:02Z</time>
      </trkpt>
      <trkpt lat="44.91677" lon="6.20699">
        <ele>1678.9</ele>
        <time>2023-07-24T13:50:09Z</time>
      </trkpt>
      <trkpt lat="44.91671" lon="6.20696">
        <ele>1677.8</ele>
        <time>2023-07-24T13:50:16Z</time>
      </trkpt>
      <trkpt lat="44.91669" lon="6.20695">
        <ele>1682.8</ele>
        <time>2023-07-24T13:50:24Z</time>
      </trkpt>
      <trkpt lat="44.91669" lon="6.20696">
        <ele>1682.8</ele>
        <time>2023-07-24T13:50:26Z</time>
      </trkpt>
      <trkpt lat="44.9167" lon="6.20699">
        <ele>1691.2</ele>
        <time>2023-07-24T13:50:34Z</time>
      </trkpt>
      <trkpt lat="44.9167" lon="6.207">
        <ele>1693.2</ele>
        <time>2023-07-24T13:50:36Z</time>
      </trkpt>
      <trkpt lat="44.9167" lon="6.20703">
        <ele>1694.5</ele>
        <time>2023-07-24T13:50:43Z</time>
      </trkpt>
      <trkpt lat="44.9167" lon="6.20703">
        <ele>1694.2</ele>
        <time>2023-07-24T13:50:49Z</time>
      </trkpt>
      <trkpt lat="44.91668" lon="6.20701">
        <ele>1694.2</ele>
        <time>2023-07-24T13:51:02Z</time>
      </trkpt>
      <trkpt lat="44.91666" lon="6.20706">
        <ele>1694.6</ele>
        <time>2023-07-24T13:51:10Z</time>
      </trkpt>
      <trkpt lat="44.91666" lon="6.20708">
        <ele>1692.5</ele>
        <time>2023-07-24T13:51:16Z</time>
      </trkpt>
      <trkpt lat="44.91666" lon="6.20707">
        <ele>1692.3</ele>
        <time>2023-07-24T13:51:17Z</time>
      </trkpt>
      <trkpt lat="44.91666" lon="6.20705">
        <ele>1691.8</ele>
        <time>2023-07-24T13:51:25Z</time>
      </trkpt>
      <trkpt lat="44.91666" lon="6.20705">
        <ele>1691.8</ele>
        <time>2023-07-24T13:51:26Z</time>
      </trkpt>
      <trkpt lat="44.91666" lon="6.20707">
        <ele>1692.4</ele>
        <time>2023-07-24T13:53:45Z</time>
      </trkpt>
      <trkpt lat="44.91666" lon="6.20707">
        <ele>1692.4</ele>
        <time>2023-07-24T13:53:46Z</time>
      </trkpt>
      <trkpt lat="44.91667" lon="6.20705">
        <ele>1690.9</ele>
        <time>2023-07-24T13:54:31Z</time>
      </trkpt>
      <trkpt lat="44.91668" lon="6.20703">
        <ele>1690.6</ele>
        <time>2023-07-24T13:54:36Z</time>
      </trkpt>
      <trkpt lat="44.91664" lon="6.20698">
        <ele>1689.4</ele>
        <time>2023-07-24T13:54:58Z</time>
      </trkpt>
      <trkpt lat="44.91661" lon="6.20688">
        <ele>1688.3</ele>
        <time>2023-07-24T13:55:04Z</time>
      </trkpt>
      <trkpt lat="44.91659" lon="6.20684">
        <ele>1695.6</ele>
        <time>2023-07-24T13:55:11Z</time>
      </trkpt>
      <trkpt lat="44.91657" lon="6.20683">
        <ele>1700.5</ele>
        <time>2023-07-24T13:55:18Z</time>
      </trkpt>
      <trkpt lat="44.91653" lon="6.20683">
        <ele>1702.7</ele>
        <time>2023-07-24T13:55:26Z</time>
      </trkpt>
      <trkpt lat="44.91647" lon="6.20684">
        <ele>1701.3</ele>
        <time>2023-07-24T13:55:34Z</time>
      </trkpt>
      <trkpt lat="44.91642" lon="6.20682">
        <ele>1702.7</ele>
        <time>2023-07-24T13:55:41Z</time>
      </trkpt>
      <trkpt lat="44.91639" lon="6.20677">
        <ele>1702.2</ele>
        <time>2023-07-24T13:55:47Z</time>
      </trkpt>
      <trkpt lat="44.91635" lon="6.20673">
        <ele>1705.8</ele>
        <time>2023-07-24T13:55:54Z</time>
      </trkpt>
      <trkpt lat="44.91627" lon="6.20673">
        <ele>1704.7</ele>
        <time>2023-07-24T13:56:01Z</time>
      </trkpt>
      <trkpt lat="44.91624" lon="6.20671">
        <ele>1704.3</ele>
        <time>2023-07-24T13:56:08Z</time>
      </trkpt>
      <trkpt lat="44.91617" lon="6.2067">
        <ele>1703.8</ele>
        <time>2023-07-24T13:56:16Z</time>
      </trkpt>
      <trkpt lat="44.91614" lon="6.20669">
        <ele>1705.6</ele>
        <time>2023-07-24T13:56:22Z</time>
      </trkpt>
      <trkpt lat="44.9161" lon="6.20662">
        <ele>1708.2</ele>
        <time>2023-07-24T13:56:29Z</time>
      </trkpt>
      <trkpt lat="44.91607" lon="6.20662">
        <ele>1705</ele>
        <time>2023-07-24T13:56:36Z</time>
      </trkpt>
      <trkpt lat="44.91601" lon="6.20662">
        <ele>1701.8</ele>
        <time>2023-07-24T13:56:43Z</time>
      </trkpt>
      <trkpt lat="44.91601" lon="6.20662">
        <ele>1701.8</ele>
        <time>2023-07-24T13:56:48Z</time>
      </trkpt>
      <trkpt lat="44.91594" lon="6.20662">
        <ele>1702.7</ele>
        <time>2023-07-24T13:57:13Z</time>
      </trkpt>
      <trkpt lat="44.91595" lon="6.20664">
        <ele>1702.1</ele>
        <time>2023-07-24T13:57:20Z</time>
      </trkpt>
      <trkpt lat="44.91593" lon="6.2067">
        <ele>1701.8</ele>
        <time>2023-07-24T13:57:28Z</time>
      </trkpt>
      <trkpt lat="44.91587" lon="6.2067">
        <ele>1698.8</ele>
        <time>2023-07-24T13:57:34Z</time>
      </trkpt>
      <trkpt lat="44.91579" lon="6.20667">
        <ele>1697.4</ele>
        <time>2023-07-24T13:57:41Z</time>
      </trkpt>
      <trkpt lat="44.91576" lon="6.20668">
        <ele>1696.8</ele>
        <time>2023-07-24T13:57:48Z</time>
      </trkpt>
      <trkpt lat="44.91571" lon="6.2067">
        <ele>1694.3</ele>
        <time>2023-07-24T13:57:55Z</time>
      </trkpt>
      <trkpt lat="44.91564" lon="6.20677">
        <ele>1693</ele>
        <time>2023-07-24T13:58:02Z</time>
      </trkpt>
      <trkpt lat="44.91562" lon="6.20685">
        <ele>1690.1</ele>
        <time>2023-07-24T13:58:10Z</time>
      </trkpt>
      <trkpt lat="44.9156" lon="6.20692">
        <ele>1689.7</ele>
        <time>2023-07-24T13:58:16Z</time>
      </trkpt>
      <trkpt lat="44.91557" lon="6.20697">
        <ele>1689.5</ele>
        <time>2023-07-24T13:58:23Z</time>
      </trkpt>
      <trkpt lat="44.9155" lon="6.207">
        <ele>1686.5</ele>
        <time>2023-07-24T13:58:28Z</time>
      </trkpt>
      <trkpt lat="44.91549" lon="6.20701">
        <ele>1688.9</ele>
        <time>2023-07-24T13:58:35Z</time>
      </trkpt>
      <trkpt lat="44.91541" lon="6.20703">
        <ele>1683.3</ele>
        <time>2023-07-24T13:58:46Z</time>
      </trkpt>
      <trkpt lat="44.9154" lon="6.20715">
        <ele>1683.5</ele>
        <time>2023-07-24T13:58:52Z</time>
      </trkpt>
      <trkpt lat="44.91541" lon="6.20721">
        <ele>1683.5</ele>
        <time>2023-07-24T13:58:59Z</time>
      </trkpt>
      <trkpt lat="44.9154" lon="6.20728">
        <ele>1683.1</ele>
        <time>2023-07-24T13:59:06Z</time>
      </trkpt>
      <trkpt lat="44.91534" lon="6.2073">
        <ele>1683</ele>
        <time>2023-07-24T13:59:13Z</time>
      </trkpt>
      <trkpt lat="44.91529" lon="6.20734">
        <ele>1683</ele>
        <time>2023-07-24T13:59:20Z</time>
      </trkpt>
      <trkpt lat="44.91521" lon="6.20734">
        <ele>1684.3</ele>
        <time>2023-07-24T13:59:23Z</time>
      </trkpt>
      <trkpt lat="44.91521" lon="6.20735">
        <ele>1688.2</ele>
        <time>2023-07-24T13:59:30Z</time>
      </trkpt>
      <trkpt lat="44.91521" lon="6.20735">
        <ele>1688.2</ele>
        <time>2023-07-24T13:59:33Z</time>
      </trkpt>
      <trkpt lat="44.91522" lon="6.20738">
        <ele>1686.3</ele>
        <time>2023-07-24T14:01:15Z</time>
      </trkpt>
      <trkpt lat="44.91522" lon="6.20738">
        <ele>1686.3</ele>
        <time>2023-07-24T14:01:16Z</time>
      </trkpt>
      <trkpt lat="44.91523" lon="6.2074">
        <ele>1685.5</ele>
        <time>2023-07-24T14:03:00Z</time>
      </trkpt>
      <trkpt lat="44.91523" lon="6.2074">
        <ele>1685.5</ele>
        <time>2023-07-24T14:03:02Z</time>
      </trkpt>
      <trkpt lat="44.91521" lon="6.20743">
        <ele>1691.6</ele>
        <time>2023-07-24T14:05:28Z</time>
      </trkpt>
      <trkpt lat="44.91519" lon="6.20748">
        <ele>1692.9</ele>
        <time>2023-07-24T14:05:35Z</time>
      </trkpt>
      <trkpt lat="44.91513" lon="6.20755">
        <ele>1700.4</ele>
        <time>2023-07-24T14:05:41Z</time>
      </trkpt>
      <trkpt lat="44.91509" lon="6.20759">
        <ele>1700.5</ele>
        <time>2023-07-24T14:05:48Z</time>
      </trkpt>
      <trkpt lat="44.91505" lon="6.20767">
        <ele>1704</ele>
        <time>2023-07-24T14:05:56Z</time>
      </trkpt>
      <trkpt lat="44.91505" lon="6.20769">
        <ele>1701.3</ele>
        <time>2023-07-24T14:06:02Z</time>
      </trkpt>
      <trkpt lat="44.91502" lon="6.20769">
        <ele>1702.6</ele>
        <time>2023-07-24T14:06:09Z</time>
      </trkpt>
      <trkpt lat="44.91499" lon="6.20774">
        <ele>1705.6</ele>
        <time>2023-07-24T14:06:16Z</time>
      </trkpt>
      <trkpt lat="44.91495" lon="6.20775">
        <ele>1705.3</ele>
        <time>2023-07-24T14:06:23Z</time>
      </trkpt>
      <trkpt lat="44.91492" lon="6.20774">
        <ele>1709</ele>
        <time>2023-07-24T14:06:30Z</time>
      </trkpt>
      <trkpt lat="44.91487" lon="6.20773">
        <ele>1714.1</ele>
        <time>2023-07-24T14:06:37Z</time>
      </trkpt>
      <trkpt lat="44.91484" lon="6.20773">
        <ele>1714.5</ele>
        <time>2023-07-24T14:06:44Z</time>
      </trkpt>
      <trkpt lat="44.91479" lon="6.20773">
        <ele>1714.5</ele>
        <time>2023-07-24T14:06:51Z</time>
      </trkpt>
      <trkpt lat="44.91478" lon="6.2077">
        <ele>1717.8</ele>
        <time>2023-07-24T14:06:58Z</time>
      </trkpt>
      <trkpt lat="44.91478" lon="6.20771">
        <ele>1717.7</ele>
        <time>2023-07-24T14:07:06Z</time>
      </trkpt>
      <trkpt lat="44.91478" lon="6.20771">
        <ele>1717.7</ele>
        <time>2023-07-24T14:07:07Z</time>
      </trkpt>
      <trkpt lat="44.91476" lon="6.20769">
        <ele>1716.4</ele>
        <time>2023-07-24T14:07:54Z</time>
      </trkpt>
      <trkpt lat="44.91476" lon="6.20767">
        <ele>1718.8</ele>
        <time>2023-07-24T14:08:00Z</time>
      </trkpt>
      <trkpt lat="44.91474" lon="6.20762">
        <ele>1720</ele>
        <time>2023-07-24T14:08:08Z</time>
      </trkpt>
      <trkpt lat="44.91473" lon="6.20761">
        <ele>1721.9</ele>
        <time>2023-07-24T14:08:15Z</time>
      </trkpt>
      <trkpt lat="44.91473" lon="6.20761">
        <ele>1722.8</ele>
        <time>2023-07-24T14:08:16Z</time>
      </trkpt>
      <trkpt lat="44.91467" lon="6.20762">
        <ele>1723.3</ele>
        <time>2023-07-24T14:08:24Z</time>
      </trkpt>
      <trkpt lat="44.91464" lon="6.20759">
        <ele>1723.4</ele>
        <time>2023-07-24T14:08:31Z</time>
      </trkpt>
      <trkpt lat="44.91458" lon="6.20757">
        <ele>1723.3</ele>
        <time>2023-07-24T14:08:38Z</time>
      </trkpt>
      <trkpt lat="44.91455" lon="6.2076">
        <ele>1724</ele>
        <time>2023-07-24T14:08:45Z</time>
      </trkpt>
      <trkpt lat="44.91451" lon="6.20756">
        <ele>1723.7</ele>
        <time>2023-07-24T14:08:52Z</time>
      </trkpt>
      <trkpt lat="44.91447" lon="6.20752">
        <ele>1724.2</ele>
        <time>2023-07-24T14:09:00Z</time>
      </trkpt>
      <trkpt lat="44.91443" lon="6.2075">
        <ele>1726.1</ele>
        <time>2023-07-24T14:09:06Z</time>
      </trkpt>
      <trkpt lat="44.91442" lon="6.20745">
        <ele>1725.1</ele>
        <time>2023-07-24T14:09:13Z</time>
      </trkpt>
      <trkpt lat="44.91442" lon="6.20744">
        <ele>1728.2</ele>
        <time>2023-07-24T14:09:20Z</time>
      </trkpt>
      <trkpt lat="44.91442" lon="6.20744">
        <ele>1729.3</ele>
        <time>2023-07-24T14:09:25Z</time>
      </trkpt>
      <trkpt lat="44.91436" lon="6.2074">
        <ele>1730.5</ele>
        <time>2023-07-24T14:09:40Z</time>
      </trkpt>
      <trkpt lat="44.91431" lon="6.20742">
        <ele>1729.6</ele>
        <time>2023-07-24T14:09:48Z</time>
      </trkpt>
      <trkpt lat="44.91426" lon="6.20741">
        <ele>1729.3</ele>
        <time>2023-07-24T14:09:54Z</time>
      </trkpt>
      <trkpt lat="44.91422" lon="6.20738">
        <ele>1729</ele>
        <time>2023-07-24T14:10:02Z</time>
      </trkpt>
      <trkpt lat="44.91416" lon="6.20737">
        <ele>1726.1</ele>
        <time>2023-07-24T14:10:08Z</time>
      </trkpt>
      <trkpt lat="44.91411" lon="6.20737">
        <ele>1725.9</ele>
        <time>2023-07-24T14:10:15Z</time>
      </trkpt>
      <trkpt lat="44.91405" lon="6.20735">
        <ele>1723.7</ele>
        <time>2023-07-24T14:10:22Z</time>
      </trkpt>
      <trkpt lat="44.914" lon="6.20733">
        <ele>1723.9</ele>
        <time>2023-07-24T14:10:30Z</time>
      </trkpt>
      <trkpt lat="44.91396" lon="6.2073">
        <ele>1725.2</ele>
        <time>2023-07-24T14:10:36Z</time>
      </trkpt>
      <trkpt lat="44.91394" lon="6.20731">
        <ele>1726.6</ele>
        <time>2023-07-24T14:10:44Z</time>
      </trkpt>
      <trkpt lat="44.91394" lon="6.20731">
        <ele>1724.5</ele>
        <time>2023-07-24T14:10:48Z</time>
      </trkpt>
      <trkpt lat="44.9139" lon="6.20728">
        <ele>1725.4</ele>
        <time>2023-07-24T14:11:16Z</time>
      </trkpt>
      <trkpt lat="44.91382" lon="6.20724">
        <ele>1726.1</ele>
        <time>2023-07-24T14:11:24Z</time>
      </trkpt>
      <trkpt lat="44.91378" lon="6.20723">
        <ele>1728.7</ele>
        <time>2023-07-24T14:11:30Z</time>
      </trkpt>
      <trkpt lat="44.91374" lon="6.20716">
        <ele>1727.8</ele>
        <time>2023-07-24T14:11:37Z</time>
      </trkpt>
      <trkpt lat="44.91371" lon="6.20715">
        <ele>1729.3</ele>
        <time>2023-07-24T14:11:44Z</time>
      </trkpt>
      <trkpt lat="44.91365" lon="6.20714">
        <ele>1730.5</ele>
        <time>2023-07-24T14:11:51Z</time>
      </trkpt>
      <trkpt lat="44.91359" lon="6.20712">
        <ele>1729.6</ele>
        <time>2023-07-24T14:11:58Z</time>
      </trkpt>
      <trkpt lat="44.91353" lon="6.20708">
        <ele>1731.9</ele>
        <time>2023-07-24T14:12:05Z</time>
      </trkpt>
      <trkpt lat="44.91348" lon="6.20707">
        <ele>1731.3</ele>
        <time>2023-07-24T14:12:12Z</time>
      </trkpt>
      <trkpt lat="44.91344" lon="6.20708">
        <ele>1732.2</ele>
        <time>2023-07-24T14:12:19Z</time>
      </trkpt>
      <trkpt lat="44.91344" lon="6.20708">
        <ele>1734</ele>
        <time>2023-07-24T14:12:26Z</time>
      </trkpt>
      <trkpt lat="44.91341" lon="6.20711">
        <ele>1734.7</ele>
        <time>2023-07-24T14:12:50Z</time>
      </trkpt>
      <trkpt lat="44.91337" lon="6.20716">
        <ele>1736.5</ele>
        <time>2023-07-24T14:12:58Z</time>
      </trkpt>
      <trkpt lat="44.91337" lon="6.20716">
        <ele>1736.7</ele>
        <time>2023-07-24T14:13:03Z</time>
      </trkpt>
      <trkpt lat="44.91336" lon="6.20715">
        <ele>1736.8</ele>
        <time>2023-07-24T14:13:12Z</time>
      </trkpt>
      <trkpt lat="44.91336" lon="6.20715">
        <ele>1736.8</ele>
        <time>2023-07-24T14:13:13Z</time>
      </trkpt>
      <trkpt lat="44.91333" lon="6.20717">
        <ele>1737.5</ele>
        <time>2023-07-24T14:13:23Z</time>
      </trkpt>
      <trkpt lat="44.91329" lon="6.20717">
        <ele>1736.3</ele>
        <time>2023-07-24T14:13:30Z</time>
      </trkpt>
      <trkpt lat="44.91324" lon="6.20717">
        <ele>1736.8</ele>
        <time>2023-07-24T14:13:37Z</time>
      </trkpt>
      <trkpt lat="44.91321" lon="6.2072">
        <ele>1735.8</ele>
        <time>2023-07-24T14:13:44Z</time>
      </trkpt>
      <trkpt lat="44.9132" lon="6.20727">
        <ele>1734.6</ele>
        <time>2023-07-24T14:13:52Z</time>
      </trkpt>
      <trkpt lat="44.91321" lon="6.20726">
        <ele>1732.4</ele>
        <time>2023-07-24T14:13:58Z</time>
      </trkpt>
      <trkpt lat="44.91321" lon="6.20726">
        <ele>1731.7</ele>
        <time>2023-07-24T14:14:04Z</time>
      </trkpt>
      <trkpt lat="44.91318" lon="6.20727">
        <ele>1732.3</ele>
        <time>2023-07-24T14:14:11Z</time>
      </trkpt>
      <trkpt lat="44.91316" lon="6.20726">
        <ele>1732.4</ele>
        <time>2023-07-24T14:14:18Z</time>
      </trkpt>
      <trkpt lat="44.91317" lon="6.20727">
        <ele>1732.7</ele>
        <time>2023-07-24T14:14:19Z</time>
      </trkpt>
      <trkpt lat="44.91318" lon="6.20727">
        <ele>1731.8</ele>
        <time>2023-07-24T14:14:28Z</time>
      </trkpt>
      <trkpt lat="44.91318" lon="6.20727">
        <ele>1731.7</ele>
        <time>2023-07-24T14:14:29Z</time>
      </trkpt>
      <trkpt lat="44.91318" lon="6.20729">
        <ele>1728.3</ele>
        <time>2023-07-24T14:15:30Z</time>
      </trkpt>
      <trkpt lat="44.91318" lon="6.2073">
        <ele>1727.3</ele>
        <time>2023-07-24T14:15:33Z</time>
      </trkpt>
      <trkpt lat="44.91319" lon="6.20731">
        <ele>1726.1</ele>
        <time>2023-07-24T14:15:44Z</time>
      </trkpt>
      <trkpt lat="44.91319" lon="6.20731">
        <ele>1726.1</ele>
        <time>2023-07-24T14:15:45Z</time>
      </trkpt>
      <trkpt lat="44.91315" lon="6.2073">
        <ele>1727.9</ele>
        <time>2023-07-24T14:16:18Z</time>
      </trkpt>
      <trkpt lat="44.9131" lon="6.20731">
        <ele>1729.3</ele>
        <time>2023-07-24T14:16:24Z</time>
      </trkpt>
      <trkpt lat="44.91306" lon="6.20735">
        <ele>1730.3</ele>
        <time>2023-07-24T14:16:31Z</time>
      </trkpt>
      <trkpt lat="44.91301" lon="6.20738">
        <ele>1730.4</ele>
        <time>2023-07-24T14:16:38Z</time>
      </trkpt>
      <trkpt lat="44.91296" lon="6.2074">
        <ele>1730</ele>
        <time>2023-07-24T14:16:45Z</time>
      </trkpt>
      <trkpt lat="44.91291" lon="6.20745">
        <ele>1730.8</ele>
        <time>2023-07-24T14:16:52Z</time>
      </trkpt>
      <trkpt lat="44.91287" lon="6.20748">
        <ele>1728.6</ele>
        <time>2023-07-24T14:17:00Z</time>
      </trkpt>
      <trkpt lat="44.91282" lon="6.20755">
        <ele>1729.1</ele>
        <time>2023-07-24T14:17:06Z</time>
      </trkpt>
      <trkpt lat="44.91276" lon="6.20757">
        <ele>1728.3</ele>
        <time>2023-07-24T14:17:13Z</time>
      </trkpt>
      <trkpt lat="44.9127" lon="6.20762">
        <ele>1729.5</ele>
        <time>2023-07-24T14:17:20Z</time>
      </trkpt>
      <trkpt lat="44.91266" lon="6.20762">
        <ele>1732.9</ele>
        <time>2023-07-24T14:17:27Z</time>
      </trkpt>
      <trkpt lat="44.91261" lon="6.20766">
        <ele>1733.8</ele>
        <time>2023-07-24T14:17:34Z</time>
      </trkpt>
      <trkpt lat="44.91256" lon="6.20764">
        <ele>1735.6</ele>
        <time>2023-07-24T14:17:42Z</time>
      </trkpt>
      <trkpt lat="44.91253" lon="6.20764">
        <ele>1735.6</ele>
        <time>2023-07-24T14:17:49Z</time>
      </trkpt>
      <trkpt lat="44.91249" lon="6.20765">
        <ele>1735.2</ele>
        <time>2023-07-24T14:17:55Z</time>
      </trkpt>
      <trkpt lat="44.91246" lon="6.20765">
        <ele>1735.1</ele>
        <time>2023-07-24T14:18:02Z</time>
      </trkpt>
      <trkpt lat="44.91242" lon="6.20762">
        <ele>1735.2</ele>
        <time>2023-07-24T14:18:10Z</time>
      </trkpt>
      <trkpt lat="44.91238" lon="6.20763">
        <ele>1733.4</ele>
        <time>2023-07-24T14:18:16Z</time>
      </trkpt>
      <trkpt lat="44.91232" lon="6.20761">
        <ele>1735.1</ele>
        <time>2023-07-24T14:18:24Z</time>
      </trkpt>
      <trkpt lat="44.91226" lon="6.20759">
        <ele>1733.8</ele>
        <time>2023-07-24T14:18:30Z</time>
      </trkpt>
      <trkpt lat="44.91222" lon="6.20757">
        <ele>1734.3</ele>
        <time>2023-07-24T14:18:37Z</time>
      </trkpt>
      <trkpt lat="44.91216" lon="6.20759">
        <ele>1736.9</ele>
        <time>2023-07-24T14:18:44Z</time>
      </trkpt>
      <trkpt lat="44.91212" lon="6.20757">
        <ele>1738.1</ele>
        <time>2023-07-24T14:18:51Z</time>
      </trkpt>
      <trkpt lat="44.91206" lon="6.20756">
        <ele>1736.2</ele>
        <time>2023-07-24T14:18:58Z</time>
      </trkpt>
      <trkpt lat="44.91201" lon="6.20753">
        <ele>1734.6</ele>
        <time>2023-07-24T14:19:06Z</time>
      </trkpt>
      <trkpt lat="44.912" lon="6.20752">
        <ele>1735.2</ele>
        <time>2023-07-24T14:19:12Z</time>
      </trkpt>
      <trkpt lat="44.912" lon="6.20752">
        <ele>1735.2</ele>
        <time>2023-07-24T14:19:14Z</time>
      </trkpt>
      <trkpt lat="44.912" lon="6.20753">
        <ele>1735.4</ele>
        <time>2023-07-24T14:19:24Z</time>
      </trkpt>
      <trkpt lat="44.912" lon="6.20753">
        <ele>1735.4</ele>
        <time>2023-07-24T14:19:25Z</time>
      </trkpt>
      <trkpt lat="44.912" lon="6.20755">
        <ele>1739.4</ele>
        <time>2023-07-24T14:19:40Z</time>
      </trkpt>
      <trkpt lat="44.912" lon="6.20755">
        <ele>1739.5</ele>
        <time>2023-07-24T14:19:42Z</time>
      </trkpt>
      <trkpt lat="44.91199" lon="6.20756">
        <ele>1740.2</ele>
        <time>2023-07-24T14:20:17Z</time>
      </trkpt>
      <trkpt lat="44.91199" lon="6.20756">
        <ele>1740.2</ele>
        <time>2023-07-24T14:20:18Z</time>
      </trkpt>
      <trkpt lat="44.91201" lon="6.20755">
        <ele>1742.3</ele>
        <time>2023-07-24T14:20:37Z</time>
      </trkpt>
      <trkpt lat="44.91201" lon="6.20756">
        <ele>1743.8</ele>
        <time>2023-07-24T14:20:44Z</time>
      </trkpt>
      <trkpt lat="44.91201" lon="6.20756">
        <ele>1743.9</ele>
        <time>2023-07-24T14:20:45Z</time>
      </trkpt>
      <trkpt lat="44.91201" lon="6.20756">
        <ele>1743.3</ele>
        <time>2023-07-24T14:20:53Z</time>
      </trkpt>
      <trkpt lat="44.91201" lon="6.20756">
        <ele>1743.5</ele>
        <time>2023-07-24T14:20:54Z</time>
      </trkpt>
      <trkpt lat="44.91202" lon="6.20757">
        <ele>1742.6</ele>
        <time>2023-07-24T14:21:02Z</time>
      </trkpt>
      <trkpt lat="44.91202" lon="6.20757">
        <ele>1742.6</ele>
        <time>2023-07-24T14:21:03Z</time>
      </trkpt>
      <trkpt lat="44.91203" lon="6.20757">
        <ele>1741.9</ele>
        <time>2023-07-24T14:21:12Z</time>
      </trkpt>
      <trkpt lat="44.91203" lon="6.20757">
        <ele>1742.1</ele>
        <time>2023-07-24T14:21:13Z</time>
      </trkpt>
      <trkpt lat="44.91199" lon="6.20756">
        <ele>1741.5</ele>
        <time>2023-07-24T14:21:27Z</time>
      </trkpt>
      <trkpt lat="44.91196" lon="6.20755">
        <ele>1741</ele>
        <time>2023-07-24T14:21:35Z</time>
      </trkpt>
      <trkpt lat="44.91192" lon="6.20751">
        <ele>1742.4</ele>
        <time>2023-07-24T14:21:41Z</time>
      </trkpt>
      <trkpt lat="44.91188" lon="6.20744">
        <ele>1742.4</ele>
        <time>2023-07-24T14:21:49Z</time>
      </trkpt>
      <trkpt lat="44.91185" lon="6.2074">
        <ele>1742.5</ele>
        <time>2023-07-24T14:21:55Z</time>
      </trkpt>
      <trkpt lat="44.91181" lon="6.20737">
        <ele>1743.8</ele>
        <time>2023-07-24T14:22:02Z</time>
      </trkpt>
      <trkpt lat="44.91176" lon="6.20735">
        <ele>1744.6</ele>
        <time>2023-07-24T14:22:09Z</time>
      </trkpt>
      <trkpt lat="44.91171" lon="6.20732">
        <ele>1746.4</ele>
        <time>2023-07-24T14:22:16Z</time>
      </trkpt>
      <trkpt lat="44.91166" lon="6.2073">
        <ele>1746.4</ele>
        <time>2023-07-24T14:22:23Z</time>
      </trkpt>
      <trkpt lat="44.91163" lon="6.20727">
        <ele>1748.7</ele>
        <time>2023-07-24T14:22:31Z</time>
      </trkpt>
      <trkpt lat="44.91163" lon="6.20726">
        <ele>1750.8</ele>
        <time>2023-07-24T14:22:37Z</time>
      </trkpt>
      <trkpt lat="44.91163" lon="6.20728">
        <ele>1752.7</ele>
        <time>2023-07-24T14:22:44Z</time>
      </trkpt>
      <trkpt lat="44.91163" lon="6.20728">
        <ele>1752.7</ele>
        <time>2023-07-24T14:22:45Z</time>
      </trkpt>
      <trkpt lat="44.91158" lon="6.20726">
        <ele>1751.6</ele>
        <time>2023-07-24T14:23:04Z</time>
      </trkpt>
      <trkpt lat="44.91155" lon="6.20724">
        <ele>1750.9</ele>
        <time>2023-07-24T14:23:12Z</time>
      </trkpt>
      <trkpt lat="44.91155" lon="6.20724">
        <ele>1752.2</ele>
        <time>2023-07-24T14:23:16Z</time>
      </trkpt>
      <trkpt lat="44.91156" lon="6.20724">
        <ele>1753.7</ele>
        <time>2023-07-24T14:23:26Z</time>
      </trkpt>
      <trkpt lat="44.91156" lon="6.20724">
        <ele>1753.7</ele>
        <time>2023-07-24T14:23:27Z</time>
      </trkpt>
      <trkpt lat="44.91152" lon="6.20721">
        <ele>1752.6</ele>
        <time>2023-07-24T14:24:00Z</time>
      </trkpt>
      <trkpt lat="44.9115" lon="6.20721">
        <ele>1751.5</ele>
        <time>2023-07-24T14:24:06Z</time>
      </trkpt>
      <trkpt lat="44.9115" lon="6.20721">
        <ele>1751.5</ele>
        <time>2023-07-24T14:24:07Z</time>
      </trkpt>
      <trkpt lat="44.91151" lon="6.20721">
        <ele>1750.8</ele>
        <time>2023-07-24T14:24:16Z</time>
      </trkpt>
      <trkpt lat="44.91151" lon="6.20721">
        <ele>1750.8</ele>
        <time>2023-07-24T14:24:18Z</time>
      </trkpt>
      <trkpt lat="44.91151" lon="6.2072">
        <ele>1750.8</ele>
        <time>2023-07-24T14:24:34Z</time>
      </trkpt>
      <trkpt lat="44.91151" lon="6.2072">
        <ele>1750.6</ele>
        <time>2023-07-24T14:24:36Z</time>
      </trkpt>
      <trkpt lat="44.9115" lon="6.2072">
        <ele>1751.2</ele>
        <time>2023-07-24T14:24:48Z</time>
      </trkpt>
      <trkpt lat="44.91149" lon="6.2072">
        <ele>1751</ele>
        <time>2023-07-24T14:24:49Z</time>
      </trkpt>
      <trkpt lat="44.9115" lon="6.2072">
        <ele>1751.9</ele>
        <time>2023-07-24T14:24:57Z</time>
      </trkpt>
      <trkpt lat="44.91147" lon="6.2072">
        <ele>1752.1</ele>
        <time>2023-07-24T14:25:04Z</time>
      </trkpt>
      <trkpt lat="44.91144" lon="6.2072">
        <ele>1752.6</ele>
        <time>2023-07-24T14:25:12Z</time>
      </trkpt>
      <trkpt lat="44.9114" lon="6.20718">
        <ele>1751.7</ele>
        <time>2023-07-24T14:25:18Z</time>
      </trkpt>
      <trkpt lat="44.91135" lon="6.20716">
        <ele>1753.3</ele>
        <time>2023-07-24T14:25:25Z</time>
      </trkpt>
      <trkpt lat="44.91131" lon="6.20717">
        <ele>1752.3</ele>
        <time>2023-07-24T14:25:32Z</time>
      </trkpt>
      <trkpt lat="44.91125" lon="6.20715">
        <ele>1751.5</ele>
        <time>2023-07-24T14:25:39Z</time>
      </trkpt>
      <trkpt lat="44.91121" lon="6.20717">
        <ele>1749.5</ele>
        <time>2023-07-24T14:25:46Z</time>
      </trkpt>
      <trkpt lat="44.91116" lon="6.20716">
        <ele>1750.3</ele>
        <time>2023-07-24T14:25:54Z</time>
      </trkpt>
      <trkpt lat="44.91116" lon="6.20714">
        <ele>1750</ele>
        <time>2023-07-24T14:26:00Z</time>
      </trkpt>
      <trkpt lat="44.91116" lon="6.20714">
        <ele>1750.3</ele>
        <time>2023-07-24T14:26:02Z</time>
      </trkpt>
      <trkpt lat="44.91111" lon="6.20715">
        <ele>1752.5</ele>
        <time>2023-07-24T14:26:11Z</time>
      </trkpt>
      <trkpt lat="44.91107" lon="6.20715">
        <ele>1752.9</ele>
        <time>2023-07-24T14:26:18Z</time>
      </trkpt>
      <trkpt lat="44.911" lon="6.20715">
        <ele>1755.7</ele>
        <time>2023-07-24T14:26:24Z</time>
      </trkpt>
      <trkpt lat="44.91097" lon="6.20716">
        <ele>1757.1</ele>
        <time>2023-07-24T14:26:31Z</time>
      </trkpt>
      <trkpt lat="44.91093" lon="6.20714">
        <ele>1758.8</ele>
        <time>2023-07-24T14:26:38Z</time>
      </trkpt>
      <trkpt lat="44.9109" lon="6.20712">
        <ele>1756.8</ele>
        <time>2023-07-24T14:26:45Z</time>
      </trkpt>
      <trkpt lat="44.91085" lon="6.20712">
        <ele>1757.9</ele>
        <time>2023-07-24T14:26:52Z</time>
      </trkpt>
      <trkpt lat="44.91079" lon="6.20711">
        <ele>1758</ele>
        <time>2023-07-24T14:27:00Z</time>
      </trkpt>
      <trkpt lat="44.91072" lon="6.20709">
        <ele>1758.2</ele>
        <time>2023-07-24T14:27:06Z</time>
      </trkpt>
      <trkpt lat="44.91068" lon="6.20711">
        <ele>1758.9</ele>
        <time>2023-07-24T14:27:13Z</time>
      </trkpt>
      <trkpt lat="44.91064" lon="6.20715">
        <ele>1758.3</ele>
        <time>2023-07-24T14:27:20Z</time>
      </trkpt>
      <trkpt lat="44.91059" lon="6.20714">
        <ele>1756.7</ele>
        <time>2023-07-24T14:27:27Z</time>
      </trkpt>
      <trkpt lat="44.91053" lon="6.20717">
        <ele>1754.9</ele>
        <time>2023-07-24T14:27:34Z</time>
      </trkpt>
      <trkpt lat="44.91049" lon="6.20721">
        <ele>1755.1</ele>
        <time>2023-07-24T14:27:41Z</time>
      </trkpt>
      <trkpt lat="44.91049" lon="6.20721">
        <ele>1755.7</ele>
        <time>2023-07-24T14:27:48Z</time>
      </trkpt>
      <trkpt lat="44.91049" lon="6.20721">
        <ele>1755.4</ele>
        <time>2023-07-24T14:28:03Z</time>
      </trkpt>
      <trkpt lat="44.91049" lon="6.20722">
        <ele>1756.3</ele>
        <time>2023-07-24T14:28:04Z</time>
      </trkpt>
      <trkpt lat="44.91046" lon="6.20723">
        <ele>1755.2</ele>
        <time>2023-07-24T14:28:12Z</time>
      </trkpt>
      <trkpt lat="44.9104" lon="6.2072">
        <ele>1757.4</ele>
        <time>2023-07-24T14:28:18Z</time>
      </trkpt>
      <trkpt lat="44.91033" lon="6.20718">
        <ele>1757.1</ele>
        <time>2023-07-24T14:28:26Z</time>
      </trkpt>
      <trkpt lat="44.91026" lon="6.20715">
        <ele>1758.3</ele>
        <time>2023-07-24T14:28:32Z</time>
      </trkpt>
      <trkpt lat="44.91028" lon="6.20721">
        <ele>1757.2</ele>
        <time>2023-07-24T14:28:39Z</time>
      </trkpt>
      <trkpt lat="44.91028" lon="6.20723">
        <ele>1757.1</ele>
        <time>2023-07-24T14:28:46Z</time>
      </trkpt>
      <trkpt lat="44.91026" lon="6.20722">
        <ele>1757.2</ele>
        <time>2023-07-24T14:28:54Z</time>
      </trkpt>
      <trkpt lat="44.91026" lon="6.20722">
        <ele>1757.1</ele>
        <time>2023-07-24T14:28:56Z</time>
      </trkpt>
      <trkpt lat="44.91023" lon="6.20725">
        <ele>1756.5</ele>
        <time>2023-07-24T14:29:32Z</time>
      </trkpt>
      <trkpt lat="44.91024" lon="6.20727">
        <ele>1753.5</ele>
        <time>2023-07-24T14:29:38Z</time>
      </trkpt>
      <trkpt lat="44.91024" lon="6.20727">
        <ele>1753.5</ele>
        <time>2023-07-24T14:29:40Z</time>
      </trkpt>
      <trkpt lat="44.91024" lon="6.20728">
        <ele>1755.1</ele>
        <time>2023-07-24T14:29:50Z</time>
      </trkpt>
      <trkpt lat="44.91024" lon="6.20728">
        <ele>1755.1</ele>
        <time>2023-07-24T14:29:50Z</time>
      </trkpt>
      <trkpt lat="44.91026" lon="6.20729">
        <ele>1753.4</ele>
        <time>2023-07-24T14:30:00Z</time>
      </trkpt>
      <trkpt lat="44.91026" lon="6.20729">
        <ele>1753.2</ele>
        <time>2023-07-24T14:30:05Z</time>
      </trkpt>
      <trkpt lat="44.91026" lon="6.2073">
        <ele>1752.6</ele>
        <time>2023-07-24T14:30:50Z</time>
      </trkpt>
      <trkpt lat="44.91026" lon="6.2073">
        <ele>1752.5</ele>
        <time>2023-07-24T14:30:50Z</time>
      </trkpt>
      <trkpt lat="44.91023" lon="6.20737">
        <ele>1756.3</ele>
        <time>2023-07-24T14:31:12Z</time>
      </trkpt>
      <trkpt lat="44.91017" lon="6.20737">
        <ele>1757.7</ele>
        <time>2023-07-24T14:31:20Z</time>
      </trkpt>
      <trkpt lat="44.91011" lon="6.20734">
        <ele>1756.1</ele>
        <time>2023-07-24T14:31:26Z</time>
      </trkpt>
      <trkpt lat="44.91007" lon="6.20731">
        <ele>1755.1</ele>
        <time>2023-07-24T14:31:33Z</time>
      </trkpt>
      <trkpt lat="44.91008" lon="6.20734">
        <ele>1755.4</ele>
        <time>2023-07-24T14:31:40Z</time>
      </trkpt>
      <trkpt lat="44.91008" lon="6.20735">
        <ele>1755.9</ele>
        <time>2023-07-24T14:31:44Z</time>
      </trkpt>
      <trkpt lat="44.91003" lon="6.20736">
        <ele>1754.3</ele>
        <time>2023-07-24T14:31:51Z</time>
      </trkpt>
      <trkpt lat="44.91004" lon="6.20742">
        <ele>1756</ele>
        <time>2023-07-24T14:31:58Z</time>
      </trkpt>
      <trkpt lat="44.91004" lon="6.20743">
        <ele>1756.1</ele>
        <time>2023-07-24T14:32:04Z</time>
      </trkpt>
      <trkpt lat="44.91003" lon="6.20742">
        <ele>1755.4</ele>
        <time>2023-07-24T14:32:14Z</time>
      </trkpt>
      <trkpt lat="44.90999" lon="6.20738">
        <ele>1755.1</ele>
        <time>2023-07-24T14:32:20Z</time>
      </trkpt>
      <trkpt lat="44.90993" lon="6.20736">
        <ele>1755.9</ele>
        <time>2023-07-24T14:32:27Z</time>
      </trkpt>
      <trkpt lat="44.90988" lon="6.20732">
        <ele>1757.1</ele>
        <time>2023-07-24T14:32:34Z</time>
      </trkpt>
      <trkpt lat="44.90987" lon="6.20729">
        <ele>1758.5</ele>
        <time>2023-07-24T14:32:41Z</time>
      </trkpt>
      <trkpt lat="44.90983" lon="6.20729">
        <ele>1761.6</ele>
        <time>2023-07-24T14:32:48Z</time>
      </trkpt>
      <trkpt lat="44.90984" lon="6.20732">
        <ele>1762.4</ele>
        <time>2023-07-24T14:32:56Z</time>
      </trkpt>
      <trkpt lat="44.90984" lon="6.20732">
        <ele>1762.3</ele>
        <time>2023-07-24T14:33:00Z</time>
      </trkpt>
      <trkpt lat="44.90985" lon="6.20732">
        <ele>1763.2</ele>
        <time>2023-07-24T14:33:17Z</time>
      </trkpt>
      <trkpt lat="44.90984" lon="6.20732">
        <ele>1763.5</ele>
        <time>2023-07-24T14:33:18Z</time>
      </trkpt>
      <trkpt lat="44.90981" lon="6.2073">
        <ele>1761.4</ele>
        <time>2023-07-24T14:33:26Z</time>
      </trkpt>
      <trkpt lat="44.90979" lon="6.20728">
        <ele>1759.4</ele>
        <time>2023-07-24T14:33:33Z</time>
      </trkpt>
      <trkpt lat="44.90976" lon="6.20731">
        <ele>1759.5</ele>
        <time>2023-07-24T14:33:40Z</time>
      </trkpt>
      <trkpt lat="44.90973" lon="6.20731">
        <ele>1759.6</ele>
        <time>2023-07-24T14:33:47Z</time>
      </trkpt>
      <trkpt lat="44.90973" lon="6.20735">
        <ele>1761.7</ele>
        <time>2023-07-24T14:33:54Z</time>
      </trkpt>
      <trkpt lat="44.90971" lon="6.20735">
        <ele>1762.5</ele>
        <time>2023-07-24T14:34:02Z</time>
      </trkpt>
      <trkpt lat="44.90965" lon="6.20733">
        <ele>1763</ele>
        <time>2023-07-24T14:34:08Z</time>
      </trkpt>
      <trkpt lat="44.90959" lon="6.2073">
        <ele>1761.9</ele>
        <time>2023-07-24T14:34:15Z</time>
      </trkpt>
      <trkpt lat="44.90955" lon="6.20737">
        <ele>1760.7</ele>
        <time>2023-07-24T14:34:22Z</time>
      </trkpt>
      <trkpt lat="44.9095" lon="6.20737">
        <ele>1761.1</ele>
        <time>2023-07-24T14:34:29Z</time>
      </trkpt>
      <trkpt lat="44.90948" lon="6.20736">
        <ele>1761.6</ele>
        <time>2023-07-24T14:34:36Z</time>
      </trkpt>
      <trkpt lat="44.90943" lon="6.20733">
        <ele>1758.4</ele>
        <time>2023-07-24T14:34:44Z</time>
      </trkpt>
      <trkpt lat="44.90939" lon="6.20733">
        <ele>1760</ele>
        <time>2023-07-24T14:34:50Z</time>
      </trkpt>
      <trkpt lat="44.90938" lon="6.20734">
        <ele>1759.9</ele>
        <time>2023-07-24T14:34:57Z</time>
      </trkpt>
      <trkpt lat="44.90938" lon="6.20734">
        <ele>1759.9</ele>
        <time>2023-07-24T14:34:58Z</time>
      </trkpt>
      <trkpt lat="44.90933" lon="6.20731">
        <ele>1756.4</ele>
        <time>2023-07-24T14:35:09Z</time>
      </trkpt>
      <trkpt lat="44.90929" lon="6.20733">
        <ele>1756.6</ele>
        <time>2023-07-24T14:35:16Z</time>
      </trkpt>
      <trkpt lat="44.90924" lon="6.20732">
        <ele>1757.1</ele>
        <time>2023-07-24T14:35:23Z</time>
      </trkpt>
      <trkpt lat="44.90917" lon="6.2073">
        <ele>1759.3</ele>
        <time>2023-07-24T14:35:30Z</time>
      </trkpt>
      <trkpt lat="44.90912" lon="6.20732">
        <ele>1760.5</ele>
        <time>2023-07-24T14:35:38Z</time>
      </trkpt>
      <trkpt lat="44.90912" lon="6.20733">
        <ele>1759.2</ele>
        <time>2023-07-24T14:35:44Z</time>
      </trkpt>
      <trkpt lat="44.90905" lon="6.20728">
        <ele>1761.8</ele>
        <time>2023-07-24T14:35:52Z</time>
      </trkpt>
      <trkpt lat="44.90901" lon="6.20724">
        <ele>1761.6</ele>
        <time>2023-07-24T14:35:58Z</time>
      </trkpt>
      <trkpt lat="44.90894" lon="6.20719">
        <ele>1764.1</ele>
        <time>2023-07-24T14:36:03Z</time>
      </trkpt>
      <trkpt lat="44.90889" lon="6.20718">
        <ele>1765.3</ele>
        <time>2023-07-24T14:36:10Z</time>
      </trkpt>
      <trkpt lat="44.90888" lon="6.20721">
        <ele>1763.6</ele>
        <time>2023-07-24T14:36:17Z</time>
      </trkpt>
      <trkpt lat="44.90883" lon="6.20721">
        <ele>1764.3</ele>
        <time>2023-07-24T14:36:24Z</time>
      </trkpt>
      <trkpt lat="44.90878" lon="6.20719">
        <ele>1764.5</ele>
        <time>2023-07-24T14:36:32Z</time>
      </trkpt>
      <trkpt lat="44.90873" lon="6.20721">
        <ele>1765.3</ele>
        <time>2023-07-24T14:36:38Z</time>
      </trkpt>
      <trkpt lat="44.90869" lon="6.20729">
        <ele>1763.1</ele>
        <time>2023-07-24T14:36:45Z</time>
      </trkpt>
      <trkpt lat="44.90865" lon="6.20735">
        <ele>1762.4</ele>
        <time>2023-07-24T14:36:52Z</time>
      </trkpt>
      <trkpt lat="44.90861" lon="6.20731">
        <ele>1761.9</ele>
        <time>2023-07-24T14:36:59Z</time>
      </trkpt>
      <trkpt lat="44.90855" lon="6.20727">
        <ele>1761.2</ele>
        <time>2023-07-24T14:37:06Z</time>
      </trkpt>
      <trkpt lat="44.90849" lon="6.20724">
        <ele>1762.2</ele>
        <time>2023-07-24T14:37:14Z</time>
      </trkpt>
      <trkpt lat="44.90842" lon="6.20724">
        <ele>1762.7</ele>
        <time>2023-07-24T14:37:20Z</time>
      </trkpt>
      <trkpt lat="44.90838" lon="6.20733">
        <ele>1762.2</ele>
        <time>2023-07-24T14:37:27Z</time>
      </trkpt>
      <trkpt lat="44.90831" lon="6.20734">
        <ele>1762.3</ele>
        <time>2023-07-24T14:37:34Z</time>
      </trkpt>
      <trkpt lat="44.90828" lon="6.20735">
        <ele>1759.7</ele>
        <time>2023-07-24T14:37:42Z</time>
      </trkpt>
      <trkpt lat="44.90821" lon="6.20732">
        <ele>1759.3</ele>
        <time>2023-07-24T14:37:48Z</time>
      </trkpt>
      <trkpt lat="44.90819" lon="6.20733">
        <ele>1758.8</ele>
        <time>2023-07-24T14:37:56Z</time>
      </trkpt>
      <trkpt lat="44.90815" lon="6.20729">
        <ele>1758.1</ele>
        <time>2023-07-24T14:38:02Z</time>
      </trkpt>
      <trkpt lat="44.90809" lon="6.20728">
        <ele>1762.3</ele>
        <time>2023-07-24T14:38:09Z</time>
      </trkpt>
      <trkpt lat="44.90805" lon="6.20728">
        <ele>1761.3</ele>
        <time>2023-07-24T14:38:16Z</time>
      </trkpt>
      <trkpt lat="44.90801" lon="6.20721">
        <ele>1761.6</ele>
        <time>2023-07-24T14:38:23Z</time>
      </trkpt>
      <trkpt lat="44.90796" lon="6.20721">
        <ele>1759.8</ele>
        <time>2023-07-24T14:38:30Z</time>
      </trkpt>
      <trkpt lat="44.90791" lon="6.20721">
        <ele>1759.5</ele>
        <time>2023-07-24T14:38:38Z</time>
      </trkpt>
      <trkpt lat="44.90789" lon="6.20721">
        <ele>1760.7</ele>
        <time>2023-07-24T14:38:44Z</time>
      </trkpt>
      <trkpt lat="44.90783" lon="6.20721">
        <ele>1758.7</ele>
        <time>2023-07-24T14:38:51Z</time>
      </trkpt>
      <trkpt lat="44.90776" lon="6.20717">
        <ele>1757.6</ele>
        <time>2023-07-24T14:38:58Z</time>
      </trkpt>
      <trkpt lat="44.90769" lon="6.20717">
        <ele>1757.9</ele>
        <time>2023-07-24T14:39:05Z</time>
      </trkpt>
      <trkpt lat="44.90762" lon="6.2072">
        <ele>1758</ele>
        <time>2023-07-24T14:39:12Z</time>
      </trkpt>
      <trkpt lat="44.90759" lon="6.20722">
        <ele>1757.7</ele>
        <time>2023-07-24T14:39:20Z</time>
      </trkpt>
      <trkpt lat="44.90757" lon="6.20732">
        <ele>1757.8</ele>
        <time>2023-07-24T14:39:27Z</time>
      </trkpt>
      <trkpt lat="44.90755" lon="6.20733">
        <ele>1758.1</ele>
        <time>2023-07-24T14:39:33Z</time>
      </trkpt>
      <trkpt lat="44.90753" lon="6.20732">
        <ele>1757.5</ele>
        <time>2023-07-24T14:39:36Z</time>
      </trkpt>
      <trkpt lat="44.9075" lon="6.20733">
        <ele>1757.9</ele>
        <time>2023-07-24T14:39:44Z</time>
      </trkpt>
      <trkpt lat="44.90745" lon="6.20733">
        <ele>1760</ele>
        <time>2023-07-24T14:39:50Z</time>
      </trkpt>
      <trkpt lat="44.90743" lon="6.20731">
        <ele>1759</ele>
        <time>2023-07-24T14:39:57Z</time>
      </trkpt>
      <trkpt lat="44.90743" lon="6.20732">
        <ele>1758.7</ele>
        <time>2023-07-24T14:40:00Z</time>
      </trkpt>
      <trkpt lat="44.90744" lon="6.20738">
        <ele>1760.1</ele>
        <time>2023-07-24T14:40:56Z</time>
      </trkpt>
      <trkpt lat="44.90744" lon="6.20738">
        <ele>1760.1</ele>
        <time>2023-07-24T14:40:57Z</time>
      </trkpt>
      <trkpt lat="44.90744" lon="6.20734">
        <ele>1764.5</ele>
        <time>2023-07-24T14:42:07Z</time>
      </trkpt>
      <trkpt lat="44.90744" lon="6.20734">
        <ele>1764.9</ele>
        <time>2023-07-24T14:42:08Z</time>
      </trkpt>
      <trkpt lat="44.90744" lon="6.20734">
        <ele>1765.8</ele>
        <time>2023-07-24T14:42:47Z</time>
      </trkpt>
      <trkpt lat="44.90744" lon="6.20734">
        <ele>1766.5</ele>
        <time>2023-07-24T14:42:49Z</time>
      </trkpt>
      <trkpt lat="44.90743" lon="6.20731">
        <ele>1765.4</ele>
        <time>2023-07-24T14:43:06Z</time>
      </trkpt>
      <trkpt lat="44.90743" lon="6.20731">
        <ele>1765.6</ele>
        <time>2023-07-24T14:43:11Z</time>
      </trkpt>
      <trkpt lat="44.90743" lon="6.20732">
        <ele>1768.4</ele>
        <time>2023-07-24T14:43:32Z</time>
      </trkpt>
      <trkpt lat="44.90743" lon="6.20732">
        <ele>1768.7</ele>
        <time>2023-07-24T14:43:33Z</time>
      </trkpt>
      <trkpt lat="44.90742" lon="6.20732">
        <ele>1769.4</ele>
        <time>2023-07-24T14:43:45Z</time>
      </trkpt>
      <trkpt lat="44.90742" lon="6.20732">
        <ele>1769.4</ele>
        <time>2023-07-24T14:43:46Z</time>
      </trkpt>
      <trkpt lat="44.90741" lon="6.20731">
        <ele>1770</ele>
        <time>2023-07-24T14:44:04Z</time>
      </trkpt>
      <trkpt lat="44.90741" lon="6.20731">
        <ele>1770</ele>
        <time>2023-07-24T14:44:05Z</time>
      </trkpt>
      <trkpt lat="44.90741" lon="6.20731">
        <ele>1770</ele>
        <time>2023-07-24T14:44:21Z</time>
      </trkpt>
      <trkpt lat="44.90741" lon="6.20731">
        <ele>1770</ele>
        <time>2023-07-24T14:44:22Z</time>
      </trkpt>
      <trkpt lat="44.90739" lon="6.20731">
        <ele>1770</ele>
        <time>2023-07-24T14:44:54Z</time>
      </trkpt>
      <trkpt lat="44.90739" lon="6.20731">
        <ele>1770</ele>
        <time>2023-07-24T14:44:54Z</time>
      </trkpt>
      <trkpt lat="44.90739" lon="6.20729">
        <ele>1768.6</ele>
        <time>2023-07-24T14:45:49Z</time>
      </trkpt>
      <trkpt lat="44.90739" lon="6.20729">
        <ele>1768.2</ele>
        <time>2023-07-24T14:45:54Z</time>
      </trkpt>
      <trkpt lat="44.90739" lon="6.2073">
        <ele>1768.2</ele>
        <time>2023-07-24T14:46:10Z</time>
      </trkpt>
      <trkpt lat="44.90739" lon="6.2073">
        <ele>1768.5</ele>
        <time>2023-07-24T14:46:11Z</time>
      </trkpt>
      <trkpt lat="44.90737" lon="6.20731">
        <ele>1767.8</ele>
        <time>2023-07-24T14:46:30Z</time>
      </trkpt>
      <trkpt lat="44.90737" lon="6.20731">
        <ele>1767.9</ele>
        <time>2023-07-24T14:46:31Z</time>
      </trkpt>
      <trkpt lat="44.90736" lon="6.2073">
        <ele>1769.3</ele>
        <time>2023-07-24T14:46:38Z</time>
      </trkpt>
      <trkpt lat="44.90736" lon="6.2073">
        <ele>1769.3</ele>
        <time>2023-07-24T14:46:39Z</time>
      </trkpt>
      <trkpt lat="44.90738" lon="6.20727">
        <ele>1769</ele>
        <time>2023-07-24T14:47:11Z</time>
      </trkpt>
      <trkpt lat="44.90735" lon="6.20721">
        <ele>1769.4</ele>
        <time>2023-07-24T14:47:17Z</time>
      </trkpt>
      <trkpt lat="44.90733" lon="6.20716">
        <ele>1769</ele>
        <time>2023-07-24T14:47:24Z</time>
      </trkpt>
      <trkpt lat="44.9073" lon="6.2071">
        <ele>1770.2</ele>
        <time>2023-07-24T14:47:31Z</time>
      </trkpt>
      <trkpt lat="44.90724" lon="6.20705">
        <ele>1771.3</ele>
        <time>2023-07-24T14:47:38Z</time>
      </trkpt>
      <trkpt lat="44.90722" lon="6.20699">
        <ele>1770.5</ele>
        <time>2023-07-24T14:47:46Z</time>
      </trkpt>
      <trkpt lat="44.90717" lon="6.20698">
        <ele>1770.4</ele>
        <time>2023-07-24T14:47:52Z</time>
      </trkpt>
      <trkpt lat="44.90713" lon="6.20697">
        <ele>1770.1</ele>
        <time>2023-07-24T14:47:59Z</time>
      </trkpt>
      <trkpt lat="44.90708" lon="6.20693">
        <ele>1771.8</ele>
        <time>2023-07-24T14:48:07Z</time>
      </trkpt>
      <trkpt lat="44.90703" lon="6.20688">
        <ele>1772.9</ele>
        <time>2023-07-24T14:48:13Z</time>
      </trkpt>
      <trkpt lat="44.907" lon="6.20686">
        <ele>1772.6</ele>
        <time>2023-07-24T14:48:20Z</time>
      </trkpt>
      <trkpt lat="44.90693" lon="6.20684">
        <ele>1771.7</ele>
        <time>2023-07-24T14:48:28Z</time>
      </trkpt>
      <trkpt lat="44.90688" lon="6.20679">
        <ele>1771</ele>
        <time>2023-07-24T14:48:34Z</time>
      </trkpt>
      <trkpt lat="44.90686" lon="6.20676">
        <ele>1773.7</ele>
        <time>2023-07-24T14:48:41Z</time>
      </trkpt>
      <trkpt lat="44.90685" lon="6.20676">
        <ele>1774.4</ele>
        <time>2023-07-24T14:48:46Z</time>
      </trkpt>
      <trkpt lat="44.90691" lon="6.20673">
        <ele>1775.1</ele>
        <time>2023-07-24T14:48:54Z</time>
      </trkpt>
      <trkpt lat="44.90683" lon="6.20675">
        <ele>1775.8</ele>
        <time>2023-07-24T14:48:58Z</time>
      </trkpt>
      <trkpt lat="44.90676" lon="6.20675">
        <ele>1777.4</ele>
        <time>2023-07-24T14:49:04Z</time>
      </trkpt>
      <trkpt lat="44.9067" lon="6.20682">
        <ele>1777.4</ele>
        <time>2023-07-24T14:49:10Z</time>
      </trkpt>
      <trkpt lat="44.90665" lon="6.20682">
        <ele>1777.7</ele>
        <time>2023-07-24T14:49:16Z</time>
      </trkpt>
      <trkpt lat="44.90658" lon="6.20676">
        <ele>1778.7</ele>
        <time>2023-07-24T14:49:22Z</time>
      </trkpt>
      <trkpt lat="44.90653" lon="6.20669">
        <ele>1780</ele>
        <time>2023-07-24T14:49:28Z</time>
      </trkpt>
      <trkpt lat="44.90647" lon="6.20663">
        <ele>1779.4</ele>
        <time>2023-07-24T14:49:34Z</time>
      </trkpt>
      <trkpt lat="44.90641" lon="6.20663">
        <ele>1779.7</ele>
        <time>2023-07-24T14:49:41Z</time>
      </trkpt>
      <trkpt lat="44.90637" lon="6.20663">
        <ele>1779.8</ele>
        <time>2023-07-24T14:49:49Z</time>
      </trkpt>
      <trkpt lat="44.90632" lon="6.20665">
        <ele>1778.7</ele>
        <time>2023-07-24T14:49:55Z</time>
      </trkpt>
      <trkpt lat="44.90625" lon="6.20663">
        <ele>1781</ele>
        <time>2023-07-24T14:50:02Z</time>
      </trkpt>
      <trkpt lat="44.90617" lon="6.20661">
        <ele>1774.2</ele>
        <time>2023-07-24T14:50:10Z</time>
      </trkpt>
      <trkpt lat="44.9061" lon="6.20657">
        <ele>1775.7</ele>
        <time>2023-07-24T14:50:16Z</time>
      </trkpt>
      <trkpt lat="44.90603" lon="6.20654">
        <ele>1775.3</ele>
        <time>2023-07-24T14:50:22Z</time>
      </trkpt>
      <trkpt lat="44.90602" lon="6.20661">
        <ele>1776.3</ele>
        <time>2023-07-24T14:50:29Z</time>
      </trkpt>
      <trkpt lat="44.90598" lon="6.20664">
        <ele>1776</ele>
        <time>2023-07-24T14:50:36Z</time>
      </trkpt>
      <trkpt lat="44.90591" lon="6.20661">
        <ele>1774.5</ele>
        <time>2023-07-24T14:50:43Z</time>
      </trkpt>
      <trkpt lat="44.90587" lon="6.20663">
        <ele>1769.9</ele>
        <time>2023-07-24T14:50:51Z</time>
      </trkpt>
      <trkpt lat="44.90579" lon="6.20663">
        <ele>1773</ele>
        <time>2023-07-24T14:50:57Z</time>
      </trkpt>
      <trkpt lat="44.90572" lon="6.20662">
        <ele>1773</ele>
        <time>2023-07-24T14:51:03Z</time>
      </trkpt>
      <trkpt lat="44.90564" lon="6.20661">
        <ele>1776.3</ele>
        <time>2023-07-24T14:51:09Z</time>
      </trkpt>
      <trkpt lat="44.9056" lon="6.20665">
        <ele>1773.9</ele>
        <time>2023-07-24T14:51:16Z</time>
      </trkpt>
      <trkpt lat="44.90556" lon="6.20655">
        <ele>1776.1</ele>
        <time>2023-07-24T14:51:23Z</time>
      </trkpt>
      <trkpt lat="44.90556" lon="6.20652">
        <ele>1777.1</ele>
        <time>2023-07-24T14:51:30Z</time>
      </trkpt>
      <trkpt lat="44.90554" lon="6.20651">
        <ele>1777.1</ele>
        <time>2023-07-24T14:51:38Z</time>
      </trkpt>
      <trkpt lat="44.90549" lon="6.20649">
        <ele>1778.6</ele>
        <time>2023-07-24T14:51:44Z</time>
      </trkpt>
      <trkpt lat="44.90545" lon="6.2065">
        <ele>1777.2</ele>
        <time>2023-07-24T14:51:51Z</time>
      </trkpt>
      <trkpt lat="44.90539" lon="6.20652">
        <ele>1776</ele>
        <time>2023-07-24T14:51:58Z</time>
      </trkpt>
      <trkpt lat="44.90531" lon="6.20649">
        <ele>1771.6</ele>
        <time>2023-07-24T14:52:05Z</time>
      </trkpt>
      <trkpt lat="44.90526" lon="6.20657">
        <ele>1769.6</ele>
        <time>2023-07-24T14:52:12Z</time>
      </trkpt>
      <trkpt lat="44.9052" lon="6.20653">
        <ele>1772.6</ele>
        <time>2023-07-24T14:52:18Z</time>
      </trkpt>
      <trkpt lat="44.90516" lon="6.20652">
        <ele>1772.3</ele>
        <time>2023-07-24T14:52:26Z</time>
      </trkpt>
      <trkpt lat="44.90511" lon="6.20649">
        <ele>1774.3</ele>
        <time>2023-07-24T14:52:32Z</time>
      </trkpt>
      <trkpt lat="44.90506" lon="6.20649">
        <ele>1774.4</ele>
        <time>2023-07-24T14:52:39Z</time>
      </trkpt>
      <trkpt lat="44.905" lon="6.20642">
        <ele>1777.1</ele>
        <time>2023-07-24T14:52:45Z</time>
      </trkpt>
      <trkpt lat="44.90502" lon="6.20645">
        <ele>1777.9</ele>
        <time>2023-07-24T14:52:51Z</time>
      </trkpt>
      <trkpt lat="44.90497" lon="6.20651">
        <ele>1777.1</ele>
        <time>2023-07-24T14:52:58Z</time>
      </trkpt>
      <trkpt lat="44.90495" lon="6.2066">
        <ele>1779.5</ele>
        <time>2023-07-24T14:53:05Z</time>
      </trkpt>
      <trkpt lat="44.90492" lon="6.2066">
        <ele>1778</ele>
        <time>2023-07-24T14:53:12Z</time>
      </trkpt>
      <trkpt lat="44.90491" lon="6.20661">
        <ele>1777.6</ele>
        <time>2023-07-24T14:53:15Z</time>
      </trkpt>
      <trkpt lat="44.90489" lon="6.20664">
        <ele>1778.2</ele>
        <time>2023-07-24T14:53:26Z</time>
      </trkpt>
      <trkpt lat="44.90488" lon="6.20667">
        <ele>1778.5</ele>
        <time>2023-07-24T14:53:32Z</time>
      </trkpt>
      <trkpt lat="44.90487" lon="6.20667">
        <ele>1778</ele>
        <time>2023-07-24T14:53:35Z</time>
      </trkpt>
      <trkpt lat="44.90484" lon="6.20666">
        <ele>1781.3</ele>
        <time>2023-07-24T14:53:44Z</time>
      </trkpt>
      <trkpt lat="44.90487" lon="6.20667">
        <ele>1785.6</ele>
        <time>2023-07-24T14:53:50Z</time>
      </trkpt>
      <trkpt lat="44.90482" lon="6.20665">
        <ele>1777.4</ele>
        <time>2023-07-24T14:53:57Z</time>
      </trkpt>
      <trkpt lat="44.90479" lon="6.20663">
        <ele>1773.5</ele>
        <time>2023-07-24T14:54:04Z</time>
      </trkpt>
      <trkpt lat="44.90479" lon="6.20663">
        <ele>1773.5</ele>
        <time>2023-07-24T14:54:06Z</time>
      </trkpt>
      <trkpt lat="44.90476" lon="6.20663">
        <ele>1773.8</ele>
        <time>2023-07-24T14:54:20Z</time>
      </trkpt>
      <trkpt lat="44.90471" lon="6.20661">
        <ele>1773.5</ele>
        <time>2023-07-24T14:54:26Z</time>
      </trkpt>
      <trkpt lat="44.90465" lon="6.20664">
        <ele>1777.4</ele>
        <time>2023-07-24T14:54:33Z</time>
      </trkpt>
      <trkpt lat="44.9046" lon="6.20659">
        <ele>1781.9</ele>
        <time>2023-07-24T14:54:40Z</time>
      </trkpt>
      <trkpt lat="44.90455" lon="6.20657">
        <ele>1783.3</ele>
        <time>2023-07-24T14:54:47Z</time>
      </trkpt>
      <trkpt lat="44.90451" lon="6.2066">
        <ele>1786.4</ele>
        <time>2023-07-24T14:54:54Z</time>
      </trkpt>
      <trkpt lat="44.90444" lon="6.20662">
        <ele>1785.9</ele>
        <time>2023-07-24T14:55:02Z</time>
      </trkpt>
      <trkpt lat="44.9044" lon="6.20662">
        <ele>1787.1</ele>
        <time>2023-07-24T14:55:08Z</time>
      </trkpt>
      <trkpt lat="44.90435" lon="6.2066">
        <ele>1790.7</ele>
        <time>2023-07-24T14:55:15Z</time>
      </trkpt>
      <trkpt lat="44.90431" lon="6.20659">
        <ele>1790.1</ele>
        <time>2023-07-24T14:55:22Z</time>
      </trkpt>
      <trkpt lat="44.90427" lon="6.2066">
        <ele>1791.4</ele>
        <time>2023-07-24T14:55:29Z</time>
      </trkpt>
      <trkpt lat="44.9042" lon="6.20662">
        <ele>1790.4</ele>
        <time>2023-07-24T14:55:36Z</time>
      </trkpt>
      <trkpt lat="44.90416" lon="6.20659">
        <ele>1794.8</ele>
        <time>2023-07-24T14:55:44Z</time>
      </trkpt>
      <trkpt lat="44.90412" lon="6.20654">
        <ele>1793.4</ele>
        <time>2023-07-24T14:55:50Z</time>
      </trkpt>
      <trkpt lat="44.90405" lon="6.20649">
        <ele>1791.9</ele>
        <time>2023-07-24T14:55:58Z</time>
      </trkpt>
      <trkpt lat="44.90397" lon="6.20646">
        <ele>1791</ele>
        <time>2023-07-24T14:56:04Z</time>
      </trkpt>
      <trkpt lat="44.90392" lon="6.20644">
        <ele>1790.5</ele>
        <time>2023-07-24T14:56:11Z</time>
      </trkpt>
      <trkpt lat="44.90386" lon="6.20641">
        <ele>1792.1</ele>
        <time>2023-07-24T14:56:19Z</time>
      </trkpt>
      <trkpt lat="44.90383" lon="6.20637">
        <ele>1791.7</ele>
        <time>2023-07-24T14:56:26Z</time>
      </trkpt>
      <trkpt lat="44.90379" lon="6.20632">
        <ele>1791.2</ele>
        <time>2023-07-24T14:56:32Z</time>
      </trkpt>
      <trkpt lat="44.90375" lon="6.20627">
        <ele>1791.9</ele>
        <time>2023-07-24T14:56:39Z</time>
      </trkpt>
      <trkpt lat="44.90372" lon="6.20625">
        <ele>1794.6</ele>
        <time>2023-07-24T14:56:46Z</time>
      </trkpt>
      <trkpt lat="44.90366" lon="6.20623">
        <ele>1796.4</ele>
        <time>2023-07-24T14:56:53Z</time>
      </trkpt>
      <trkpt lat="44.90361" lon="6.20619">
        <ele>1796.7</ele>
        <time>2023-07-24T14:57:00Z</time>
      </trkpt>
      <trkpt lat="44.90356" lon="6.20613">
        <ele>1796.4</ele>
        <time>2023-07-24T14:57:08Z</time>
      </trkpt>
      <trkpt lat="44.9035" lon="6.20609">
        <ele>1794.2</ele>
        <time>2023-07-24T14:57:14Z</time>
      </trkpt>
      <trkpt lat="44.90344" lon="6.20602">
        <ele>1791.8</ele>
        <time>2023-07-24T14:57:20Z</time>
      </trkpt>
      <trkpt lat="44.9034" lon="6.206">
        <ele>1789.2</ele>
        <time>2023-07-24T14:57:26Z</time>
      </trkpt>
      <trkpt lat="44.90335" lon="6.20599">
        <ele>1790.1</ele>
        <time>2023-07-24T14:57:33Z</time>
      </trkpt>
      <trkpt lat="44.9033" lon="6.20595">
        <ele>1790</ele>
        <time>2023-07-24T14:57:40Z</time>
      </trkpt>
      <trkpt lat="44.90323" lon="6.20594">
        <ele>1787.9</ele>
        <time>2023-07-24T14:57:47Z</time>
      </trkpt>
      <trkpt lat="44.90317" lon="6.20594">
        <ele>1789.2</ele>
        <time>2023-07-24T14:57:54Z</time>
      </trkpt>
      <trkpt lat="44.90311" lon="6.20597">
        <ele>1792.5</ele>
        <time>2023-07-24T14:58:02Z</time>
      </trkpt>
      <trkpt lat="44.90306" lon="6.20596">
        <ele>1789.9</ele>
        <time>2023-07-24T14:58:08Z</time>
      </trkpt>
      <trkpt lat="44.90302" lon="6.20597">
        <ele>1788.9</ele>
        <time>2023-07-24T14:58:15Z</time>
      </trkpt>
      <trkpt lat="44.90302" lon="6.20597">
        <ele>1788.9</ele>
        <time>2023-07-24T14:58:22Z</time>
      </trkpt>
      <trkpt lat="44.90294" lon="6.20592">
        <ele>1788.3</ele>
        <time>2023-07-24T14:58:30Z</time>
      </trkpt>
      <trkpt lat="44.90285" lon="6.2059">
        <ele>1788.7</ele>
        <time>2023-07-24T14:58:34Z</time>
      </trkpt>
      <trkpt lat="44.90278" lon="6.20589">
        <ele>1789.8</ele>
        <time>2023-07-24T14:58:39Z</time>
      </trkpt>
      <trkpt lat="44.90276" lon="6.20591">
        <ele>1790.4</ele>
        <time>2023-07-24T14:58:46Z</time>
      </trkpt>
      <trkpt lat="44.90276" lon="6.20591">
        <ele>1790.7</ele>
        <time>2023-07-24T14:58:50Z</time>
      </trkpt>
      <trkpt lat="44.90278" lon="6.20595">
        <ele>1792.6</ele>
        <time>2023-07-24T14:59:38Z</time>
      </trkpt>
      <trkpt lat="44.90278" lon="6.20595">
        <ele>1793.2</ele>
        <time>2023-07-24T14:59:38Z</time>
      </trkpt>
      <trkpt lat="44.90279" lon="6.20595">
        <ele>1792</ele>
        <time>2023-07-24T14:59:53Z</time>
      </trkpt>
      <trkpt lat="44.90279" lon="6.20595">
        <ele>1792</ele>
        <time>2023-07-24T14:59:54Z</time>
      </trkpt>
      <trkpt lat="44.90274" lon="6.206">
        <ele>1792.4</ele>
        <time>2023-07-24T15:00:20Z</time>
      </trkpt>
      <trkpt lat="44.9027" lon="6.20604">
        <ele>1792.3</ele>
        <time>2023-07-24T15:00:27Z</time>
      </trkpt>
      <trkpt lat="44.90264" lon="6.20606">
        <ele>1789.8</ele>
        <time>2023-07-24T15:00:35Z</time>
      </trkpt>
      <trkpt lat="44.90257" lon="6.20608">
        <ele>1788.5</ele>
        <time>2023-07-24T15:00:41Z</time>
      </trkpt>
      <trkpt lat="44.90255" lon="6.2061">
        <ele>1790.2</ele>
        <time>2023-07-24T15:00:48Z</time>
      </trkpt>
      <trkpt lat="44.9025" lon="6.20611">
        <ele>1788.3</ele>
        <time>2023-07-24T15:00:56Z</time>
      </trkpt>
      <trkpt lat="44.90245" lon="6.20609">
        <ele>1789.6</ele>
        <time>2023-07-24T15:01:02Z</time>
      </trkpt>
      <trkpt lat="44.90238" lon="6.2061">
        <ele>1790.3</ele>
        <time>2023-07-24T15:01:09Z</time>
      </trkpt>
      <trkpt lat="44.90231" lon="6.2061">
        <ele>1792.8</ele>
        <time>2023-07-24T15:01:16Z</time>
      </trkpt>
      <trkpt lat="44.90226" lon="6.20611">
        <ele>1792.7</ele>
        <time>2023-07-24T15:01:23Z</time>
      </trkpt>
      <trkpt lat="44.90221" lon="6.20608">
        <ele>1794.3</ele>
        <time>2023-07-24T15:01:30Z</time>
      </trkpt>
      <trkpt lat="44.90216" lon="6.20605">
        <ele>1795.8</ele>
        <time>2023-07-24T15:01:38Z</time>
      </trkpt>
      <trkpt lat="44.90212" lon="6.20602">
        <ele>1798.1</ele>
        <time>2023-07-24T15:01:45Z</time>
      </trkpt>
      <trkpt lat="44.90208" lon="6.20599">
        <ele>1798</ele>
        <time>2023-07-24T15:01:51Z</time>
      </trkpt>
      <trkpt lat="44.90203" lon="6.20595">
        <ele>1798.1</ele>
        <time>2023-07-24T15:01:58Z</time>
      </trkpt>
      <trkpt lat="44.90198" lon="6.20592">
        <ele>1799.1</ele>
        <time>2023-07-24T15:02:05Z</time>
      </trkpt>
      <trkpt lat="44.90197" lon="6.20592">
        <ele>1798</ele>
        <time>2023-07-24T15:02:12Z</time>
      </trkpt>
      <trkpt lat="44.90197" lon="6.20592">
        <ele>1798</ele>
        <time>2023-07-24T15:02:14Z</time>
      </trkpt>
      <trkpt lat="44.90192" lon="6.20584">
        <ele>1795.1</ele>
        <time>2023-07-24T15:02:57Z</time>
      </trkpt>
      <trkpt lat="44.90193" lon="6.20573">
        <ele>1798.5</ele>
        <time>2023-07-24T15:03:04Z</time>
      </trkpt>
      <trkpt lat="44.90189" lon="6.2057">
        <ele>1799.9</ele>
        <time>2023-07-24T15:03:11Z</time>
      </trkpt>
      <trkpt lat="44.90184" lon="6.2057">
        <ele>1798.2</ele>
        <time>2023-07-24T15:03:18Z</time>
      </trkpt>
      <trkpt lat="44.90182" lon="6.20571">
        <ele>1797.7</ele>
        <time>2023-07-24T15:03:26Z</time>
      </trkpt>
      <trkpt lat="44.90183" lon="6.20569">
        <ele>1799.2</ele>
        <time>2023-07-24T15:03:32Z</time>
      </trkpt>
      <trkpt lat="44.90182" lon="6.20569">
        <ele>1798.5</ele>
        <time>2023-07-24T15:03:39Z</time>
      </trkpt>
      <trkpt lat="44.90183" lon="6.20567">
        <ele>1799</ele>
        <time>2023-07-24T15:03:47Z</time>
      </trkpt>
      <trkpt lat="44.90181" lon="6.20568">
        <ele>1799.4</ele>
        <time>2023-07-24T15:03:54Z</time>
      </trkpt>
      <trkpt lat="44.90175" lon="6.20568">
        <ele>1800</ele>
        <time>2023-07-24T15:04:01Z</time>
      </trkpt>
      <trkpt lat="44.90172" lon="6.2057">
        <ele>1800.7</ele>
        <time>2023-07-24T15:04:08Z</time>
      </trkpt>
      <trkpt lat="44.90169" lon="6.20578">
        <ele>1798.2</ele>
        <time>2023-07-24T15:04:15Z</time>
      </trkpt>
      <trkpt lat="44.90168" lon="6.20579">
        <ele>1799.4</ele>
        <time>2023-07-24T15:04:23Z</time>
      </trkpt>
      <trkpt lat="44.90166" lon="6.20584">
        <ele>1798</ele>
        <time>2023-07-24T15:04:29Z</time>
      </trkpt>
      <trkpt lat="44.90164" lon="6.20586">
        <ele>1796.3</ele>
        <time>2023-07-24T15:04:36Z</time>
      </trkpt>
      <trkpt lat="44.90159" lon="6.20586">
        <ele>1793.1</ele>
        <time>2023-07-24T15:04:43Z</time>
      </trkpt>
      <trkpt lat="44.90157" lon="6.20585">
        <ele>1793.9</ele>
        <time>2023-07-24T15:04:50Z</time>
      </trkpt>
      <trkpt lat="44.90155" lon="6.20585">
        <ele>1791.7</ele>
        <time>2023-07-24T15:04:57Z</time>
      </trkpt>
      <trkpt lat="44.90155" lon="6.20583">
        <ele>1791.5</ele>
        <time>2023-07-24T15:05:05Z</time>
      </trkpt>
      <trkpt lat="44.90153" lon="6.20581">
        <ele>1794.6</ele>
        <time>2023-07-24T15:05:11Z</time>
      </trkpt>
      <trkpt lat="44.90153" lon="6.20583">
        <ele>1795.5</ele>
        <time>2023-07-24T15:05:15Z</time>
      </trkpt>
      <trkpt lat="44.90149" lon="6.20582">
        <ele>1796.7</ele>
        <time>2023-07-24T15:05:23Z</time>
      </trkpt>
      <trkpt lat="44.90145" lon="6.20581">
        <ele>1796.8</ele>
        <time>2023-07-24T15:05:30Z</time>
      </trkpt>
      <trkpt lat="44.9014" lon="6.20579">
        <ele>1798.7</ele>
        <time>2023-07-24T15:05:37Z</time>
      </trkpt>
      <trkpt lat="44.90138" lon="6.20578">
        <ele>1798.6</ele>
        <time>2023-07-24T15:05:44Z</time>
      </trkpt>
      <trkpt lat="44.90136" lon="6.20576">
        <ele>1797.7</ele>
        <time>2023-07-24T15:05:51Z</time>
      </trkpt>
      <trkpt lat="44.90133" lon="6.20575">
        <ele>1798.6</ele>
        <time>2023-07-24T15:05:59Z</time>
      </trkpt>
      <trkpt lat="44.90133" lon="6.20575">
        <ele>1797.4</ele>
        <time>2023-07-24T15:06:00Z</time>
      </trkpt>
      <trkpt lat="44.90127" lon="6.20575">
        <ele>1791.8</ele>
        <time>2023-07-24T15:06:07Z</time>
      </trkpt>
      <trkpt lat="44.90124" lon="6.20576">
        <ele>1792.8</ele>
        <time>2023-07-24T15:06:14Z</time>
      </trkpt>
      <trkpt lat="44.90122" lon="6.20583">
        <ele>1791.6</ele>
        <time>2023-07-24T15:06:22Z</time>
      </trkpt>
      <trkpt lat="44.90117" lon="6.2059">
        <ele>1798.1</ele>
        <time>2023-07-24T15:06:29Z</time>
      </trkpt>
      <trkpt lat="44.90115" lon="6.20593">
        <ele>1799.7</ele>
        <time>2023-07-24T15:06:35Z</time>
      </trkpt>
      <trkpt lat="44.90113" lon="6.20597">
        <ele>1801.4</ele>
        <time>2023-07-24T15:06:42Z</time>
      </trkpt>
      <trkpt lat="44.90109" lon="6.20598">
        <ele>1804.9</ele>
        <time>2023-07-24T15:06:49Z</time>
      </trkpt>
      <trkpt lat="44.90104" lon="6.20601">
        <ele>1805.7</ele>
        <time>2023-07-24T15:06:56Z</time>
      </trkpt>
      <trkpt lat="44.90101" lon="6.20604">
        <ele>1807.2</ele>
        <time>2023-07-24T15:07:04Z</time>
      </trkpt>
      <trkpt lat="44.90097" lon="6.20604">
        <ele>1806.8</ele>
        <time>2023-07-24T15:07:10Z</time>
      </trkpt>
      <trkpt lat="44.90091" lon="6.20608">
        <ele>1808.3</ele>
        <time>2023-07-24T15:07:17Z</time>
      </trkpt>
      <trkpt lat="44.90086" lon="6.20613">
        <ele>1810.6</ele>
        <time>2023-07-24T15:07:24Z</time>
      </trkpt>
      <trkpt lat="44.90085" lon="6.2062">
        <ele>1809.2</ele>
        <time>2023-07-24T15:07:32Z</time>
      </trkpt>
      <trkpt lat="44.90081" lon="6.20624">
        <ele>1809.1</ele>
        <time>2023-07-24T15:07:38Z</time>
      </trkpt>
      <trkpt lat="44.90079" lon="6.20632">
        <ele>1809</ele>
        <time>2023-07-24T15:07:46Z</time>
      </trkpt>
      <trkpt lat="44.90078" lon="6.20632">
        <ele>1809.7</ele>
        <time>2023-07-24T15:07:52Z</time>
      </trkpt>
      <trkpt lat="44.90078" lon="6.20629">
        <ele>1812.6</ele>
        <time>2023-07-24T15:07:59Z</time>
      </trkpt>
      <trkpt lat="44.90077" lon="6.20625">
        <ele>1813</ele>
        <time>2023-07-24T15:08:06Z</time>
      </trkpt>
      <trkpt lat="44.90073" lon="6.20623">
        <ele>1816.5</ele>
        <time>2023-07-24T15:08:13Z</time>
      </trkpt>
      <trkpt lat="44.90071" lon="6.20622">
        <ele>1815.2</ele>
        <time>2023-07-24T15:08:20Z</time>
      </trkpt>
      <trkpt lat="44.90071" lon="6.20623">
        <ele>1815.5</ele>
        <time>2023-07-24T15:08:22Z</time>
      </trkpt>
      <trkpt lat="44.90069" lon="6.20619">
        <ele>1815.8</ele>
        <time>2023-07-24T15:08:29Z</time>
      </trkpt>
      <trkpt lat="44.90068" lon="6.20614">
        <ele>1815.9</ele>
        <time>2023-07-24T15:08:36Z</time>
      </trkpt>
      <trkpt lat="44.90064" lon="6.20609">
        <ele>1817.1</ele>
        <time>2023-07-24T15:08:43Z</time>
      </trkpt>
      <trkpt lat="44.90062" lon="6.20604">
        <ele>1819</ele>
        <time>2023-07-24T15:08:50Z</time>
      </trkpt>
      <trkpt lat="44.90057" lon="6.20601">
        <ele>1819.2</ele>
        <time>2023-07-24T15:08:58Z</time>
      </trkpt>
      <trkpt lat="44.90054" lon="6.20605">
        <ele>1819.5</ele>
        <time>2023-07-24T15:09:04Z</time>
      </trkpt>
      <trkpt lat="44.90052" lon="6.20609">
        <ele>1819.9</ele>
        <time>2023-07-24T15:09:11Z</time>
      </trkpt>
      <trkpt lat="44.90049" lon="6.20613">
        <ele>1817.6</ele>
        <time>2023-07-24T15:09:18Z</time>
      </trkpt>
      <trkpt lat="44.90047" lon="6.20612">
        <ele>1820.9</ele>
        <time>2023-07-24T15:09:25Z</time>
      </trkpt>
      <trkpt lat="44.90047" lon="6.20611">
        <ele>1821</ele>
        <time>2023-07-24T15:09:28Z</time>
      </trkpt>
      <trkpt lat="44.90043" lon="6.20609">
        <ele>1821.6</ele>
        <time>2023-07-24T15:09:36Z</time>
      </trkpt>
      <trkpt lat="44.90039" lon="6.20606">
        <ele>1822.2</ele>
        <time>2023-07-24T15:09:43Z</time>
      </trkpt>
      <trkpt lat="44.90033" lon="6.20606">
        <ele>1820</ele>
        <time>2023-07-24T15:09:50Z</time>
      </trkpt>
      <trkpt lat="44.90033" lon="6.20606">
        <ele>1820.2</ele>
        <time>2023-07-24T15:09:58Z</time>
      </trkpt>
      <trkpt lat="44.90032" lon="6.2061">
        <ele>1822.4</ele>
        <time>2023-07-24T15:10:04Z</time>
      </trkpt>
      <trkpt lat="44.90032" lon="6.2061">
        <ele>1822.7</ele>
        <time>2023-07-24T15:10:08Z</time>
      </trkpt>
      <trkpt lat="44.90035" lon="6.20612">
        <ele>1825.7</ele>
        <time>2023-07-24T15:10:20Z</time>
      </trkpt>
      <trkpt lat="44.90035" lon="6.20612">
        <ele>1825.7</ele>
        <time>2023-07-24T15:10:24Z</time>
      </trkpt>
      <trkpt lat="44.90038" lon="6.20618">
        <ele>1827.2</ele>
        <time>2023-07-24T15:10:38Z</time>
      </trkpt>
      <trkpt lat="44.90037" lon="6.20617">
        <ele>1827</ele>
        <time>2023-07-24T15:10:46Z</time>
      </trkpt>
      <trkpt lat="44.9004" lon="6.20616">
        <ele>1827.8</ele>
        <time>2023-07-24T15:10:53Z</time>
      </trkpt>
      <trkpt lat="44.90033" lon="6.20617">
        <ele>1827.2</ele>
        <time>2023-07-24T15:10:59Z</time>
      </trkpt>
      <trkpt lat="44.90028" lon="6.20616">
        <ele>1830.3</ele>
        <time>2023-07-24T15:11:06Z</time>
      </trkpt>
      <trkpt lat="44.90024" lon="6.20615">
        <ele>1830.6</ele>
        <time>2023-07-24T15:11:13Z</time>
      </trkpt>
      <trkpt lat="44.90019" lon="6.20612">
        <ele>1826.2</ele>
        <time>2023-07-24T15:11:20Z</time>
      </trkpt>
      <trkpt lat="44.90014" lon="6.20613">
        <ele>1826.7</ele>
        <time>2023-07-24T15:11:28Z</time>
      </trkpt>
      <trkpt lat="44.90007" lon="6.20611">
        <ele>1822.7</ele>
        <time>2023-07-24T15:11:32Z</time>
      </trkpt>
      <trkpt lat="44.90002" lon="6.20609">
        <ele>1822.2</ele>
        <time>2023-07-24T15:11:40Z</time>
      </trkpt>
      <trkpt lat="44.89999" lon="6.20607">
        <ele>1822.2</ele>
        <time>2023-07-24T15:11:47Z</time>
      </trkpt>
      <trkpt lat="44.89995" lon="6.20604">
        <ele>1822.2</ele>
        <time>2023-07-24T15:11:53Z</time>
      </trkpt>
      <trkpt lat="44.89994" lon="6.20599">
        <ele>1823.3</ele>
        <time>2023-07-24T15:12:00Z</time>
      </trkpt>
      <trkpt lat="44.89989" lon="6.20594">
        <ele>1823.8</ele>
        <time>2023-07-24T15:12:07Z</time>
      </trkpt>
      <trkpt lat="44.89984" lon="6.20592">
        <ele>1824.8</ele>
        <time>2023-07-24T15:12:14Z</time>
      </trkpt>
      <trkpt lat="44.89979" lon="6.20588">
        <ele>1829.4</ele>
        <time>2023-07-24T15:12:22Z</time>
      </trkpt>
      <trkpt lat="44.89976" lon="6.20585">
        <ele>1829.4</ele>
        <time>2023-07-24T15:12:28Z</time>
      </trkpt>
      <trkpt lat="44.89973" lon="6.20583">
        <ele>1829.1</ele>
        <time>2023-07-24T15:12:35Z</time>
      </trkpt>
      <trkpt lat="44.89967" lon="6.20586">
        <ele>1830.1</ele>
        <time>2023-07-24T15:12:42Z</time>
      </trkpt>
      <trkpt lat="44.89965" lon="6.20583">
        <ele>1830.9</ele>
        <time>2023-07-24T15:12:50Z</time>
      </trkpt>
      <trkpt lat="44.89958" lon="6.20583">
        <ele>1830.4</ele>
        <time>2023-07-24T15:12:56Z</time>
      </trkpt>
      <trkpt lat="44.89955" lon="6.20585">
        <ele>1830.5</ele>
        <time>2023-07-24T15:13:04Z</time>
      </trkpt>
      <trkpt lat="44.89953" lon="6.20584">
        <ele>1831.2</ele>
        <time>2023-07-24T15:13:10Z</time>
      </trkpt>
      <trkpt lat="44.89952" lon="6.20581">
        <ele>1831.7</ele>
        <time>2023-07-24T15:13:17Z</time>
      </trkpt>
      <trkpt lat="44.89952" lon="6.20581">
        <ele>1831.9</ele>
        <time>2023-07-24T15:13:18Z</time>
      </trkpt>
      <trkpt lat="44.8995" lon="6.2058">
        <ele>1831.3</ele>
        <time>2023-07-24T15:13:28Z</time>
      </trkpt>
      <trkpt lat="44.89946" lon="6.20577">
        <ele>1831.6</ele>
        <time>2023-07-24T15:13:34Z</time>
      </trkpt>
      <trkpt lat="44.89943" lon="6.20578">
        <ele>1826.6</ele>
        <time>2023-07-24T15:13:41Z</time>
      </trkpt>
      <trkpt lat="44.89937" lon="6.20583">
        <ele>1826.8</ele>
        <time>2023-07-24T15:13:49Z</time>
      </trkpt>
      <trkpt lat="44.89934" lon="6.20592">
        <ele>1828</ele>
        <time>2023-07-24T15:13:55Z</time>
      </trkpt>
      <trkpt lat="44.89934" lon="6.20592">
        <ele>1828.2</ele>
        <time>2023-07-24T15:14:03Z</time>
      </trkpt>
      <trkpt lat="44.89934" lon="6.20592">
        <ele>1828.1</ele>
        <time>2023-07-24T15:14:09Z</time>
      </trkpt>
      <trkpt lat="44.89935" lon="6.20595">
        <ele>1837.2</ele>
        <time>2023-07-24T15:14:33Z</time>
      </trkpt>
      <trkpt lat="44.89936" lon="6.20595">
        <ele>1839.1</ele>
        <time>2023-07-24T15:14:33Z</time>
      </trkpt>
      <trkpt lat="44.89936" lon="6.20595">
        <ele>1841.7</ele>
        <time>2023-07-24T15:15:08Z</time>
      </trkpt>
      <trkpt lat="44.89935" lon="6.20595">
        <ele>1840.8</ele>
        <time>2023-07-24T15:15:13Z</time>
      </trkpt>
      <trkpt lat="44.89929" lon="6.20595">
        <ele>1841.4</ele>
        <time>2023-07-24T15:15:20Z</time>
      </trkpt>
      <trkpt lat="44.89924" lon="6.20592">
        <ele>1842</ele>
        <time>2023-07-24T15:15:28Z</time>
      </trkpt>
      <trkpt lat="44.89917" lon="6.20595">
        <ele>1841.5</ele>
        <time>2023-07-24T15:15:34Z</time>
      </trkpt>
      <trkpt lat="44.89912" lon="6.20597">
        <ele>1840.3</ele>
        <time>2023-07-24T15:15:42Z</time>
      </trkpt>
      <trkpt lat="44.89905" lon="6.20597">
        <ele>1841.6</ele>
        <time>2023-07-24T15:15:48Z</time>
      </trkpt>
      <trkpt lat="44.899" lon="6.20591">
        <ele>1844.1</ele>
        <time>2023-07-24T15:15:55Z</time>
      </trkpt>
      <trkpt lat="44.89895" lon="6.20583">
        <ele>1839.5</ele>
        <time>2023-07-24T15:16:02Z</time>
      </trkpt>
      <trkpt lat="44.89888" lon="6.20583">
        <ele>1839.2</ele>
        <time>2023-07-24T15:16:09Z</time>
      </trkpt>
      <trkpt lat="44.89881" lon="6.20579">
        <ele>1836.1</ele>
        <time>2023-07-24T15:16:16Z</time>
      </trkpt>
      <trkpt lat="44.89874" lon="6.20576">
        <ele>1835.9</ele>
        <time>2023-07-24T15:16:24Z</time>
      </trkpt>
      <trkpt lat="44.89868" lon="6.20578">
        <ele>1833.8</ele>
        <time>2023-07-24T15:16:30Z</time>
      </trkpt>
      <trkpt lat="44.89864" lon="6.20588">
        <ele>1831.2</ele>
        <time>2023-07-24T15:16:36Z</time>
      </trkpt>
      <trkpt lat="44.8986" lon="6.20597">
        <ele>1828.2</ele>
        <time>2023-07-24T15:16:42Z</time>
      </trkpt>
      <trkpt lat="44.89856" lon="6.20607">
        <ele>1825.9</ele>
        <time>2023-07-24T15:16:48Z</time>
      </trkpt>
      <trkpt lat="44.89856" lon="6.20609">
        <ele>1828.8</ele>
        <time>2023-07-24T15:16:54Z</time>
      </trkpt>
      <trkpt lat="44.89856" lon="6.20608">
        <ele>1828.3</ele>
        <time>2023-07-24T15:16:55Z</time>
      </trkpt>
      <trkpt lat="44.89857" lon="6.20606">
        <ele>1828.1</ele>
        <time>2023-07-24T15:17:04Z</time>
      </trkpt>
      <trkpt lat="44.89857" lon="6.20606">
        <ele>1828.2</ele>
        <time>2023-07-24T15:17:06Z</time>
      </trkpt>
      <trkpt lat="44.89855" lon="6.20613">
        <ele>1827.5</ele>
        <time>2023-07-24T15:17:13Z</time>
      </trkpt>
      <trkpt lat="44.89858" lon="6.2062">
        <ele>1829.6</ele>
        <time>2023-07-24T15:17:20Z</time>
      </trkpt>
      <trkpt lat="44.89859" lon="6.20626">
        <ele>1830.2</ele>
        <time>2023-07-24T15:17:27Z</time>
      </trkpt>
      <trkpt lat="44.89858" lon="6.20627">
        <ele>1830.2</ele>
        <time>2023-07-24T15:17:33Z</time>
      </trkpt>
      <trkpt lat="44.89862" lon="6.20625">
        <ele>1831</ele>
        <time>2023-07-24T15:17:42Z</time>
      </trkpt>
      <trkpt lat="44.89865" lon="6.20622">
        <ele>1831.5</ele>
        <time>2023-07-24T15:17:48Z</time>
      </trkpt>
      <trkpt lat="44.89865" lon="6.20617">
        <ele>1833.7</ele>
        <time>2023-07-24T15:17:55Z</time>
      </trkpt>
      <trkpt lat="44.89865" lon="6.20616">
        <ele>1832.8</ele>
        <time>2023-07-24T15:18:02Z</time>
      </trkpt>
    </trkseg>
  </trk>
</gpx>